<?xml version="1.0" encoding="UTF-8" standalone="no" ?>
<gpx xmlns="http://www.topografix.com/GPX/1/1" xmlns:xsi="http://www.w3.org/2001/XMLSchema-instance" xsi:schemaLocation="http://www.topografix.com/GPX/1/1 http://www.topografix.com/GPX/1/1/gpx.xsd" version="1.1" creator="VisuGPX - https://www.visugpx.com">
  <metadata>
    <name>2016-11-03 Walk from Villie-Morgon</name>
    <desc><![CDATA[2016-11-03 Walk from Villie-Morgon]]></desc>
  </metadata>
  <wpt lat="46.1616" lon="4.67928">
    <ele>294</ele>
    <name><![CDATA[2016-11-03 08:31 (Start)]]></name>
  </wpt>
  <wpt lat="46.16155" lon="4.67931">
    <ele>294</ele>
    <name><![CDATA[2016-11-03 08:31 (End)]]></name>
    <desc><![CDATA[Created by Google My Tracks on Android  Name: 2016-11-03 08:31 Activity type: walking Description: - Total distance: 24.84 km (15.4 mi) Total time: 7:15:48 Moving time: 7:04:47 Average speed: 3.42 km/h (2.1 mi/h) Average moving speed: 3.51 km/h (2.2 mi/h) Max speed: 5.40 km/h (3.4 mi/h) Average pace: 17:33 min/km (28:14 min/mi) Average moving pace: 17:06 min/km (27:32 min/mi) Fastest pace: 11:07 min/km (17:53 min/mi) Max elevation: 612 m (2008 ft) Min elevation: 83 m (273 ft) Elevation gain: 1078 m (3536 ft) Max grade: 619 % Min grade: -21 % Recorded: 03/11/2016 08:31]]></desc>
  </wpt>
  <trk>
    <name><![CDATA[2016-11-03 08:31]]></name>
    <trkseg>
      <trkpt lat="46.1616" lon="4.67928">
        <ele>294</ele>
        <time>2016-11-03T08:31:19.255Z</time>
      </trkpt>
      <trkpt lat="46.16141" lon="4.67916">
        <ele>296</ele>
        <time>2016-11-03T08:31:25.968Z</time>
      </trkpt>
      <trkpt lat="46.16154" lon="4.6792">
        <ele>294</ele>
        <time>2016-11-03T08:31:27Z</time>
      </trkpt>
      <trkpt lat="46.16147" lon="4.67925">
        <ele>294</ele>
        <time>2016-11-03T08:36:38Z</time>
      </trkpt>
      <trkpt lat="46.16146" lon="4.67925">
        <ele>294</ele>
        <time>2016-11-03T08:36:39Z</time>
      </trkpt>
      <trkpt lat="46.16138" lon="4.67931">
        <ele>293</ele>
        <time>2016-11-03T08:36:51Z</time>
      </trkpt>
      <trkpt lat="46.16137" lon="4.67931">
        <ele>293</ele>
        <time>2016-11-03T08:36:52Z</time>
      </trkpt>
      <trkpt lat="46.16138" lon="4.67943">
        <ele>293</ele>
        <time>2016-11-03T08:37:01Z</time>
      </trkpt>
      <trkpt lat="46.16137" lon="4.67945">
        <ele>293</ele>
        <time>2016-11-03T08:37:02Z</time>
      </trkpt>
      <trkpt lat="46.16136" lon="4.67957">
        <ele>293</ele>
        <time>2016-11-03T08:37:09Z</time>
      </trkpt>
      <trkpt lat="46.16136" lon="4.67958">
        <ele>293</ele>
        <time>2016-11-03T08:37:10Z</time>
      </trkpt>
      <trkpt lat="46.16137" lon="4.6797">
        <ele>292</ele>
        <time>2016-11-03T08:37:20Z</time>
      </trkpt>
      <trkpt lat="46.16137" lon="4.67971">
        <ele>292</ele>
        <time>2016-11-03T08:37:21Z</time>
      </trkpt>
      <trkpt lat="46.16139" lon="4.67984">
        <ele>292</ele>
        <time>2016-11-03T08:37:28Z</time>
      </trkpt>
      <trkpt lat="46.1614" lon="4.67985">
        <ele>292</ele>
        <time>2016-11-03T08:37:29Z</time>
      </trkpt>
      <trkpt lat="46.16141" lon="4.67997">
        <ele>292</ele>
        <time>2016-11-03T08:37:36Z</time>
      </trkpt>
      <trkpt lat="46.16141" lon="4.67999">
        <ele>292</ele>
        <time>2016-11-03T08:37:37Z</time>
      </trkpt>
      <trkpt lat="46.16143" lon="4.68011">
        <ele>289</ele>
        <time>2016-11-03T08:37:46Z</time>
      </trkpt>
      <trkpt lat="46.16143" lon="4.68013">
        <ele>289</ele>
        <time>2016-11-03T08:37:47Z</time>
      </trkpt>
      <trkpt lat="46.1615" lon="4.68008">
        <ele>289</ele>
        <time>2016-11-03T08:38:01Z</time>
      </trkpt>
      <trkpt lat="46.16151" lon="4.68008">
        <ele>289</ele>
        <time>2016-11-03T08:38:02Z</time>
      </trkpt>
      <trkpt lat="46.16159" lon="4.68001">
        <ele>289</ele>
        <time>2016-11-03T08:38:12Z</time>
      </trkpt>
      <trkpt lat="46.16159" lon="4.68001">
        <ele>289</ele>
        <time>2016-11-03T08:38:13Z</time>
      </trkpt>
      <trkpt lat="46.16167" lon="4.67995">
        <ele>290</ele>
        <time>2016-11-03T08:38:52Z</time>
      </trkpt>
      <trkpt lat="46.16168" lon="4.67994">
        <ele>290</ele>
        <time>2016-11-03T08:38:53Z</time>
      </trkpt>
      <trkpt lat="46.16176" lon="4.68">
        <ele>290</ele>
        <time>2016-11-03T08:39:03Z</time>
      </trkpt>
      <trkpt lat="46.16177" lon="4.68001">
        <ele>289</ele>
        <time>2016-11-03T08:39:04Z</time>
      </trkpt>
      <trkpt lat="46.16183" lon="4.6801">
        <ele>288</ele>
        <time>2016-11-03T08:39:14Z</time>
      </trkpt>
      <trkpt lat="46.16184" lon="4.6801">
        <ele>288</ele>
        <time>2016-11-03T08:39:15Z</time>
      </trkpt>
      <trkpt lat="46.16193" lon="4.68013">
        <ele>288</ele>
        <time>2016-11-03T08:39:23Z</time>
      </trkpt>
      <trkpt lat="46.16194" lon="4.68013">
        <ele>287</ele>
        <time>2016-11-03T08:39:24Z</time>
      </trkpt>
      <trkpt lat="46.16202" lon="4.68015">
        <ele>287</ele>
        <time>2016-11-03T08:39:31Z</time>
      </trkpt>
      <trkpt lat="46.16203" lon="4.68015">
        <ele>287</ele>
        <time>2016-11-03T08:39:32Z</time>
      </trkpt>
      <trkpt lat="46.16211" lon="4.68018">
        <ele>287</ele>
        <time>2016-11-03T08:39:39Z</time>
      </trkpt>
      <trkpt lat="46.16212" lon="4.68018">
        <ele>287</ele>
        <time>2016-11-03T08:39:40Z</time>
      </trkpt>
      <trkpt lat="46.16221" lon="4.68019">
        <ele>287</ele>
        <time>2016-11-03T08:39:47Z</time>
      </trkpt>
      <trkpt lat="46.16222" lon="4.68019">
        <ele>287</ele>
        <time>2016-11-03T08:39:48Z</time>
      </trkpt>
      <trkpt lat="46.16231" lon="4.6802">
        <ele>287</ele>
        <time>2016-11-03T08:39:55Z</time>
      </trkpt>
      <trkpt lat="46.16232" lon="4.6802">
        <ele>287</ele>
        <time>2016-11-03T08:39:56Z</time>
      </trkpt>
      <trkpt lat="46.16241" lon="4.68022">
        <ele>287</ele>
        <time>2016-11-03T08:40:03Z</time>
      </trkpt>
      <trkpt lat="46.16242" lon="4.68022">
        <ele>287</ele>
        <time>2016-11-03T08:40:04Z</time>
      </trkpt>
      <trkpt lat="46.1625" lon="4.6802">
        <ele>287</ele>
        <time>2016-11-03T08:40:10Z</time>
      </trkpt>
      <trkpt lat="46.16251" lon="4.6802">
        <ele>286</ele>
        <time>2016-11-03T08:40:11Z</time>
      </trkpt>
      <trkpt lat="46.16259" lon="4.6802">
        <ele>286</ele>
        <time>2016-11-03T08:40:18Z</time>
      </trkpt>
      <trkpt lat="46.1626" lon="4.68019">
        <ele>286</ele>
        <time>2016-11-03T08:40:19Z</time>
      </trkpt>
      <trkpt lat="46.16268" lon="4.6802">
        <ele>286</ele>
        <time>2016-11-03T08:40:26Z</time>
      </trkpt>
      <trkpt lat="46.1627" lon="4.6802">
        <ele>286</ele>
        <time>2016-11-03T08:40:27Z</time>
      </trkpt>
      <trkpt lat="46.16277" lon="4.68021">
        <ele>285</ele>
        <time>2016-11-03T08:40:33Z</time>
      </trkpt>
      <trkpt lat="46.16279" lon="4.68021">
        <ele>285</ele>
        <time>2016-11-03T08:40:34Z</time>
      </trkpt>
      <trkpt lat="46.16288" lon="4.6802">
        <ele>285</ele>
        <time>2016-11-03T08:40:41Z</time>
      </trkpt>
      <trkpt lat="46.16289" lon="4.6802">
        <ele>285</ele>
        <time>2016-11-03T08:40:42Z</time>
      </trkpt>
      <trkpt lat="46.16297" lon="4.6802">
        <ele>285</ele>
        <time>2016-11-03T08:40:49Z</time>
      </trkpt>
      <trkpt lat="46.16298" lon="4.6802">
        <ele>285</ele>
        <time>2016-11-03T08:40:50Z</time>
      </trkpt>
      <trkpt lat="46.16306" lon="4.6802">
        <ele>285</ele>
        <time>2016-11-03T08:40:55Z</time>
      </trkpt>
      <trkpt lat="46.16307" lon="4.6802">
        <ele>285</ele>
        <time>2016-11-03T08:40:56Z</time>
      </trkpt>
      <trkpt lat="46.16316" lon="4.6802">
        <ele>285</ele>
        <time>2016-11-03T08:41:02Z</time>
      </trkpt>
      <trkpt lat="46.16318" lon="4.6802">
        <ele>285</ele>
        <time>2016-11-03T08:41:03Z</time>
      </trkpt>
      <trkpt lat="46.16326" lon="4.68022">
        <ele>285</ele>
        <time>2016-11-03T08:41:10Z</time>
      </trkpt>
      <trkpt lat="46.16327" lon="4.68022">
        <ele>285</ele>
        <time>2016-11-03T08:41:11Z</time>
      </trkpt>
      <trkpt lat="46.16335" lon="4.68022">
        <ele>284</ele>
        <time>2016-11-03T08:41:17Z</time>
      </trkpt>
      <trkpt lat="46.16336" lon="4.68022">
        <ele>284</ele>
        <time>2016-11-03T08:41:18Z</time>
      </trkpt>
      <trkpt lat="46.16345" lon="4.68021">
        <ele>284</ele>
        <time>2016-11-03T08:41:24Z</time>
      </trkpt>
      <trkpt lat="46.16346" lon="4.6802">
        <ele>284</ele>
        <time>2016-11-03T08:41:25Z</time>
      </trkpt>
      <trkpt lat="46.16355" lon="4.6802">
        <ele>284</ele>
        <time>2016-11-03T08:41:31Z</time>
      </trkpt>
      <trkpt lat="46.16356" lon="4.6802">
        <ele>284</ele>
        <time>2016-11-03T08:41:32Z</time>
      </trkpt>
      <trkpt lat="46.16364" lon="4.68021">
        <ele>284</ele>
        <time>2016-11-03T08:41:38Z</time>
      </trkpt>
      <trkpt lat="46.16365" lon="4.68021">
        <ele>284</ele>
        <time>2016-11-03T08:41:39Z</time>
      </trkpt>
      <trkpt lat="46.16373" lon="4.68022">
        <ele>284</ele>
        <time>2016-11-03T08:41:45Z</time>
      </trkpt>
      <trkpt lat="46.16374" lon="4.68022">
        <ele>284</ele>
        <time>2016-11-03T08:41:46Z</time>
      </trkpt>
      <trkpt lat="46.16382" lon="4.68024">
        <ele>284</ele>
        <time>2016-11-03T08:41:53Z</time>
      </trkpt>
      <trkpt lat="46.16384" lon="4.68024">
        <ele>284</ele>
        <time>2016-11-03T08:41:54Z</time>
      </trkpt>
      <trkpt lat="46.16392" lon="4.68025">
        <ele>283</ele>
        <time>2016-11-03T08:42:01Z</time>
      </trkpt>
      <trkpt lat="46.16393" lon="4.68026">
        <ele>283</ele>
        <time>2016-11-03T08:42:02Z</time>
      </trkpt>
      <trkpt lat="46.16401" lon="4.68029">
        <ele>283</ele>
        <time>2016-11-03T08:42:09Z</time>
      </trkpt>
      <trkpt lat="46.16403" lon="4.68029">
        <ele>283</ele>
        <time>2016-11-03T08:42:10Z</time>
      </trkpt>
      <trkpt lat="46.1641" lon="4.68029">
        <ele>283</ele>
        <time>2016-11-03T08:42:16Z</time>
      </trkpt>
      <trkpt lat="46.16412" lon="4.68029">
        <ele>283</ele>
        <time>2016-11-03T08:42:17Z</time>
      </trkpt>
      <trkpt lat="46.1642" lon="4.68029">
        <ele>282</ele>
        <time>2016-11-03T08:42:23Z</time>
      </trkpt>
      <trkpt lat="46.16421" lon="4.6803">
        <ele>282</ele>
        <time>2016-11-03T08:42:24Z</time>
      </trkpt>
      <trkpt lat="46.16429" lon="4.68029">
        <ele>282</ele>
        <time>2016-11-03T08:42:30Z</time>
      </trkpt>
      <trkpt lat="46.16431" lon="4.68029">
        <ele>282</ele>
        <time>2016-11-03T08:42:31Z</time>
      </trkpt>
      <trkpt lat="46.1644" lon="4.6803">
        <ele>282</ele>
        <time>2016-11-03T08:42:38Z</time>
      </trkpt>
      <trkpt lat="46.16441" lon="4.6803">
        <ele>282</ele>
        <time>2016-11-03T08:42:39Z</time>
      </trkpt>
      <trkpt lat="46.16449" lon="4.68029">
        <ele>282</ele>
        <time>2016-11-03T08:42:45Z</time>
      </trkpt>
      <trkpt lat="46.16451" lon="4.68029">
        <ele>282</ele>
        <time>2016-11-03T08:42:46Z</time>
      </trkpt>
      <trkpt lat="46.16458" lon="4.68028">
        <ele>282</ele>
        <time>2016-11-03T08:42:51Z</time>
      </trkpt>
      <trkpt lat="46.1646" lon="4.68028">
        <ele>282</ele>
        <time>2016-11-03T08:42:52Z</time>
      </trkpt>
      <trkpt lat="46.16467" lon="4.68028">
        <ele>282</ele>
        <time>2016-11-03T08:42:57Z</time>
      </trkpt>
      <trkpt lat="46.16469" lon="4.68028">
        <ele>282</ele>
        <time>2016-11-03T08:42:58Z</time>
      </trkpt>
      <trkpt lat="46.16477" lon="4.68028">
        <ele>282</ele>
        <time>2016-11-03T08:43:04Z</time>
      </trkpt>
      <trkpt lat="46.16478" lon="4.68028">
        <ele>282</ele>
        <time>2016-11-03T08:43:05Z</time>
      </trkpt>
      <trkpt lat="46.16486" lon="4.68028">
        <ele>282</ele>
        <time>2016-11-03T08:43:12Z</time>
      </trkpt>
      <trkpt lat="46.16488" lon="4.68028">
        <ele>282</ele>
        <time>2016-11-03T08:43:13Z</time>
      </trkpt>
      <trkpt lat="46.16497" lon="4.68028">
        <ele>282</ele>
        <time>2016-11-03T08:43:19Z</time>
      </trkpt>
      <trkpt lat="46.16498" lon="4.68028">
        <ele>282</ele>
        <time>2016-11-03T08:43:20Z</time>
      </trkpt>
      <trkpt lat="46.16507" lon="4.68029">
        <ele>282</ele>
        <time>2016-11-03T08:43:26Z</time>
      </trkpt>
      <trkpt lat="46.16508" lon="4.68029">
        <ele>282</ele>
        <time>2016-11-03T08:43:27Z</time>
      </trkpt>
      <trkpt lat="46.16517" lon="4.6803">
        <ele>282</ele>
        <time>2016-11-03T08:43:33Z</time>
      </trkpt>
      <trkpt lat="46.16518" lon="4.6803">
        <ele>282</ele>
        <time>2016-11-03T08:43:34Z</time>
      </trkpt>
      <trkpt lat="46.16526" lon="4.68031">
        <ele>282</ele>
        <time>2016-11-03T08:44:12Z</time>
      </trkpt>
      <trkpt lat="46.16527" lon="4.68031">
        <ele>282</ele>
        <time>2016-11-03T08:44:13Z</time>
      </trkpt>
      <trkpt lat="46.16536" lon="4.68033">
        <ele>282</ele>
        <time>2016-11-03T08:44:20Z</time>
      </trkpt>
      <trkpt lat="46.16537" lon="4.68033">
        <ele>282</ele>
        <time>2016-11-03T08:44:21Z</time>
      </trkpt>
      <trkpt lat="46.16545" lon="4.68037">
        <ele>282</ele>
        <time>2016-11-03T08:44:27Z</time>
      </trkpt>
      <trkpt lat="46.16546" lon="4.68037">
        <ele>282</ele>
        <time>2016-11-03T08:44:28Z</time>
      </trkpt>
      <trkpt lat="46.16553" lon="4.68043">
        <ele>282</ele>
        <time>2016-11-03T08:44:34Z</time>
      </trkpt>
      <trkpt lat="46.16554" lon="4.68044">
        <ele>282</ele>
        <time>2016-11-03T08:44:35Z</time>
      </trkpt>
      <trkpt lat="46.16562" lon="4.68051">
        <ele>282</ele>
        <time>2016-11-03T08:44:41Z</time>
      </trkpt>
      <trkpt lat="46.16563" lon="4.68052">
        <ele>282</ele>
        <time>2016-11-03T08:44:42Z</time>
      </trkpt>
      <trkpt lat="46.16569" lon="4.6806">
        <ele>282</ele>
        <time>2016-11-03T08:44:47Z</time>
      </trkpt>
      <trkpt lat="46.1657" lon="4.68061">
        <ele>282</ele>
        <time>2016-11-03T08:44:48Z</time>
      </trkpt>
      <trkpt lat="46.16576" lon="4.6807">
        <ele>282</ele>
        <time>2016-11-03T08:44:54Z</time>
      </trkpt>
      <trkpt lat="46.16577" lon="4.68071">
        <ele>282</ele>
        <time>2016-11-03T08:44:55Z</time>
      </trkpt>
      <trkpt lat="46.16582" lon="4.6808">
        <ele>281</ele>
        <time>2016-11-03T08:45:01Z</time>
      </trkpt>
      <trkpt lat="46.16583" lon="4.68082">
        <ele>281</ele>
        <time>2016-11-03T08:45:02Z</time>
      </trkpt>
      <trkpt lat="46.16588" lon="4.6809">
        <ele>281</ele>
        <time>2016-11-03T08:45:08Z</time>
      </trkpt>
      <trkpt lat="46.16589" lon="4.68092">
        <ele>280</ele>
        <time>2016-11-03T08:45:09Z</time>
      </trkpt>
      <trkpt lat="46.16596" lon="4.68099">
        <ele>280</ele>
        <time>2016-11-03T08:45:15Z</time>
      </trkpt>
      <trkpt lat="46.16597" lon="4.681">
        <ele>280</ele>
        <time>2016-11-03T08:45:16Z</time>
      </trkpt>
      <trkpt lat="46.16605" lon="4.68106">
        <ele>280</ele>
        <time>2016-11-03T08:45:22Z</time>
      </trkpt>
      <trkpt lat="46.16606" lon="4.68106">
        <ele>280</ele>
        <time>2016-11-03T08:45:23Z</time>
      </trkpt>
      <trkpt lat="46.16613" lon="4.68111">
        <ele>280</ele>
        <time>2016-11-03T08:45:29Z</time>
      </trkpt>
      <trkpt lat="46.16614" lon="4.68112">
        <ele>280</ele>
        <time>2016-11-03T08:45:30Z</time>
      </trkpt>
      <trkpt lat="46.16622" lon="4.68117">
        <ele>280</ele>
        <time>2016-11-03T08:45:37Z</time>
      </trkpt>
      <trkpt lat="46.16623" lon="4.68118">
        <ele>280</ele>
        <time>2016-11-03T08:45:38Z</time>
      </trkpt>
      <trkpt lat="46.16631" lon="4.68123">
        <ele>280</ele>
        <time>2016-11-03T08:45:45Z</time>
      </trkpt>
      <trkpt lat="46.16632" lon="4.68124">
        <ele>280</ele>
        <time>2016-11-03T08:45:46Z</time>
      </trkpt>
      <trkpt lat="46.1664" lon="4.68128">
        <ele>280</ele>
        <time>2016-11-03T08:45:53Z</time>
      </trkpt>
      <trkpt lat="46.16641" lon="4.68128">
        <ele>280</ele>
        <time>2016-11-03T08:45:54Z</time>
      </trkpt>
      <trkpt lat="46.16649" lon="4.68132">
        <ele>280</ele>
        <time>2016-11-03T08:46:00Z</time>
      </trkpt>
      <trkpt lat="46.16651" lon="4.68132">
        <ele>280</ele>
        <time>2016-11-03T08:46:01Z</time>
      </trkpt>
      <trkpt lat="46.16658" lon="4.68136">
        <ele>280</ele>
        <time>2016-11-03T08:46:07Z</time>
      </trkpt>
      <trkpt lat="46.16659" lon="4.68136">
        <ele>280</ele>
        <time>2016-11-03T08:46:08Z</time>
      </trkpt>
      <trkpt lat="46.16667" lon="4.68139">
        <ele>281</ele>
        <time>2016-11-03T08:46:15Z</time>
      </trkpt>
      <trkpt lat="46.16668" lon="4.6814">
        <ele>281</ele>
        <time>2016-11-03T08:46:16Z</time>
      </trkpt>
      <trkpt lat="46.16676" lon="4.6814">
        <ele>281</ele>
        <time>2016-11-03T08:46:26Z</time>
      </trkpt>
      <trkpt lat="46.16678" lon="4.6814">
        <ele>281</ele>
        <time>2016-11-03T08:46:27Z</time>
      </trkpt>
      <trkpt lat="46.16686" lon="4.6814">
        <ele>281</ele>
        <time>2016-11-03T08:46:32Z</time>
      </trkpt>
      <trkpt lat="46.16688" lon="4.68141">
        <ele>281</ele>
        <time>2016-11-03T08:46:33Z</time>
      </trkpt>
      <trkpt lat="46.16696" lon="4.68141">
        <ele>281</ele>
        <time>2016-11-03T08:46:37Z</time>
      </trkpt>
      <trkpt lat="46.16697" lon="4.68141">
        <ele>281</ele>
        <time>2016-11-03T08:46:38Z</time>
      </trkpt>
      <trkpt lat="46.16706" lon="4.68143">
        <ele>281</ele>
        <time>2016-11-03T08:46:44Z</time>
      </trkpt>
      <trkpt lat="46.16707" lon="4.68144">
        <ele>281</ele>
        <time>2016-11-03T08:46:45Z</time>
      </trkpt>
      <trkpt lat="46.16714" lon="4.68149">
        <ele>281</ele>
        <time>2016-11-03T08:46:50Z</time>
      </trkpt>
      <trkpt lat="46.16715" lon="4.6815">
        <ele>281</ele>
        <time>2016-11-03T08:46:51Z</time>
      </trkpt>
      <trkpt lat="46.16722" lon="4.68156">
        <ele>280</ele>
        <time>2016-11-03T08:46:57Z</time>
      </trkpt>
      <trkpt lat="46.16723" lon="4.68157">
        <ele>280</ele>
        <time>2016-11-03T08:46:58Z</time>
      </trkpt>
      <trkpt lat="46.16731" lon="4.6816">
        <ele>280</ele>
        <time>2016-11-03T08:47:04Z</time>
      </trkpt>
      <trkpt lat="46.16732" lon="4.6816">
        <ele>280</ele>
        <time>2016-11-03T08:47:05Z</time>
      </trkpt>
      <trkpt lat="46.1674" lon="4.68161">
        <ele>280</ele>
        <time>2016-11-03T08:47:11Z</time>
      </trkpt>
      <trkpt lat="46.16742" lon="4.68161">
        <ele>280</ele>
        <time>2016-11-03T08:47:12Z</time>
      </trkpt>
      <trkpt lat="46.1675" lon="4.68161">
        <ele>279</ele>
        <time>2016-11-03T08:47:17Z</time>
      </trkpt>
      <trkpt lat="46.16752" lon="4.68161">
        <ele>279</ele>
        <time>2016-11-03T08:47:18Z</time>
      </trkpt>
      <trkpt lat="46.16761" lon="4.68163">
        <ele>279</ele>
        <time>2016-11-03T08:47:28Z</time>
      </trkpt>
      <trkpt lat="46.16761" lon="4.68164">
        <ele>279</ele>
        <time>2016-11-03T08:47:29Z</time>
      </trkpt>
      <trkpt lat="46.16769" lon="4.68167">
        <ele>277</ele>
        <time>2016-11-03T08:47:40Z</time>
      </trkpt>
      <trkpt lat="46.16771" lon="4.68167">
        <ele>277</ele>
        <time>2016-11-03T08:47:41Z</time>
      </trkpt>
      <trkpt lat="46.16779" lon="4.68168">
        <ele>277</ele>
        <time>2016-11-03T08:47:47Z</time>
      </trkpt>
      <trkpt lat="46.16781" lon="4.68168">
        <ele>277</ele>
        <time>2016-11-03T08:47:48Z</time>
      </trkpt>
      <trkpt lat="46.16789" lon="4.68171">
        <ele>276</ele>
        <time>2016-11-03T08:47:55Z</time>
      </trkpt>
      <trkpt lat="46.1679" lon="4.68172">
        <ele>276</ele>
        <time>2016-11-03T08:47:56Z</time>
      </trkpt>
      <trkpt lat="46.16798" lon="4.68172">
        <ele>276</ele>
        <time>2016-11-03T08:48:02Z</time>
      </trkpt>
      <trkpt lat="46.168" lon="4.68172">
        <ele>276</ele>
        <time>2016-11-03T08:48:03Z</time>
      </trkpt>
      <trkpt lat="46.16807" lon="4.68174">
        <ele>276</ele>
        <time>2016-11-03T08:48:08Z</time>
      </trkpt>
      <trkpt lat="46.16809" lon="4.68175">
        <ele>276</ele>
        <time>2016-11-03T08:48:09Z</time>
      </trkpt>
      <trkpt lat="46.16818" lon="4.68177">
        <ele>275</ele>
        <time>2016-11-03T08:48:15Z</time>
      </trkpt>
      <trkpt lat="46.16819" lon="4.68178">
        <ele>275</ele>
        <time>2016-11-03T08:48:16Z</time>
      </trkpt>
      <trkpt lat="46.16827" lon="4.6818">
        <ele>275</ele>
        <time>2016-11-03T08:48:22Z</time>
      </trkpt>
      <trkpt lat="46.16828" lon="4.6818">
        <ele>275</ele>
        <time>2016-11-03T08:48:23Z</time>
      </trkpt>
      <trkpt lat="46.16836" lon="4.6818">
        <ele>273</ele>
        <time>2016-11-03T08:48:28Z</time>
      </trkpt>
      <trkpt lat="46.16838" lon="4.6818">
        <ele>273</ele>
        <time>2016-11-03T08:48:29Z</time>
      </trkpt>
      <trkpt lat="46.16846" lon="4.68182">
        <ele>272</ele>
        <time>2016-11-03T08:48:35Z</time>
      </trkpt>
      <trkpt lat="46.16848" lon="4.68182">
        <ele>272</ele>
        <time>2016-11-03T08:48:36Z</time>
      </trkpt>
      <trkpt lat="46.16856" lon="4.68186">
        <ele>271</ele>
        <time>2016-11-03T08:48:42Z</time>
      </trkpt>
      <trkpt lat="46.16857" lon="4.68187">
        <ele>271</ele>
        <time>2016-11-03T08:48:43Z</time>
      </trkpt>
      <trkpt lat="46.16865" lon="4.68189">
        <ele>270</ele>
        <time>2016-11-03T08:48:50Z</time>
      </trkpt>
      <trkpt lat="46.16866" lon="4.68189">
        <ele>270</ele>
        <time>2016-11-03T08:48:51Z</time>
      </trkpt>
      <trkpt lat="46.16874" lon="4.68188">
        <ele>269</ele>
        <time>2016-11-03T08:48:59Z</time>
      </trkpt>
      <trkpt lat="46.16875" lon="4.68188">
        <ele>269</ele>
        <time>2016-11-03T08:49:00Z</time>
      </trkpt>
      <trkpt lat="46.16883" lon="4.68193">
        <ele>269</ele>
        <time>2016-11-03T08:49:18Z</time>
      </trkpt>
      <trkpt lat="46.16884" lon="4.68193">
        <ele>269</ele>
        <time>2016-11-03T08:49:19Z</time>
      </trkpt>
      <trkpt lat="46.16892" lon="4.68196">
        <ele>268</ele>
        <time>2016-11-03T08:49:31Z</time>
      </trkpt>
      <trkpt lat="46.16893" lon="4.68196">
        <ele>268</ele>
        <time>2016-11-03T08:49:32Z</time>
      </trkpt>
      <trkpt lat="46.16902" lon="4.68197">
        <ele>268</ele>
        <time>2016-11-03T08:49:38Z</time>
      </trkpt>
      <trkpt lat="46.16903" lon="4.68197">
        <ele>268</ele>
        <time>2016-11-03T08:49:39Z</time>
      </trkpt>
      <trkpt lat="46.16911" lon="4.682">
        <ele>268</ele>
        <time>2016-11-03T08:49:46Z</time>
      </trkpt>
      <trkpt lat="46.16913" lon="4.68201">
        <ele>268</ele>
        <time>2016-11-03T08:49:47Z</time>
      </trkpt>
      <trkpt lat="46.1692" lon="4.68206">
        <ele>262</ele>
        <time>2016-11-03T08:49:53Z</time>
      </trkpt>
      <trkpt lat="46.16921" lon="4.68207">
        <ele>262</ele>
        <time>2016-11-03T08:49:54Z</time>
      </trkpt>
      <trkpt lat="46.16929" lon="4.6821">
        <ele>262</ele>
        <time>2016-11-03T08:50:00Z</time>
      </trkpt>
      <trkpt lat="46.16931" lon="4.6821">
        <ele>262</ele>
        <time>2016-11-03T08:50:01Z</time>
      </trkpt>
      <trkpt lat="46.16939" lon="4.68211">
        <ele>262</ele>
        <time>2016-11-03T08:50:08Z</time>
      </trkpt>
      <trkpt lat="46.16941" lon="4.68211">
        <ele>261</ele>
        <time>2016-11-03T08:50:09Z</time>
      </trkpt>
      <trkpt lat="46.16949" lon="4.68213">
        <ele>261</ele>
        <time>2016-11-03T08:50:15Z</time>
      </trkpt>
      <trkpt lat="46.1695" lon="4.68214">
        <ele>261</ele>
        <time>2016-11-03T08:50:16Z</time>
      </trkpt>
      <trkpt lat="46.16958" lon="4.68217">
        <ele>261</ele>
        <time>2016-11-03T08:50:23Z</time>
      </trkpt>
      <trkpt lat="46.16959" lon="4.68217">
        <ele>261</ele>
        <time>2016-11-03T08:50:24Z</time>
      </trkpt>
      <trkpt lat="46.16966" lon="4.68225">
        <ele>260</ele>
        <time>2016-11-03T08:50:33Z</time>
      </trkpt>
      <trkpt lat="46.16967" lon="4.68226">
        <ele>260</ele>
        <time>2016-11-03T08:50:34Z</time>
      </trkpt>
      <trkpt lat="46.16973" lon="4.68218">
        <ele>260</ele>
        <time>2016-11-03T08:50:41Z</time>
      </trkpt>
      <trkpt lat="46.16974" lon="4.68216">
        <ele>260</ele>
        <time>2016-11-03T08:50:42Z</time>
      </trkpt>
      <trkpt lat="46.16978" lon="4.68205">
        <ele>260</ele>
        <time>2016-11-03T08:50:48Z</time>
      </trkpt>
      <trkpt lat="46.16979" lon="4.68204">
        <ele>260</ele>
        <time>2016-11-03T08:50:49Z</time>
      </trkpt>
      <trkpt lat="46.16982" lon="4.68194">
        <ele>260</ele>
        <time>2016-11-03T08:50:55Z</time>
      </trkpt>
      <trkpt lat="46.16983" lon="4.68192">
        <ele>260</ele>
        <time>2016-11-03T08:50:56Z</time>
      </trkpt>
      <trkpt lat="46.16988" lon="4.68183">
        <ele>260</ele>
        <time>2016-11-03T08:51:02Z</time>
      </trkpt>
      <trkpt lat="46.16988" lon="4.68181">
        <ele>260</ele>
        <time>2016-11-03T08:51:03Z</time>
      </trkpt>
      <trkpt lat="46.16993" lon="4.68171">
        <ele>259</ele>
        <time>2016-11-03T08:51:09Z</time>
      </trkpt>
      <trkpt lat="46.16994" lon="4.6817">
        <ele>259</ele>
        <time>2016-11-03T08:51:10Z</time>
      </trkpt>
      <trkpt lat="46.16999" lon="4.68161">
        <ele>260</ele>
        <time>2016-11-03T08:51:16Z</time>
      </trkpt>
      <trkpt lat="46.17" lon="4.6816">
        <ele>259</ele>
        <time>2016-11-03T08:51:17Z</time>
      </trkpt>
      <trkpt lat="46.17007" lon="4.68152">
        <ele>259</ele>
        <time>2016-11-03T08:51:23Z</time>
      </trkpt>
      <trkpt lat="46.17008" lon="4.6815">
        <ele>259</ele>
        <time>2016-11-03T08:51:24Z</time>
      </trkpt>
      <trkpt lat="46.17015" lon="4.68143">
        <ele>259</ele>
        <time>2016-11-03T08:51:30Z</time>
      </trkpt>
      <trkpt lat="46.17016" lon="4.68142">
        <ele>259</ele>
        <time>2016-11-03T08:51:31Z</time>
      </trkpt>
      <trkpt lat="46.17023" lon="4.68135">
        <ele>259</ele>
        <time>2016-11-03T08:51:42Z</time>
      </trkpt>
      <trkpt lat="46.17024" lon="4.68134">
        <ele>259</ele>
        <time>2016-11-03T08:51:43Z</time>
      </trkpt>
      <trkpt lat="46.17031" lon="4.68128">
        <ele>259</ele>
        <time>2016-11-03T08:51:50Z</time>
      </trkpt>
      <trkpt lat="46.17032" lon="4.68128">
        <ele>259</ele>
        <time>2016-11-03T08:51:51Z</time>
      </trkpt>
      <trkpt lat="46.1704" lon="4.68122">
        <ele>259</ele>
        <time>2016-11-03T08:51:58Z</time>
      </trkpt>
      <trkpt lat="46.17041" lon="4.68122">
        <ele>259</ele>
        <time>2016-11-03T08:51:59Z</time>
      </trkpt>
      <trkpt lat="46.17049" lon="4.68117">
        <ele>259</ele>
        <time>2016-11-03T08:52:06Z</time>
      </trkpt>
      <trkpt lat="46.1705" lon="4.68116">
        <ele>259</ele>
        <time>2016-11-03T08:52:07Z</time>
      </trkpt>
      <trkpt lat="46.17059" lon="4.68112">
        <ele>259</ele>
        <time>2016-11-03T08:52:14Z</time>
      </trkpt>
      <trkpt lat="46.1706" lon="4.68112">
        <ele>259</ele>
        <time>2016-11-03T08:52:15Z</time>
      </trkpt>
      <trkpt lat="46.17067" lon="4.68109">
        <ele>259</ele>
        <time>2016-11-03T08:52:20Z</time>
      </trkpt>
      <trkpt lat="46.17069" lon="4.68108">
        <ele>259</ele>
        <time>2016-11-03T08:52:21Z</time>
      </trkpt>
      <trkpt lat="46.17078" lon="4.68106">
        <ele>258</ele>
        <time>2016-11-03T08:52:27Z</time>
      </trkpt>
      <trkpt lat="46.17079" lon="4.68106">
        <ele>258</ele>
        <time>2016-11-03T08:52:28Z</time>
      </trkpt>
      <trkpt lat="46.17086" lon="4.68103">
        <ele>259</ele>
        <time>2016-11-03T08:52:33Z</time>
      </trkpt>
      <trkpt lat="46.17088" lon="4.68102">
        <ele>259</ele>
        <time>2016-11-03T08:52:34Z</time>
      </trkpt>
      <trkpt lat="46.17096" lon="4.68101">
        <ele>259</ele>
        <time>2016-11-03T08:52:40Z</time>
      </trkpt>
      <trkpt lat="46.17097" lon="4.681">
        <ele>259</ele>
        <time>2016-11-03T08:52:41Z</time>
      </trkpt>
      <trkpt lat="46.17105" lon="4.68098">
        <ele>259</ele>
        <time>2016-11-03T08:52:48Z</time>
      </trkpt>
      <trkpt lat="46.17106" lon="4.68097">
        <ele>259</ele>
        <time>2016-11-03T08:52:49Z</time>
      </trkpt>
      <trkpt lat="46.17115" lon="4.68096">
        <ele>259</ele>
        <time>2016-11-03T08:52:56Z</time>
      </trkpt>
      <trkpt lat="46.17116" lon="4.68096">
        <ele>259</ele>
        <time>2016-11-03T08:52:57Z</time>
      </trkpt>
      <trkpt lat="46.17122" lon="4.68087">
        <ele>260</ele>
        <time>2016-11-03T08:53:16Z</time>
      </trkpt>
      <trkpt lat="46.17122" lon="4.68085">
        <ele>259</ele>
        <time>2016-11-03T08:53:17Z</time>
      </trkpt>
      <trkpt lat="46.1712" lon="4.68074">
        <ele>259</ele>
        <time>2016-11-03T08:53:25Z</time>
      </trkpt>
      <trkpt lat="46.1712" lon="4.68072">
        <ele>259</ele>
        <time>2016-11-03T08:53:26Z</time>
      </trkpt>
      <trkpt lat="46.17118" lon="4.6806">
        <ele>259</ele>
        <time>2016-11-03T08:53:35Z</time>
      </trkpt>
      <trkpt lat="46.17118" lon="4.68058">
        <ele>259</ele>
        <time>2016-11-03T08:53:36Z</time>
      </trkpt>
      <trkpt lat="46.17117" lon="4.68046">
        <ele>259</ele>
        <time>2016-11-03T08:53:43Z</time>
      </trkpt>
      <trkpt lat="46.17117" lon="4.68045">
        <ele>259</ele>
        <time>2016-11-03T08:53:44Z</time>
      </trkpt>
      <trkpt lat="46.1712" lon="4.68032">
        <ele>259</ele>
        <time>2016-11-03T08:53:51Z</time>
      </trkpt>
      <trkpt lat="46.1712" lon="4.68031">
        <ele>259</ele>
        <time>2016-11-03T08:53:52Z</time>
      </trkpt>
      <trkpt lat="46.17122" lon="4.6802">
        <ele>259</ele>
        <time>2016-11-03T08:53:59Z</time>
      </trkpt>
      <trkpt lat="46.17122" lon="4.68018">
        <ele>259</ele>
        <time>2016-11-03T08:54:00Z</time>
      </trkpt>
      <trkpt lat="46.17125" lon="4.68006">
        <ele>259</ele>
        <time>2016-11-03T08:54:06Z</time>
      </trkpt>
      <trkpt lat="46.17125" lon="4.68004">
        <ele>259</ele>
        <time>2016-11-03T08:54:07Z</time>
      </trkpt>
      <trkpt lat="46.17127" lon="4.67993">
        <ele>261</ele>
        <time>2016-11-03T08:54:14Z</time>
      </trkpt>
      <trkpt lat="46.17127" lon="4.67991">
        <ele>261</ele>
        <time>2016-11-03T08:54:15Z</time>
      </trkpt>
      <trkpt lat="46.17131" lon="4.6798">
        <ele>261</ele>
        <time>2016-11-03T08:54:22Z</time>
      </trkpt>
      <trkpt lat="46.17131" lon="4.67979">
        <ele>261</ele>
        <time>2016-11-03T08:54:23Z</time>
      </trkpt>
      <trkpt lat="46.17134" lon="4.67967">
        <ele>261</ele>
        <time>2016-11-03T08:54:30Z</time>
      </trkpt>
      <trkpt lat="46.17134" lon="4.67965">
        <ele>261</ele>
        <time>2016-11-03T08:54:31Z</time>
      </trkpt>
      <trkpt lat="46.17139" lon="4.67955">
        <ele>261</ele>
        <time>2016-11-03T08:54:39Z</time>
      </trkpt>
      <trkpt lat="46.1714" lon="4.67954">
        <ele>261</ele>
        <time>2016-11-03T08:54:40Z</time>
      </trkpt>
      <trkpt lat="46.17143" lon="4.67943">
        <ele>261</ele>
        <time>2016-11-03T08:54:48Z</time>
      </trkpt>
      <trkpt lat="46.17144" lon="4.67942">
        <ele>261</ele>
        <time>2016-11-03T08:54:49Z</time>
      </trkpt>
      <trkpt lat="46.17149" lon="4.67933">
        <ele>261</ele>
        <time>2016-11-03T08:54:57Z</time>
      </trkpt>
      <trkpt lat="46.17149" lon="4.67931">
        <ele>261</ele>
        <time>2016-11-03T08:54:58Z</time>
      </trkpt>
      <trkpt lat="46.17153" lon="4.6792">
        <ele>261</ele>
        <time>2016-11-03T08:55:07Z</time>
      </trkpt>
      <trkpt lat="46.17153" lon="4.67918">
        <ele>261</ele>
        <time>2016-11-03T08:55:08Z</time>
      </trkpt>
      <trkpt lat="46.17159" lon="4.6791">
        <ele>262</ele>
        <time>2016-11-03T08:55:15Z</time>
      </trkpt>
      <trkpt lat="46.17159" lon="4.67908">
        <ele>262</ele>
        <time>2016-11-03T08:55:16Z</time>
      </trkpt>
      <trkpt lat="46.17164" lon="4.67898">
        <ele>263</ele>
        <time>2016-11-03T08:55:23Z</time>
      </trkpt>
      <trkpt lat="46.17164" lon="4.67896">
        <ele>263</ele>
        <time>2016-11-03T08:55:24Z</time>
      </trkpt>
      <trkpt lat="46.17168" lon="4.67885">
        <ele>263</ele>
        <time>2016-11-03T08:55:31Z</time>
      </trkpt>
      <trkpt lat="46.17168" lon="4.67883">
        <ele>263</ele>
        <time>2016-11-03T08:55:32Z</time>
      </trkpt>
      <trkpt lat="46.17171" lon="4.67871">
        <ele>263</ele>
        <time>2016-11-03T08:55:39Z</time>
      </trkpt>
      <trkpt lat="46.17171" lon="4.67869">
        <ele>263</ele>
        <time>2016-11-03T08:55:40Z</time>
      </trkpt>
      <trkpt lat="46.17177" lon="4.6786">
        <ele>263</ele>
        <time>2016-11-03T08:55:47Z</time>
      </trkpt>
      <trkpt lat="46.17178" lon="4.67859">
        <ele>263</ele>
        <time>2016-11-03T08:55:48Z</time>
      </trkpt>
      <trkpt lat="46.17183" lon="4.67849">
        <ele>264</ele>
        <time>2016-11-03T08:55:55Z</time>
      </trkpt>
      <trkpt lat="46.17183" lon="4.67848">
        <ele>264</ele>
        <time>2016-11-03T08:55:56Z</time>
      </trkpt>
      <trkpt lat="46.17188" lon="4.67838">
        <ele>264</ele>
        <time>2016-11-03T08:56:03Z</time>
      </trkpt>
      <trkpt lat="46.17188" lon="4.67836">
        <ele>264</ele>
        <time>2016-11-03T08:56:04Z</time>
      </trkpt>
      <trkpt lat="46.17192" lon="4.67826">
        <ele>265</ele>
        <time>2016-11-03T08:56:11Z</time>
      </trkpt>
      <trkpt lat="46.17193" lon="4.67825">
        <ele>265</ele>
        <time>2016-11-03T08:56:12Z</time>
      </trkpt>
      <trkpt lat="46.17197" lon="4.67814">
        <ele>265</ele>
        <time>2016-11-03T08:56:19Z</time>
      </trkpt>
      <trkpt lat="46.17198" lon="4.67813">
        <ele>266</ele>
        <time>2016-11-03T08:56:20Z</time>
      </trkpt>
      <trkpt lat="46.17202" lon="4.67803">
        <ele>266</ele>
        <time>2016-11-03T08:56:27Z</time>
      </trkpt>
      <trkpt lat="46.17203" lon="4.67801">
        <ele>266</ele>
        <time>2016-11-03T08:56:28Z</time>
      </trkpt>
      <trkpt lat="46.17205" lon="4.67789">
        <ele>266</ele>
        <time>2016-11-03T08:56:35Z</time>
      </trkpt>
      <trkpt lat="46.17205" lon="4.67788">
        <ele>266</ele>
        <time>2016-11-03T08:56:36Z</time>
      </trkpt>
      <trkpt lat="46.17204" lon="4.67775">
        <ele>266</ele>
        <time>2016-11-03T08:56:43Z</time>
      </trkpt>
      <trkpt lat="46.17204" lon="4.67773">
        <ele>266</ele>
        <time>2016-11-03T08:56:44Z</time>
      </trkpt>
      <trkpt lat="46.17207" lon="4.67762">
        <ele>267</ele>
        <time>2016-11-03T08:56:51Z</time>
      </trkpt>
      <trkpt lat="46.17207" lon="4.6776">
        <ele>267</ele>
        <time>2016-11-03T08:56:52Z</time>
      </trkpt>
      <trkpt lat="46.1721" lon="4.67749">
        <ele>269</ele>
        <time>2016-11-03T08:56:59Z</time>
      </trkpt>
      <trkpt lat="46.17211" lon="4.67747">
        <ele>269</ele>
        <time>2016-11-03T08:57:00Z</time>
      </trkpt>
      <trkpt lat="46.17215" lon="4.67736">
        <ele>270</ele>
        <time>2016-11-03T08:57:07Z</time>
      </trkpt>
      <trkpt lat="46.17215" lon="4.67734">
        <ele>270</ele>
        <time>2016-11-03T08:57:08Z</time>
      </trkpt>
      <trkpt lat="46.17217" lon="4.67722">
        <ele>270</ele>
        <time>2016-11-03T08:57:14Z</time>
      </trkpt>
      <trkpt lat="46.17217" lon="4.6772">
        <ele>270</ele>
        <time>2016-11-03T08:57:15Z</time>
      </trkpt>
      <trkpt lat="46.17217" lon="4.67709">
        <ele>270</ele>
        <time>2016-11-03T08:57:21Z</time>
      </trkpt>
      <trkpt lat="46.17218" lon="4.67707">
        <ele>270</ele>
        <time>2016-11-03T08:57:22Z</time>
      </trkpt>
      <trkpt lat="46.17219" lon="4.67695">
        <ele>271</ele>
        <time>2016-11-03T08:57:29Z</time>
      </trkpt>
      <trkpt lat="46.17219" lon="4.67693">
        <ele>271</ele>
        <time>2016-11-03T08:57:30Z</time>
      </trkpt>
      <trkpt lat="46.17219" lon="4.67681">
        <ele>271</ele>
        <time>2016-11-03T08:57:37Z</time>
      </trkpt>
      <trkpt lat="46.1722" lon="4.6768">
        <ele>271</ele>
        <time>2016-11-03T08:57:38Z</time>
      </trkpt>
      <trkpt lat="46.1722" lon="4.67667">
        <ele>271</ele>
        <time>2016-11-03T08:57:45Z</time>
      </trkpt>
      <trkpt lat="46.1722" lon="4.67666">
        <ele>274</ele>
        <time>2016-11-03T08:57:46Z</time>
      </trkpt>
      <trkpt lat="46.1722" lon="4.67654">
        <ele>274</ele>
        <time>2016-11-03T08:57:52Z</time>
      </trkpt>
      <trkpt lat="46.1722" lon="4.67652">
        <ele>274</ele>
        <time>2016-11-03T08:57:53Z</time>
      </trkpt>
      <trkpt lat="46.17223" lon="4.6764">
        <ele>274</ele>
        <time>2016-11-03T08:58:00Z</time>
      </trkpt>
      <trkpt lat="46.17224" lon="4.67639">
        <ele>274</ele>
        <time>2016-11-03T08:58:01Z</time>
      </trkpt>
      <trkpt lat="46.1723" lon="4.67632">
        <ele>275</ele>
        <time>2016-11-03T08:58:07Z</time>
      </trkpt>
      <trkpt lat="46.1723" lon="4.6763">
        <ele>275</ele>
        <time>2016-11-03T08:58:08Z</time>
      </trkpt>
      <trkpt lat="46.17236" lon="4.6762">
        <ele>275</ele>
        <time>2016-11-03T08:58:15Z</time>
      </trkpt>
      <trkpt lat="46.17237" lon="4.67619">
        <ele>276</ele>
        <time>2016-11-03T08:58:16Z</time>
      </trkpt>
      <trkpt lat="46.17241" lon="4.67609">
        <ele>277</ele>
        <time>2016-11-03T08:58:24Z</time>
      </trkpt>
      <trkpt lat="46.17242" lon="4.67608">
        <ele>277</ele>
        <time>2016-11-03T08:58:25Z</time>
      </trkpt>
      <trkpt lat="46.17245" lon="4.67597">
        <ele>278</ele>
        <time>2016-11-03T08:58:33Z</time>
      </trkpt>
      <trkpt lat="46.17245" lon="4.67595">
        <ele>279</ele>
        <time>2016-11-03T08:58:34Z</time>
      </trkpt>
      <trkpt lat="46.17248" lon="4.67584">
        <ele>281</ele>
        <time>2016-11-03T08:58:42Z</time>
      </trkpt>
      <trkpt lat="46.17248" lon="4.67583">
        <ele>282</ele>
        <time>2016-11-03T08:58:43Z</time>
      </trkpt>
      <trkpt lat="46.17245" lon="4.6757">
        <ele>280</ele>
        <time>2016-11-03T08:58:50Z</time>
      </trkpt>
      <trkpt lat="46.17245" lon="4.67569">
        <ele>280</ele>
        <time>2016-11-03T08:58:51Z</time>
      </trkpt>
      <trkpt lat="46.17244" lon="4.67557">
        <ele>280</ele>
        <time>2016-11-03T08:58:58Z</time>
      </trkpt>
      <trkpt lat="46.17245" lon="4.67555">
        <ele>280</ele>
        <time>2016-11-03T08:58:59Z</time>
      </trkpt>
      <trkpt lat="46.17248" lon="4.67544">
        <ele>280</ele>
        <time>2016-11-03T08:59:06Z</time>
      </trkpt>
      <trkpt lat="46.17249" lon="4.67542">
        <ele>280</ele>
        <time>2016-11-03T08:59:07Z</time>
      </trkpt>
      <trkpt lat="46.17252" lon="4.67532">
        <ele>286</ele>
        <time>2016-11-03T08:59:13Z</time>
      </trkpt>
      <trkpt lat="46.17253" lon="4.67531">
        <ele>286</ele>
        <time>2016-11-03T08:59:14Z</time>
      </trkpt>
      <trkpt lat="46.17256" lon="4.6752">
        <ele>286</ele>
        <time>2016-11-03T08:59:20Z</time>
      </trkpt>
      <trkpt lat="46.17257" lon="4.67518">
        <ele>286</ele>
        <time>2016-11-03T08:59:21Z</time>
      </trkpt>
      <trkpt lat="46.17262" lon="4.67509">
        <ele>286</ele>
        <time>2016-11-03T08:59:28Z</time>
      </trkpt>
      <trkpt lat="46.17262" lon="4.67507">
        <ele>286</ele>
        <time>2016-11-03T08:59:29Z</time>
      </trkpt>
      <trkpt lat="46.17267" lon="4.67497">
        <ele>288</ele>
        <time>2016-11-03T08:59:36Z</time>
      </trkpt>
      <trkpt lat="46.17267" lon="4.67496">
        <ele>289</ele>
        <time>2016-11-03T08:59:37Z</time>
      </trkpt>
      <trkpt lat="46.17271" lon="4.67484">
        <ele>289</ele>
        <time>2016-11-03T08:59:44Z</time>
      </trkpt>
      <trkpt lat="46.17272" lon="4.67483">
        <ele>289</ele>
        <time>2016-11-03T08:59:45Z</time>
      </trkpt>
      <trkpt lat="46.17277" lon="4.67475">
        <ele>290</ele>
        <time>2016-11-03T08:59:52Z</time>
      </trkpt>
      <trkpt lat="46.17278" lon="4.67473">
        <ele>290</ele>
        <time>2016-11-03T08:59:53Z</time>
      </trkpt>
      <trkpt lat="46.17281" lon="4.67463">
        <ele>291</ele>
        <time>2016-11-03T09:00:00Z</time>
      </trkpt>
      <trkpt lat="46.17282" lon="4.67461">
        <ele>291</ele>
        <time>2016-11-03T09:00:01Z</time>
      </trkpt>
      <trkpt lat="46.17287" lon="4.67452">
        <ele>291</ele>
        <time>2016-11-03T09:00:09Z</time>
      </trkpt>
      <trkpt lat="46.17288" lon="4.67451">
        <ele>291</ele>
        <time>2016-11-03T09:00:10Z</time>
      </trkpt>
      <trkpt lat="46.17291" lon="4.6744">
        <ele>292</ele>
        <time>2016-11-03T09:00:19Z</time>
      </trkpt>
      <trkpt lat="46.17292" lon="4.67439">
        <ele>292</ele>
        <time>2016-11-03T09:00:20Z</time>
      </trkpt>
      <trkpt lat="46.17296" lon="4.67428">
        <ele>292</ele>
        <time>2016-11-03T09:00:28Z</time>
      </trkpt>
      <trkpt lat="46.17297" lon="4.67427">
        <ele>292</ele>
        <time>2016-11-03T09:00:29Z</time>
      </trkpt>
      <trkpt lat="46.17299" lon="4.67414">
        <ele>296</ele>
        <time>2016-11-03T09:00:37Z</time>
      </trkpt>
      <trkpt lat="46.17299" lon="4.67413">
        <ele>296</ele>
        <time>2016-11-03T09:00:38Z</time>
      </trkpt>
      <trkpt lat="46.17303" lon="4.67402">
        <ele>297</ele>
        <time>2016-11-03T09:00:46Z</time>
      </trkpt>
      <trkpt lat="46.17304" lon="4.67401">
        <ele>297</ele>
        <time>2016-11-03T09:00:47Z</time>
      </trkpt>
      <trkpt lat="46.17305" lon="4.67388">
        <ele>297</ele>
        <time>2016-11-03T09:00:55Z</time>
      </trkpt>
      <trkpt lat="46.17305" lon="4.67387">
        <ele>297</ele>
        <time>2016-11-03T09:00:56Z</time>
      </trkpt>
      <trkpt lat="46.17307" lon="4.67375">
        <ele>298</ele>
        <time>2016-11-03T09:01:21Z</time>
      </trkpt>
      <trkpt lat="46.17307" lon="4.67374">
        <ele>298</ele>
        <time>2016-11-03T09:01:22Z</time>
      </trkpt>
      <trkpt lat="46.17311" lon="4.67362">
        <ele>299</ele>
        <time>2016-11-03T09:01:30Z</time>
      </trkpt>
      <trkpt lat="46.17312" lon="4.67361">
        <ele>299</ele>
        <time>2016-11-03T09:01:31Z</time>
      </trkpt>
      <trkpt lat="46.17314" lon="4.6735">
        <ele>300</ele>
        <time>2016-11-03T09:01:38Z</time>
      </trkpt>
      <trkpt lat="46.17314" lon="4.67348">
        <ele>300</ele>
        <time>2016-11-03T09:01:39Z</time>
      </trkpt>
      <trkpt lat="46.17319" lon="4.67338">
        <ele>301</ele>
        <time>2016-11-03T09:01:46Z</time>
      </trkpt>
      <trkpt lat="46.1732" lon="4.67337">
        <ele>302</ele>
        <time>2016-11-03T09:01:47Z</time>
      </trkpt>
      <trkpt lat="46.17323" lon="4.67325">
        <ele>304</ele>
        <time>2016-11-03T09:01:55Z</time>
      </trkpt>
      <trkpt lat="46.17323" lon="4.67323">
        <ele>304</ele>
        <time>2016-11-03T09:01:56Z</time>
      </trkpt>
      <trkpt lat="46.17329" lon="4.67314">
        <ele>304</ele>
        <time>2016-11-03T09:02:04Z</time>
      </trkpt>
      <trkpt lat="46.1733" lon="4.67312">
        <ele>304</ele>
        <time>2016-11-03T09:02:05Z</time>
      </trkpt>
      <trkpt lat="46.17332" lon="4.673">
        <ele>305</ele>
        <time>2016-11-03T09:02:13Z</time>
      </trkpt>
      <trkpt lat="46.17332" lon="4.67299">
        <ele>305</ele>
        <time>2016-11-03T09:02:14Z</time>
      </trkpt>
      <trkpt lat="46.17334" lon="4.67287">
        <ele>308</ele>
        <time>2016-11-03T09:02:22Z</time>
      </trkpt>
      <trkpt lat="46.17334" lon="4.67285">
        <ele>308</ele>
        <time>2016-11-03T09:02:23Z</time>
      </trkpt>
      <trkpt lat="46.17334" lon="4.67273">
        <ele>310</ele>
        <time>2016-11-03T09:02:31Z</time>
      </trkpt>
      <trkpt lat="46.17335" lon="4.67272">
        <ele>310</ele>
        <time>2016-11-03T09:02:32Z</time>
      </trkpt>
      <trkpt lat="46.17337" lon="4.67259">
        <ele>311</ele>
        <time>2016-11-03T09:02:40Z</time>
      </trkpt>
      <trkpt lat="46.17337" lon="4.67258">
        <ele>311</ele>
        <time>2016-11-03T09:02:41Z</time>
      </trkpt>
      <trkpt lat="46.17338" lon="4.67245">
        <ele>313</ele>
        <time>2016-11-03T09:02:48Z</time>
      </trkpt>
      <trkpt lat="46.17338" lon="4.67244">
        <ele>314</ele>
        <time>2016-11-03T09:02:49Z</time>
      </trkpt>
      <trkpt lat="46.17342" lon="4.67233">
        <ele>314</ele>
        <time>2016-11-03T09:02:57Z</time>
      </trkpt>
      <trkpt lat="46.17342" lon="4.67231">
        <ele>314</ele>
        <time>2016-11-03T09:02:58Z</time>
      </trkpt>
      <trkpt lat="46.17343" lon="4.67218">
        <ele>315</ele>
        <time>2016-11-03T09:03:06Z</time>
      </trkpt>
      <trkpt lat="46.17344" lon="4.67217">
        <ele>315</ele>
        <time>2016-11-03T09:03:07Z</time>
      </trkpt>
      <trkpt lat="46.17349" lon="4.67207">
        <ele>315</ele>
        <time>2016-11-03T09:03:14Z</time>
      </trkpt>
      <trkpt lat="46.1735" lon="4.67206">
        <ele>315</ele>
        <time>2016-11-03T09:03:15Z</time>
      </trkpt>
      <trkpt lat="46.17355" lon="4.67197">
        <ele>316</ele>
        <time>2016-11-03T09:03:26Z</time>
      </trkpt>
      <trkpt lat="46.17355" lon="4.67196">
        <ele>316</ele>
        <time>2016-11-03T09:03:27Z</time>
      </trkpt>
      <trkpt lat="46.17358" lon="4.67185">
        <ele>316</ele>
        <time>2016-11-03T09:04:02Z</time>
      </trkpt>
      <trkpt lat="46.17358" lon="4.67183">
        <ele>316</ele>
        <time>2016-11-03T09:04:03Z</time>
      </trkpt>
      <trkpt lat="46.17364" lon="4.67174">
        <ele>317</ele>
        <time>2016-11-03T09:04:11Z</time>
      </trkpt>
      <trkpt lat="46.17364" lon="4.67172">
        <ele>317</ele>
        <time>2016-11-03T09:04:12Z</time>
      </trkpt>
      <trkpt lat="46.17368" lon="4.67161">
        <ele>321</ele>
        <time>2016-11-03T09:04:21Z</time>
      </trkpt>
      <trkpt lat="46.17369" lon="4.6716">
        <ele>321</ele>
        <time>2016-11-03T09:04:22Z</time>
      </trkpt>
      <trkpt lat="46.17373" lon="4.67149">
        <ele>322</ele>
        <time>2016-11-03T09:04:30Z</time>
      </trkpt>
      <trkpt lat="46.17374" lon="4.67148">
        <ele>322</ele>
        <time>2016-11-03T09:04:31Z</time>
      </trkpt>
      <trkpt lat="46.17378" lon="4.67136">
        <ele>322</ele>
        <time>2016-11-03T09:04:39Z</time>
      </trkpt>
      <trkpt lat="46.17378" lon="4.67135">
        <ele>322</ele>
        <time>2016-11-03T09:04:40Z</time>
      </trkpt>
      <trkpt lat="46.17382" lon="4.67124">
        <ele>323</ele>
        <time>2016-11-03T09:04:49Z</time>
      </trkpt>
      <trkpt lat="46.17383" lon="4.67123">
        <ele>323</ele>
        <time>2016-11-03T09:04:50Z</time>
      </trkpt>
      <trkpt lat="46.17385" lon="4.67111">
        <ele>324</ele>
        <time>2016-11-03T09:04:58Z</time>
      </trkpt>
      <trkpt lat="46.17385" lon="4.6711">
        <ele>324</ele>
        <time>2016-11-03T09:04:59Z</time>
      </trkpt>
      <trkpt lat="46.1739" lon="4.671">
        <ele>325</ele>
        <time>2016-11-03T09:05:06Z</time>
      </trkpt>
      <trkpt lat="46.17391" lon="4.67099">
        <ele>325</ele>
        <time>2016-11-03T09:05:07Z</time>
      </trkpt>
      <trkpt lat="46.17394" lon="4.67087">
        <ele>326</ele>
        <time>2016-11-03T09:05:15Z</time>
      </trkpt>
      <trkpt lat="46.17394" lon="4.67086">
        <ele>326</ele>
        <time>2016-11-03T09:05:16Z</time>
      </trkpt>
      <trkpt lat="46.17399" lon="4.67076">
        <ele>329</ele>
        <time>2016-11-03T09:05:24Z</time>
      </trkpt>
      <trkpt lat="46.174" lon="4.67075">
        <ele>330</ele>
        <time>2016-11-03T09:05:25Z</time>
      </trkpt>
      <trkpt lat="46.17403" lon="4.67063">
        <ele>330</ele>
        <time>2016-11-03T09:05:34Z</time>
      </trkpt>
      <trkpt lat="46.17404" lon="4.67062">
        <ele>329</ele>
        <time>2016-11-03T09:05:35Z</time>
      </trkpt>
      <trkpt lat="46.17408" lon="4.67052">
        <ele>330</ele>
        <time>2016-11-03T09:05:43Z</time>
      </trkpt>
      <trkpt lat="46.17408" lon="4.67051">
        <ele>330</ele>
        <time>2016-11-03T09:05:44Z</time>
      </trkpt>
      <trkpt lat="46.17412" lon="4.67039">
        <ele>331</ele>
        <time>2016-11-03T09:05:52Z</time>
      </trkpt>
      <trkpt lat="46.17412" lon="4.67038">
        <ele>331</ele>
        <time>2016-11-03T09:05:53Z</time>
      </trkpt>
      <trkpt lat="46.17418" lon="4.67029">
        <ele>338</ele>
        <time>2016-11-03T09:06:01Z</time>
      </trkpt>
      <trkpt lat="46.17418" lon="4.67027">
        <ele>338</ele>
        <time>2016-11-03T09:06:02Z</time>
      </trkpt>
      <trkpt lat="46.17422" lon="4.67017">
        <ele>339</ele>
        <time>2016-11-03T09:06:10Z</time>
      </trkpt>
      <trkpt lat="46.17422" lon="4.67016">
        <ele>339</ele>
        <time>2016-11-03T09:06:11Z</time>
      </trkpt>
      <trkpt lat="46.17426" lon="4.67004">
        <ele>339</ele>
        <time>2016-11-03T09:06:20Z</time>
      </trkpt>
      <trkpt lat="46.17427" lon="4.67003">
        <ele>339</ele>
        <time>2016-11-03T09:06:21Z</time>
      </trkpt>
      <trkpt lat="46.17429" lon="4.66992">
        <ele>343</ele>
        <time>2016-11-03T09:06:31Z</time>
      </trkpt>
      <trkpt lat="46.17429" lon="4.6699">
        <ele>343</ele>
        <time>2016-11-03T09:06:32Z</time>
      </trkpt>
      <trkpt lat="46.17432" lon="4.66978">
        <ele>344</ele>
        <time>2016-11-03T09:06:42Z</time>
      </trkpt>
      <trkpt lat="46.17432" lon="4.66977">
        <ele>344</ele>
        <time>2016-11-03T09:06:43Z</time>
      </trkpt>
      <trkpt lat="46.17435" lon="4.66965">
        <ele>345</ele>
        <time>2016-11-03T09:06:53Z</time>
      </trkpt>
      <trkpt lat="46.17436" lon="4.66963">
        <ele>345</ele>
        <time>2016-11-03T09:06:54Z</time>
      </trkpt>
      <trkpt lat="46.17439" lon="4.66953">
        <ele>345</ele>
        <time>2016-11-03T09:07:02Z</time>
      </trkpt>
      <trkpt lat="46.1744" lon="4.66951">
        <ele>345</ele>
        <time>2016-11-03T09:07:03Z</time>
      </trkpt>
      <trkpt lat="46.17446" lon="4.66942">
        <ele>346</ele>
        <time>2016-11-03T09:07:11Z</time>
      </trkpt>
      <trkpt lat="46.17447" lon="4.66941">
        <ele>346</ele>
        <time>2016-11-03T09:07:12Z</time>
      </trkpt>
      <trkpt lat="46.17454" lon="4.66933">
        <ele>346</ele>
        <time>2016-11-03T09:07:22Z</time>
      </trkpt>
      <trkpt lat="46.17454" lon="4.66932">
        <ele>346</ele>
        <time>2016-11-03T09:07:23Z</time>
      </trkpt>
      <trkpt lat="46.17461" lon="4.66924">
        <ele>347</ele>
        <time>2016-11-03T09:07:31Z</time>
      </trkpt>
      <trkpt lat="46.17461" lon="4.66923">
        <ele>347</ele>
        <time>2016-11-03T09:07:32Z</time>
      </trkpt>
      <trkpt lat="46.1747" lon="4.66921">
        <ele>348</ele>
        <time>2016-11-03T09:10:22Z</time>
      </trkpt>
      <trkpt lat="46.17471" lon="4.66921">
        <ele>348</ele>
        <time>2016-11-03T09:10:23Z</time>
      </trkpt>
      <trkpt lat="46.17479" lon="4.66919">
        <ele>350</ele>
        <time>2016-11-03T09:10:30Z</time>
      </trkpt>
      <trkpt lat="46.1748" lon="4.66918">
        <ele>350</ele>
        <time>2016-11-03T09:10:31Z</time>
      </trkpt>
      <trkpt lat="46.17487" lon="4.66912">
        <ele>352</ele>
        <time>2016-11-03T09:10:38Z</time>
      </trkpt>
      <trkpt lat="46.17488" lon="4.66911">
        <ele>352</ele>
        <time>2016-11-03T09:10:39Z</time>
      </trkpt>
      <trkpt lat="46.17496" lon="4.66907">
        <ele>353</ele>
        <time>2016-11-03T09:10:52Z</time>
      </trkpt>
      <trkpt lat="46.17497" lon="4.66906">
        <ele>352</ele>
        <time>2016-11-03T09:10:53Z</time>
      </trkpt>
      <trkpt lat="46.17504" lon="4.66899">
        <ele>355</ele>
        <time>2016-11-03T09:10:59Z</time>
      </trkpt>
      <trkpt lat="46.17505" lon="4.66898">
        <ele>355</ele>
        <time>2016-11-03T09:11:00Z</time>
      </trkpt>
      <trkpt lat="46.17512" lon="4.66893">
        <ele>355</ele>
        <time>2016-11-03T09:11:06Z</time>
      </trkpt>
      <trkpt lat="46.17514" lon="4.66892">
        <ele>355</ele>
        <time>2016-11-03T09:11:07Z</time>
      </trkpt>
      <trkpt lat="46.1752" lon="4.66884">
        <ele>355</ele>
        <time>2016-11-03T09:11:14Z</time>
      </trkpt>
      <trkpt lat="46.17521" lon="4.66883">
        <ele>355</ele>
        <time>2016-11-03T09:11:15Z</time>
      </trkpt>
      <trkpt lat="46.17528" lon="4.66877">
        <ele>355</ele>
        <time>2016-11-03T09:11:22Z</time>
      </trkpt>
      <trkpt lat="46.17529" lon="4.66876">
        <ele>355</ele>
        <time>2016-11-03T09:11:23Z</time>
      </trkpt>
      <trkpt lat="46.17535" lon="4.66869">
        <ele>355</ele>
        <time>2016-11-03T09:11:30Z</time>
      </trkpt>
      <trkpt lat="46.17536" lon="4.66867">
        <ele>355</ele>
        <time>2016-11-03T09:11:31Z</time>
      </trkpt>
      <trkpt lat="46.17543" lon="4.66861">
        <ele>356</ele>
        <time>2016-11-03T09:11:38Z</time>
      </trkpt>
      <trkpt lat="46.17544" lon="4.6686">
        <ele>356</ele>
        <time>2016-11-03T09:11:39Z</time>
      </trkpt>
      <trkpt lat="46.1755" lon="4.66853">
        <ele>356</ele>
        <time>2016-11-03T09:11:45Z</time>
      </trkpt>
      <trkpt lat="46.1755" lon="4.66851">
        <ele>356</ele>
        <time>2016-11-03T09:11:46Z</time>
      </trkpt>
      <trkpt lat="46.17556" lon="4.66844">
        <ele>357</ele>
        <time>2016-11-03T09:11:52Z</time>
      </trkpt>
      <trkpt lat="46.17557" lon="4.66842">
        <ele>357</ele>
        <time>2016-11-03T09:11:53Z</time>
      </trkpt>
      <trkpt lat="46.17564" lon="4.66834">
        <ele>357</ele>
        <time>2016-11-03T09:12:00Z</time>
      </trkpt>
      <trkpt lat="46.17565" lon="4.66833">
        <ele>358</ele>
        <time>2016-11-03T09:12:01Z</time>
      </trkpt>
      <trkpt lat="46.17571" lon="4.66826">
        <ele>359</ele>
        <time>2016-11-03T09:12:07Z</time>
      </trkpt>
      <trkpt lat="46.17572" lon="4.66824">
        <ele>359</ele>
        <time>2016-11-03T09:12:08Z</time>
      </trkpt>
      <trkpt lat="46.17578" lon="4.66816">
        <ele>359</ele>
        <time>2016-11-03T09:12:14Z</time>
      </trkpt>
      <trkpt lat="46.17579" lon="4.66815">
        <ele>358</ele>
        <time>2016-11-03T09:12:15Z</time>
      </trkpt>
      <trkpt lat="46.17584" lon="4.66806">
        <ele>362</ele>
        <time>2016-11-03T09:12:21Z</time>
      </trkpt>
      <trkpt lat="46.17585" lon="4.66805">
        <ele>363</ele>
        <time>2016-11-03T09:12:22Z</time>
      </trkpt>
      <trkpt lat="46.17591" lon="4.66797">
        <ele>363</ele>
        <time>2016-11-03T09:12:28Z</time>
      </trkpt>
      <trkpt lat="46.17592" lon="4.66796">
        <ele>363</ele>
        <time>2016-11-03T09:12:29Z</time>
      </trkpt>
      <trkpt lat="46.17599" lon="4.66788">
        <ele>363</ele>
        <time>2016-11-03T09:12:36Z</time>
      </trkpt>
      <trkpt lat="46.176" lon="4.66787">
        <ele>363</ele>
        <time>2016-11-03T09:12:37Z</time>
      </trkpt>
      <trkpt lat="46.17608" lon="4.66785">
        <ele>364</ele>
        <time>2016-11-03T09:12:45Z</time>
      </trkpt>
      <trkpt lat="46.17609" lon="4.66786">
        <ele>364</ele>
        <time>2016-11-03T09:12:46Z</time>
      </trkpt>
      <trkpt lat="46.17617" lon="4.66781">
        <ele>364</ele>
        <time>2016-11-03T09:12:54Z</time>
      </trkpt>
      <trkpt lat="46.17618" lon="4.6678">
        <ele>364</ele>
        <time>2016-11-03T09:12:55Z</time>
      </trkpt>
      <trkpt lat="46.17625" lon="4.66773">
        <ele>365</ele>
        <time>2016-11-03T09:13:03Z</time>
      </trkpt>
      <trkpt lat="46.17626" lon="4.66772">
        <ele>365</ele>
        <time>2016-11-03T09:13:04Z</time>
      </trkpt>
      <trkpt lat="46.17633" lon="4.66766">
        <ele>366</ele>
        <time>2016-11-03T09:13:12Z</time>
      </trkpt>
      <trkpt lat="46.17634" lon="4.66765">
        <ele>366</ele>
        <time>2016-11-03T09:13:13Z</time>
      </trkpt>
      <trkpt lat="46.17641" lon="4.66758">
        <ele>367</ele>
        <time>2016-11-03T09:13:22Z</time>
      </trkpt>
      <trkpt lat="46.17641" lon="4.66757">
        <ele>367</ele>
        <time>2016-11-03T09:13:23Z</time>
      </trkpt>
      <trkpt lat="46.17648" lon="4.66749">
        <ele>371</ele>
        <time>2016-11-03T09:13:34Z</time>
      </trkpt>
      <trkpt lat="46.17648" lon="4.66748">
        <ele>371</ele>
        <time>2016-11-03T09:13:35Z</time>
      </trkpt>
      <trkpt lat="46.17651" lon="4.66736">
        <ele>371</ele>
        <time>2016-11-03T09:13:48Z</time>
      </trkpt>
      <trkpt lat="46.17652" lon="4.66736">
        <ele>371</ele>
        <time>2016-11-03T09:13:49Z</time>
      </trkpt>
      <trkpt lat="46.17659" lon="4.66731">
        <ele>371</ele>
        <time>2016-11-03T09:13:57Z</time>
      </trkpt>
      <trkpt lat="46.1766" lon="4.6673">
        <ele>371</ele>
        <time>2016-11-03T09:13:58Z</time>
      </trkpt>
      <trkpt lat="46.17666" lon="4.66722">
        <ele>371</ele>
        <time>2016-11-03T09:14:06Z</time>
      </trkpt>
      <trkpt lat="46.17667" lon="4.66721">
        <ele>378</ele>
        <time>2016-11-03T09:14:07Z</time>
      </trkpt>
      <trkpt lat="46.17673" lon="4.66712">
        <ele>379</ele>
        <time>2016-11-03T09:14:15Z</time>
      </trkpt>
      <trkpt lat="46.17674" lon="4.66711">
        <ele>379</ele>
        <time>2016-11-03T09:14:16Z</time>
      </trkpt>
      <trkpt lat="46.17681" lon="4.66704">
        <ele>380</ele>
        <time>2016-11-03T09:14:25Z</time>
      </trkpt>
      <trkpt lat="46.17681" lon="4.66703">
        <ele>380</ele>
        <time>2016-11-03T09:14:26Z</time>
      </trkpt>
      <trkpt lat="46.17688" lon="4.66694">
        <ele>380</ele>
        <time>2016-11-03T09:14:37Z</time>
      </trkpt>
      <trkpt lat="46.17688" lon="4.66693">
        <ele>380</ele>
        <time>2016-11-03T09:14:38Z</time>
      </trkpt>
      <trkpt lat="46.17695" lon="4.66686">
        <ele>381</ele>
        <time>2016-11-03T09:14:48Z</time>
      </trkpt>
      <trkpt lat="46.17696" lon="4.66684">
        <ele>381</ele>
        <time>2016-11-03T09:14:49Z</time>
      </trkpt>
      <trkpt lat="46.17703" lon="4.66677">
        <ele>382</ele>
        <time>2016-11-03T09:14:58Z</time>
      </trkpt>
      <trkpt lat="46.17704" lon="4.66677">
        <ele>382</ele>
        <time>2016-11-03T09:14:59Z</time>
      </trkpt>
      <trkpt lat="46.1771" lon="4.66668">
        <ele>383</ele>
        <time>2016-11-03T09:15:09Z</time>
      </trkpt>
      <trkpt lat="46.17711" lon="4.66667">
        <ele>383</ele>
        <time>2016-11-03T09:15:10Z</time>
      </trkpt>
      <trkpt lat="46.17719" lon="4.66661">
        <ele>387</ele>
        <time>2016-11-03T09:15:18Z</time>
      </trkpt>
      <trkpt lat="46.1772" lon="4.6666">
        <ele>387</ele>
        <time>2016-11-03T09:15:19Z</time>
      </trkpt>
      <trkpt lat="46.17727" lon="4.66653">
        <ele>387</ele>
        <time>2016-11-03T09:15:26Z</time>
      </trkpt>
      <trkpt lat="46.17728" lon="4.66653">
        <ele>388</ele>
        <time>2016-11-03T09:15:27Z</time>
      </trkpt>
      <trkpt lat="46.17736" lon="4.66649">
        <ele>388</ele>
        <time>2016-11-03T09:15:34Z</time>
      </trkpt>
      <trkpt lat="46.17738" lon="4.66648">
        <ele>388</ele>
        <time>2016-11-03T09:15:35Z</time>
      </trkpt>
      <trkpt lat="46.17745" lon="4.66643">
        <ele>388</ele>
        <time>2016-11-03T09:15:42Z</time>
      </trkpt>
      <trkpt lat="46.17746" lon="4.66642">
        <ele>388</ele>
        <time>2016-11-03T09:15:43Z</time>
      </trkpt>
      <trkpt lat="46.17753" lon="4.66637">
        <ele>394</ele>
        <time>2016-11-03T09:15:49Z</time>
      </trkpt>
      <trkpt lat="46.17754" lon="4.66637">
        <ele>394</ele>
        <time>2016-11-03T09:15:50Z</time>
      </trkpt>
      <trkpt lat="46.17763" lon="4.66634">
        <ele>394</ele>
        <time>2016-11-03T09:15:58Z</time>
      </trkpt>
      <trkpt lat="46.17764" lon="4.66633">
        <ele>394</ele>
        <time>2016-11-03T09:15:59Z</time>
      </trkpt>
      <trkpt lat="46.17772" lon="4.6663">
        <ele>395</ele>
        <time>2016-11-03T09:16:06Z</time>
      </trkpt>
      <trkpt lat="46.17773" lon="4.66629">
        <ele>395</ele>
        <time>2016-11-03T09:16:07Z</time>
      </trkpt>
      <trkpt lat="46.17781" lon="4.66625">
        <ele>395</ele>
        <time>2016-11-03T09:16:14Z</time>
      </trkpt>
      <trkpt lat="46.17782" lon="4.66625">
        <ele>395</ele>
        <time>2016-11-03T09:16:15Z</time>
      </trkpt>
      <trkpt lat="46.17789" lon="4.66622">
        <ele>395</ele>
        <time>2016-11-03T09:16:21Z</time>
      </trkpt>
      <trkpt lat="46.1779" lon="4.66621">
        <ele>396</ele>
        <time>2016-11-03T09:16:22Z</time>
      </trkpt>
      <trkpt lat="46.17798" lon="4.66619">
        <ele>396</ele>
        <time>2016-11-03T09:16:28Z</time>
      </trkpt>
      <trkpt lat="46.178" lon="4.66618">
        <ele>396</ele>
        <time>2016-11-03T09:16:29Z</time>
      </trkpt>
      <trkpt lat="46.17808" lon="4.66618">
        <ele>396</ele>
        <time>2016-11-03T09:16:36Z</time>
      </trkpt>
      <trkpt lat="46.17809" lon="4.66618">
        <ele>396</ele>
        <time>2016-11-03T09:16:37Z</time>
      </trkpt>
      <trkpt lat="46.17818" lon="4.66616">
        <ele>397</ele>
        <time>2016-11-03T09:16:43Z</time>
      </trkpt>
      <trkpt lat="46.1782" lon="4.66616">
        <ele>397</ele>
        <time>2016-11-03T09:16:44Z</time>
      </trkpt>
      <trkpt lat="46.17828" lon="4.66615">
        <ele>397</ele>
        <time>2016-11-03T09:16:50Z</time>
      </trkpt>
      <trkpt lat="46.17829" lon="4.66615">
        <ele>397</ele>
        <time>2016-11-03T09:16:51Z</time>
      </trkpt>
      <trkpt lat="46.17838" lon="4.66611">
        <ele>399</ele>
        <time>2016-11-03T09:16:58Z</time>
      </trkpt>
      <trkpt lat="46.17839" lon="4.66611">
        <ele>399</ele>
        <time>2016-11-03T09:16:59Z</time>
      </trkpt>
      <trkpt lat="46.17847" lon="4.66606">
        <ele>399</ele>
        <time>2016-11-03T09:17:06Z</time>
      </trkpt>
      <trkpt lat="46.17848" lon="4.66606">
        <ele>399</ele>
        <time>2016-11-03T09:17:07Z</time>
      </trkpt>
      <trkpt lat="46.17856" lon="4.66602">
        <ele>399</ele>
        <time>2016-11-03T09:17:14Z</time>
      </trkpt>
      <trkpt lat="46.17857" lon="4.66601">
        <ele>399</ele>
        <time>2016-11-03T09:17:15Z</time>
      </trkpt>
      <trkpt lat="46.17865" lon="4.66599">
        <ele>399</ele>
        <time>2016-11-03T09:17:22Z</time>
      </trkpt>
      <trkpt lat="46.17866" lon="4.66599">
        <ele>399</ele>
        <time>2016-11-03T09:17:23Z</time>
      </trkpt>
      <trkpt lat="46.17874" lon="4.66596">
        <ele>399</ele>
        <time>2016-11-03T09:17:30Z</time>
      </trkpt>
      <trkpt lat="46.17876" lon="4.66596">
        <ele>399</ele>
        <time>2016-11-03T09:17:31Z</time>
      </trkpt>
      <trkpt lat="46.17884" lon="4.66593">
        <ele>399</ele>
        <time>2016-11-03T09:17:38Z</time>
      </trkpt>
      <trkpt lat="46.17885" lon="4.66592">
        <ele>399</ele>
        <time>2016-11-03T09:17:39Z</time>
      </trkpt>
      <trkpt lat="46.17894" lon="4.6659">
        <ele>400</ele>
        <time>2016-11-03T09:17:45Z</time>
      </trkpt>
      <trkpt lat="46.17895" lon="4.6659">
        <ele>400</ele>
        <time>2016-11-03T09:17:46Z</time>
      </trkpt>
      <trkpt lat="46.17904" lon="4.66585">
        <ele>401</ele>
        <time>2016-11-03T09:17:53Z</time>
      </trkpt>
      <trkpt lat="46.17905" lon="4.66584">
        <ele>401</ele>
        <time>2016-11-03T09:17:54Z</time>
      </trkpt>
      <trkpt lat="46.17912" lon="4.66578">
        <ele>403</ele>
        <time>2016-11-03T09:18:02Z</time>
      </trkpt>
      <trkpt lat="46.17913" lon="4.66578">
        <ele>403</ele>
        <time>2016-11-03T09:18:03Z</time>
      </trkpt>
      <trkpt lat="46.1792" lon="4.66572">
        <ele>403</ele>
        <time>2016-11-03T09:18:10Z</time>
      </trkpt>
      <trkpt lat="46.17922" lon="4.66571">
        <ele>403</ele>
        <time>2016-11-03T09:18:11Z</time>
      </trkpt>
      <trkpt lat="46.17929" lon="4.66566">
        <ele>403</ele>
        <time>2016-11-03T09:18:17Z</time>
      </trkpt>
      <trkpt lat="46.1793" lon="4.66565">
        <ele>403</ele>
        <time>2016-11-03T09:18:18Z</time>
      </trkpt>
      <trkpt lat="46.17939" lon="4.66565">
        <ele>403</ele>
        <time>2016-11-03T09:18:24Z</time>
      </trkpt>
      <trkpt lat="46.1794" lon="4.66564">
        <ele>403</ele>
        <time>2016-11-03T09:18:25Z</time>
      </trkpt>
      <trkpt lat="46.17947" lon="4.66558">
        <ele>403</ele>
        <time>2016-11-03T09:18:32Z</time>
      </trkpt>
      <trkpt lat="46.17948" lon="4.66558">
        <ele>403</ele>
        <time>2016-11-03T09:18:33Z</time>
      </trkpt>
      <trkpt lat="46.17955" lon="4.66552">
        <ele>403</ele>
        <time>2016-11-03T09:18:40Z</time>
      </trkpt>
      <trkpt lat="46.17956" lon="4.66551">
        <ele>403</ele>
        <time>2016-11-03T09:18:41Z</time>
      </trkpt>
      <trkpt lat="46.17964" lon="4.66546">
        <ele>403</ele>
        <time>2016-11-03T09:18:48Z</time>
      </trkpt>
      <trkpt lat="46.17965" lon="4.66545">
        <ele>403</ele>
        <time>2016-11-03T09:18:49Z</time>
      </trkpt>
      <trkpt lat="46.17971" lon="4.66537">
        <ele>403</ele>
        <time>2016-11-03T09:18:58Z</time>
      </trkpt>
      <trkpt lat="46.17972" lon="4.66536">
        <ele>403</ele>
        <time>2016-11-03T09:18:59Z</time>
      </trkpt>
      <trkpt lat="46.17979" lon="4.66532">
        <ele>403</ele>
        <time>2016-11-03T09:19:22Z</time>
      </trkpt>
      <trkpt lat="46.17981" lon="4.66532">
        <ele>403</ele>
        <time>2016-11-03T09:19:23Z</time>
      </trkpt>
      <trkpt lat="46.1799" lon="4.66531">
        <ele>403</ele>
        <time>2016-11-03T09:19:29Z</time>
      </trkpt>
      <trkpt lat="46.17991" lon="4.6653">
        <ele>403</ele>
        <time>2016-11-03T09:19:30Z</time>
      </trkpt>
      <trkpt lat="46.17999" lon="4.66527">
        <ele>403</ele>
        <time>2016-11-03T09:19:51Z</time>
      </trkpt>
      <trkpt lat="46.18" lon="4.66526">
        <ele>404</ele>
        <time>2016-11-03T09:19:52Z</time>
      </trkpt>
      <trkpt lat="46.18008" lon="4.66525">
        <ele>404</ele>
        <time>2016-11-03T09:19:57Z</time>
      </trkpt>
      <trkpt lat="46.18009" lon="4.66524">
        <ele>404</ele>
        <time>2016-11-03T09:19:58Z</time>
      </trkpt>
      <trkpt lat="46.18017" lon="4.66521">
        <ele>404</ele>
        <time>2016-11-03T09:20:05Z</time>
      </trkpt>
      <trkpt lat="46.18018" lon="4.6652">
        <ele>404</ele>
        <time>2016-11-03T09:20:06Z</time>
      </trkpt>
      <trkpt lat="46.18026" lon="4.66518">
        <ele>404</ele>
        <time>2016-11-03T09:20:17Z</time>
      </trkpt>
      <trkpt lat="46.18027" lon="4.66517">
        <ele>404</ele>
        <time>2016-11-03T09:20:18Z</time>
      </trkpt>
      <trkpt lat="46.18036" lon="4.66515">
        <ele>405</ele>
        <time>2016-11-03T09:20:26Z</time>
      </trkpt>
      <trkpt lat="46.18037" lon="4.66515">
        <ele>405</ele>
        <time>2016-11-03T09:20:27Z</time>
      </trkpt>
      <trkpt lat="46.18045" lon="4.6652">
        <ele>405</ele>
        <time>2016-11-03T09:20:34Z</time>
      </trkpt>
      <trkpt lat="46.18046" lon="4.66522">
        <ele>405</ele>
        <time>2016-11-03T09:20:35Z</time>
      </trkpt>
      <trkpt lat="46.18054" lon="4.66522">
        <ele>405</ele>
        <time>2016-11-03T09:20:42Z</time>
      </trkpt>
      <trkpt lat="46.18055" lon="4.66521">
        <ele>405</ele>
        <time>2016-11-03T09:20:43Z</time>
      </trkpt>
      <trkpt lat="46.1806" lon="4.66511">
        <ele>406</ele>
        <time>2016-11-03T09:23:23Z</time>
      </trkpt>
      <trkpt lat="46.1806" lon="4.6651">
        <ele>406</ele>
        <time>2016-11-03T09:23:24Z</time>
      </trkpt>
      <trkpt lat="46.18063" lon="4.66499">
        <ele>407</ele>
        <time>2016-11-03T09:23:32Z</time>
      </trkpt>
      <trkpt lat="46.18063" lon="4.66497">
        <ele>407</ele>
        <time>2016-11-03T09:23:33Z</time>
      </trkpt>
      <trkpt lat="46.18063" lon="4.66484">
        <ele>407</ele>
        <time>2016-11-03T09:23:41Z</time>
      </trkpt>
      <trkpt lat="46.18062" lon="4.66482">
        <ele>407</ele>
        <time>2016-11-03T09:23:42Z</time>
      </trkpt>
      <trkpt lat="46.1806" lon="4.6647">
        <ele>406</ele>
        <time>2016-11-03T09:23:48Z</time>
      </trkpt>
      <trkpt lat="46.1806" lon="4.66468">
        <ele>406</ele>
        <time>2016-11-03T09:23:49Z</time>
      </trkpt>
      <trkpt lat="46.18059" lon="4.66456">
        <ele>406</ele>
        <time>2016-11-03T09:23:56Z</time>
      </trkpt>
      <trkpt lat="46.18059" lon="4.66454">
        <ele>406</ele>
        <time>2016-11-03T09:23:57Z</time>
      </trkpt>
      <trkpt lat="46.18058" lon="4.66442">
        <ele>406</ele>
        <time>2016-11-03T09:24:03Z</time>
      </trkpt>
      <trkpt lat="46.18059" lon="4.6644">
        <ele>406</ele>
        <time>2016-11-03T09:24:04Z</time>
      </trkpt>
      <trkpt lat="46.18062" lon="4.66429">
        <ele>407</ele>
        <time>2016-11-03T09:24:10Z</time>
      </trkpt>
      <trkpt lat="46.18062" lon="4.66428">
        <ele>407</ele>
        <time>2016-11-03T09:24:11Z</time>
      </trkpt>
      <trkpt lat="46.18065" lon="4.66417">
        <ele>407</ele>
        <time>2016-11-03T09:24:17Z</time>
      </trkpt>
      <trkpt lat="46.18066" lon="4.66415">
        <ele>405</ele>
        <time>2016-11-03T09:24:18Z</time>
      </trkpt>
      <trkpt lat="46.18069" lon="4.66403">
        <ele>404</ele>
        <time>2016-11-03T09:24:25Z</time>
      </trkpt>
      <trkpt lat="46.18069" lon="4.66401">
        <ele>404</ele>
        <time>2016-11-03T09:24:26Z</time>
      </trkpt>
      <trkpt lat="46.18072" lon="4.66391">
        <ele>403</ele>
        <time>2016-11-03T09:24:32Z</time>
      </trkpt>
      <trkpt lat="46.18073" lon="4.66389">
        <ele>403</ele>
        <time>2016-11-03T09:24:33Z</time>
      </trkpt>
      <trkpt lat="46.18076" lon="4.66378">
        <ele>402</ele>
        <time>2016-11-03T09:24:40Z</time>
      </trkpt>
      <trkpt lat="46.18077" lon="4.66377">
        <ele>402</ele>
        <time>2016-11-03T09:24:41Z</time>
      </trkpt>
      <trkpt lat="46.18081" lon="4.66367">
        <ele>401</ele>
        <time>2016-11-03T09:24:48Z</time>
      </trkpt>
      <trkpt lat="46.18082" lon="4.66365">
        <ele>401</ele>
        <time>2016-11-03T09:24:49Z</time>
      </trkpt>
      <trkpt lat="46.18086" lon="4.66355">
        <ele>408</ele>
        <time>2016-11-03T09:24:55Z</time>
      </trkpt>
      <trkpt lat="46.18087" lon="4.66354">
        <ele>408</ele>
        <time>2016-11-03T09:24:56Z</time>
      </trkpt>
      <trkpt lat="46.18092" lon="4.66343">
        <ele>406</ele>
        <time>2016-11-03T09:25:03Z</time>
      </trkpt>
      <trkpt lat="46.18093" lon="4.66341">
        <ele>406</ele>
        <time>2016-11-03T09:25:04Z</time>
      </trkpt>
      <trkpt lat="46.18097" lon="4.6633">
        <ele>403</ele>
        <time>2016-11-03T09:25:10Z</time>
      </trkpt>
      <trkpt lat="46.18098" lon="4.66329">
        <ele>404</ele>
        <time>2016-11-03T09:25:11Z</time>
      </trkpt>
      <trkpt lat="46.18102" lon="4.66318">
        <ele>404</ele>
        <time>2016-11-03T09:25:17Z</time>
      </trkpt>
      <trkpt lat="46.18103" lon="4.66316">
        <ele>405</ele>
        <time>2016-11-03T09:25:18Z</time>
      </trkpt>
      <trkpt lat="46.18108" lon="4.66307">
        <ele>405</ele>
        <time>2016-11-03T09:25:24Z</time>
      </trkpt>
      <trkpt lat="46.18108" lon="4.66306">
        <ele>405</ele>
        <time>2016-11-03T09:25:25Z</time>
      </trkpt>
      <trkpt lat="46.18114" lon="4.66298">
        <ele>406</ele>
        <time>2016-11-03T09:25:31Z</time>
      </trkpt>
      <trkpt lat="46.18116" lon="4.66297">
        <ele>406</ele>
        <time>2016-11-03T09:25:32Z</time>
      </trkpt>
      <trkpt lat="46.18121" lon="4.66289">
        <ele>406</ele>
        <time>2016-11-03T09:25:37Z</time>
      </trkpt>
      <trkpt lat="46.18122" lon="4.66287">
        <ele>406</ele>
        <time>2016-11-03T09:25:38Z</time>
      </trkpt>
      <trkpt lat="46.18125" lon="4.66275">
        <ele>406</ele>
        <time>2016-11-03T09:25:45Z</time>
      </trkpt>
      <trkpt lat="46.18125" lon="4.66274">
        <ele>406</ele>
        <time>2016-11-03T09:25:46Z</time>
      </trkpt>
      <trkpt lat="46.18129" lon="4.66264">
        <ele>406</ele>
        <time>2016-11-03T09:25:53Z</time>
      </trkpt>
      <trkpt lat="46.1813" lon="4.66262">
        <ele>406</ele>
        <time>2016-11-03T09:25:54Z</time>
      </trkpt>
      <trkpt lat="46.18133" lon="4.6625">
        <ele>407</ele>
        <time>2016-11-03T09:26:01Z</time>
      </trkpt>
      <trkpt lat="46.18133" lon="4.66248">
        <ele>405</ele>
        <time>2016-11-03T09:26:02Z</time>
      </trkpt>
      <trkpt lat="46.18134" lon="4.66236">
        <ele>405</ele>
        <time>2016-11-03T09:26:09Z</time>
      </trkpt>
      <trkpt lat="46.18134" lon="4.66234">
        <ele>404</ele>
        <time>2016-11-03T09:26:10Z</time>
      </trkpt>
      <trkpt lat="46.18132" lon="4.66223">
        <ele>404</ele>
        <time>2016-11-03T09:26:16Z</time>
      </trkpt>
      <trkpt lat="46.18132" lon="4.66221">
        <ele>404</ele>
        <time>2016-11-03T09:26:17Z</time>
      </trkpt>
      <trkpt lat="46.18129" lon="4.6621">
        <ele>403</ele>
        <time>2016-11-03T09:26:23Z</time>
      </trkpt>
      <trkpt lat="46.18129" lon="4.66208">
        <ele>403</ele>
        <time>2016-11-03T09:26:24Z</time>
      </trkpt>
      <trkpt lat="46.18125" lon="4.66198">
        <ele>403</ele>
        <time>2016-11-03T09:26:29Z</time>
      </trkpt>
      <trkpt lat="46.18124" lon="4.66196">
        <ele>403</ele>
        <time>2016-11-03T09:26:30Z</time>
      </trkpt>
      <trkpt lat="46.18121" lon="4.66186">
        <ele>402</ele>
        <time>2016-11-03T09:26:35Z</time>
      </trkpt>
      <trkpt lat="46.1812" lon="4.66184">
        <ele>402</ele>
        <time>2016-11-03T09:26:36Z</time>
      </trkpt>
      <trkpt lat="46.18118" lon="4.66173">
        <ele>402</ele>
        <time>2016-11-03T09:26:42Z</time>
      </trkpt>
      <trkpt lat="46.18118" lon="4.66171">
        <ele>402</ele>
        <time>2016-11-03T09:26:43Z</time>
      </trkpt>
      <trkpt lat="46.18118" lon="4.66159">
        <ele>401</ele>
        <time>2016-11-03T09:26:49Z</time>
      </trkpt>
      <trkpt lat="46.18119" lon="4.66157">
        <ele>401</ele>
        <time>2016-11-03T09:26:50Z</time>
      </trkpt>
      <trkpt lat="46.18122" lon="4.66145">
        <ele>401</ele>
        <time>2016-11-03T09:26:56Z</time>
      </trkpt>
      <trkpt lat="46.18123" lon="4.66143">
        <ele>401</ele>
        <time>2016-11-03T09:26:57Z</time>
      </trkpt>
      <trkpt lat="46.18127" lon="4.66133">
        <ele>402</ele>
        <time>2016-11-03T09:27:03Z</time>
      </trkpt>
      <trkpt lat="46.18128" lon="4.66131">
        <ele>402</ele>
        <time>2016-11-03T09:27:04Z</time>
      </trkpt>
      <trkpt lat="46.18131" lon="4.6612">
        <ele>402</ele>
        <time>2016-11-03T09:27:10Z</time>
      </trkpt>
      <trkpt lat="46.18132" lon="4.66119">
        <ele>402</ele>
        <time>2016-11-03T09:27:11Z</time>
      </trkpt>
      <trkpt lat="46.18134" lon="4.66106">
        <ele>402</ele>
        <time>2016-11-03T09:27:18Z</time>
      </trkpt>
      <trkpt lat="46.18134" lon="4.66105">
        <ele>402</ele>
        <time>2016-11-03T09:27:19Z</time>
      </trkpt>
      <trkpt lat="46.18136" lon="4.66093">
        <ele>403</ele>
        <time>2016-11-03T09:27:26Z</time>
      </trkpt>
      <trkpt lat="46.18137" lon="4.66092">
        <ele>403</ele>
        <time>2016-11-03T09:27:27Z</time>
      </trkpt>
      <trkpt lat="46.18141" lon="4.66082">
        <ele>400</ele>
        <time>2016-11-03T09:27:45Z</time>
      </trkpt>
      <trkpt lat="46.18141" lon="4.6608">
        <ele>400</ele>
        <time>2016-11-03T09:27:46Z</time>
      </trkpt>
      <trkpt lat="46.18143" lon="4.66068">
        <ele>400</ele>
        <time>2016-11-03T09:27:53Z</time>
      </trkpt>
      <trkpt lat="46.18144" lon="4.66066">
        <ele>399</ele>
        <time>2016-11-03T09:27:54Z</time>
      </trkpt>
      <trkpt lat="46.18146" lon="4.66055">
        <ele>399</ele>
        <time>2016-11-03T09:28:00Z</time>
      </trkpt>
      <trkpt lat="46.18146" lon="4.66053">
        <ele>399</ele>
        <time>2016-11-03T09:28:01Z</time>
      </trkpt>
      <trkpt lat="46.18151" lon="4.66042">
        <ele>398</ele>
        <time>2016-11-03T09:28:08Z</time>
      </trkpt>
      <trkpt lat="46.18152" lon="4.66041">
        <ele>398</ele>
        <time>2016-11-03T09:28:09Z</time>
      </trkpt>
      <trkpt lat="46.18156" lon="4.66031">
        <ele>398</ele>
        <time>2016-11-03T09:28:15Z</time>
      </trkpt>
      <trkpt lat="46.18156" lon="4.6603">
        <ele>398</ele>
        <time>2016-11-03T09:28:16Z</time>
      </trkpt>
      <trkpt lat="46.18158" lon="4.66018">
        <ele>398</ele>
        <time>2016-11-03T09:28:23Z</time>
      </trkpt>
      <trkpt lat="46.18158" lon="4.66016">
        <ele>398</ele>
        <time>2016-11-03T09:28:24Z</time>
      </trkpt>
      <trkpt lat="46.18163" lon="4.66006">
        <ele>398</ele>
        <time>2016-11-03T09:28:31Z</time>
      </trkpt>
      <trkpt lat="46.18163" lon="4.66004">
        <ele>398</ele>
        <time>2016-11-03T09:28:32Z</time>
      </trkpt>
      <trkpt lat="46.18168" lon="4.65994">
        <ele>400</ele>
        <time>2016-11-03T09:28:39Z</time>
      </trkpt>
      <trkpt lat="46.18168" lon="4.65992">
        <ele>400</ele>
        <time>2016-11-03T09:28:40Z</time>
      </trkpt>
      <trkpt lat="46.18172" lon="4.65983">
        <ele>400</ele>
        <time>2016-11-03T09:28:46Z</time>
      </trkpt>
      <trkpt lat="46.18173" lon="4.65981">
        <ele>400</ele>
        <time>2016-11-03T09:28:47Z</time>
      </trkpt>
      <trkpt lat="46.18176" lon="4.65971">
        <ele>400</ele>
        <time>2016-11-03T09:28:53Z</time>
      </trkpt>
      <trkpt lat="46.18176" lon="4.65969">
        <ele>400</ele>
        <time>2016-11-03T09:28:54Z</time>
      </trkpt>
      <trkpt lat="46.18179" lon="4.65959">
        <ele>400</ele>
        <time>2016-11-03T09:29:00Z</time>
      </trkpt>
      <trkpt lat="46.1818" lon="4.65957">
        <ele>400</ele>
        <time>2016-11-03T09:29:01Z</time>
      </trkpt>
      <trkpt lat="46.18183" lon="4.65946">
        <ele>399</ele>
        <time>2016-11-03T09:29:07Z</time>
      </trkpt>
      <trkpt lat="46.18184" lon="4.65944">
        <ele>399</ele>
        <time>2016-11-03T09:29:08Z</time>
      </trkpt>
      <trkpt lat="46.18187" lon="4.65933">
        <ele>398</ele>
        <time>2016-11-03T09:29:14Z</time>
      </trkpt>
      <trkpt lat="46.18188" lon="4.65931">
        <ele>398</ele>
        <time>2016-11-03T09:29:15Z</time>
      </trkpt>
      <trkpt lat="46.18193" lon="4.65921">
        <ele>398</ele>
        <time>2016-11-03T09:29:21Z</time>
      </trkpt>
      <trkpt lat="46.18194" lon="4.65919">
        <ele>398</ele>
        <time>2016-11-03T09:29:22Z</time>
      </trkpt>
      <trkpt lat="46.182" lon="4.65912">
        <ele>393</ele>
        <time>2016-11-03T09:29:27Z</time>
      </trkpt>
      <trkpt lat="46.18201" lon="4.65911">
        <ele>393</ele>
        <time>2016-11-03T09:29:28Z</time>
      </trkpt>
      <trkpt lat="46.18208" lon="4.65904">
        <ele>393</ele>
        <time>2016-11-03T09:29:34Z</time>
      </trkpt>
      <trkpt lat="46.18209" lon="4.65904">
        <ele>393</ele>
        <time>2016-11-03T09:29:35Z</time>
      </trkpt>
      <trkpt lat="46.18216" lon="4.65898">
        <ele>394</ele>
        <time>2016-11-03T09:29:41Z</time>
      </trkpt>
      <trkpt lat="46.18217" lon="4.65897">
        <ele>394</ele>
        <time>2016-11-03T09:29:42Z</time>
      </trkpt>
      <trkpt lat="46.18225" lon="4.65891">
        <ele>394</ele>
        <time>2016-11-03T09:29:49Z</time>
      </trkpt>
      <trkpt lat="46.18226" lon="4.6589">
        <ele>394</ele>
        <time>2016-11-03T09:29:50Z</time>
      </trkpt>
      <trkpt lat="46.18234" lon="4.65885">
        <ele>394</ele>
        <time>2016-11-03T09:29:57Z</time>
      </trkpt>
      <trkpt lat="46.18234" lon="4.65884">
        <ele>394</ele>
        <time>2016-11-03T09:29:58Z</time>
      </trkpt>
      <trkpt lat="46.18242" lon="4.6588">
        <ele>394</ele>
        <time>2016-11-03T09:30:05Z</time>
      </trkpt>
      <trkpt lat="46.18243" lon="4.6588">
        <ele>394</ele>
        <time>2016-11-03T09:30:06Z</time>
      </trkpt>
      <trkpt lat="46.18251" lon="4.65876">
        <ele>398</ele>
        <time>2016-11-03T09:30:12Z</time>
      </trkpt>
      <trkpt lat="46.18252" lon="4.65876">
        <ele>398</ele>
        <time>2016-11-03T09:30:13Z</time>
      </trkpt>
      <trkpt lat="46.1826" lon="4.65871">
        <ele>398</ele>
        <time>2016-11-03T09:30:19Z</time>
      </trkpt>
      <trkpt lat="46.18262" lon="4.6587">
        <ele>397</ele>
        <time>2016-11-03T09:30:20Z</time>
      </trkpt>
      <trkpt lat="46.18268" lon="4.65864">
        <ele>397</ele>
        <time>2016-11-03T09:30:26Z</time>
      </trkpt>
      <trkpt lat="46.18269" lon="4.65863">
        <ele>397</ele>
        <time>2016-11-03T09:30:27Z</time>
      </trkpt>
      <trkpt lat="46.18278" lon="4.65861">
        <ele>397</ele>
        <time>2016-11-03T09:30:34Z</time>
      </trkpt>
      <trkpt lat="46.18279" lon="4.65861">
        <ele>397</ele>
        <time>2016-11-03T09:30:35Z</time>
      </trkpt>
      <trkpt lat="46.18288" lon="4.65861">
        <ele>398</ele>
        <time>2016-11-03T09:30:42Z</time>
      </trkpt>
      <trkpt lat="46.18289" lon="4.65861">
        <ele>398</ele>
        <time>2016-11-03T09:30:43Z</time>
      </trkpt>
      <trkpt lat="46.18298" lon="4.6586">
        <ele>398</ele>
        <time>2016-11-03T09:30:50Z</time>
      </trkpt>
      <trkpt lat="46.18299" lon="4.6586">
        <ele>398</ele>
        <time>2016-11-03T09:30:51Z</time>
      </trkpt>
      <trkpt lat="46.18307" lon="4.65856">
        <ele>398</ele>
        <time>2016-11-03T09:30:57Z</time>
      </trkpt>
      <trkpt lat="46.18308" lon="4.65855">
        <ele>398</ele>
        <time>2016-11-03T09:30:58Z</time>
      </trkpt>
      <trkpt lat="46.18315" lon="4.65848">
        <ele>398</ele>
        <time>2016-11-03T09:31:07Z</time>
      </trkpt>
      <trkpt lat="46.18316" lon="4.65848">
        <ele>398</ele>
        <time>2016-11-03T09:31:08Z</time>
      </trkpt>
      <trkpt lat="46.18323" lon="4.65839">
        <ele>397</ele>
        <time>2016-11-03T09:31:37Z</time>
      </trkpt>
      <trkpt lat="46.18323" lon="4.65838">
        <ele>397</ele>
        <time>2016-11-03T09:31:38Z</time>
      </trkpt>
      <trkpt lat="46.18328" lon="4.65828">
        <ele>393</ele>
        <time>2016-11-03T09:31:45Z</time>
      </trkpt>
      <trkpt lat="46.18329" lon="4.65827">
        <ele>393</ele>
        <time>2016-11-03T09:31:46Z</time>
      </trkpt>
      <trkpt lat="46.18332" lon="4.65816">
        <ele>391</ele>
        <time>2016-11-03T09:31:52Z</time>
      </trkpt>
      <trkpt lat="46.18332" lon="4.65814">
        <ele>391</ele>
        <time>2016-11-03T09:31:53Z</time>
      </trkpt>
      <trkpt lat="46.18334" lon="4.65803">
        <ele>395</ele>
        <time>2016-11-03T09:31:59Z</time>
      </trkpt>
      <trkpt lat="46.18334" lon="4.65802">
        <ele>395</ele>
        <time>2016-11-03T09:32:00Z</time>
      </trkpt>
      <trkpt lat="46.18339" lon="4.65791">
        <ele>394</ele>
        <time>2016-11-03T09:32:07Z</time>
      </trkpt>
      <trkpt lat="46.1834" lon="4.6579">
        <ele>394</ele>
        <time>2016-11-03T09:32:08Z</time>
      </trkpt>
      <trkpt lat="46.18343" lon="4.65779">
        <ele>393</ele>
        <time>2016-11-03T09:32:15Z</time>
      </trkpt>
      <trkpt lat="46.18344" lon="4.65777">
        <ele>393</ele>
        <time>2016-11-03T09:32:16Z</time>
      </trkpt>
      <trkpt lat="46.18345" lon="4.65766">
        <ele>391</ele>
        <time>2016-11-03T09:32:22Z</time>
      </trkpt>
      <trkpt lat="46.18345" lon="4.65764">
        <ele>391</ele>
        <time>2016-11-03T09:32:23Z</time>
      </trkpt>
      <trkpt lat="46.18347" lon="4.65752">
        <ele>390</ele>
        <time>2016-11-03T09:32:30Z</time>
      </trkpt>
      <trkpt lat="46.18348" lon="4.65751">
        <ele>390</ele>
        <time>2016-11-03T09:32:31Z</time>
      </trkpt>
      <trkpt lat="46.18354" lon="4.65741">
        <ele>387</ele>
        <time>2016-11-03T09:32:38Z</time>
      </trkpt>
      <trkpt lat="46.18354" lon="4.65739">
        <ele>387</ele>
        <time>2016-11-03T09:32:39Z</time>
      </trkpt>
      <trkpt lat="46.18358" lon="4.65728">
        <ele>387</ele>
        <time>2016-11-03T09:32:46Z</time>
      </trkpt>
      <trkpt lat="46.18358" lon="4.65726">
        <ele>387</ele>
        <time>2016-11-03T09:32:47Z</time>
      </trkpt>
      <trkpt lat="46.18361" lon="4.65714">
        <ele>387</ele>
        <time>2016-11-03T09:32:54Z</time>
      </trkpt>
      <trkpt lat="46.18361" lon="4.65712">
        <ele>387</ele>
        <time>2016-11-03T09:32:55Z</time>
      </trkpt>
      <trkpt lat="46.18364" lon="4.657">
        <ele>387</ele>
        <time>2016-11-03T09:33:02Z</time>
      </trkpt>
      <trkpt lat="46.18365" lon="4.65699">
        <ele>387</ele>
        <time>2016-11-03T09:33:03Z</time>
      </trkpt>
      <trkpt lat="46.18368" lon="4.65689">
        <ele>387</ele>
        <time>2016-11-03T09:33:09Z</time>
      </trkpt>
      <trkpt lat="46.18369" lon="4.65687">
        <ele>387</ele>
        <time>2016-11-03T09:33:10Z</time>
      </trkpt>
      <trkpt lat="46.18373" lon="4.65678">
        <ele>387</ele>
        <time>2016-11-03T09:33:16Z</time>
      </trkpt>
      <trkpt lat="46.18374" lon="4.65676">
        <ele>387</ele>
        <time>2016-11-03T09:33:17Z</time>
      </trkpt>
      <trkpt lat="46.18377" lon="4.65665">
        <ele>388</ele>
        <time>2016-11-03T09:33:24Z</time>
      </trkpt>
      <trkpt lat="46.18378" lon="4.65663">
        <ele>388</ele>
        <time>2016-11-03T09:33:25Z</time>
      </trkpt>
      <trkpt lat="46.1838" lon="4.65651">
        <ele>388</ele>
        <time>2016-11-03T09:33:32Z</time>
      </trkpt>
      <trkpt lat="46.1838" lon="4.65649">
        <ele>388</ele>
        <time>2016-11-03T09:33:33Z</time>
      </trkpt>
      <trkpt lat="46.18379" lon="4.65637">
        <ele>388</ele>
        <time>2016-11-03T09:33:39Z</time>
      </trkpt>
      <trkpt lat="46.18379" lon="4.65635">
        <ele>388</ele>
        <time>2016-11-03T09:33:40Z</time>
      </trkpt>
      <trkpt lat="46.18377" lon="4.65624">
        <ele>388</ele>
        <time>2016-11-03T09:33:46Z</time>
      </trkpt>
      <trkpt lat="46.18376" lon="4.65623">
        <ele>388</ele>
        <time>2016-11-03T09:33:47Z</time>
      </trkpt>
      <trkpt lat="46.18373" lon="4.65612">
        <ele>389</ele>
        <time>2016-11-03T09:33:53Z</time>
      </trkpt>
      <trkpt lat="46.18373" lon="4.6561">
        <ele>389</ele>
        <time>2016-11-03T09:33:54Z</time>
      </trkpt>
      <trkpt lat="46.18368" lon="4.65601">
        <ele>388</ele>
        <time>2016-11-03T09:34:00Z</time>
      </trkpt>
      <trkpt lat="46.18367" lon="4.65599">
        <ele>388</ele>
        <time>2016-11-03T09:34:01Z</time>
      </trkpt>
      <trkpt lat="46.18363" lon="4.65589">
        <ele>388</ele>
        <time>2016-11-03T09:34:22Z</time>
      </trkpt>
      <trkpt lat="46.18363" lon="4.65588">
        <ele>388</ele>
        <time>2016-11-03T09:34:23Z</time>
      </trkpt>
      <trkpt lat="46.18356" lon="4.65581">
        <ele>392</ele>
        <time>2016-11-03T09:34:36Z</time>
      </trkpt>
      <trkpt lat="46.18355" lon="4.65581">
        <ele>392</ele>
        <time>2016-11-03T09:34:37Z</time>
      </trkpt>
      <trkpt lat="46.18347" lon="4.65585">
        <ele>388</ele>
        <time>2016-11-03T09:34:44Z</time>
      </trkpt>
      <trkpt lat="46.18346" lon="4.65586">
        <ele>388</ele>
        <time>2016-11-03T09:34:45Z</time>
      </trkpt>
      <trkpt lat="46.18339" lon="4.65593">
        <ele>387</ele>
        <time>2016-11-03T09:34:52Z</time>
      </trkpt>
      <trkpt lat="46.18338" lon="4.65594">
        <ele>387</ele>
        <time>2016-11-03T09:34:53Z</time>
      </trkpt>
      <trkpt lat="46.18331" lon="4.656">
        <ele>384</ele>
        <time>2016-11-03T09:34:59Z</time>
      </trkpt>
      <trkpt lat="46.18329" lon="4.65601">
        <ele>383</ele>
        <time>2016-11-03T09:35:00Z</time>
      </trkpt>
      <trkpt lat="46.18322" lon="4.65606">
        <ele>382</ele>
        <time>2016-11-03T09:35:06Z</time>
      </trkpt>
      <trkpt lat="46.1832" lon="4.65607">
        <ele>382</ele>
        <time>2016-11-03T09:35:07Z</time>
      </trkpt>
      <trkpt lat="46.18312" lon="4.65611">
        <ele>381</ele>
        <time>2016-11-03T09:35:14Z</time>
      </trkpt>
      <trkpt lat="46.18311" lon="4.65612">
        <ele>381</ele>
        <time>2016-11-03T09:35:15Z</time>
      </trkpt>
      <trkpt lat="46.18303" lon="4.65612">
        <ele>381</ele>
        <time>2016-11-03T09:35:21Z</time>
      </trkpt>
      <trkpt lat="46.18302" lon="4.65612">
        <ele>381</ele>
        <time>2016-11-03T09:35:22Z</time>
      </trkpt>
      <trkpt lat="46.18294" lon="4.65611">
        <ele>381</ele>
        <time>2016-11-03T09:35:27Z</time>
      </trkpt>
      <trkpt lat="46.18292" lon="4.6561">
        <ele>381</ele>
        <time>2016-11-03T09:35:28Z</time>
      </trkpt>
      <trkpt lat="46.18284" lon="4.65608">
        <ele>381</ele>
        <time>2016-11-03T09:35:34Z</time>
      </trkpt>
      <trkpt lat="46.18282" lon="4.65607">
        <ele>381</ele>
        <time>2016-11-03T09:35:35Z</time>
      </trkpt>
      <trkpt lat="46.18274" lon="4.65603">
        <ele>381</ele>
        <time>2016-11-03T09:35:42Z</time>
      </trkpt>
      <trkpt lat="46.18273" lon="4.65603">
        <ele>381</ele>
        <time>2016-11-03T09:35:43Z</time>
      </trkpt>
      <trkpt lat="46.18265" lon="4.65599">
        <ele>381</ele>
        <time>2016-11-03T09:35:50Z</time>
      </trkpt>
      <trkpt lat="46.18263" lon="4.65598">
        <ele>381</ele>
        <time>2016-11-03T09:35:51Z</time>
      </trkpt>
      <trkpt lat="46.18255" lon="4.65593">
        <ele>382</ele>
        <time>2016-11-03T09:35:58Z</time>
      </trkpt>
      <trkpt lat="46.18254" lon="4.65592">
        <ele>382</ele>
        <time>2016-11-03T09:35:59Z</time>
      </trkpt>
      <trkpt lat="46.18248" lon="4.65583">
        <ele>382</ele>
        <time>2016-11-03T09:36:06Z</time>
      </trkpt>
      <trkpt lat="46.18247" lon="4.65582">
        <ele>383</ele>
        <time>2016-11-03T09:36:07Z</time>
      </trkpt>
      <trkpt lat="46.1824" lon="4.65575">
        <ele>384</ele>
        <time>2016-11-03T09:36:14Z</time>
      </trkpt>
      <trkpt lat="46.18239" lon="4.65574">
        <ele>384</ele>
        <time>2016-11-03T09:36:15Z</time>
      </trkpt>
      <trkpt lat="46.18233" lon="4.65566">
        <ele>385</ele>
        <time>2016-11-03T09:36:22Z</time>
      </trkpt>
      <trkpt lat="46.18232" lon="4.65565">
        <ele>385</ele>
        <time>2016-11-03T09:36:23Z</time>
      </trkpt>
      <trkpt lat="46.18227" lon="4.65556">
        <ele>386</ele>
        <time>2016-11-03T09:36:30Z</time>
      </trkpt>
      <trkpt lat="46.18226" lon="4.65555">
        <ele>386</ele>
        <time>2016-11-03T09:36:31Z</time>
      </trkpt>
      <trkpt lat="46.1822" lon="4.65546">
        <ele>386</ele>
        <time>2016-11-03T09:36:38Z</time>
      </trkpt>
      <trkpt lat="46.18219" lon="4.65545">
        <ele>387</ele>
        <time>2016-11-03T09:36:39Z</time>
      </trkpt>
      <trkpt lat="46.18211" lon="4.65539">
        <ele>387</ele>
        <time>2016-11-03T09:36:45Z</time>
      </trkpt>
      <trkpt lat="46.1821" lon="4.65539">
        <ele>387</ele>
        <time>2016-11-03T09:36:46Z</time>
      </trkpt>
      <trkpt lat="46.18201" lon="4.65535">
        <ele>387</ele>
        <time>2016-11-03T09:36:52Z</time>
      </trkpt>
      <trkpt lat="46.182" lon="4.65535">
        <ele>387</ele>
        <time>2016-11-03T09:36:53Z</time>
      </trkpt>
      <trkpt lat="46.18192" lon="4.65536">
        <ele>387</ele>
        <time>2016-11-03T09:36:59Z</time>
      </trkpt>
      <trkpt lat="46.1819" lon="4.65537">
        <ele>386</ele>
        <time>2016-11-03T09:37:00Z</time>
      </trkpt>
      <trkpt lat="46.18182" lon="4.6554">
        <ele>386</ele>
        <time>2016-11-03T09:37:06Z</time>
      </trkpt>
      <trkpt lat="46.18181" lon="4.6554">
        <ele>386</ele>
        <time>2016-11-03T09:37:07Z</time>
      </trkpt>
      <trkpt lat="46.18173" lon="4.65545">
        <ele>385</ele>
        <time>2016-11-03T09:37:13Z</time>
      </trkpt>
      <trkpt lat="46.18171" lon="4.65545">
        <ele>385</ele>
        <time>2016-11-03T09:37:14Z</time>
      </trkpt>
      <trkpt lat="46.18163" lon="4.65549">
        <ele>380</ele>
        <time>2016-11-03T09:37:20Z</time>
      </trkpt>
      <trkpt lat="46.18162" lon="4.65549">
        <ele>380</ele>
        <time>2016-11-03T09:37:21Z</time>
      </trkpt>
      <trkpt lat="46.18153" lon="4.65552">
        <ele>379</ele>
        <time>2016-11-03T09:37:27Z</time>
      </trkpt>
      <trkpt lat="46.18152" lon="4.65553">
        <ele>379</ele>
        <time>2016-11-03T09:37:28Z</time>
      </trkpt>
      <trkpt lat="46.18145" lon="4.65557">
        <ele>379</ele>
        <time>2016-11-03T09:37:34Z</time>
      </trkpt>
      <trkpt lat="46.18143" lon="4.65557">
        <ele>379</ele>
        <time>2016-11-03T09:37:35Z</time>
      </trkpt>
      <trkpt lat="46.18135" lon="4.65554">
        <ele>379</ele>
        <time>2016-11-03T09:37:42Z</time>
      </trkpt>
      <trkpt lat="46.18134" lon="4.65553">
        <ele>379</ele>
        <time>2016-11-03T09:37:43Z</time>
      </trkpt>
      <trkpt lat="46.18128" lon="4.65544">
        <ele>379</ele>
        <time>2016-11-03T09:37:50Z</time>
      </trkpt>
      <trkpt lat="46.18128" lon="4.65542">
        <ele>379</ele>
        <time>2016-11-03T09:37:51Z</time>
      </trkpt>
      <trkpt lat="46.18124" lon="4.65531">
        <ele>380</ele>
        <time>2016-11-03T09:37:57Z</time>
      </trkpt>
      <trkpt lat="46.18123" lon="4.65529">
        <ele>380</ele>
        <time>2016-11-03T09:37:58Z</time>
      </trkpt>
      <trkpt lat="46.1812" lon="4.65519">
        <ele>380</ele>
        <time>2016-11-03T09:38:03Z</time>
      </trkpt>
      <trkpt lat="46.1812" lon="4.65517">
        <ele>380</ele>
        <time>2016-11-03T09:38:04Z</time>
      </trkpt>
      <trkpt lat="46.18117" lon="4.65506">
        <ele>380</ele>
        <time>2016-11-03T09:38:09Z</time>
      </trkpt>
      <trkpt lat="46.18116" lon="4.65504">
        <ele>380</ele>
        <time>2016-11-03T09:38:10Z</time>
      </trkpt>
      <trkpt lat="46.18112" lon="4.65493">
        <ele>383</ele>
        <time>2016-11-03T09:38:17Z</time>
      </trkpt>
      <trkpt lat="46.18112" lon="4.65492">
        <ele>383</ele>
        <time>2016-11-03T09:38:18Z</time>
      </trkpt>
      <trkpt lat="46.1812" lon="4.6549">
        <ele>384</ele>
        <time>2016-11-03T09:38:31Z</time>
      </trkpt>
      <trkpt lat="46.18121" lon="4.6549">
        <ele>384</ele>
        <time>2016-11-03T09:38:32Z</time>
      </trkpt>
      <trkpt lat="46.18128" lon="4.65496">
        <ele>385</ele>
        <time>2016-11-03T09:38:40Z</time>
      </trkpt>
      <trkpt lat="46.18129" lon="4.65496">
        <ele>385</ele>
        <time>2016-11-03T09:38:41Z</time>
      </trkpt>
      <trkpt lat="46.18137" lon="4.65499">
        <ele>386</ele>
        <time>2016-11-03T09:38:50Z</time>
      </trkpt>
      <trkpt lat="46.18138" lon="4.65499">
        <ele>386</ele>
        <time>2016-11-03T09:38:51Z</time>
      </trkpt>
      <trkpt lat="46.18146" lon="4.65503">
        <ele>384</ele>
        <time>2016-11-03T09:38:59Z</time>
      </trkpt>
      <trkpt lat="46.18147" lon="4.65504">
        <ele>384</ele>
        <time>2016-11-03T09:39:00Z</time>
      </trkpt>
      <trkpt lat="46.18155" lon="4.65506">
        <ele>386</ele>
        <time>2016-11-03T09:39:08Z</time>
      </trkpt>
      <trkpt lat="46.18156" lon="4.65506">
        <ele>386</ele>
        <time>2016-11-03T09:39:09Z</time>
      </trkpt>
      <trkpt lat="46.18164" lon="4.65507">
        <ele>388</ele>
        <time>2016-11-03T09:39:17Z</time>
      </trkpt>
      <trkpt lat="46.18165" lon="4.65507">
        <ele>388</ele>
        <time>2016-11-03T09:39:18Z</time>
      </trkpt>
      <trkpt lat="46.18174" lon="4.65505">
        <ele>390</ele>
        <time>2016-11-03T09:39:26Z</time>
      </trkpt>
      <trkpt lat="46.18175" lon="4.65504">
        <ele>390</ele>
        <time>2016-11-03T09:39:27Z</time>
      </trkpt>
      <trkpt lat="46.18182" lon="4.65496">
        <ele>394</ele>
        <time>2016-11-03T09:39:36Z</time>
      </trkpt>
      <trkpt lat="46.18183" lon="4.65496">
        <ele>394</ele>
        <time>2016-11-03T09:39:37Z</time>
      </trkpt>
      <trkpt lat="46.18186" lon="4.65485">
        <ele>395</ele>
        <time>2016-11-03T09:39:46Z</time>
      </trkpt>
      <trkpt lat="46.18186" lon="4.65484">
        <ele>395</ele>
        <time>2016-11-03T09:39:47Z</time>
      </trkpt>
      <trkpt lat="46.18189" lon="4.65472">
        <ele>395</ele>
        <time>2016-11-03T09:39:56Z</time>
      </trkpt>
      <trkpt lat="46.1819" lon="4.6547">
        <ele>396</ele>
        <time>2016-11-03T09:39:57Z</time>
      </trkpt>
      <trkpt lat="46.18193" lon="4.65459">
        <ele>396</ele>
        <time>2016-11-03T09:40:06Z</time>
      </trkpt>
      <trkpt lat="46.18193" lon="4.65457">
        <ele>396</ele>
        <time>2016-11-03T09:40:07Z</time>
      </trkpt>
      <trkpt lat="46.18197" lon="4.65445">
        <ele>397</ele>
        <time>2016-11-03T09:40:16Z</time>
      </trkpt>
      <trkpt lat="46.18197" lon="4.65444">
        <ele>397</ele>
        <time>2016-11-03T09:40:17Z</time>
      </trkpt>
      <trkpt lat="46.18203" lon="4.65436">
        <ele>398</ele>
        <time>2016-11-03T09:40:25Z</time>
      </trkpt>
      <trkpt lat="46.18204" lon="4.65435">
        <ele>398</ele>
        <time>2016-11-03T09:40:26Z</time>
      </trkpt>
      <trkpt lat="46.1821" lon="4.65426">
        <ele>399</ele>
        <time>2016-11-03T09:40:35Z</time>
      </trkpt>
      <trkpt lat="46.18211" lon="4.65425">
        <ele>399</ele>
        <time>2016-11-03T09:40:36Z</time>
      </trkpt>
      <trkpt lat="46.18218" lon="4.65419">
        <ele>400</ele>
        <time>2016-11-03T09:40:44Z</time>
      </trkpt>
      <trkpt lat="46.18219" lon="4.65418">
        <ele>400</ele>
        <time>2016-11-03T09:40:45Z</time>
      </trkpt>
      <trkpt lat="46.18228" lon="4.65414">
        <ele>404</ele>
        <time>2016-11-03T09:40:53Z</time>
      </trkpt>
      <trkpt lat="46.18229" lon="4.65414">
        <ele>404</ele>
        <time>2016-11-03T09:40:54Z</time>
      </trkpt>
      <trkpt lat="46.18237" lon="4.65411">
        <ele>405</ele>
        <time>2016-11-03T09:41:00Z</time>
      </trkpt>
      <trkpt lat="46.18238" lon="4.65411">
        <ele>405</ele>
        <time>2016-11-03T09:41:01Z</time>
      </trkpt>
      <trkpt lat="46.18246" lon="4.65411">
        <ele>406</ele>
        <time>2016-11-03T09:41:08Z</time>
      </trkpt>
      <trkpt lat="46.18247" lon="4.65411">
        <ele>406</ele>
        <time>2016-11-03T09:41:09Z</time>
      </trkpt>
      <trkpt lat="46.18255" lon="4.6541">
        <ele>409</ele>
        <time>2016-11-03T09:41:16Z</time>
      </trkpt>
      <trkpt lat="46.18256" lon="4.65409">
        <ele>409</ele>
        <time>2016-11-03T09:41:17Z</time>
      </trkpt>
      <trkpt lat="46.18263" lon="4.65402">
        <ele>410</ele>
        <time>2016-11-03T09:41:26Z</time>
      </trkpt>
      <trkpt lat="46.18263" lon="4.65401">
        <ele>410</ele>
        <time>2016-11-03T09:41:27Z</time>
      </trkpt>
      <trkpt lat="46.18269" lon="4.65393">
        <ele>411</ele>
        <time>2016-11-03T09:41:34Z</time>
      </trkpt>
      <trkpt lat="46.1827" lon="4.65392">
        <ele>411</ele>
        <time>2016-11-03T09:41:35Z</time>
      </trkpt>
      <trkpt lat="46.18278" lon="4.65385">
        <ele>412</ele>
        <time>2016-11-03T09:41:43Z</time>
      </trkpt>
      <trkpt lat="46.18279" lon="4.65385">
        <ele>412</ele>
        <time>2016-11-03T09:41:44Z</time>
      </trkpt>
      <trkpt lat="46.18286" lon="4.65384">
        <ele>412</ele>
        <time>2016-11-03T09:41:51Z</time>
      </trkpt>
      <trkpt lat="46.18288" lon="4.65384">
        <ele>412</ele>
        <time>2016-11-03T09:41:52Z</time>
      </trkpt>
      <trkpt lat="46.18296" lon="4.65385">
        <ele>413</ele>
        <time>2016-11-03T09:42:01Z</time>
      </trkpt>
      <trkpt lat="46.18297" lon="4.65385">
        <ele>413</ele>
        <time>2016-11-03T09:42:02Z</time>
      </trkpt>
      <trkpt lat="46.18305" lon="4.65382">
        <ele>413</ele>
        <time>2016-11-03T09:42:16Z</time>
      </trkpt>
      <trkpt lat="46.18306" lon="4.65382">
        <ele>413</ele>
        <time>2016-11-03T09:42:17Z</time>
      </trkpt>
      <trkpt lat="46.18314" lon="4.6538">
        <ele>414</ele>
        <time>2016-11-03T09:42:24Z</time>
      </trkpt>
      <trkpt lat="46.18315" lon="4.6538">
        <ele>414</ele>
        <time>2016-11-03T09:42:25Z</time>
      </trkpt>
      <trkpt lat="46.18324" lon="4.6538">
        <ele>414</ele>
        <time>2016-11-03T09:42:33Z</time>
      </trkpt>
      <trkpt lat="46.18325" lon="4.6538">
        <ele>414</ele>
        <time>2016-11-03T09:42:34Z</time>
      </trkpt>
      <trkpt lat="46.18333" lon="4.65379">
        <ele>414</ele>
        <time>2016-11-03T09:42:42Z</time>
      </trkpt>
      <trkpt lat="46.18334" lon="4.65379">
        <ele>418</ele>
        <time>2016-11-03T09:42:43Z</time>
      </trkpt>
      <trkpt lat="46.18343" lon="4.65377">
        <ele>419</ele>
        <time>2016-11-03T09:42:52Z</time>
      </trkpt>
      <trkpt lat="46.18344" lon="4.65377">
        <ele>419</ele>
        <time>2016-11-03T09:42:53Z</time>
      </trkpt>
      <trkpt lat="46.18353" lon="4.65376">
        <ele>419</ele>
        <time>2016-11-03T09:43:02Z</time>
      </trkpt>
      <trkpt lat="46.18354" lon="4.65375">
        <ele>419</ele>
        <time>2016-11-03T09:43:03Z</time>
      </trkpt>
      <trkpt lat="46.18362" lon="4.65373">
        <ele>419</ele>
        <time>2016-11-03T09:43:12Z</time>
      </trkpt>
      <trkpt lat="46.18363" lon="4.65373">
        <ele>419</ele>
        <time>2016-11-03T09:43:13Z</time>
      </trkpt>
      <trkpt lat="46.18372" lon="4.65372">
        <ele>420</ele>
        <time>2016-11-03T09:43:22Z</time>
      </trkpt>
      <trkpt lat="46.18373" lon="4.65372">
        <ele>420</ele>
        <time>2016-11-03T09:43:23Z</time>
      </trkpt>
      <trkpt lat="46.18381" lon="4.65371">
        <ele>420</ele>
        <time>2016-11-03T09:43:31Z</time>
      </trkpt>
      <trkpt lat="46.18382" lon="4.65371">
        <ele>420</ele>
        <time>2016-11-03T09:43:32Z</time>
      </trkpt>
      <trkpt lat="46.1839" lon="4.65368">
        <ele>421</ele>
        <time>2016-11-03T09:43:40Z</time>
      </trkpt>
      <trkpt lat="46.18391" lon="4.65368">
        <ele>421</ele>
        <time>2016-11-03T09:43:41Z</time>
      </trkpt>
      <trkpt lat="46.18399" lon="4.65367">
        <ele>421</ele>
        <time>2016-11-03T09:43:49Z</time>
      </trkpt>
      <trkpt lat="46.184" lon="4.65367">
        <ele>421</ele>
        <time>2016-11-03T09:43:50Z</time>
      </trkpt>
      <trkpt lat="46.18408" lon="4.65365">
        <ele>422</ele>
        <time>2016-11-03T09:43:59Z</time>
      </trkpt>
      <trkpt lat="46.18409" lon="4.65364">
        <ele>422</ele>
        <time>2016-11-03T09:44:00Z</time>
      </trkpt>
      <trkpt lat="46.18418" lon="4.65362">
        <ele>427</ele>
        <time>2016-11-03T09:44:09Z</time>
      </trkpt>
      <trkpt lat="46.18418" lon="4.65362">
        <ele>427</ele>
        <time>2016-11-03T09:44:10Z</time>
      </trkpt>
      <trkpt lat="46.18426" lon="4.65357">
        <ele>427</ele>
        <time>2016-11-03T09:44:20Z</time>
      </trkpt>
      <trkpt lat="46.18427" lon="4.65356">
        <ele>427</ele>
        <time>2016-11-03T09:44:21Z</time>
      </trkpt>
      <trkpt lat="46.18434" lon="4.65352">
        <ele>428</ele>
        <time>2016-11-03T09:44:31Z</time>
      </trkpt>
      <trkpt lat="46.18435" lon="4.65351">
        <ele>428</ele>
        <time>2016-11-03T09:44:32Z</time>
      </trkpt>
      <trkpt lat="46.18443" lon="4.65347">
        <ele>428</ele>
        <time>2016-11-03T09:44:41Z</time>
      </trkpt>
      <trkpt lat="46.18444" lon="4.65346">
        <ele>428</ele>
        <time>2016-11-03T09:44:42Z</time>
      </trkpt>
      <trkpt lat="46.18451" lon="4.6534">
        <ele>429</ele>
        <time>2016-11-03T09:44:51Z</time>
      </trkpt>
      <trkpt lat="46.18452" lon="4.65339">
        <ele>429</ele>
        <time>2016-11-03T09:44:52Z</time>
      </trkpt>
      <trkpt lat="46.1846" lon="4.65335">
        <ele>429</ele>
        <time>2016-11-03T09:45:02Z</time>
      </trkpt>
      <trkpt lat="46.18461" lon="4.65335">
        <ele>429</ele>
        <time>2016-11-03T09:45:03Z</time>
      </trkpt>
      <trkpt lat="46.18469" lon="4.65329">
        <ele>436</ele>
        <time>2016-11-03T09:45:13Z</time>
      </trkpt>
      <trkpt lat="46.1847" lon="4.65329">
        <ele>436</ele>
        <time>2016-11-03T09:45:14Z</time>
      </trkpt>
      <trkpt lat="46.18478" lon="4.65324">
        <ele>437</ele>
        <time>2016-11-03T09:45:24Z</time>
      </trkpt>
      <trkpt lat="46.18479" lon="4.65323">
        <ele>437</ele>
        <time>2016-11-03T09:45:25Z</time>
      </trkpt>
      <trkpt lat="46.18486" lon="4.65317">
        <ele>437</ele>
        <time>2016-11-03T09:45:34Z</time>
      </trkpt>
      <trkpt lat="46.18487" lon="4.65317">
        <ele>437</ele>
        <time>2016-11-03T09:45:35Z</time>
      </trkpt>
      <trkpt lat="46.18495" lon="4.65311">
        <ele>438</ele>
        <time>2016-11-03T09:45:44Z</time>
      </trkpt>
      <trkpt lat="46.18496" lon="4.65311">
        <ele>438</ele>
        <time>2016-11-03T09:45:45Z</time>
      </trkpt>
      <trkpt lat="46.18503" lon="4.65306">
        <ele>442</ele>
        <time>2016-11-03T09:45:54Z</time>
      </trkpt>
      <trkpt lat="46.18504" lon="4.65305">
        <ele>442</ele>
        <time>2016-11-03T09:45:55Z</time>
      </trkpt>
      <trkpt lat="46.18511" lon="4.65298">
        <ele>443</ele>
        <time>2016-11-03T09:46:04Z</time>
      </trkpt>
      <trkpt lat="46.18512" lon="4.65297">
        <ele>443</ele>
        <time>2016-11-03T09:46:05Z</time>
      </trkpt>
      <trkpt lat="46.18519" lon="4.65289">
        <ele>444</ele>
        <time>2016-11-03T09:46:13Z</time>
      </trkpt>
      <trkpt lat="46.18519" lon="4.65288">
        <ele>444</ele>
        <time>2016-11-03T09:46:14Z</time>
      </trkpt>
      <trkpt lat="46.18526" lon="4.65279">
        <ele>445</ele>
        <time>2016-11-03T09:46:23Z</time>
      </trkpt>
      <trkpt lat="46.18526" lon="4.65278">
        <ele>445</ele>
        <time>2016-11-03T09:46:24Z</time>
      </trkpt>
      <trkpt lat="46.18532" lon="4.65269">
        <ele>445</ele>
        <time>2016-11-03T09:46:34Z</time>
      </trkpt>
      <trkpt lat="46.18533" lon="4.65268">
        <ele>446</ele>
        <time>2016-11-03T09:46:35Z</time>
      </trkpt>
      <trkpt lat="46.18538" lon="4.65259">
        <ele>446</ele>
        <time>2016-11-03T09:46:44Z</time>
      </trkpt>
      <trkpt lat="46.18539" lon="4.65257">
        <ele>446</ele>
        <time>2016-11-03T09:46:45Z</time>
      </trkpt>
      <trkpt lat="46.18544" lon="4.65247">
        <ele>451</ele>
        <time>2016-11-03T09:46:54Z</time>
      </trkpt>
      <trkpt lat="46.18545" lon="4.65246">
        <ele>451</ele>
        <time>2016-11-03T09:46:55Z</time>
      </trkpt>
      <trkpt lat="46.18547" lon="4.65235">
        <ele>452</ele>
        <time>2016-11-03T09:47:02Z</time>
      </trkpt>
      <trkpt lat="46.18548" lon="4.65234">
        <ele>452</ele>
        <time>2016-11-03T09:47:03Z</time>
      </trkpt>
      <trkpt lat="46.18552" lon="4.65223">
        <ele>452</ele>
        <time>2016-11-03T09:47:10Z</time>
      </trkpt>
      <trkpt lat="46.18553" lon="4.65222">
        <ele>452</ele>
        <time>2016-11-03T09:47:11Z</time>
      </trkpt>
      <trkpt lat="46.18554" lon="4.6521">
        <ele>452</ele>
        <time>2016-11-03T09:47:19Z</time>
      </trkpt>
      <trkpt lat="46.18554" lon="4.65208">
        <ele>452</ele>
        <time>2016-11-03T09:47:20Z</time>
      </trkpt>
      <trkpt lat="46.18555" lon="4.65197">
        <ele>452</ele>
        <time>2016-11-03T09:47:28Z</time>
      </trkpt>
      <trkpt lat="46.18555" lon="4.65195">
        <ele>452</ele>
        <time>2016-11-03T09:47:29Z</time>
      </trkpt>
      <trkpt lat="46.18559" lon="4.65184">
        <ele>453</ele>
        <time>2016-11-03T09:47:39Z</time>
      </trkpt>
      <trkpt lat="46.1856" lon="4.65183">
        <ele>453</ele>
        <time>2016-11-03T09:47:40Z</time>
      </trkpt>
      <trkpt lat="46.18567" lon="4.65177">
        <ele>454</ele>
        <time>2016-11-03T09:47:49Z</time>
      </trkpt>
      <trkpt lat="46.18568" lon="4.65176">
        <ele>454</ele>
        <time>2016-11-03T09:47:50Z</time>
      </trkpt>
      <trkpt lat="46.18576" lon="4.65172">
        <ele>455</ele>
        <time>2016-11-03T09:47:58Z</time>
      </trkpt>
      <trkpt lat="46.18577" lon="4.65171">
        <ele>455</ele>
        <time>2016-11-03T09:47:59Z</time>
      </trkpt>
      <trkpt lat="46.18584" lon="4.65168">
        <ele>457</ele>
        <time>2016-11-03T09:48:06Z</time>
      </trkpt>
      <trkpt lat="46.18586" lon="4.65168">
        <ele>457</ele>
        <time>2016-11-03T09:48:07Z</time>
      </trkpt>
      <trkpt lat="46.18594" lon="4.65165">
        <ele>458</ele>
        <time>2016-11-03T09:48:15Z</time>
      </trkpt>
      <trkpt lat="46.18595" lon="4.65164">
        <ele>458</ele>
        <time>2016-11-03T09:48:16Z</time>
      </trkpt>
      <trkpt lat="46.18603" lon="4.6516">
        <ele>459</ele>
        <time>2016-11-03T09:48:24Z</time>
      </trkpt>
      <trkpt lat="46.18604" lon="4.65159">
        <ele>459</ele>
        <time>2016-11-03T09:48:25Z</time>
      </trkpt>
      <trkpt lat="46.18612" lon="4.65157">
        <ele>460</ele>
        <time>2016-11-03T09:48:34Z</time>
      </trkpt>
      <trkpt lat="46.18613" lon="4.65157">
        <ele>460</ele>
        <time>2016-11-03T09:48:35Z</time>
      </trkpt>
      <trkpt lat="46.18622" lon="4.65154">
        <ele>461</ele>
        <time>2016-11-03T09:48:45Z</time>
      </trkpt>
      <trkpt lat="46.18622" lon="4.65154">
        <ele>461</ele>
        <time>2016-11-03T09:48:46Z</time>
      </trkpt>
      <trkpt lat="46.1863" lon="4.65151">
        <ele>462</ele>
        <time>2016-11-03T09:48:56Z</time>
      </trkpt>
      <trkpt lat="46.18631" lon="4.65151">
        <ele>462</ele>
        <time>2016-11-03T09:48:57Z</time>
      </trkpt>
      <trkpt lat="46.18639" lon="4.65147">
        <ele>462</ele>
        <time>2016-11-03T09:49:07Z</time>
      </trkpt>
      <trkpt lat="46.1864" lon="4.65147">
        <ele>462</ele>
        <time>2016-11-03T09:49:08Z</time>
      </trkpt>
      <trkpt lat="46.18648" lon="4.65143">
        <ele>463</ele>
        <time>2016-11-03T09:49:18Z</time>
      </trkpt>
      <trkpt lat="46.18648" lon="4.65143">
        <ele>463</ele>
        <time>2016-11-03T09:49:19Z</time>
      </trkpt>
      <trkpt lat="46.18657" lon="4.6514">
        <ele>463</ele>
        <time>2016-11-03T09:49:29Z</time>
      </trkpt>
      <trkpt lat="46.18658" lon="4.6514">
        <ele>463</ele>
        <time>2016-11-03T09:49:30Z</time>
      </trkpt>
      <trkpt lat="46.18666" lon="4.65139">
        <ele>463</ele>
        <time>2016-11-03T09:49:39Z</time>
      </trkpt>
      <trkpt lat="46.18667" lon="4.65139">
        <ele>470</ele>
        <time>2016-11-03T09:49:40Z</time>
      </trkpt>
      <trkpt lat="46.18676" lon="4.65137">
        <ele>471</ele>
        <time>2016-11-03T09:49:50Z</time>
      </trkpt>
      <trkpt lat="46.18677" lon="4.65136">
        <ele>471</ele>
        <time>2016-11-03T09:49:51Z</time>
      </trkpt>
      <trkpt lat="46.18686" lon="4.65133">
        <ele>472</ele>
        <time>2016-11-03T09:50:00Z</time>
      </trkpt>
      <trkpt lat="46.18687" lon="4.65133">
        <ele>472</ele>
        <time>2016-11-03T09:50:01Z</time>
      </trkpt>
      <trkpt lat="46.18695" lon="4.65131">
        <ele>472</ele>
        <time>2016-11-03T09:50:10Z</time>
      </trkpt>
      <trkpt lat="46.18696" lon="4.6513">
        <ele>472</ele>
        <time>2016-11-03T09:50:11Z</time>
      </trkpt>
      <trkpt lat="46.18704" lon="4.65128">
        <ele>473</ele>
        <time>2016-11-03T09:50:21Z</time>
      </trkpt>
      <trkpt lat="46.18705" lon="4.65127">
        <ele>473</ele>
        <time>2016-11-03T09:50:22Z</time>
      </trkpt>
      <trkpt lat="46.18713" lon="4.65125">
        <ele>474</ele>
        <time>2016-11-03T09:50:33Z</time>
      </trkpt>
      <trkpt lat="46.18714" lon="4.65125">
        <ele>474</ele>
        <time>2016-11-03T09:50:34Z</time>
      </trkpt>
      <trkpt lat="46.18723" lon="4.65122">
        <ele>474</ele>
        <time>2016-11-03T09:50:46Z</time>
      </trkpt>
      <trkpt lat="46.18723" lon="4.65121">
        <ele>474</ele>
        <time>2016-11-03T09:50:47Z</time>
      </trkpt>
      <trkpt lat="46.18732" lon="4.6512">
        <ele>475</ele>
        <time>2016-11-03T09:50:58Z</time>
      </trkpt>
      <trkpt lat="46.18732" lon="4.6512">
        <ele>475</ele>
        <time>2016-11-03T09:50:59Z</time>
      </trkpt>
      <trkpt lat="46.1874" lon="4.65123">
        <ele>476</ele>
        <time>2016-11-03T09:51:09Z</time>
      </trkpt>
      <trkpt lat="46.18741" lon="4.65123">
        <ele>476</ele>
        <time>2016-11-03T09:51:10Z</time>
      </trkpt>
      <trkpt lat="46.18749" lon="4.65127">
        <ele>476</ele>
        <time>2016-11-03T09:51:20Z</time>
      </trkpt>
      <trkpt lat="46.1875" lon="4.65128">
        <ele>476</ele>
        <time>2016-11-03T09:51:21Z</time>
      </trkpt>
      <trkpt lat="46.18758" lon="4.65132">
        <ele>485</ele>
        <time>2016-11-03T09:51:30Z</time>
      </trkpt>
      <trkpt lat="46.18759" lon="4.65132">
        <ele>485</ele>
        <time>2016-11-03T09:51:31Z</time>
      </trkpt>
      <trkpt lat="46.18767" lon="4.65132">
        <ele>485</ele>
        <time>2016-11-03T09:51:39Z</time>
      </trkpt>
      <trkpt lat="46.18768" lon="4.65132">
        <ele>485</ele>
        <time>2016-11-03T09:51:40Z</time>
      </trkpt>
      <trkpt lat="46.18777" lon="4.65131">
        <ele>486</ele>
        <time>2016-11-03T09:51:50Z</time>
      </trkpt>
      <trkpt lat="46.18777" lon="4.6513">
        <ele>486</ele>
        <time>2016-11-03T09:51:51Z</time>
      </trkpt>
      <trkpt lat="46.18786" lon="4.6513">
        <ele>487</ele>
        <time>2016-11-03T09:52:02Z</time>
      </trkpt>
      <trkpt lat="46.18787" lon="4.6513">
        <ele>487</ele>
        <time>2016-11-03T09:52:03Z</time>
      </trkpt>
      <trkpt lat="46.18796" lon="4.6513">
        <ele>487</ele>
        <time>2016-11-03T09:52:12Z</time>
      </trkpt>
      <trkpt lat="46.18797" lon="4.6513">
        <ele>488</ele>
        <time>2016-11-03T09:52:13Z</time>
      </trkpt>
      <trkpt lat="46.18806" lon="4.65131">
        <ele>488</ele>
        <time>2016-11-03T09:52:22Z</time>
      </trkpt>
      <trkpt lat="46.18807" lon="4.65131">
        <ele>488</ele>
        <time>2016-11-03T09:52:23Z</time>
      </trkpt>
      <trkpt lat="46.18815" lon="4.65133">
        <ele>489</ele>
        <time>2016-11-03T09:52:32Z</time>
      </trkpt>
      <trkpt lat="46.18816" lon="4.65133">
        <ele>489</ele>
        <time>2016-11-03T09:52:33Z</time>
      </trkpt>
      <trkpt lat="46.18824" lon="4.65135">
        <ele>489</ele>
        <time>2016-11-03T09:52:43Z</time>
      </trkpt>
      <trkpt lat="46.18825" lon="4.65135">
        <ele>489</ele>
        <time>2016-11-03T09:52:44Z</time>
      </trkpt>
      <trkpt lat="46.18834" lon="4.65135">
        <ele>498</ele>
        <time>2016-11-03T09:52:55Z</time>
      </trkpt>
      <trkpt lat="46.18834" lon="4.65135">
        <ele>498</ele>
        <time>2016-11-03T09:52:56Z</time>
      </trkpt>
      <trkpt lat="46.18841" lon="4.65128">
        <ele>499</ele>
        <time>2016-11-03T09:53:06Z</time>
      </trkpt>
      <trkpt lat="46.18842" lon="4.65127">
        <ele>499</ele>
        <time>2016-11-03T09:53:07Z</time>
      </trkpt>
      <trkpt lat="46.18844" lon="4.65115">
        <ele>500</ele>
        <time>2016-11-03T09:53:17Z</time>
      </trkpt>
      <trkpt lat="46.18844" lon="4.65114">
        <ele>500</ele>
        <time>2016-11-03T09:53:18Z</time>
      </trkpt>
      <trkpt lat="46.18848" lon="4.65103">
        <ele>500</ele>
        <time>2016-11-03T09:53:30Z</time>
      </trkpt>
      <trkpt lat="46.18849" lon="4.65102">
        <ele>500</ele>
        <time>2016-11-03T09:53:31Z</time>
      </trkpt>
      <trkpt lat="46.18857" lon="4.65099">
        <ele>500</ele>
        <time>2016-11-03T09:53:41Z</time>
      </trkpt>
      <trkpt lat="46.18858" lon="4.65098">
        <ele>501</ele>
        <time>2016-11-03T09:53:42Z</time>
      </trkpt>
      <trkpt lat="46.18867" lon="4.65099">
        <ele>501</ele>
        <time>2016-11-03T09:53:51Z</time>
      </trkpt>
      <trkpt lat="46.18868" lon="4.65098">
        <ele>501</ele>
        <time>2016-11-03T09:53:52Z</time>
      </trkpt>
      <trkpt lat="46.18876" lon="4.65099">
        <ele>502</ele>
        <time>2016-11-03T09:54:02Z</time>
      </trkpt>
      <trkpt lat="46.18877" lon="4.65099">
        <ele>502</ele>
        <time>2016-11-03T09:54:03Z</time>
      </trkpt>
      <trkpt lat="46.18885" lon="4.65101">
        <ele>503</ele>
        <time>2016-11-03T09:54:13Z</time>
      </trkpt>
      <trkpt lat="46.18886" lon="4.65102">
        <ele>503</ele>
        <time>2016-11-03T09:54:14Z</time>
      </trkpt>
      <trkpt lat="46.18894" lon="4.65104">
        <ele>504</ele>
        <time>2016-11-03T09:54:24Z</time>
      </trkpt>
      <trkpt lat="46.18895" lon="4.65104">
        <ele>504</ele>
        <time>2016-11-03T09:54:25Z</time>
      </trkpt>
      <trkpt lat="46.18903" lon="4.65101">
        <ele>505</ele>
        <time>2016-11-03T09:57:11Z</time>
      </trkpt>
      <trkpt lat="46.18904" lon="4.651">
        <ele>505</ele>
        <time>2016-11-03T09:57:12Z</time>
      </trkpt>
      <trkpt lat="46.18909" lon="4.65091">
        <ele>507</ele>
        <time>2016-11-03T09:58:28Z</time>
      </trkpt>
      <trkpt lat="46.1891" lon="4.6509">
        <ele>507</ele>
        <time>2016-11-03T09:58:29Z</time>
      </trkpt>
      <trkpt lat="46.18918" lon="4.65086">
        <ele>510</ele>
        <time>2016-11-03T09:58:36Z</time>
      </trkpt>
      <trkpt lat="46.18919" lon="4.65085">
        <ele>510</ele>
        <time>2016-11-03T09:58:37Z</time>
      </trkpt>
      <trkpt lat="46.18927" lon="4.65082">
        <ele>509</ele>
        <time>2016-11-03T09:58:44Z</time>
      </trkpt>
      <trkpt lat="46.18928" lon="4.65082">
        <ele>509</ele>
        <time>2016-11-03T09:58:45Z</time>
      </trkpt>
      <trkpt lat="46.18935" lon="4.65077">
        <ele>509</ele>
        <time>2016-11-03T09:58:53Z</time>
      </trkpt>
      <trkpt lat="46.18936" lon="4.65076">
        <ele>510</ele>
        <time>2016-11-03T09:58:54Z</time>
      </trkpt>
      <trkpt lat="46.18944" lon="4.65073">
        <ele>510</ele>
        <time>2016-11-03T09:59:01Z</time>
      </trkpt>
      <trkpt lat="46.18945" lon="4.65073">
        <ele>510</ele>
        <time>2016-11-03T09:59:02Z</time>
      </trkpt>
      <trkpt lat="46.18952" lon="4.65066">
        <ele>510</ele>
        <time>2016-11-03T09:59:09Z</time>
      </trkpt>
      <trkpt lat="46.18952" lon="4.65066">
        <ele>510</ele>
        <time>2016-11-03T09:59:10Z</time>
      </trkpt>
      <trkpt lat="46.1896" lon="4.65063">
        <ele>511</ele>
        <time>2016-11-03T09:59:17Z</time>
      </trkpt>
      <trkpt lat="46.18961" lon="4.65063">
        <ele>511</ele>
        <time>2016-11-03T09:59:18Z</time>
      </trkpt>
      <trkpt lat="46.18969" lon="4.65058">
        <ele>512</ele>
        <time>2016-11-03T09:59:26Z</time>
      </trkpt>
      <trkpt lat="46.1897" lon="4.65058">
        <ele>512</ele>
        <time>2016-11-03T09:59:27Z</time>
      </trkpt>
      <trkpt lat="46.18978" lon="4.65053">
        <ele>512</ele>
        <time>2016-11-03T09:59:36Z</time>
      </trkpt>
      <trkpt lat="46.18979" lon="4.65053">
        <ele>512</ele>
        <time>2016-11-03T09:59:37Z</time>
      </trkpt>
      <trkpt lat="46.18987" lon="4.6505">
        <ele>513</ele>
        <time>2016-11-03T09:59:45Z</time>
      </trkpt>
      <trkpt lat="46.18988" lon="4.65049">
        <ele>513</ele>
        <time>2016-11-03T09:59:46Z</time>
      </trkpt>
      <trkpt lat="46.18996" lon="4.65044">
        <ele>512</ele>
        <time>2016-11-03T09:59:53Z</time>
      </trkpt>
      <trkpt lat="46.18997" lon="4.65044">
        <ele>512</ele>
        <time>2016-11-03T09:59:54Z</time>
      </trkpt>
      <trkpt lat="46.19004" lon="4.65039">
        <ele>522</ele>
        <time>2016-11-03T10:00:01Z</time>
      </trkpt>
      <trkpt lat="46.19005" lon="4.65038">
        <ele>522</ele>
        <time>2016-11-03T10:00:02Z</time>
      </trkpt>
      <trkpt lat="46.19013" lon="4.65032">
        <ele>522</ele>
        <time>2016-11-03T10:00:10Z</time>
      </trkpt>
      <trkpt lat="46.19014" lon="4.65032">
        <ele>522</ele>
        <time>2016-11-03T10:00:11Z</time>
      </trkpt>
      <trkpt lat="46.1902" lon="4.65024">
        <ele>522</ele>
        <time>2016-11-03T10:00:19Z</time>
      </trkpt>
      <trkpt lat="46.19021" lon="4.65024">
        <ele>522</ele>
        <time>2016-11-03T10:00:20Z</time>
      </trkpt>
      <trkpt lat="46.19029" lon="4.6502">
        <ele>523</ele>
        <time>2016-11-03T10:00:28Z</time>
      </trkpt>
      <trkpt lat="46.1903" lon="4.65019">
        <ele>523</ele>
        <time>2016-11-03T10:00:29Z</time>
      </trkpt>
      <trkpt lat="46.19037" lon="4.65012">
        <ele>524</ele>
        <time>2016-11-03T10:00:37Z</time>
      </trkpt>
      <trkpt lat="46.19038" lon="4.65011">
        <ele>524</ele>
        <time>2016-11-03T10:00:38Z</time>
      </trkpt>
      <trkpt lat="46.19045" lon="4.65005">
        <ele>525</ele>
        <time>2016-11-03T10:00:46Z</time>
      </trkpt>
      <trkpt lat="46.19046" lon="4.65004">
        <ele>525</ele>
        <time>2016-11-03T10:00:47Z</time>
      </trkpt>
      <trkpt lat="46.19052" lon="4.64995">
        <ele>518</ele>
        <time>2016-11-03T10:00:55Z</time>
      </trkpt>
      <trkpt lat="46.19053" lon="4.64994">
        <ele>518</ele>
        <time>2016-11-03T10:00:56Z</time>
      </trkpt>
      <trkpt lat="46.19059" lon="4.64986">
        <ele>519</ele>
        <time>2016-11-03T10:01:04Z</time>
      </trkpt>
      <trkpt lat="46.1906" lon="4.64985">
        <ele>519</ele>
        <time>2016-11-03T10:01:05Z</time>
      </trkpt>
      <trkpt lat="46.19065" lon="4.64976">
        <ele>519</ele>
        <time>2016-11-03T10:01:12Z</time>
      </trkpt>
      <trkpt lat="46.19066" lon="4.64975">
        <ele>519</ele>
        <time>2016-11-03T10:01:13Z</time>
      </trkpt>
      <trkpt lat="46.19073" lon="4.64969">
        <ele>518</ele>
        <time>2016-11-03T10:01:20Z</time>
      </trkpt>
      <trkpt lat="46.19074" lon="4.64968">
        <ele>518</ele>
        <time>2016-11-03T10:01:21Z</time>
      </trkpt>
      <trkpt lat="46.19079" lon="4.64958">
        <ele>517</ele>
        <time>2016-11-03T10:01:28Z</time>
      </trkpt>
      <trkpt lat="46.1908" lon="4.64957">
        <ele>517</ele>
        <time>2016-11-03T10:01:29Z</time>
      </trkpt>
      <trkpt lat="46.19086" lon="4.64951">
        <ele>528</ele>
        <time>2016-11-03T10:01:36Z</time>
      </trkpt>
      <trkpt lat="46.19087" lon="4.6495">
        <ele>528</ele>
        <time>2016-11-03T10:01:37Z</time>
      </trkpt>
      <trkpt lat="46.19094" lon="4.64943">
        <ele>527</ele>
        <time>2016-11-03T10:01:44Z</time>
      </trkpt>
      <trkpt lat="46.19095" lon="4.64942">
        <ele>527</ele>
        <time>2016-11-03T10:01:45Z</time>
      </trkpt>
      <trkpt lat="46.19102" lon="4.64936">
        <ele>527</ele>
        <time>2016-11-03T10:01:53Z</time>
      </trkpt>
      <trkpt lat="46.19103" lon="4.64936">
        <ele>527</ele>
        <time>2016-11-03T10:01:54Z</time>
      </trkpt>
      <trkpt lat="46.19109" lon="4.64929">
        <ele>528</ele>
        <time>2016-11-03T10:02:02Z</time>
      </trkpt>
      <trkpt lat="46.1911" lon="4.64928">
        <ele>528</ele>
        <time>2016-11-03T10:02:03Z</time>
      </trkpt>
      <trkpt lat="46.19118" lon="4.64923">
        <ele>529</ele>
        <time>2016-11-03T10:02:12Z</time>
      </trkpt>
      <trkpt lat="46.19119" lon="4.64922">
        <ele>529</ele>
        <time>2016-11-03T10:02:13Z</time>
      </trkpt>
      <trkpt lat="46.19127" lon="4.64918">
        <ele>530</ele>
        <time>2016-11-03T10:02:20Z</time>
      </trkpt>
      <trkpt lat="46.19128" lon="4.64917">
        <ele>530</ele>
        <time>2016-11-03T10:02:21Z</time>
      </trkpt>
      <trkpt lat="46.19135" lon="4.64912">
        <ele>523</ele>
        <time>2016-11-03T10:02:28Z</time>
      </trkpt>
      <trkpt lat="46.19136" lon="4.64912">
        <ele>523</ele>
        <time>2016-11-03T10:02:29Z</time>
      </trkpt>
      <trkpt lat="46.19144" lon="4.6491">
        <ele>525</ele>
        <time>2016-11-03T10:02:36Z</time>
      </trkpt>
      <trkpt lat="46.19145" lon="4.64909">
        <ele>525</ele>
        <time>2016-11-03T10:02:37Z</time>
      </trkpt>
      <trkpt lat="46.19153" lon="4.64905">
        <ele>527</ele>
        <time>2016-11-03T10:02:44Z</time>
      </trkpt>
      <trkpt lat="46.19154" lon="4.64904">
        <ele>527</ele>
        <time>2016-11-03T10:02:45Z</time>
      </trkpt>
      <trkpt lat="46.19162" lon="4.64898">
        <ele>526</ele>
        <time>2016-11-03T10:02:52Z</time>
      </trkpt>
      <trkpt lat="46.19163" lon="4.64898">
        <ele>526</ele>
        <time>2016-11-03T10:02:53Z</time>
      </trkpt>
      <trkpt lat="46.19171" lon="4.64893">
        <ele>533</ele>
        <time>2016-11-03T10:03:01Z</time>
      </trkpt>
      <trkpt lat="46.19172" lon="4.64893">
        <ele>533</ele>
        <time>2016-11-03T10:03:02Z</time>
      </trkpt>
      <trkpt lat="46.19179" lon="4.64888">
        <ele>533</ele>
        <time>2016-11-03T10:03:10Z</time>
      </trkpt>
      <trkpt lat="46.1918" lon="4.64887">
        <ele>533</ele>
        <time>2016-11-03T10:03:11Z</time>
      </trkpt>
      <trkpt lat="46.19186" lon="4.64879">
        <ele>533</ele>
        <time>2016-11-03T10:03:17Z</time>
      </trkpt>
      <trkpt lat="46.19187" lon="4.64878">
        <ele>533</ele>
        <time>2016-11-03T10:03:18Z</time>
      </trkpt>
      <trkpt lat="46.19195" lon="4.64873">
        <ele>533</ele>
        <time>2016-11-03T10:03:26Z</time>
      </trkpt>
      <trkpt lat="46.19196" lon="4.64873">
        <ele>533</ele>
        <time>2016-11-03T10:03:27Z</time>
      </trkpt>
      <trkpt lat="46.19204" lon="4.64869">
        <ele>533</ele>
        <time>2016-11-03T10:03:34Z</time>
      </trkpt>
      <trkpt lat="46.19205" lon="4.64868">
        <ele>533</ele>
        <time>2016-11-03T10:03:35Z</time>
      </trkpt>
      <trkpt lat="46.19211" lon="4.64861">
        <ele>533</ele>
        <time>2016-11-03T10:03:42Z</time>
      </trkpt>
      <trkpt lat="46.19212" lon="4.6486">
        <ele>533</ele>
        <time>2016-11-03T10:03:43Z</time>
      </trkpt>
      <trkpt lat="46.1922" lon="4.64855">
        <ele>534</ele>
        <time>2016-11-03T10:03:51Z</time>
      </trkpt>
      <trkpt lat="46.19221" lon="4.64855">
        <ele>534</ele>
        <time>2016-11-03T10:03:52Z</time>
      </trkpt>
      <trkpt lat="46.19229" lon="4.6485">
        <ele>534</ele>
        <time>2016-11-03T10:04:06Z</time>
      </trkpt>
      <trkpt lat="46.1923" lon="4.6485">
        <ele>535</ele>
        <time>2016-11-03T10:04:07Z</time>
      </trkpt>
      <trkpt lat="46.19239" lon="4.64848">
        <ele>535</ele>
        <time>2016-11-03T10:04:56Z</time>
      </trkpt>
      <trkpt lat="46.19239" lon="4.64848">
        <ele>535</ele>
        <time>2016-11-03T10:04:57Z</time>
      </trkpt>
      <trkpt lat="46.19232" lon="4.64853">
        <ele>535</ele>
        <time>2016-11-03T10:05:53Z</time>
      </trkpt>
      <trkpt lat="46.19231" lon="4.64853">
        <ele>535</ele>
        <time>2016-11-03T10:05:54Z</time>
      </trkpt>
      <trkpt lat="46.19225" lon="4.64862">
        <ele>534</ele>
        <time>2016-11-03T10:07:07Z</time>
      </trkpt>
      <trkpt lat="46.19224" lon="4.64863">
        <ele>534</ele>
        <time>2016-11-03T10:07:08Z</time>
      </trkpt>
      <trkpt lat="46.19217" lon="4.6487">
        <ele>534</ele>
        <time>2016-11-03T10:07:16Z</time>
      </trkpt>
      <trkpt lat="46.19217" lon="4.64871">
        <ele>534</ele>
        <time>2016-11-03T10:07:17Z</time>
      </trkpt>
      <trkpt lat="46.19211" lon="4.64881">
        <ele>534</ele>
        <time>2016-11-03T10:07:24Z</time>
      </trkpt>
      <trkpt lat="46.1921" lon="4.64882">
        <ele>534</ele>
        <time>2016-11-03T10:07:25Z</time>
      </trkpt>
      <trkpt lat="46.19204" lon="4.6489">
        <ele>534</ele>
        <time>2016-11-03T10:07:32Z</time>
      </trkpt>
      <trkpt lat="46.19203" lon="4.64891">
        <ele>534</ele>
        <time>2016-11-03T10:07:33Z</time>
      </trkpt>
      <trkpt lat="46.19197" lon="4.64899">
        <ele>534</ele>
        <time>2016-11-03T10:07:40Z</time>
      </trkpt>
      <trkpt lat="46.19196" lon="4.649">
        <ele>534</ele>
        <time>2016-11-03T10:07:41Z</time>
      </trkpt>
      <trkpt lat="46.1919" lon="4.64909">
        <ele>534</ele>
        <time>2016-11-03T10:07:48Z</time>
      </trkpt>
      <trkpt lat="46.19189" lon="4.6491">
        <ele>535</ele>
        <time>2016-11-03T10:07:49Z</time>
      </trkpt>
      <trkpt lat="46.19184" lon="4.6492">
        <ele>540</ele>
        <time>2016-11-03T10:07:56Z</time>
      </trkpt>
      <trkpt lat="46.19184" lon="4.64922">
        <ele>540</ele>
        <time>2016-11-03T10:07:57Z</time>
      </trkpt>
      <trkpt lat="46.19178" lon="4.6493">
        <ele>540</ele>
        <time>2016-11-03T10:08:03Z</time>
      </trkpt>
      <trkpt lat="46.19177" lon="4.64931">
        <ele>541</ele>
        <time>2016-11-03T10:08:04Z</time>
      </trkpt>
      <trkpt lat="46.1917" lon="4.64938">
        <ele>541</ele>
        <time>2016-11-03T10:08:11Z</time>
      </trkpt>
      <trkpt lat="46.1917" lon="4.64939">
        <ele>542</ele>
        <time>2016-11-03T10:08:12Z</time>
      </trkpt>
      <trkpt lat="46.19163" lon="4.64947">
        <ele>535</ele>
        <time>2016-11-03T10:08:44Z</time>
      </trkpt>
      <trkpt lat="46.19162" lon="4.64948">
        <ele>535</ele>
        <time>2016-11-03T10:08:45Z</time>
      </trkpt>
      <trkpt lat="46.19156" lon="4.64956">
        <ele>535</ele>
        <time>2016-11-03T10:08:52Z</time>
      </trkpt>
      <trkpt lat="46.19155" lon="4.64957">
        <ele>535</ele>
        <time>2016-11-03T10:08:53Z</time>
      </trkpt>
      <trkpt lat="46.19148" lon="4.64963">
        <ele>535</ele>
        <time>2016-11-03T10:09:00Z</time>
      </trkpt>
      <trkpt lat="46.19147" lon="4.64965">
        <ele>535</ele>
        <time>2016-11-03T10:09:01Z</time>
      </trkpt>
      <trkpt lat="46.19142" lon="4.64974">
        <ele>536</ele>
        <time>2016-11-03T10:09:08Z</time>
      </trkpt>
      <trkpt lat="46.19141" lon="4.64976">
        <ele>536</ele>
        <time>2016-11-03T10:09:09Z</time>
      </trkpt>
      <trkpt lat="46.19136" lon="4.64987">
        <ele>536</ele>
        <time>2016-11-03T10:09:16Z</time>
      </trkpt>
      <trkpt lat="46.19136" lon="4.64988">
        <ele>536</ele>
        <time>2016-11-03T10:09:17Z</time>
      </trkpt>
      <trkpt lat="46.19133" lon="4.64999">
        <ele>536</ele>
        <time>2016-11-03T10:09:24Z</time>
      </trkpt>
      <trkpt lat="46.19133" lon="4.65001">
        <ele>543</ele>
        <time>2016-11-03T10:09:25Z</time>
      </trkpt>
      <trkpt lat="46.19132" lon="4.65013">
        <ele>543</ele>
        <time>2016-11-03T10:09:32Z</time>
      </trkpt>
      <trkpt lat="46.19132" lon="4.65015">
        <ele>543</ele>
        <time>2016-11-03T10:09:33Z</time>
      </trkpt>
      <trkpt lat="46.19132" lon="4.65027">
        <ele>544</ele>
        <time>2016-11-03T10:09:40Z</time>
      </trkpt>
      <trkpt lat="46.19132" lon="4.65029">
        <ele>544</ele>
        <time>2016-11-03T10:09:41Z</time>
      </trkpt>
      <trkpt lat="46.19134" lon="4.6504">
        <ele>544</ele>
        <time>2016-11-03T10:09:48Z</time>
      </trkpt>
      <trkpt lat="46.19134" lon="4.65042">
        <ele>545</ele>
        <time>2016-11-03T10:09:49Z</time>
      </trkpt>
      <trkpt lat="46.19135" lon="4.65053">
        <ele>545</ele>
        <time>2016-11-03T10:09:55Z</time>
      </trkpt>
      <trkpt lat="46.19135" lon="4.65055">
        <ele>546</ele>
        <time>2016-11-03T10:09:56Z</time>
      </trkpt>
      <trkpt lat="46.19134" lon="4.65067">
        <ele>546</ele>
        <time>2016-11-03T10:10:03Z</time>
      </trkpt>
      <trkpt lat="46.19134" lon="4.65069">
        <ele>546</ele>
        <time>2016-11-03T10:10:04Z</time>
      </trkpt>
      <trkpt lat="46.19133" lon="4.65082">
        <ele>547</ele>
        <time>2016-11-03T10:10:12Z</time>
      </trkpt>
      <trkpt lat="46.19132" lon="4.65083">
        <ele>547</ele>
        <time>2016-11-03T10:10:13Z</time>
      </trkpt>
      <trkpt lat="46.19134" lon="4.65095">
        <ele>548</ele>
        <time>2016-11-03T10:10:20Z</time>
      </trkpt>
      <trkpt lat="46.19133" lon="4.65096">
        <ele>548</ele>
        <time>2016-11-03T10:10:21Z</time>
      </trkpt>
      <trkpt lat="46.19134" lon="4.65108">
        <ele>548</ele>
        <time>2016-11-03T10:10:28Z</time>
      </trkpt>
      <trkpt lat="46.19135" lon="4.65109">
        <ele>548</ele>
        <time>2016-11-03T10:10:29Z</time>
      </trkpt>
      <trkpt lat="46.19137" lon="4.6512">
        <ele>548</ele>
        <time>2016-11-03T10:10:36Z</time>
      </trkpt>
      <trkpt lat="46.19137" lon="4.65122">
        <ele>548</ele>
        <time>2016-11-03T10:10:37Z</time>
      </trkpt>
      <trkpt lat="46.19142" lon="4.65133">
        <ele>549</ele>
        <time>2016-11-03T10:10:44Z</time>
      </trkpt>
      <trkpt lat="46.19143" lon="4.65135">
        <ele>549</ele>
        <time>2016-11-03T10:10:45Z</time>
      </trkpt>
      <trkpt lat="46.19145" lon="4.65145">
        <ele>549</ele>
        <time>2016-11-03T10:10:51Z</time>
      </trkpt>
      <trkpt lat="46.19145" lon="4.65147">
        <ele>550</ele>
        <time>2016-11-03T10:10:52Z</time>
      </trkpt>
      <trkpt lat="46.19147" lon="4.65158">
        <ele>551</ele>
        <time>2016-11-03T10:10:58Z</time>
      </trkpt>
      <trkpt lat="46.19148" lon="4.6516">
        <ele>551</ele>
        <time>2016-11-03T10:10:59Z</time>
      </trkpt>
      <trkpt lat="46.19151" lon="4.6517">
        <ele>550</ele>
        <time>2016-11-03T10:11:05Z</time>
      </trkpt>
      <trkpt lat="46.19151" lon="4.65172">
        <ele>550</ele>
        <time>2016-11-03T10:11:06Z</time>
      </trkpt>
      <trkpt lat="46.19154" lon="4.65184">
        <ele>548</ele>
        <time>2016-11-03T10:11:12Z</time>
      </trkpt>
      <trkpt lat="46.19154" lon="4.65186">
        <ele>548</ele>
        <time>2016-11-03T10:11:13Z</time>
      </trkpt>
      <trkpt lat="46.19156" lon="4.65198">
        <ele>547</ele>
        <time>2016-11-03T10:11:19Z</time>
      </trkpt>
      <trkpt lat="46.19157" lon="4.652">
        <ele>546</ele>
        <time>2016-11-03T10:11:20Z</time>
      </trkpt>
      <trkpt lat="46.19159" lon="4.65212">
        <ele>546</ele>
        <time>2016-11-03T10:11:26Z</time>
      </trkpt>
      <trkpt lat="46.19159" lon="4.65214">
        <ele>546</ele>
        <time>2016-11-03T10:11:27Z</time>
      </trkpt>
      <trkpt lat="46.1916" lon="4.65226">
        <ele>546</ele>
        <time>2016-11-03T10:11:33Z</time>
      </trkpt>
      <trkpt lat="46.1916" lon="4.65228">
        <ele>546</ele>
        <time>2016-11-03T10:11:34Z</time>
      </trkpt>
      <trkpt lat="46.19161" lon="4.6524">
        <ele>548</ele>
        <time>2016-11-03T10:11:40Z</time>
      </trkpt>
      <trkpt lat="46.19161" lon="4.65242">
        <ele>549</ele>
        <time>2016-11-03T10:11:41Z</time>
      </trkpt>
      <trkpt lat="46.1916" lon="4.65254">
        <ele>548</ele>
        <time>2016-11-03T10:11:47Z</time>
      </trkpt>
      <trkpt lat="46.1916" lon="4.65256">
        <ele>547</ele>
        <time>2016-11-03T10:11:48Z</time>
      </trkpt>
      <trkpt lat="46.1916" lon="4.65266">
        <ele>544</ele>
        <time>2016-11-03T10:11:53Z</time>
      </trkpt>
      <trkpt lat="46.1916" lon="4.65269">
        <ele>544</ele>
        <time>2016-11-03T10:11:54Z</time>
      </trkpt>
      <trkpt lat="46.19159" lon="4.6528">
        <ele>542</ele>
        <time>2016-11-03T10:11:59Z</time>
      </trkpt>
      <trkpt lat="46.19158" lon="4.65282">
        <ele>542</ele>
        <time>2016-11-03T10:12:00Z</time>
      </trkpt>
      <trkpt lat="46.19156" lon="4.65293">
        <ele>541</ele>
        <time>2016-11-03T10:12:05Z</time>
      </trkpt>
      <trkpt lat="46.19156" lon="4.65295">
        <ele>541</ele>
        <time>2016-11-03T10:12:06Z</time>
      </trkpt>
      <trkpt lat="46.19156" lon="4.65308">
        <ele>542</ele>
        <time>2016-11-03T10:12:12Z</time>
      </trkpt>
      <trkpt lat="46.19156" lon="4.6531">
        <ele>542</ele>
        <time>2016-11-03T10:12:13Z</time>
      </trkpt>
      <trkpt lat="46.19156" lon="4.65322">
        <ele>544</ele>
        <time>2016-11-03T10:12:19Z</time>
      </trkpt>
      <trkpt lat="46.19157" lon="4.65324">
        <ele>544</ele>
        <time>2016-11-03T10:12:20Z</time>
      </trkpt>
      <trkpt lat="46.19158" lon="4.65336">
        <ele>544</ele>
        <time>2016-11-03T10:12:26Z</time>
      </trkpt>
      <trkpt lat="46.19159" lon="4.65338">
        <ele>544</ele>
        <time>2016-11-03T10:12:27Z</time>
      </trkpt>
      <trkpt lat="46.19162" lon="4.6535">
        <ele>541</ele>
        <time>2016-11-03T10:12:33Z</time>
      </trkpt>
      <trkpt lat="46.19162" lon="4.65351">
        <ele>541</ele>
        <time>2016-11-03T10:12:34Z</time>
      </trkpt>
      <trkpt lat="46.19165" lon="4.65362">
        <ele>539</ele>
        <time>2016-11-03T10:12:40Z</time>
      </trkpt>
      <trkpt lat="46.19166" lon="4.65364">
        <ele>539</ele>
        <time>2016-11-03T10:12:41Z</time>
      </trkpt>
      <trkpt lat="46.1917" lon="4.65373">
        <ele>558</ele>
        <time>2016-11-03T10:12:47Z</time>
      </trkpt>
      <trkpt lat="46.19171" lon="4.65375">
        <ele>558</ele>
        <time>2016-11-03T10:12:48Z</time>
      </trkpt>
      <trkpt lat="46.19175" lon="4.65385">
        <ele>557</ele>
        <time>2016-11-03T10:12:55Z</time>
      </trkpt>
      <trkpt lat="46.19175" lon="4.65387">
        <ele>557</ele>
        <time>2016-11-03T10:12:56Z</time>
      </trkpt>
      <trkpt lat="46.19178" lon="4.65398">
        <ele>556</ele>
        <time>2016-11-03T10:13:03Z</time>
      </trkpt>
      <trkpt lat="46.19179" lon="4.65399">
        <ele>556</ele>
        <time>2016-11-03T10:13:04Z</time>
      </trkpt>
      <trkpt lat="46.19181" lon="4.65411">
        <ele>554</ele>
        <time>2016-11-03T10:13:11Z</time>
      </trkpt>
      <trkpt lat="46.19182" lon="4.65412">
        <ele>554</ele>
        <time>2016-11-03T10:13:12Z</time>
      </trkpt>
      <trkpt lat="46.19184" lon="4.65424">
        <ele>551</ele>
        <time>2016-11-03T10:13:19Z</time>
      </trkpt>
      <trkpt lat="46.19185" lon="4.65425">
        <ele>551</ele>
        <time>2016-11-03T10:13:20Z</time>
      </trkpt>
      <trkpt lat="46.19187" lon="4.65438">
        <ele>552</ele>
        <time>2016-11-03T10:13:27Z</time>
      </trkpt>
      <trkpt lat="46.19187" lon="4.6544">
        <ele>552</ele>
        <time>2016-11-03T10:13:28Z</time>
      </trkpt>
      <trkpt lat="46.1919" lon="4.6545">
        <ele>552</ele>
        <time>2016-11-03T10:13:34Z</time>
      </trkpt>
      <trkpt lat="46.19191" lon="4.65452">
        <ele>552</ele>
        <time>2016-11-03T10:13:35Z</time>
      </trkpt>
      <trkpt lat="46.19195" lon="4.65461">
        <ele>552</ele>
        <time>2016-11-03T10:13:40Z</time>
      </trkpt>
      <trkpt lat="46.19196" lon="4.65462">
        <ele>552</ele>
        <time>2016-11-03T10:13:41Z</time>
      </trkpt>
      <trkpt lat="46.19201" lon="4.65473">
        <ele>552</ele>
        <time>2016-11-03T10:13:47Z</time>
      </trkpt>
      <trkpt lat="46.19201" lon="4.65475">
        <ele>552</ele>
        <time>2016-11-03T10:13:48Z</time>
      </trkpt>
      <trkpt lat="46.19207" lon="4.65484">
        <ele>552</ele>
        <time>2016-11-03T10:13:54Z</time>
      </trkpt>
      <trkpt lat="46.19208" lon="4.65486">
        <ele>552</ele>
        <time>2016-11-03T10:13:55Z</time>
      </trkpt>
      <trkpt lat="46.19212" lon="4.65496">
        <ele>553</ele>
        <time>2016-11-03T10:14:00Z</time>
      </trkpt>
      <trkpt lat="46.19212" lon="4.65498">
        <ele>553</ele>
        <time>2016-11-03T10:14:01Z</time>
      </trkpt>
      <trkpt lat="46.19217" lon="4.65508">
        <ele>545</ele>
        <time>2016-11-03T10:14:07Z</time>
      </trkpt>
      <trkpt lat="46.19218" lon="4.6551">
        <ele>545</ele>
        <time>2016-11-03T10:14:08Z</time>
      </trkpt>
      <trkpt lat="46.19222" lon="4.65519">
        <ele>545</ele>
        <time>2016-11-03T10:14:14Z</time>
      </trkpt>
      <trkpt lat="46.19223" lon="4.6552">
        <ele>545</ele>
        <time>2016-11-03T10:14:15Z</time>
      </trkpt>
      <trkpt lat="46.19231" lon="4.65527">
        <ele>546</ele>
        <time>2016-11-03T10:14:22Z</time>
      </trkpt>
      <trkpt lat="46.19232" lon="4.65529">
        <ele>545</ele>
        <time>2016-11-03T10:14:23Z</time>
      </trkpt>
      <trkpt lat="46.19238" lon="4.65536">
        <ele>545</ele>
        <time>2016-11-03T10:14:29Z</time>
      </trkpt>
      <trkpt lat="46.19239" lon="4.65537">
        <ele>545</ele>
        <time>2016-11-03T10:14:30Z</time>
      </trkpt>
      <trkpt lat="46.19245" lon="4.65544">
        <ele>544</ele>
        <time>2016-11-03T10:14:36Z</time>
      </trkpt>
      <trkpt lat="46.19246" lon="4.65544">
        <ele>544</ele>
        <time>2016-11-03T10:14:37Z</time>
      </trkpt>
      <trkpt lat="46.19253" lon="4.65552">
        <ele>555</ele>
        <time>2016-11-03T10:14:43Z</time>
      </trkpt>
      <trkpt lat="46.19254" lon="4.65553">
        <ele>555</ele>
        <time>2016-11-03T10:14:44Z</time>
      </trkpt>
      <trkpt lat="46.1926" lon="4.65561">
        <ele>553</ele>
        <time>2016-11-03T10:14:49Z</time>
      </trkpt>
      <trkpt lat="46.19261" lon="4.65562">
        <ele>553</ele>
        <time>2016-11-03T10:14:50Z</time>
      </trkpt>
      <trkpt lat="46.19267" lon="4.65569">
        <ele>553</ele>
        <time>2016-11-03T10:14:56Z</time>
      </trkpt>
      <trkpt lat="46.19269" lon="4.6557">
        <ele>553</ele>
        <time>2016-11-03T10:14:57Z</time>
      </trkpt>
      <trkpt lat="46.19275" lon="4.65579">
        <ele>553</ele>
        <time>2016-11-03T10:15:02Z</time>
      </trkpt>
      <trkpt lat="46.19276" lon="4.65581">
        <ele>554</ele>
        <time>2016-11-03T10:15:03Z</time>
      </trkpt>
      <trkpt lat="46.19281" lon="4.65589">
        <ele>545</ele>
        <time>2016-11-03T10:15:08Z</time>
      </trkpt>
      <trkpt lat="46.19283" lon="4.65591">
        <ele>545</ele>
        <time>2016-11-03T10:15:09Z</time>
      </trkpt>
      <trkpt lat="46.19288" lon="4.65599">
        <ele>545</ele>
        <time>2016-11-03T10:15:14Z</time>
      </trkpt>
      <trkpt lat="46.19289" lon="4.656">
        <ele>545</ele>
        <time>2016-11-03T10:15:15Z</time>
      </trkpt>
      <trkpt lat="46.19294" lon="4.65611">
        <ele>545</ele>
        <time>2016-11-03T10:15:21Z</time>
      </trkpt>
      <trkpt lat="46.19295" lon="4.65612">
        <ele>545</ele>
        <time>2016-11-03T10:15:22Z</time>
      </trkpt>
      <trkpt lat="46.19299" lon="4.65623">
        <ele>544</ele>
        <time>2016-11-03T10:15:29Z</time>
      </trkpt>
      <trkpt lat="46.19299" lon="4.65625">
        <ele>544</ele>
        <time>2016-11-03T10:15:30Z</time>
      </trkpt>
      <trkpt lat="46.19301" lon="4.65635">
        <ele>543</ele>
        <time>2016-11-03T10:15:39Z</time>
      </trkpt>
      <trkpt lat="46.19302" lon="4.65638">
        <ele>543</ele>
        <time>2016-11-03T10:15:40Z</time>
      </trkpt>
      <trkpt lat="46.19306" lon="4.65648">
        <ele>543</ele>
        <time>2016-11-03T10:15:45Z</time>
      </trkpt>
      <trkpt lat="46.19307" lon="4.6565">
        <ele>543</ele>
        <time>2016-11-03T10:15:46Z</time>
      </trkpt>
      <trkpt lat="46.19313" lon="4.65658">
        <ele>543</ele>
        <time>2016-11-03T10:15:51Z</time>
      </trkpt>
      <trkpt lat="46.19314" lon="4.6566">
        <ele>543</ele>
        <time>2016-11-03T10:15:52Z</time>
      </trkpt>
      <trkpt lat="46.1932" lon="4.65667">
        <ele>539</ele>
        <time>2016-11-03T10:15:57Z</time>
      </trkpt>
      <trkpt lat="46.19321" lon="4.65668">
        <ele>539</ele>
        <time>2016-11-03T10:15:58Z</time>
      </trkpt>
      <trkpt lat="46.19327" lon="4.65677">
        <ele>539</ele>
        <time>2016-11-03T10:16:05Z</time>
      </trkpt>
      <trkpt lat="46.19327" lon="4.65679">
        <ele>539</ele>
        <time>2016-11-03T10:16:06Z</time>
      </trkpt>
      <trkpt lat="46.19333" lon="4.65686">
        <ele>543</ele>
        <time>2016-11-03T10:16:14Z</time>
      </trkpt>
      <trkpt lat="46.19334" lon="4.65687">
        <ele>543</ele>
        <time>2016-11-03T10:16:15Z</time>
      </trkpt>
      <trkpt lat="46.19342" lon="4.65691">
        <ele>543</ele>
        <time>2016-11-03T10:16:28Z</time>
      </trkpt>
      <trkpt lat="46.19343" lon="4.65691">
        <ele>543</ele>
        <time>2016-11-03T10:16:29Z</time>
      </trkpt>
      <trkpt lat="46.19352" lon="4.65692">
        <ele>543</ele>
        <time>2016-11-03T10:16:39Z</time>
      </trkpt>
      <trkpt lat="46.19353" lon="4.65692">
        <ele>543</ele>
        <time>2016-11-03T10:16:40Z</time>
      </trkpt>
      <trkpt lat="46.1936" lon="4.65699">
        <ele>543</ele>
        <time>2016-11-03T10:16:47Z</time>
      </trkpt>
      <trkpt lat="46.19361" lon="4.657">
        <ele>543</ele>
        <time>2016-11-03T10:16:48Z</time>
      </trkpt>
      <trkpt lat="46.19368" lon="4.65707">
        <ele>543</ele>
        <time>2016-11-03T10:16:58Z</time>
      </trkpt>
      <trkpt lat="46.19369" lon="4.65708">
        <ele>543</ele>
        <time>2016-11-03T10:16:59Z</time>
      </trkpt>
      <trkpt lat="46.19376" lon="4.65712">
        <ele>543</ele>
        <time>2016-11-03T10:17:06Z</time>
      </trkpt>
      <trkpt lat="46.19377" lon="4.65713">
        <ele>543</ele>
        <time>2016-11-03T10:17:07Z</time>
      </trkpt>
      <trkpt lat="46.19384" lon="4.65721">
        <ele>543</ele>
        <time>2016-11-03T10:17:14Z</time>
      </trkpt>
      <trkpt lat="46.19384" lon="4.65722">
        <ele>543</ele>
        <time>2016-11-03T10:17:15Z</time>
      </trkpt>
      <trkpt lat="46.19391" lon="4.6573">
        <ele>543</ele>
        <time>2016-11-03T10:17:21Z</time>
      </trkpt>
      <trkpt lat="46.19391" lon="4.65732">
        <ele>543</ele>
        <time>2016-11-03T10:17:22Z</time>
      </trkpt>
      <trkpt lat="46.19397" lon="4.65739">
        <ele>543</ele>
        <time>2016-11-03T10:17:29Z</time>
      </trkpt>
      <trkpt lat="46.19398" lon="4.65741">
        <ele>543</ele>
        <time>2016-11-03T10:17:30Z</time>
      </trkpt>
      <trkpt lat="46.19406" lon="4.65747">
        <ele>544</ele>
        <time>2016-11-03T10:17:38Z</time>
      </trkpt>
      <trkpt lat="46.19407" lon="4.65747">
        <ele>544</ele>
        <time>2016-11-03T10:17:39Z</time>
      </trkpt>
      <trkpt lat="46.19414" lon="4.65753">
        <ele>544</ele>
        <time>2016-11-03T10:17:46Z</time>
      </trkpt>
      <trkpt lat="46.19415" lon="4.65754">
        <ele>544</ele>
        <time>2016-11-03T10:17:47Z</time>
      </trkpt>
      <trkpt lat="46.19422" lon="4.65761">
        <ele>545</ele>
        <time>2016-11-03T10:17:54Z</time>
      </trkpt>
      <trkpt lat="46.19423" lon="4.65762">
        <ele>545</ele>
        <time>2016-11-03T10:17:55Z</time>
      </trkpt>
      <trkpt lat="46.19429" lon="4.65769">
        <ele>545</ele>
        <time>2016-11-03T10:18:03Z</time>
      </trkpt>
      <trkpt lat="46.1943" lon="4.6577">
        <ele>545</ele>
        <time>2016-11-03T10:18:04Z</time>
      </trkpt>
      <trkpt lat="46.19438" lon="4.65775">
        <ele>545</ele>
        <time>2016-11-03T10:18:13Z</time>
      </trkpt>
      <trkpt lat="46.19439" lon="4.65775">
        <ele>545</ele>
        <time>2016-11-03T10:18:14Z</time>
      </trkpt>
      <trkpt lat="46.19444" lon="4.65785">
        <ele>545</ele>
        <time>2016-11-03T10:18:22Z</time>
      </trkpt>
      <trkpt lat="46.19445" lon="4.65786">
        <ele>545</ele>
        <time>2016-11-03T10:18:23Z</time>
      </trkpt>
      <trkpt lat="46.19449" lon="4.65796">
        <ele>545</ele>
        <time>2016-11-03T10:18:32Z</time>
      </trkpt>
      <trkpt lat="46.1945" lon="4.65797">
        <ele>545</ele>
        <time>2016-11-03T10:18:33Z</time>
      </trkpt>
      <trkpt lat="46.19456" lon="4.65806">
        <ele>545</ele>
        <time>2016-11-03T10:18:41Z</time>
      </trkpt>
      <trkpt lat="46.19457" lon="4.65807">
        <ele>545</ele>
        <time>2016-11-03T10:18:42Z</time>
      </trkpt>
      <trkpt lat="46.19465" lon="4.6581">
        <ele>546</ele>
        <time>2016-11-03T10:18:49Z</time>
      </trkpt>
      <trkpt lat="46.19466" lon="4.65811">
        <ele>546</ele>
        <time>2016-11-03T10:18:50Z</time>
      </trkpt>
      <trkpt lat="46.19474" lon="4.65815">
        <ele>546</ele>
        <time>2016-11-03T10:18:56Z</time>
      </trkpt>
      <trkpt lat="46.19475" lon="4.65816">
        <ele>546</ele>
        <time>2016-11-03T10:18:57Z</time>
      </trkpt>
      <trkpt lat="46.1948" lon="4.65825">
        <ele>547</ele>
        <time>2016-11-03T10:19:04Z</time>
      </trkpt>
      <trkpt lat="46.19481" lon="4.65826">
        <ele>547</ele>
        <time>2016-11-03T10:19:05Z</time>
      </trkpt>
      <trkpt lat="46.19486" lon="4.65837">
        <ele>547</ele>
        <time>2016-11-03T10:19:12Z</time>
      </trkpt>
      <trkpt lat="46.19486" lon="4.65838">
        <ele>547</ele>
        <time>2016-11-03T10:19:13Z</time>
      </trkpt>
      <trkpt lat="46.19492" lon="4.65848">
        <ele>546</ele>
        <time>2016-11-03T10:19:21Z</time>
      </trkpt>
      <trkpt lat="46.19493" lon="4.65849">
        <ele>546</ele>
        <time>2016-11-03T10:19:22Z</time>
      </trkpt>
      <trkpt lat="46.19498" lon="4.65859">
        <ele>545</ele>
        <time>2016-11-03T10:19:29Z</time>
      </trkpt>
      <trkpt lat="46.19499" lon="4.65861">
        <ele>545</ele>
        <time>2016-11-03T10:19:30Z</time>
      </trkpt>
      <trkpt lat="46.19506" lon="4.65866">
        <ele>551</ele>
        <time>2016-11-03T10:19:37Z</time>
      </trkpt>
      <trkpt lat="46.19507" lon="4.65867">
        <ele>551</ele>
        <time>2016-11-03T10:19:38Z</time>
      </trkpt>
      <trkpt lat="46.19514" lon="4.65872">
        <ele>551</ele>
        <time>2016-11-03T10:19:46Z</time>
      </trkpt>
      <trkpt lat="46.19515" lon="4.65873">
        <ele>551</ele>
        <time>2016-11-03T10:19:47Z</time>
      </trkpt>
      <trkpt lat="46.19523" lon="4.6588">
        <ele>551</ele>
        <time>2016-11-03T10:19:55Z</time>
      </trkpt>
      <trkpt lat="46.19524" lon="4.65882">
        <ele>551</ele>
        <time>2016-11-03T10:19:56Z</time>
      </trkpt>
      <trkpt lat="46.19529" lon="4.65889">
        <ele>551</ele>
        <time>2016-11-03T10:20:02Z</time>
      </trkpt>
      <trkpt lat="46.1953" lon="4.6589">
        <ele>551</ele>
        <time>2016-11-03T10:20:03Z</time>
      </trkpt>
      <trkpt lat="46.19537" lon="4.65897">
        <ele>552</ele>
        <time>2016-11-03T10:20:09Z</time>
      </trkpt>
      <trkpt lat="46.19538" lon="4.65898">
        <ele>552</ele>
        <time>2016-11-03T10:20:10Z</time>
      </trkpt>
      <trkpt lat="46.19544" lon="4.65904">
        <ele>552</ele>
        <time>2016-11-03T10:20:17Z</time>
      </trkpt>
      <trkpt lat="46.19545" lon="4.65905">
        <ele>552</ele>
        <time>2016-11-03T10:20:18Z</time>
      </trkpt>
      <trkpt lat="46.19552" lon="4.65912">
        <ele>553</ele>
        <time>2016-11-03T10:20:25Z</time>
      </trkpt>
      <trkpt lat="46.19553" lon="4.65913">
        <ele>553</ele>
        <time>2016-11-03T10:20:26Z</time>
      </trkpt>
      <trkpt lat="46.1956" lon="4.6592">
        <ele>551</ele>
        <time>2016-11-03T10:20:34Z</time>
      </trkpt>
      <trkpt lat="46.19561" lon="4.65921">
        <ele>551</ele>
        <time>2016-11-03T10:20:35Z</time>
      </trkpt>
      <trkpt lat="46.19568" lon="4.65926">
        <ele>552</ele>
        <time>2016-11-03T10:20:42Z</time>
      </trkpt>
      <trkpt lat="46.19569" lon="4.65927">
        <ele>552</ele>
        <time>2016-11-03T10:20:43Z</time>
      </trkpt>
      <trkpt lat="46.19577" lon="4.65934">
        <ele>552</ele>
        <time>2016-11-03T10:20:50Z</time>
      </trkpt>
      <trkpt lat="46.19578" lon="4.65935">
        <ele>552</ele>
        <time>2016-11-03T10:20:51Z</time>
      </trkpt>
      <trkpt lat="46.19584" lon="4.65942">
        <ele>558</ele>
        <time>2016-11-03T10:20:58Z</time>
      </trkpt>
      <trkpt lat="46.19585" lon="4.65943">
        <ele>558</ele>
        <time>2016-11-03T10:20:59Z</time>
      </trkpt>
      <trkpt lat="46.1959" lon="4.65952">
        <ele>558</ele>
        <time>2016-11-03T10:21:06Z</time>
      </trkpt>
      <trkpt lat="46.19591" lon="4.65953">
        <ele>558</ele>
        <time>2016-11-03T10:21:07Z</time>
      </trkpt>
      <trkpt lat="46.19597" lon="4.65961">
        <ele>557</ele>
        <time>2016-11-03T10:21:14Z</time>
      </trkpt>
      <trkpt lat="46.19598" lon="4.65962">
        <ele>557</ele>
        <time>2016-11-03T10:21:15Z</time>
      </trkpt>
      <trkpt lat="46.19604" lon="4.6597">
        <ele>557</ele>
        <time>2016-11-03T10:21:21Z</time>
      </trkpt>
      <trkpt lat="46.19605" lon="4.65971">
        <ele>557</ele>
        <time>2016-11-03T10:21:22Z</time>
      </trkpt>
      <trkpt lat="46.19607" lon="4.65983">
        <ele>556</ele>
        <time>2016-11-03T10:21:30Z</time>
      </trkpt>
      <trkpt lat="46.19608" lon="4.65984">
        <ele>556</ele>
        <time>2016-11-03T10:21:31Z</time>
      </trkpt>
      <trkpt lat="46.19613" lon="4.65993">
        <ele>557</ele>
        <time>2016-11-03T10:21:39Z</time>
      </trkpt>
      <trkpt lat="46.19614" lon="4.65994">
        <ele>557</ele>
        <time>2016-11-03T10:21:40Z</time>
      </trkpt>
      <trkpt lat="46.19619" lon="4.66004">
        <ele>551</ele>
        <time>2016-11-03T10:21:46Z</time>
      </trkpt>
      <trkpt lat="46.19619" lon="4.66006">
        <ele>551</ele>
        <time>2016-11-03T10:21:47Z</time>
      </trkpt>
      <trkpt lat="46.19623" lon="4.66016">
        <ele>551</ele>
        <time>2016-11-03T10:21:54Z</time>
      </trkpt>
      <trkpt lat="46.19624" lon="4.66018">
        <ele>551</ele>
        <time>2016-11-03T10:21:55Z</time>
      </trkpt>
      <trkpt lat="46.19627" lon="4.66029">
        <ele>551</ele>
        <time>2016-11-03T10:22:02Z</time>
      </trkpt>
      <trkpt lat="46.19628" lon="4.66031">
        <ele>551</ele>
        <time>2016-11-03T10:22:03Z</time>
      </trkpt>
      <trkpt lat="46.19631" lon="4.66042">
        <ele>550</ele>
        <time>2016-11-03T10:22:09Z</time>
      </trkpt>
      <trkpt lat="46.19632" lon="4.66044">
        <ele>550</ele>
        <time>2016-11-03T10:22:10Z</time>
      </trkpt>
      <trkpt lat="46.19632" lon="4.66056">
        <ele>549</ele>
        <time>2016-11-03T10:22:16Z</time>
      </trkpt>
      <trkpt lat="46.19632" lon="4.66058">
        <ele>549</ele>
        <time>2016-11-03T10:22:17Z</time>
      </trkpt>
      <trkpt lat="46.19634" lon="4.66069">
        <ele>549</ele>
        <time>2016-11-03T10:22:22Z</time>
      </trkpt>
      <trkpt lat="46.19635" lon="4.66071">
        <ele>549</ele>
        <time>2016-11-03T10:22:23Z</time>
      </trkpt>
      <trkpt lat="46.19637" lon="4.66082">
        <ele>549</ele>
        <time>2016-11-03T10:22:29Z</time>
      </trkpt>
      <trkpt lat="46.19638" lon="4.66084">
        <ele>543</ele>
        <time>2016-11-03T10:22:30Z</time>
      </trkpt>
      <trkpt lat="46.19638" lon="4.66097">
        <ele>543</ele>
        <time>2016-11-03T10:22:38Z</time>
      </trkpt>
      <trkpt lat="46.19638" lon="4.66098">
        <ele>543</ele>
        <time>2016-11-03T10:22:39Z</time>
      </trkpt>
      <trkpt lat="46.19639" lon="4.66109">
        <ele>543</ele>
        <time>2016-11-03T10:22:46Z</time>
      </trkpt>
      <trkpt lat="46.19639" lon="4.66111">
        <ele>542</ele>
        <time>2016-11-03T10:22:47Z</time>
      </trkpt>
      <trkpt lat="46.19641" lon="4.66124">
        <ele>542</ele>
        <time>2016-11-03T10:22:55Z</time>
      </trkpt>
      <trkpt lat="46.19641" lon="4.66125">
        <ele>542</ele>
        <time>2016-11-03T10:22:56Z</time>
      </trkpt>
      <trkpt lat="46.19641" lon="4.66138">
        <ele>541</ele>
        <time>2016-11-03T10:23:04Z</time>
      </trkpt>
      <trkpt lat="46.19642" lon="4.66139">
        <ele>541</ele>
        <time>2016-11-03T10:23:05Z</time>
      </trkpt>
      <trkpt lat="46.19646" lon="4.6615">
        <ele>541</ele>
        <time>2016-11-03T10:23:17Z</time>
      </trkpt>
      <trkpt lat="46.19646" lon="4.66151">
        <ele>541</ele>
        <time>2016-11-03T10:23:18Z</time>
      </trkpt>
      <trkpt lat="46.19648" lon="4.66163">
        <ele>541</ele>
        <time>2016-11-03T10:23:28Z</time>
      </trkpt>
      <trkpt lat="46.19648" lon="4.66165">
        <ele>541</ele>
        <time>2016-11-03T10:23:29Z</time>
      </trkpt>
      <trkpt lat="46.19649" lon="4.66176">
        <ele>538</ele>
        <time>2016-11-03T10:23:34Z</time>
      </trkpt>
      <trkpt lat="46.19649" lon="4.66178">
        <ele>538</ele>
        <time>2016-11-03T10:23:35Z</time>
      </trkpt>
      <trkpt lat="46.19648" lon="4.6619">
        <ele>537</ele>
        <time>2016-11-03T10:23:43Z</time>
      </trkpt>
      <trkpt lat="46.19648" lon="4.66191">
        <ele>537</ele>
        <time>2016-11-03T10:23:44Z</time>
      </trkpt>
      <trkpt lat="46.19646" lon="4.66202">
        <ele>537</ele>
        <time>2016-11-03T10:23:53Z</time>
      </trkpt>
      <trkpt lat="46.19645" lon="4.66203">
        <ele>537</ele>
        <time>2016-11-03T10:23:54Z</time>
      </trkpt>
      <trkpt lat="46.19646" lon="4.66216">
        <ele>536</ele>
        <time>2016-11-03T10:24:02Z</time>
      </trkpt>
      <trkpt lat="46.19647" lon="4.66217">
        <ele>536</ele>
        <time>2016-11-03T10:24:03Z</time>
      </trkpt>
      <trkpt lat="46.19646" lon="4.66229">
        <ele>535</ele>
        <time>2016-11-03T10:24:09Z</time>
      </trkpt>
      <trkpt lat="46.19646" lon="4.66231">
        <ele>535</ele>
        <time>2016-11-03T10:24:10Z</time>
      </trkpt>
      <trkpt lat="46.19643" lon="4.66243">
        <ele>535</ele>
        <time>2016-11-03T10:24:16Z</time>
      </trkpt>
      <trkpt lat="46.19643" lon="4.66245">
        <ele>535</ele>
        <time>2016-11-03T10:24:17Z</time>
      </trkpt>
      <trkpt lat="46.19642" lon="4.66257">
        <ele>532</ele>
        <time>2016-11-03T10:24:23Z</time>
      </trkpt>
      <trkpt lat="46.19642" lon="4.66259">
        <ele>532</ele>
        <time>2016-11-03T10:24:24Z</time>
      </trkpt>
      <trkpt lat="46.19639" lon="4.66269">
        <ele>532</ele>
        <time>2016-11-03T10:24:30Z</time>
      </trkpt>
      <trkpt lat="46.19639" lon="4.66271">
        <ele>532</ele>
        <time>2016-11-03T10:24:31Z</time>
      </trkpt>
      <trkpt lat="46.19636" lon="4.66282">
        <ele>532</ele>
        <time>2016-11-03T10:24:40Z</time>
      </trkpt>
      <trkpt lat="46.19636" lon="4.66284">
        <ele>532</ele>
        <time>2016-11-03T10:24:41Z</time>
      </trkpt>
      <trkpt lat="46.19635" lon="4.66296">
        <ele>532</ele>
        <time>2016-11-03T10:24:49Z</time>
      </trkpt>
      <trkpt lat="46.19634" lon="4.66298">
        <ele>532</ele>
        <time>2016-11-03T10:24:50Z</time>
      </trkpt>
      <trkpt lat="46.19631" lon="4.6631">
        <ele>532</ele>
        <time>2016-11-03T10:24:57Z</time>
      </trkpt>
      <trkpt lat="46.1963" lon="4.66311">
        <ele>532</ele>
        <time>2016-11-03T10:24:58Z</time>
      </trkpt>
      <trkpt lat="46.19628" lon="4.66323">
        <ele>532</ele>
        <time>2016-11-03T10:25:05Z</time>
      </trkpt>
      <trkpt lat="46.19628" lon="4.66325">
        <ele>532</ele>
        <time>2016-11-03T10:25:06Z</time>
      </trkpt>
      <trkpt lat="46.19627" lon="4.66337">
        <ele>529</ele>
        <time>2016-11-03T10:25:13Z</time>
      </trkpt>
      <trkpt lat="46.19627" lon="4.66339">
        <ele>529</ele>
        <time>2016-11-03T10:25:14Z</time>
      </trkpt>
      <trkpt lat="46.19628" lon="4.66351">
        <ele>529</ele>
        <time>2016-11-03T10:25:21Z</time>
      </trkpt>
      <trkpt lat="46.19628" lon="4.66353">
        <ele>529</ele>
        <time>2016-11-03T10:25:22Z</time>
      </trkpt>
      <trkpt lat="46.19626" lon="4.66365">
        <ele>529</ele>
        <time>2016-11-03T10:25:28Z</time>
      </trkpt>
      <trkpt lat="46.19626" lon="4.66367">
        <ele>529</ele>
        <time>2016-11-03T10:25:29Z</time>
      </trkpt>
      <trkpt lat="46.19626" lon="4.66379">
        <ele>528</ele>
        <time>2016-11-03T10:25:35Z</time>
      </trkpt>
      <trkpt lat="46.19626" lon="4.66382">
        <ele>528</ele>
        <time>2016-11-03T10:25:36Z</time>
      </trkpt>
      <trkpt lat="46.19624" lon="4.66392">
        <ele>528</ele>
        <time>2016-11-03T10:25:41Z</time>
      </trkpt>
      <trkpt lat="46.19624" lon="4.66394">
        <ele>528</ele>
        <time>2016-11-03T10:25:42Z</time>
      </trkpt>
      <trkpt lat="46.19623" lon="4.66407">
        <ele>528</ele>
        <time>2016-11-03T10:25:48Z</time>
      </trkpt>
      <trkpt lat="46.19624" lon="4.66409">
        <ele>528</ele>
        <time>2016-11-03T10:25:49Z</time>
      </trkpt>
      <trkpt lat="46.19625" lon="4.66421">
        <ele>525</ele>
        <time>2016-11-03T10:25:57Z</time>
      </trkpt>
      <trkpt lat="46.19625" lon="4.66423">
        <ele>525</ele>
        <time>2016-11-03T10:25:58Z</time>
      </trkpt>
      <trkpt lat="46.19627" lon="4.66436">
        <ele>525</ele>
        <time>2016-11-03T10:26:05Z</time>
      </trkpt>
      <trkpt lat="46.19627" lon="4.66437">
        <ele>525</ele>
        <time>2016-11-03T10:26:06Z</time>
      </trkpt>
      <trkpt lat="46.19625" lon="4.66449">
        <ele>525</ele>
        <time>2016-11-03T10:26:14Z</time>
      </trkpt>
      <trkpt lat="46.19625" lon="4.66451">
        <ele>525</ele>
        <time>2016-11-03T10:26:15Z</time>
      </trkpt>
      <trkpt lat="46.19622" lon="4.66462">
        <ele>524</ele>
        <time>2016-11-03T10:26:22Z</time>
      </trkpt>
      <trkpt lat="46.19622" lon="4.66464">
        <ele>524</ele>
        <time>2016-11-03T10:26:23Z</time>
      </trkpt>
      <trkpt lat="46.1962" lon="4.66476">
        <ele>524</ele>
        <time>2016-11-03T10:26:31Z</time>
      </trkpt>
      <trkpt lat="46.1962" lon="4.66477">
        <ele>524</ele>
        <time>2016-11-03T10:26:32Z</time>
      </trkpt>
      <trkpt lat="46.19617" lon="4.66488">
        <ele>525</ele>
        <time>2016-11-03T10:26:48Z</time>
      </trkpt>
      <trkpt lat="46.19617" lon="4.66489">
        <ele>525</ele>
        <time>2016-11-03T10:26:49Z</time>
      </trkpt>
      <trkpt lat="46.19615" lon="4.66501">
        <ele>522</ele>
        <time>2016-11-03T10:26:59Z</time>
      </trkpt>
      <trkpt lat="46.19615" lon="4.66502">
        <ele>522</ele>
        <time>2016-11-03T10:27:00Z</time>
      </trkpt>
      <trkpt lat="46.19613" lon="4.66515">
        <ele>522</ele>
        <time>2016-11-03T10:27:10Z</time>
      </trkpt>
      <trkpt lat="46.19613" lon="4.66516">
        <ele>522</ele>
        <time>2016-11-03T10:27:11Z</time>
      </trkpt>
      <trkpt lat="46.19613" lon="4.66529">
        <ele>521</ele>
        <time>2016-11-03T10:27:24Z</time>
      </trkpt>
      <trkpt lat="46.19613" lon="4.6653">
        <ele>521</ele>
        <time>2016-11-03T10:27:25Z</time>
      </trkpt>
      <trkpt lat="46.19615" lon="4.66542">
        <ele>521</ele>
        <time>2016-11-03T10:27:34Z</time>
      </trkpt>
      <trkpt lat="46.19616" lon="4.66543">
        <ele>521</ele>
        <time>2016-11-03T10:27:35Z</time>
      </trkpt>
      <trkpt lat="46.1962" lon="4.66554">
        <ele>520</ele>
        <time>2016-11-03T10:27:50Z</time>
      </trkpt>
      <trkpt lat="46.1962" lon="4.66555">
        <ele>520</ele>
        <time>2016-11-03T10:27:51Z</time>
      </trkpt>
      <trkpt lat="46.19625" lon="4.66565">
        <ele>519</ele>
        <time>2016-11-03T10:29:18Z</time>
      </trkpt>
      <trkpt lat="46.19625" lon="4.66566">
        <ele>519</ele>
        <time>2016-11-03T10:29:19Z</time>
      </trkpt>
      <trkpt lat="46.19631" lon="4.66576">
        <ele>518</ele>
        <time>2016-11-03T10:29:31Z</time>
      </trkpt>
      <trkpt lat="46.19631" lon="4.66577">
        <ele>518</ele>
        <time>2016-11-03T10:29:32Z</time>
      </trkpt>
      <trkpt lat="46.19637" lon="4.66587">
        <ele>517</ele>
        <time>2016-11-03T10:29:42Z</time>
      </trkpt>
      <trkpt lat="46.19638" lon="4.66588">
        <ele>517</ele>
        <time>2016-11-03T10:29:43Z</time>
      </trkpt>
      <trkpt lat="46.19642" lon="4.66599">
        <ele>516</ele>
        <time>2016-11-03T10:29:57Z</time>
      </trkpt>
      <trkpt lat="46.19642" lon="4.66599">
        <ele>516</ele>
        <time>2016-11-03T10:29:58Z</time>
      </trkpt>
      <trkpt lat="46.19649" lon="4.66606">
        <ele>516</ele>
        <time>2016-11-03T10:31:07Z</time>
      </trkpt>
      <trkpt lat="46.19649" lon="4.66607">
        <ele>516</ele>
        <time>2016-11-03T10:31:08Z</time>
      </trkpt>
      <trkpt lat="46.19655" lon="4.66617">
        <ele>517</ele>
        <time>2016-11-03T10:31:16Z</time>
      </trkpt>
      <trkpt lat="46.19656" lon="4.66618">
        <ele>517</ele>
        <time>2016-11-03T10:31:17Z</time>
      </trkpt>
      <trkpt lat="46.19662" lon="4.66625">
        <ele>517</ele>
        <time>2016-11-03T10:31:22Z</time>
      </trkpt>
      <trkpt lat="46.19663" lon="4.66627">
        <ele>517</ele>
        <time>2016-11-03T10:31:23Z</time>
      </trkpt>
      <trkpt lat="46.19667" lon="4.66637">
        <ele>509</ele>
        <time>2016-11-03T10:31:29Z</time>
      </trkpt>
      <trkpt lat="46.19668" lon="4.66638">
        <ele>509</ele>
        <time>2016-11-03T10:31:30Z</time>
      </trkpt>
      <trkpt lat="46.19671" lon="4.66649">
        <ele>511</ele>
        <time>2016-11-03T10:31:37Z</time>
      </trkpt>
      <trkpt lat="46.19672" lon="4.6665">
        <ele>511</ele>
        <time>2016-11-03T10:31:38Z</time>
      </trkpt>
      <trkpt lat="46.19677" lon="4.66659">
        <ele>512</ele>
        <time>2016-11-03T10:31:45Z</time>
      </trkpt>
      <trkpt lat="46.19678" lon="4.6666">
        <ele>512</ele>
        <time>2016-11-03T10:31:46Z</time>
      </trkpt>
      <trkpt lat="46.19683" lon="4.66669">
        <ele>515</ele>
        <time>2016-11-03T10:31:52Z</time>
      </trkpt>
      <trkpt lat="46.19683" lon="4.66671">
        <ele>514</ele>
        <time>2016-11-03T10:31:53Z</time>
      </trkpt>
      <trkpt lat="46.19687" lon="4.66681">
        <ele>514</ele>
        <time>2016-11-03T10:31:59Z</time>
      </trkpt>
      <trkpt lat="46.19688" lon="4.66683">
        <ele>513</ele>
        <time>2016-11-03T10:32:00Z</time>
      </trkpt>
      <trkpt lat="46.19694" lon="4.66693">
        <ele>513</ele>
        <time>2016-11-03T10:32:06Z</time>
      </trkpt>
      <trkpt lat="46.19695" lon="4.66694">
        <ele>513</ele>
        <time>2016-11-03T10:32:07Z</time>
      </trkpt>
      <trkpt lat="46.19699" lon="4.66705">
        <ele>512</ele>
        <time>2016-11-03T10:32:13Z</time>
      </trkpt>
      <trkpt lat="46.197" lon="4.66706">
        <ele>512</ele>
        <time>2016-11-03T10:32:14Z</time>
      </trkpt>
      <trkpt lat="46.19704" lon="4.66717">
        <ele>512</ele>
        <time>2016-11-03T10:32:21Z</time>
      </trkpt>
      <trkpt lat="46.19704" lon="4.66719">
        <ele>513</ele>
        <time>2016-11-03T10:32:22Z</time>
      </trkpt>
      <trkpt lat="46.19708" lon="4.66729">
        <ele>513</ele>
        <time>2016-11-03T10:32:29Z</time>
      </trkpt>
      <trkpt lat="46.19708" lon="4.6673">
        <ele>513</ele>
        <time>2016-11-03T10:32:30Z</time>
      </trkpt>
      <trkpt lat="46.19714" lon="4.6674">
        <ele>512</ele>
        <time>2016-11-03T10:32:37Z</time>
      </trkpt>
      <trkpt lat="46.19715" lon="4.66742">
        <ele>512</ele>
        <time>2016-11-03T10:32:38Z</time>
      </trkpt>
      <trkpt lat="46.1972" lon="4.6675">
        <ele>512</ele>
        <time>2016-11-03T10:32:44Z</time>
      </trkpt>
      <trkpt lat="46.19721" lon="4.66751">
        <ele>515</ele>
        <time>2016-11-03T10:32:45Z</time>
      </trkpt>
      <trkpt lat="46.19727" lon="4.66759">
        <ele>515</ele>
        <time>2016-11-03T10:32:51Z</time>
      </trkpt>
      <trkpt lat="46.19728" lon="4.6676">
        <ele>514</ele>
        <time>2016-11-03T10:32:52Z</time>
      </trkpt>
      <trkpt lat="46.19734" lon="4.66768">
        <ele>514</ele>
        <time>2016-11-03T10:32:58Z</time>
      </trkpt>
      <trkpt lat="46.19735" lon="4.66769">
        <ele>514</ele>
        <time>2016-11-03T10:32:59Z</time>
      </trkpt>
      <trkpt lat="46.19741" lon="4.66776">
        <ele>515</ele>
        <time>2016-11-03T10:33:05Z</time>
      </trkpt>
      <trkpt lat="46.19743" lon="4.66777">
        <ele>515</ele>
        <time>2016-11-03T10:33:06Z</time>
      </trkpt>
      <trkpt lat="46.1975" lon="4.66782">
        <ele>515</ele>
        <time>2016-11-03T10:33:11Z</time>
      </trkpt>
      <trkpt lat="46.19751" lon="4.66783">
        <ele>508</ele>
        <time>2016-11-03T10:33:12Z</time>
      </trkpt>
      <trkpt lat="46.19758" lon="4.6679">
        <ele>508</ele>
        <time>2016-11-03T10:33:18Z</time>
      </trkpt>
      <trkpt lat="46.1976" lon="4.66791">
        <ele>508</ele>
        <time>2016-11-03T10:33:19Z</time>
      </trkpt>
      <trkpt lat="46.19766" lon="4.66798">
        <ele>508</ele>
        <time>2016-11-03T10:33:25Z</time>
      </trkpt>
      <trkpt lat="46.19768" lon="4.66799">
        <ele>508</ele>
        <time>2016-11-03T10:33:26Z</time>
      </trkpt>
      <trkpt lat="46.19774" lon="4.66806">
        <ele>508</ele>
        <time>2016-11-03T10:33:32Z</time>
      </trkpt>
      <trkpt lat="46.19775" lon="4.66808">
        <ele>508</ele>
        <time>2016-11-03T10:33:33Z</time>
      </trkpt>
      <trkpt lat="46.19782" lon="4.66814">
        <ele>507</ele>
        <time>2016-11-03T10:33:40Z</time>
      </trkpt>
      <trkpt lat="46.19784" lon="4.66815">
        <ele>507</ele>
        <time>2016-11-03T10:33:41Z</time>
      </trkpt>
      <trkpt lat="46.1979" lon="4.66823">
        <ele>507</ele>
        <time>2016-11-03T10:33:49Z</time>
      </trkpt>
      <trkpt lat="46.19791" lon="4.66824">
        <ele>507</ele>
        <time>2016-11-03T10:33:50Z</time>
      </trkpt>
      <trkpt lat="46.19797" lon="4.66832">
        <ele>506</ele>
        <time>2016-11-03T10:33:58Z</time>
      </trkpt>
      <trkpt lat="46.19798" lon="4.66833">
        <ele>506</ele>
        <time>2016-11-03T10:33:59Z</time>
      </trkpt>
      <trkpt lat="46.19805" lon="4.6684">
        <ele>511</ele>
        <time>2016-11-03T10:34:06Z</time>
      </trkpt>
      <trkpt lat="46.19806" lon="4.66841">
        <ele>511</ele>
        <time>2016-11-03T10:34:07Z</time>
      </trkpt>
      <trkpt lat="46.19812" lon="4.66849">
        <ele>511</ele>
        <time>2016-11-03T10:34:13Z</time>
      </trkpt>
      <trkpt lat="46.19813" lon="4.6685">
        <ele>511</ele>
        <time>2016-11-03T10:34:14Z</time>
      </trkpt>
      <trkpt lat="46.1982" lon="4.66857">
        <ele>511</ele>
        <time>2016-11-03T10:34:21Z</time>
      </trkpt>
      <trkpt lat="46.19821" lon="4.66858">
        <ele>511</ele>
        <time>2016-11-03T10:34:22Z</time>
      </trkpt>
      <trkpt lat="46.19828" lon="4.66863">
        <ele>511</ele>
        <time>2016-11-03T10:34:29Z</time>
      </trkpt>
      <trkpt lat="46.19829" lon="4.66865">
        <ele>512</ele>
        <time>2016-11-03T10:34:30Z</time>
      </trkpt>
      <trkpt lat="46.19837" lon="4.6687">
        <ele>504</ele>
        <time>2016-11-03T10:34:36Z</time>
      </trkpt>
      <trkpt lat="46.19838" lon="4.66871">
        <ele>504</ele>
        <time>2016-11-03T10:34:37Z</time>
      </trkpt>
      <trkpt lat="46.19845" lon="4.66876">
        <ele>504</ele>
        <time>2016-11-03T10:34:43Z</time>
      </trkpt>
      <trkpt lat="46.19846" lon="4.66877">
        <ele>504</ele>
        <time>2016-11-03T10:34:44Z</time>
      </trkpt>
      <trkpt lat="46.19854" lon="4.66883">
        <ele>504</ele>
        <time>2016-11-03T10:34:50Z</time>
      </trkpt>
      <trkpt lat="46.19855" lon="4.66884">
        <ele>504</ele>
        <time>2016-11-03T10:34:51Z</time>
      </trkpt>
      <trkpt lat="46.19862" lon="4.6689">
        <ele>504</ele>
        <time>2016-11-03T10:34:57Z</time>
      </trkpt>
      <trkpt lat="46.19863" lon="4.66891">
        <ele>504</ele>
        <time>2016-11-03T10:34:58Z</time>
      </trkpt>
      <trkpt lat="46.19871" lon="4.66897">
        <ele>504</ele>
        <time>2016-11-03T10:35:04Z</time>
      </trkpt>
      <trkpt lat="46.19872" lon="4.66898">
        <ele>504</ele>
        <time>2016-11-03T10:35:05Z</time>
      </trkpt>
      <trkpt lat="46.19879" lon="4.66903">
        <ele>503</ele>
        <time>2016-11-03T10:35:11Z</time>
      </trkpt>
      <trkpt lat="46.1988" lon="4.66904">
        <ele>503</ele>
        <time>2016-11-03T10:35:12Z</time>
      </trkpt>
      <trkpt lat="46.19887" lon="4.66908">
        <ele>503</ele>
        <time>2016-11-03T10:35:17Z</time>
      </trkpt>
      <trkpt lat="46.19889" lon="4.66909">
        <ele>502</ele>
        <time>2016-11-03T10:35:18Z</time>
      </trkpt>
      <trkpt lat="46.19896" lon="4.66914">
        <ele>502</ele>
        <time>2016-11-03T10:35:23Z</time>
      </trkpt>
      <trkpt lat="46.19897" lon="4.66915">
        <ele>502</ele>
        <time>2016-11-03T10:35:24Z</time>
      </trkpt>
      <trkpt lat="46.19905" lon="4.66921">
        <ele>504</ele>
        <time>2016-11-03T10:35:30Z</time>
      </trkpt>
      <trkpt lat="46.19906" lon="4.66922">
        <ele>504</ele>
        <time>2016-11-03T10:35:31Z</time>
      </trkpt>
      <trkpt lat="46.19913" lon="4.66929">
        <ele>503</ele>
        <time>2016-11-03T10:35:38Z</time>
      </trkpt>
      <trkpt lat="46.19914" lon="4.6693">
        <ele>504</ele>
        <time>2016-11-03T10:35:39Z</time>
      </trkpt>
      <trkpt lat="46.1992" lon="4.66939">
        <ele>499</ele>
        <time>2016-11-03T10:35:46Z</time>
      </trkpt>
      <trkpt lat="46.19921" lon="4.66941">
        <ele>499</ele>
        <time>2016-11-03T10:35:47Z</time>
      </trkpt>
      <trkpt lat="46.19927" lon="4.66949">
        <ele>498</ele>
        <time>2016-11-03T10:35:54Z</time>
      </trkpt>
      <trkpt lat="46.19928" lon="4.66951">
        <ele>498</ele>
        <time>2016-11-03T10:35:55Z</time>
      </trkpt>
      <trkpt lat="46.19933" lon="4.66958">
        <ele>498</ele>
        <time>2016-11-03T10:36:01Z</time>
      </trkpt>
      <trkpt lat="46.19934" lon="4.66959">
        <ele>498</ele>
        <time>2016-11-03T10:36:02Z</time>
      </trkpt>
      <trkpt lat="46.19941" lon="4.66966">
        <ele>498</ele>
        <time>2016-11-03T10:36:08Z</time>
      </trkpt>
      <trkpt lat="46.19942" lon="4.66968">
        <ele>498</ele>
        <time>2016-11-03T10:36:09Z</time>
      </trkpt>
      <trkpt lat="46.19948" lon="4.66975">
        <ele>497</ele>
        <time>2016-11-03T10:36:15Z</time>
      </trkpt>
      <trkpt lat="46.19949" lon="4.66976">
        <ele>497</ele>
        <time>2016-11-03T10:36:16Z</time>
      </trkpt>
      <trkpt lat="46.19954" lon="4.66985">
        <ele>497</ele>
        <time>2016-11-03T10:36:22Z</time>
      </trkpt>
      <trkpt lat="46.19955" lon="4.66987">
        <ele>497</ele>
        <time>2016-11-03T10:36:23Z</time>
      </trkpt>
      <trkpt lat="46.19961" lon="4.66996">
        <ele>497</ele>
        <time>2016-11-03T10:36:30Z</time>
      </trkpt>
      <trkpt lat="46.19961" lon="4.66997">
        <ele>497</ele>
        <time>2016-11-03T10:36:31Z</time>
      </trkpt>
      <trkpt lat="46.19966" lon="4.67006">
        <ele>495</ele>
        <time>2016-11-03T10:36:37Z</time>
      </trkpt>
      <trkpt lat="46.19967" lon="4.67008">
        <ele>495</ele>
        <time>2016-11-03T10:36:38Z</time>
      </trkpt>
      <trkpt lat="46.19972" lon="4.67018">
        <ele>494</ele>
        <time>2016-11-03T10:36:45Z</time>
      </trkpt>
      <trkpt lat="46.19972" lon="4.6702">
        <ele>494</ele>
        <time>2016-11-03T10:36:46Z</time>
      </trkpt>
      <trkpt lat="46.19978" lon="4.6703">
        <ele>494</ele>
        <time>2016-11-03T10:36:53Z</time>
      </trkpt>
      <trkpt lat="46.19979" lon="4.67031">
        <ele>494</ele>
        <time>2016-11-03T10:36:54Z</time>
      </trkpt>
      <trkpt lat="46.19983" lon="4.67041">
        <ele>494</ele>
        <time>2016-11-03T10:37:00Z</time>
      </trkpt>
      <trkpt lat="46.19984" lon="4.67042">
        <ele>493</ele>
        <time>2016-11-03T10:37:01Z</time>
      </trkpt>
      <trkpt lat="46.19987" lon="4.67052">
        <ele>493</ele>
        <time>2016-11-03T10:37:07Z</time>
      </trkpt>
      <trkpt lat="46.19988" lon="4.67053">
        <ele>493</ele>
        <time>2016-11-03T10:37:08Z</time>
      </trkpt>
      <trkpt lat="46.19991" lon="4.67064">
        <ele>492</ele>
        <time>2016-11-03T10:37:14Z</time>
      </trkpt>
      <trkpt lat="46.19992" lon="4.67066">
        <ele>492</ele>
        <time>2016-11-03T10:37:15Z</time>
      </trkpt>
      <trkpt lat="46.19996" lon="4.67077">
        <ele>491</ele>
        <time>2016-11-03T10:37:21Z</time>
      </trkpt>
      <trkpt lat="46.19997" lon="4.67079">
        <ele>491</ele>
        <time>2016-11-03T10:37:22Z</time>
      </trkpt>
      <trkpt lat="46.20001" lon="4.67089">
        <ele>489</ele>
        <time>2016-11-03T10:37:28Z</time>
      </trkpt>
      <trkpt lat="46.20002" lon="4.67091">
        <ele>488</ele>
        <time>2016-11-03T10:37:29Z</time>
      </trkpt>
      <trkpt lat="46.20005" lon="4.67103">
        <ele>486</ele>
        <time>2016-11-03T10:37:36Z</time>
      </trkpt>
      <trkpt lat="46.20005" lon="4.67105">
        <ele>486</ele>
        <time>2016-11-03T10:37:37Z</time>
      </trkpt>
      <trkpt lat="46.20005" lon="4.67117">
        <ele>485</ele>
        <time>2016-11-03T10:37:44Z</time>
      </trkpt>
      <trkpt lat="46.20006" lon="4.67119">
        <ele>484</ele>
        <time>2016-11-03T10:37:45Z</time>
      </trkpt>
      <trkpt lat="46.20009" lon="4.6713">
        <ele>483</ele>
        <time>2016-11-03T10:37:52Z</time>
      </trkpt>
      <trkpt lat="46.2001" lon="4.67132">
        <ele>483</ele>
        <time>2016-11-03T10:37:53Z</time>
      </trkpt>
      <trkpt lat="46.20016" lon="4.6714">
        <ele>483</ele>
        <time>2016-11-03T10:38:01Z</time>
      </trkpt>
      <trkpt lat="46.20016" lon="4.6714">
        <ele>483</ele>
        <time>2016-11-03T10:38:02Z</time>
      </trkpt>
      <trkpt lat="46.20024" lon="4.67147">
        <ele>482</ele>
        <time>2016-11-03T10:38:10Z</time>
      </trkpt>
      <trkpt lat="46.20024" lon="4.67148">
        <ele>482</ele>
        <time>2016-11-03T10:38:11Z</time>
      </trkpt>
      <trkpt lat="46.2003" lon="4.67157">
        <ele>482</ele>
        <time>2016-11-03T10:38:19Z</time>
      </trkpt>
      <trkpt lat="46.20031" lon="4.67158">
        <ele>482</ele>
        <time>2016-11-03T10:38:20Z</time>
      </trkpt>
      <trkpt lat="46.20036" lon="4.67168">
        <ele>476</ele>
        <time>2016-11-03T10:38:28Z</time>
      </trkpt>
      <trkpt lat="46.20036" lon="4.67169">
        <ele>476</ele>
        <time>2016-11-03T10:38:29Z</time>
      </trkpt>
      <trkpt lat="46.20044" lon="4.67175">
        <ele>475</ele>
        <time>2016-11-03T10:38:37Z</time>
      </trkpt>
      <trkpt lat="46.20045" lon="4.67176">
        <ele>475</ele>
        <time>2016-11-03T10:38:38Z</time>
      </trkpt>
      <trkpt lat="46.20051" lon="4.67183">
        <ele>475</ele>
        <time>2016-11-03T10:38:45Z</time>
      </trkpt>
      <trkpt lat="46.20052" lon="4.67184">
        <ele>475</ele>
        <time>2016-11-03T10:38:46Z</time>
      </trkpt>
      <trkpt lat="46.20058" lon="4.67192">
        <ele>475</ele>
        <time>2016-11-03T10:38:55Z</time>
      </trkpt>
      <trkpt lat="46.20059" lon="4.67193">
        <ele>475</ele>
        <time>2016-11-03T10:38:56Z</time>
      </trkpt>
      <trkpt lat="46.20068" lon="4.67197">
        <ele>474</ele>
        <time>2016-11-03T10:39:04Z</time>
      </trkpt>
      <trkpt lat="46.20069" lon="4.67198">
        <ele>474</ele>
        <time>2016-11-03T10:39:05Z</time>
      </trkpt>
      <trkpt lat="46.20077" lon="4.67203">
        <ele>474</ele>
        <time>2016-11-03T10:39:12Z</time>
      </trkpt>
      <trkpt lat="46.20077" lon="4.67205">
        <ele>474</ele>
        <time>2016-11-03T10:39:13Z</time>
      </trkpt>
      <trkpt lat="46.20085" lon="4.6721">
        <ele>471</ele>
        <time>2016-11-03T10:39:20Z</time>
      </trkpt>
      <trkpt lat="46.20086" lon="4.67211">
        <ele>471</ele>
        <time>2016-11-03T10:39:21Z</time>
      </trkpt>
      <trkpt lat="46.20091" lon="4.67219">
        <ele>470</ele>
        <time>2016-11-03T10:39:29Z</time>
      </trkpt>
      <trkpt lat="46.20092" lon="4.6722">
        <ele>470</ele>
        <time>2016-11-03T10:39:30Z</time>
      </trkpt>
      <trkpt lat="46.20098" lon="4.67228">
        <ele>470</ele>
        <time>2016-11-03T10:39:36Z</time>
      </trkpt>
      <trkpt lat="46.20099" lon="4.6723">
        <ele>470</ele>
        <time>2016-11-03T10:39:37Z</time>
      </trkpt>
      <trkpt lat="46.20105" lon="4.67238">
        <ele>469</ele>
        <time>2016-11-03T10:39:44Z</time>
      </trkpt>
      <trkpt lat="46.20106" lon="4.6724">
        <ele>469</ele>
        <time>2016-11-03T10:39:45Z</time>
      </trkpt>
      <trkpt lat="46.2011" lon="4.67251">
        <ele>466</ele>
        <time>2016-11-03T10:39:52Z</time>
      </trkpt>
      <trkpt lat="46.2011" lon="4.67252">
        <ele>466</ele>
        <time>2016-11-03T10:39:53Z</time>
      </trkpt>
      <trkpt lat="46.2011" lon="4.67265">
        <ele>465</ele>
        <time>2016-11-03T10:40:03Z</time>
      </trkpt>
      <trkpt lat="46.20111" lon="4.67266">
        <ele>465</ele>
        <time>2016-11-03T10:40:04Z</time>
      </trkpt>
      <trkpt lat="46.20111" lon="4.67278">
        <ele>465</ele>
        <time>2016-11-03T10:40:14Z</time>
      </trkpt>
      <trkpt lat="46.20111" lon="4.67279">
        <ele>465</ele>
        <time>2016-11-03T10:40:15Z</time>
      </trkpt>
      <trkpt lat="46.20115" lon="4.6729">
        <ele>464</ele>
        <time>2016-11-03T10:40:36Z</time>
      </trkpt>
      <trkpt lat="46.20115" lon="4.67291">
        <ele>464</ele>
        <time>2016-11-03T10:40:37Z</time>
      </trkpt>
      <trkpt lat="46.20117" lon="4.67303">
        <ele>464</ele>
        <time>2016-11-03T10:40:46Z</time>
      </trkpt>
      <trkpt lat="46.20117" lon="4.67305">
        <ele>464</ele>
        <time>2016-11-03T10:40:47Z</time>
      </trkpt>
      <trkpt lat="46.20114" lon="4.67294">
        <ele>464</ele>
        <time>2016-11-03T10:42:32Z</time>
      </trkpt>
      <trkpt lat="46.20114" lon="4.67292">
        <ele>464</ele>
        <time>2016-11-03T10:42:33Z</time>
      </trkpt>
      <trkpt lat="46.20115" lon="4.67304">
        <ele>464</ele>
        <time>2016-11-03T10:46:13Z</time>
      </trkpt>
      <trkpt lat="46.20116" lon="4.67305">
        <ele>464</ele>
        <time>2016-11-03T10:46:14Z</time>
      </trkpt>
      <trkpt lat="46.20117" lon="4.67317">
        <ele>464</ele>
        <time>2016-11-03T10:46:20Z</time>
      </trkpt>
      <trkpt lat="46.20117" lon="4.67319">
        <ele>464</ele>
        <time>2016-11-03T10:46:21Z</time>
      </trkpt>
      <trkpt lat="46.20117" lon="4.67331">
        <ele>463</ele>
        <time>2016-11-03T10:46:27Z</time>
      </trkpt>
      <trkpt lat="46.20117" lon="4.67333">
        <ele>463</ele>
        <time>2016-11-03T10:46:28Z</time>
      </trkpt>
      <trkpt lat="46.20119" lon="4.67345">
        <ele>463</ele>
        <time>2016-11-03T10:46:35Z</time>
      </trkpt>
      <trkpt lat="46.20119" lon="4.67347">
        <ele>463</ele>
        <time>2016-11-03T10:46:36Z</time>
      </trkpt>
      <trkpt lat="46.20121" lon="4.67358">
        <ele>463</ele>
        <time>2016-11-03T10:46:43Z</time>
      </trkpt>
      <trkpt lat="46.20122" lon="4.6736">
        <ele>463</ele>
        <time>2016-11-03T10:46:44Z</time>
      </trkpt>
      <trkpt lat="46.20123" lon="4.67371">
        <ele>463</ele>
        <time>2016-11-03T10:46:50Z</time>
      </trkpt>
      <trkpt lat="46.20123" lon="4.67373">
        <ele>463</ele>
        <time>2016-11-03T10:46:51Z</time>
      </trkpt>
      <trkpt lat="46.20123" lon="4.67386">
        <ele>463</ele>
        <time>2016-11-03T10:46:59Z</time>
      </trkpt>
      <trkpt lat="46.20124" lon="4.67387">
        <ele>463</ele>
        <time>2016-11-03T10:47:00Z</time>
      </trkpt>
      <trkpt lat="46.20125" lon="4.674">
        <ele>463</ele>
        <time>2016-11-03T10:47:08Z</time>
      </trkpt>
      <trkpt lat="46.20125" lon="4.67402">
        <ele>463</ele>
        <time>2016-11-03T10:47:09Z</time>
      </trkpt>
      <trkpt lat="46.20127" lon="4.67414">
        <ele>463</ele>
        <time>2016-11-03T10:47:16Z</time>
      </trkpt>
      <trkpt lat="46.20128" lon="4.67416">
        <ele>463</ele>
        <time>2016-11-03T10:47:17Z</time>
      </trkpt>
      <trkpt lat="46.20132" lon="4.67425">
        <ele>464</ele>
        <time>2016-11-03T10:47:23Z</time>
      </trkpt>
      <trkpt lat="46.20133" lon="4.67427">
        <ele>464</ele>
        <time>2016-11-03T10:47:24Z</time>
      </trkpt>
      <trkpt lat="46.20138" lon="4.67435">
        <ele>464</ele>
        <time>2016-11-03T10:47:30Z</time>
      </trkpt>
      <trkpt lat="46.20139" lon="4.67436">
        <ele>464</ele>
        <time>2016-11-03T10:47:31Z</time>
      </trkpt>
      <trkpt lat="46.20144" lon="4.67445">
        <ele>464</ele>
        <time>2016-11-03T10:47:37Z</time>
      </trkpt>
      <trkpt lat="46.20145" lon="4.67447">
        <ele>464</ele>
        <time>2016-11-03T10:47:38Z</time>
      </trkpt>
      <trkpt lat="46.20148" lon="4.67457">
        <ele>464</ele>
        <time>2016-11-03T10:47:44Z</time>
      </trkpt>
      <trkpt lat="46.20149" lon="4.67459">
        <ele>464</ele>
        <time>2016-11-03T10:47:45Z</time>
      </trkpt>
      <trkpt lat="46.20153" lon="4.67469">
        <ele>464</ele>
        <time>2016-11-03T10:47:51Z</time>
      </trkpt>
      <trkpt lat="46.20153" lon="4.6747">
        <ele>465</ele>
        <time>2016-11-03T10:47:52Z</time>
      </trkpt>
      <trkpt lat="46.20158" lon="4.6748">
        <ele>465</ele>
        <time>2016-11-03T10:47:58Z</time>
      </trkpt>
      <trkpt lat="46.20158" lon="4.67482">
        <ele>465</ele>
        <time>2016-11-03T10:47:59Z</time>
      </trkpt>
      <trkpt lat="46.20162" lon="4.67493">
        <ele>465</ele>
        <time>2016-11-03T10:48:06Z</time>
      </trkpt>
      <trkpt lat="46.20162" lon="4.67495">
        <ele>465</ele>
        <time>2016-11-03T10:48:07Z</time>
      </trkpt>
      <trkpt lat="46.20164" lon="4.67507">
        <ele>465</ele>
        <time>2016-11-03T10:48:13Z</time>
      </trkpt>
      <trkpt lat="46.20165" lon="4.67509">
        <ele>465</ele>
        <time>2016-11-03T10:48:14Z</time>
      </trkpt>
      <trkpt lat="46.20168" lon="4.67521">
        <ele>465</ele>
        <time>2016-11-03T10:48:20Z</time>
      </trkpt>
      <trkpt lat="46.20168" lon="4.67523">
        <ele>465</ele>
        <time>2016-11-03T10:48:21Z</time>
      </trkpt>
      <trkpt lat="46.20168" lon="4.67535">
        <ele>465</ele>
        <time>2016-11-03T10:48:27Z</time>
      </trkpt>
      <trkpt lat="46.20169" lon="4.67537">
        <ele>465</ele>
        <time>2016-11-03T10:48:28Z</time>
      </trkpt>
      <trkpt lat="46.20171" lon="4.67549">
        <ele>465</ele>
        <time>2016-11-03T10:48:34Z</time>
      </trkpt>
      <trkpt lat="46.20172" lon="4.67551">
        <ele>465</ele>
        <time>2016-11-03T10:48:35Z</time>
      </trkpt>
      <trkpt lat="46.20175" lon="4.67562">
        <ele>466</ele>
        <time>2016-11-03T10:48:41Z</time>
      </trkpt>
      <trkpt lat="46.20175" lon="4.67564">
        <ele>466</ele>
        <time>2016-11-03T10:48:42Z</time>
      </trkpt>
      <trkpt lat="46.20178" lon="4.67574">
        <ele>466</ele>
        <time>2016-11-03T10:48:48Z</time>
      </trkpt>
      <trkpt lat="46.20179" lon="4.67576">
        <ele>466</ele>
        <time>2016-11-03T10:48:49Z</time>
      </trkpt>
      <trkpt lat="46.20182" lon="4.67587">
        <ele>466</ele>
        <time>2016-11-03T10:48:55Z</time>
      </trkpt>
      <trkpt lat="46.20182" lon="4.67589">
        <ele>466</ele>
        <time>2016-11-03T10:48:56Z</time>
      </trkpt>
      <trkpt lat="46.20186" lon="4.676">
        <ele>466</ele>
        <time>2016-11-03T10:49:02Z</time>
      </trkpt>
      <trkpt lat="46.20186" lon="4.67601">
        <ele>466</ele>
        <time>2016-11-03T10:49:03Z</time>
      </trkpt>
      <trkpt lat="46.20189" lon="4.67612">
        <ele>466</ele>
        <time>2016-11-03T10:49:09Z</time>
      </trkpt>
      <trkpt lat="46.20189" lon="4.67614">
        <ele>466</ele>
        <time>2016-11-03T10:49:10Z</time>
      </trkpt>
      <trkpt lat="46.20192" lon="4.67625">
        <ele>466</ele>
        <time>2016-11-03T10:49:16Z</time>
      </trkpt>
      <trkpt lat="46.20192" lon="4.67627">
        <ele>466</ele>
        <time>2016-11-03T10:49:17Z</time>
      </trkpt>
      <trkpt lat="46.20194" lon="4.67638">
        <ele>466</ele>
        <time>2016-11-03T10:49:23Z</time>
      </trkpt>
      <trkpt lat="46.20195" lon="4.6764">
        <ele>466</ele>
        <time>2016-11-03T10:49:24Z</time>
      </trkpt>
      <trkpt lat="46.20195" lon="4.67652">
        <ele>466</ele>
        <time>2016-11-03T10:49:30Z</time>
      </trkpt>
      <trkpt lat="46.20195" lon="4.67654">
        <ele>465</ele>
        <time>2016-11-03T10:49:31Z</time>
      </trkpt>
      <trkpt lat="46.20196" lon="4.67666">
        <ele>465</ele>
        <time>2016-11-03T10:49:37Z</time>
      </trkpt>
      <trkpt lat="46.20196" lon="4.67668">
        <ele>462</ele>
        <time>2016-11-03T10:49:38Z</time>
      </trkpt>
      <trkpt lat="46.20197" lon="4.67679">
        <ele>462</ele>
        <time>2016-11-03T10:49:44Z</time>
      </trkpt>
      <trkpt lat="46.20197" lon="4.67681">
        <ele>462</ele>
        <time>2016-11-03T10:49:45Z</time>
      </trkpt>
      <trkpt lat="46.20201" lon="4.67692">
        <ele>462</ele>
        <time>2016-11-03T10:49:52Z</time>
      </trkpt>
      <trkpt lat="46.20201" lon="4.67693">
        <ele>462</ele>
        <time>2016-11-03T10:49:53Z</time>
      </trkpt>
      <trkpt lat="46.20207" lon="4.67703">
        <ele>462</ele>
        <time>2016-11-03T10:50:00Z</time>
      </trkpt>
      <trkpt lat="46.20208" lon="4.67704">
        <ele>462</ele>
        <time>2016-11-03T10:50:01Z</time>
      </trkpt>
      <trkpt lat="46.20214" lon="4.67712">
        <ele>462</ele>
        <time>2016-11-03T10:50:07Z</time>
      </trkpt>
      <trkpt lat="46.20215" lon="4.67713">
        <ele>462</ele>
        <time>2016-11-03T10:50:08Z</time>
      </trkpt>
      <trkpt lat="46.20222" lon="4.67721">
        <ele>462</ele>
        <time>2016-11-03T10:50:15Z</time>
      </trkpt>
      <trkpt lat="46.20223" lon="4.67722">
        <ele>462</ele>
        <time>2016-11-03T10:50:16Z</time>
      </trkpt>
      <trkpt lat="46.20228" lon="4.67731">
        <ele>463</ele>
        <time>2016-11-03T10:50:24Z</time>
      </trkpt>
      <trkpt lat="46.20229" lon="4.67732">
        <ele>463</ele>
        <time>2016-11-03T10:50:25Z</time>
      </trkpt>
      <trkpt lat="46.20234" lon="4.67741">
        <ele>463</ele>
        <time>2016-11-03T10:50:32Z</time>
      </trkpt>
      <trkpt lat="46.20235" lon="4.67743">
        <ele>463</ele>
        <time>2016-11-03T10:50:33Z</time>
      </trkpt>
      <trkpt lat="46.20242" lon="4.67749">
        <ele>464</ele>
        <time>2016-11-03T10:50:40Z</time>
      </trkpt>
      <trkpt lat="46.20243" lon="4.6775">
        <ele>464</ele>
        <time>2016-11-03T10:50:41Z</time>
      </trkpt>
      <trkpt lat="46.2025" lon="4.67757">
        <ele>462</ele>
        <time>2016-11-03T10:50:49Z</time>
      </trkpt>
      <trkpt lat="46.20251" lon="4.67758">
        <ele>464</ele>
        <time>2016-11-03T10:50:50Z</time>
      </trkpt>
      <trkpt lat="46.20256" lon="4.67766">
        <ele>463</ele>
        <time>2016-11-03T10:50:58Z</time>
      </trkpt>
      <trkpt lat="46.20257" lon="4.67768">
        <ele>463</ele>
        <time>2016-11-03T10:50:59Z</time>
      </trkpt>
      <trkpt lat="46.20263" lon="4.67776">
        <ele>462</ele>
        <time>2016-11-03T10:51:06Z</time>
      </trkpt>
      <trkpt lat="46.20264" lon="4.67777">
        <ele>462</ele>
        <time>2016-11-03T10:51:07Z</time>
      </trkpt>
      <trkpt lat="46.20271" lon="4.67782">
        <ele>462</ele>
        <time>2016-11-03T10:51:13Z</time>
      </trkpt>
      <trkpt lat="46.20272" lon="4.67783">
        <ele>462</ele>
        <time>2016-11-03T10:51:14Z</time>
      </trkpt>
      <trkpt lat="46.20279" lon="4.67787">
        <ele>462</ele>
        <time>2016-11-03T10:51:20Z</time>
      </trkpt>
      <trkpt lat="46.20281" lon="4.67788">
        <ele>462</ele>
        <time>2016-11-03T10:51:21Z</time>
      </trkpt>
      <trkpt lat="46.20288" lon="4.67793">
        <ele>462</ele>
        <time>2016-11-03T10:51:28Z</time>
      </trkpt>
      <trkpt lat="46.20289" lon="4.67794">
        <ele>462</ele>
        <time>2016-11-03T10:51:29Z</time>
      </trkpt>
      <trkpt lat="46.20296" lon="4.678">
        <ele>462</ele>
        <time>2016-11-03T10:51:35Z</time>
      </trkpt>
      <trkpt lat="46.20297" lon="4.67801">
        <ele>462</ele>
        <time>2016-11-03T10:51:36Z</time>
      </trkpt>
      <trkpt lat="46.20305" lon="4.67806">
        <ele>462</ele>
        <time>2016-11-03T10:51:43Z</time>
      </trkpt>
      <trkpt lat="46.20306" lon="4.67807">
        <ele>462</ele>
        <time>2016-11-03T10:51:44Z</time>
      </trkpt>
      <trkpt lat="46.20314" lon="4.67813">
        <ele>462</ele>
        <time>2016-11-03T10:51:50Z</time>
      </trkpt>
      <trkpt lat="46.20315" lon="4.67813">
        <ele>462</ele>
        <time>2016-11-03T10:51:51Z</time>
      </trkpt>
      <trkpt lat="46.20324" lon="4.67818">
        <ele>462</ele>
        <time>2016-11-03T10:51:57Z</time>
      </trkpt>
      <trkpt lat="46.20325" lon="4.67819">
        <ele>462</ele>
        <time>2016-11-03T10:51:58Z</time>
      </trkpt>
      <trkpt lat="46.20333" lon="4.67822">
        <ele>464</ele>
        <time>2016-11-03T10:52:04Z</time>
      </trkpt>
      <trkpt lat="46.20335" lon="4.67823">
        <ele>464</ele>
        <time>2016-11-03T10:52:05Z</time>
      </trkpt>
      <trkpt lat="46.20343" lon="4.67826">
        <ele>465</ele>
        <time>2016-11-03T10:52:11Z</time>
      </trkpt>
      <trkpt lat="46.20344" lon="4.67826">
        <ele>465</ele>
        <time>2016-11-03T10:52:12Z</time>
      </trkpt>
      <trkpt lat="46.20352" lon="4.6783">
        <ele>466</ele>
        <time>2016-11-03T10:52:18Z</time>
      </trkpt>
      <trkpt lat="46.20354" lon="4.6783">
        <ele>466</ele>
        <time>2016-11-03T10:52:19Z</time>
      </trkpt>
      <trkpt lat="46.20361" lon="4.67836">
        <ele>463</ele>
        <time>2016-11-03T10:52:25Z</time>
      </trkpt>
      <trkpt lat="46.20362" lon="4.67837">
        <ele>463</ele>
        <time>2016-11-03T10:52:26Z</time>
      </trkpt>
      <trkpt lat="46.20368" lon="4.67846">
        <ele>463</ele>
        <time>2016-11-03T10:52:32Z</time>
      </trkpt>
      <trkpt lat="46.20368" lon="4.67848">
        <ele>463</ele>
        <time>2016-11-03T10:52:33Z</time>
      </trkpt>
      <trkpt lat="46.20372" lon="4.67858">
        <ele>463</ele>
        <time>2016-11-03T10:52:39Z</time>
      </trkpt>
      <trkpt lat="46.20373" lon="4.6786">
        <ele>463</ele>
        <time>2016-11-03T10:52:40Z</time>
      </trkpt>
      <trkpt lat="46.20376" lon="4.6787">
        <ele>463</ele>
        <time>2016-11-03T10:52:46Z</time>
      </trkpt>
      <trkpt lat="46.20377" lon="4.67872">
        <ele>463</ele>
        <time>2016-11-03T10:52:47Z</time>
      </trkpt>
      <trkpt lat="46.2038" lon="4.67883">
        <ele>462</ele>
        <time>2016-11-03T10:52:54Z</time>
      </trkpt>
      <trkpt lat="46.2038" lon="4.67884">
        <ele>462</ele>
        <time>2016-11-03T10:52:55Z</time>
      </trkpt>
      <trkpt lat="46.20383" lon="4.67895">
        <ele>462</ele>
        <time>2016-11-03T10:53:01Z</time>
      </trkpt>
      <trkpt lat="46.20384" lon="4.67896">
        <ele>462</ele>
        <time>2016-11-03T10:53:02Z</time>
      </trkpt>
      <trkpt lat="46.20387" lon="4.67907">
        <ele>463</ele>
        <time>2016-11-03T10:53:08Z</time>
      </trkpt>
      <trkpt lat="46.20388" lon="4.67909">
        <ele>463</ele>
        <time>2016-11-03T10:53:09Z</time>
      </trkpt>
      <trkpt lat="46.20387" lon="4.67921">
        <ele>458</ele>
        <time>2016-11-03T10:54:48Z</time>
      </trkpt>
      <trkpt lat="46.20387" lon="4.67922">
        <ele>458</ele>
        <time>2016-11-03T10:54:49Z</time>
      </trkpt>
      <trkpt lat="46.20386" lon="4.67933">
        <ele>457</ele>
        <time>2016-11-03T10:54:55Z</time>
      </trkpt>
      <trkpt lat="46.20387" lon="4.67936">
        <ele>457</ele>
        <time>2016-11-03T10:54:56Z</time>
      </trkpt>
      <trkpt lat="46.20388" lon="4.67947">
        <ele>457</ele>
        <time>2016-11-03T10:55:01Z</time>
      </trkpt>
      <trkpt lat="46.20388" lon="4.67949">
        <ele>456</ele>
        <time>2016-11-03T10:55:02Z</time>
      </trkpt>
      <trkpt lat="46.20389" lon="4.6796">
        <ele>456</ele>
        <time>2016-11-03T10:55:07Z</time>
      </trkpt>
      <trkpt lat="46.20389" lon="4.67962">
        <ele>456</ele>
        <time>2016-11-03T10:55:08Z</time>
      </trkpt>
      <trkpt lat="46.20389" lon="4.67973">
        <ele>456</ele>
        <time>2016-11-03T10:55:13Z</time>
      </trkpt>
      <trkpt lat="46.20389" lon="4.67975">
        <ele>456</ele>
        <time>2016-11-03T10:55:14Z</time>
      </trkpt>
      <trkpt lat="46.20387" lon="4.67987">
        <ele>455</ele>
        <time>2016-11-03T10:55:21Z</time>
      </trkpt>
      <trkpt lat="46.20386" lon="4.67989">
        <ele>455</ele>
        <time>2016-11-03T10:55:22Z</time>
      </trkpt>
      <trkpt lat="46.20384" lon="4.68">
        <ele>455</ele>
        <time>2016-11-03T10:55:29Z</time>
      </trkpt>
      <trkpt lat="46.20384" lon="4.68002">
        <ele>451</ele>
        <time>2016-11-03T10:55:30Z</time>
      </trkpt>
      <trkpt lat="46.20384" lon="4.68014">
        <ele>451</ele>
        <time>2016-11-03T10:55:37Z</time>
      </trkpt>
      <trkpt lat="46.20384" lon="4.68015">
        <ele>451</ele>
        <time>2016-11-03T10:55:38Z</time>
      </trkpt>
      <trkpt lat="46.20383" lon="4.68027">
        <ele>450</ele>
        <time>2016-11-03T10:55:45Z</time>
      </trkpt>
      <trkpt lat="46.20383" lon="4.68028">
        <ele>450</ele>
        <time>2016-11-03T10:55:46Z</time>
      </trkpt>
      <trkpt lat="46.20383" lon="4.68041">
        <ele>449</ele>
        <time>2016-11-03T10:55:54Z</time>
      </trkpt>
      <trkpt lat="46.20383" lon="4.68043">
        <ele>449</ele>
        <time>2016-11-03T10:55:55Z</time>
      </trkpt>
      <trkpt lat="46.20384" lon="4.68055">
        <ele>449</ele>
        <time>2016-11-03T10:56:02Z</time>
      </trkpt>
      <trkpt lat="46.20383" lon="4.68057">
        <ele>449</ele>
        <time>2016-11-03T10:56:03Z</time>
      </trkpt>
      <trkpt lat="46.20381" lon="4.68069">
        <ele>449</ele>
        <time>2016-11-03T10:56:11Z</time>
      </trkpt>
      <trkpt lat="46.20381" lon="4.68071">
        <ele>449</ele>
        <time>2016-11-03T10:56:12Z</time>
      </trkpt>
      <trkpt lat="46.20379" lon="4.68083">
        <ele>448</ele>
        <time>2016-11-03T10:56:20Z</time>
      </trkpt>
      <trkpt lat="46.20379" lon="4.68084">
        <ele>443</ele>
        <time>2016-11-03T10:56:21Z</time>
      </trkpt>
      <trkpt lat="46.20378" lon="4.68097">
        <ele>443</ele>
        <time>2016-11-03T10:56:29Z</time>
      </trkpt>
      <trkpt lat="46.20378" lon="4.68098">
        <ele>443</ele>
        <time>2016-11-03T10:56:30Z</time>
      </trkpt>
      <trkpt lat="46.20376" lon="4.68109">
        <ele>442</ele>
        <time>2016-11-03T10:56:39Z</time>
      </trkpt>
      <trkpt lat="46.20376" lon="4.68111">
        <ele>442</ele>
        <time>2016-11-03T10:56:40Z</time>
      </trkpt>
      <trkpt lat="46.20374" lon="4.68122">
        <ele>441</ele>
        <time>2016-11-03T10:56:50Z</time>
      </trkpt>
      <trkpt lat="46.20374" lon="4.68123">
        <ele>441</ele>
        <time>2016-11-03T10:56:51Z</time>
      </trkpt>
      <trkpt lat="46.20372" lon="4.68135">
        <ele>440</ele>
        <time>2016-11-03T10:57:00Z</time>
      </trkpt>
      <trkpt lat="46.20371" lon="4.68136">
        <ele>440</ele>
        <time>2016-11-03T10:57:01Z</time>
      </trkpt>
      <trkpt lat="46.20371" lon="4.68148">
        <ele>439</ele>
        <time>2016-11-03T10:57:10Z</time>
      </trkpt>
      <trkpt lat="46.2037" lon="4.6815">
        <ele>439</ele>
        <time>2016-11-03T10:57:11Z</time>
      </trkpt>
      <trkpt lat="46.20366" lon="4.68161">
        <ele>438</ele>
        <time>2016-11-03T10:57:19Z</time>
      </trkpt>
      <trkpt lat="46.20366" lon="4.68162">
        <ele>438</ele>
        <time>2016-11-03T10:57:20Z</time>
      </trkpt>
      <trkpt lat="46.2036" lon="4.68171">
        <ele>430</ele>
        <time>2016-11-03T10:57:28Z</time>
      </trkpt>
      <trkpt lat="46.2036" lon="4.68173">
        <ele>430</ele>
        <time>2016-11-03T10:57:29Z</time>
      </trkpt>
      <trkpt lat="46.20357" lon="4.68184">
        <ele>430</ele>
        <time>2016-11-03T10:58:36Z</time>
      </trkpt>
      <trkpt lat="46.20357" lon="4.68185">
        <ele>430</ele>
        <time>2016-11-03T10:58:37Z</time>
      </trkpt>
      <trkpt lat="46.20354" lon="4.68197">
        <ele>429</ele>
        <time>2016-11-03T10:59:21Z</time>
      </trkpt>
      <trkpt lat="46.20354" lon="4.68198">
        <ele>429</ele>
        <time>2016-11-03T10:59:22Z</time>
      </trkpt>
      <trkpt lat="46.20352" lon="4.68209">
        <ele>428</ele>
        <time>2016-11-03T10:59:30Z</time>
      </trkpt>
      <trkpt lat="46.20352" lon="4.68211">
        <ele>428</ele>
        <time>2016-11-03T10:59:31Z</time>
      </trkpt>
      <trkpt lat="46.20348" lon="4.68221">
        <ele>427</ele>
        <time>2016-11-03T10:59:38Z</time>
      </trkpt>
      <trkpt lat="46.20347" lon="4.68222">
        <ele>427</ele>
        <time>2016-11-03T10:59:39Z</time>
      </trkpt>
      <trkpt lat="46.20343" lon="4.68232">
        <ele>426</ele>
        <time>2016-11-03T10:59:46Z</time>
      </trkpt>
      <trkpt lat="46.20343" lon="4.68234">
        <ele>426</ele>
        <time>2016-11-03T10:59:47Z</time>
      </trkpt>
      <trkpt lat="46.20341" lon="4.68245">
        <ele>424</ele>
        <time>2016-11-03T10:59:55Z</time>
      </trkpt>
      <trkpt lat="46.2034" lon="4.68247">
        <ele>424</ele>
        <time>2016-11-03T10:59:56Z</time>
      </trkpt>
      <trkpt lat="46.20336" lon="4.68257">
        <ele>421</ele>
        <time>2016-11-03T11:00:05Z</time>
      </trkpt>
      <trkpt lat="46.20336" lon="4.68259">
        <ele>420</ele>
        <time>2016-11-03T11:00:06Z</time>
      </trkpt>
      <trkpt lat="46.20333" lon="4.68271">
        <ele>420</ele>
        <time>2016-11-03T11:00:15Z</time>
      </trkpt>
      <trkpt lat="46.20332" lon="4.68272">
        <ele>420</ele>
        <time>2016-11-03T11:00:16Z</time>
      </trkpt>
      <trkpt lat="46.20328" lon="4.68282">
        <ele>419</ele>
        <time>2016-11-03T11:00:24Z</time>
      </trkpt>
      <trkpt lat="46.20327" lon="4.68283">
        <ele>419</ele>
        <time>2016-11-03T11:00:25Z</time>
      </trkpt>
      <trkpt lat="46.20322" lon="4.68292">
        <ele>418</ele>
        <time>2016-11-03T11:00:32Z</time>
      </trkpt>
      <trkpt lat="46.20321" lon="4.68293">
        <ele>418</ele>
        <time>2016-11-03T11:00:33Z</time>
      </trkpt>
      <trkpt lat="46.20314" lon="4.68301">
        <ele>418</ele>
        <time>2016-11-03T11:00:40Z</time>
      </trkpt>
      <trkpt lat="46.20314" lon="4.68303">
        <ele>418</ele>
        <time>2016-11-03T11:00:41Z</time>
      </trkpt>
      <trkpt lat="46.2031" lon="4.68312">
        <ele>417</ele>
        <time>2016-11-03T11:00:47Z</time>
      </trkpt>
      <trkpt lat="46.20309" lon="4.68314">
        <ele>417</ele>
        <time>2016-11-03T11:00:48Z</time>
      </trkpt>
      <trkpt lat="46.20303" lon="4.68323">
        <ele>417</ele>
        <time>2016-11-03T11:00:55Z</time>
      </trkpt>
      <trkpt lat="46.20302" lon="4.68325">
        <ele>417</ele>
        <time>2016-11-03T11:00:56Z</time>
      </trkpt>
      <trkpt lat="46.20296" lon="4.68333">
        <ele>417</ele>
        <time>2016-11-03T11:01:05Z</time>
      </trkpt>
      <trkpt lat="46.20295" lon="4.68334">
        <ele>413</ele>
        <time>2016-11-03T11:01:06Z</time>
      </trkpt>
      <trkpt lat="46.20287" lon="4.68341">
        <ele>413</ele>
        <time>2016-11-03T11:01:13Z</time>
      </trkpt>
      <trkpt lat="46.20286" lon="4.68342">
        <ele>414</ele>
        <time>2016-11-03T11:01:14Z</time>
      </trkpt>
      <trkpt lat="46.20279" lon="4.68349">
        <ele>414</ele>
        <time>2016-11-03T11:01:21Z</time>
      </trkpt>
      <trkpt lat="46.20279" lon="4.6835">
        <ele>414</ele>
        <time>2016-11-03T11:01:22Z</time>
      </trkpt>
      <trkpt lat="46.2027" lon="4.68355">
        <ele>414</ele>
        <time>2016-11-03T11:01:30Z</time>
      </trkpt>
      <trkpt lat="46.20269" lon="4.68356">
        <ele>414</ele>
        <time>2016-11-03T11:01:31Z</time>
      </trkpt>
      <trkpt lat="46.20261" lon="4.6836">
        <ele>415</ele>
        <time>2016-11-03T11:01:38Z</time>
      </trkpt>
      <trkpt lat="46.2026" lon="4.68361">
        <ele>415</ele>
        <time>2016-11-03T11:01:39Z</time>
      </trkpt>
      <trkpt lat="46.20253" lon="4.68366">
        <ele>414</ele>
        <time>2016-11-03T11:01:45Z</time>
      </trkpt>
      <trkpt lat="46.20252" lon="4.68367">
        <ele>414</ele>
        <time>2016-11-03T11:01:46Z</time>
      </trkpt>
      <trkpt lat="46.20245" lon="4.68372">
        <ele>418</ele>
        <time>2016-11-03T11:01:52Z</time>
      </trkpt>
      <trkpt lat="46.20243" lon="4.68374">
        <ele>418</ele>
        <time>2016-11-03T11:01:53Z</time>
      </trkpt>
      <trkpt lat="46.20236" lon="4.68378">
        <ele>418</ele>
        <time>2016-11-03T11:01:59Z</time>
      </trkpt>
      <trkpt lat="46.20234" lon="4.68378">
        <ele>418</ele>
        <time>2016-11-03T11:02:00Z</time>
      </trkpt>
      <trkpt lat="46.20226" lon="4.68382">
        <ele>418</ele>
        <time>2016-11-03T11:02:07Z</time>
      </trkpt>
      <trkpt lat="46.20224" lon="4.68382">
        <ele>418</ele>
        <time>2016-11-03T11:02:08Z</time>
      </trkpt>
      <trkpt lat="46.20216" lon="4.68382">
        <ele>418</ele>
        <time>2016-11-03T11:02:15Z</time>
      </trkpt>
      <trkpt lat="46.20215" lon="4.68382">
        <ele>418</ele>
        <time>2016-11-03T11:02:16Z</time>
      </trkpt>
      <trkpt lat="46.20207" lon="4.68383">
        <ele>418</ele>
        <time>2016-11-03T11:02:24Z</time>
      </trkpt>
      <trkpt lat="46.20205" lon="4.68383">
        <ele>418</ele>
        <time>2016-11-03T11:02:25Z</time>
      </trkpt>
      <trkpt lat="46.20197" lon="4.68386">
        <ele>418</ele>
        <time>2016-11-03T11:02:32Z</time>
      </trkpt>
      <trkpt lat="46.20195" lon="4.68386">
        <ele>418</ele>
        <time>2016-11-03T11:02:33Z</time>
      </trkpt>
      <trkpt lat="46.20186" lon="4.68389">
        <ele>418</ele>
        <time>2016-11-03T11:02:39Z</time>
      </trkpt>
      <trkpt lat="46.20185" lon="4.68389">
        <ele>418</ele>
        <time>2016-11-03T11:02:40Z</time>
      </trkpt>
      <trkpt lat="46.20176" lon="4.68391">
        <ele>418</ele>
        <time>2016-11-03T11:02:46Z</time>
      </trkpt>
      <trkpt lat="46.20175" lon="4.68392">
        <ele>418</ele>
        <time>2016-11-03T11:02:47Z</time>
      </trkpt>
      <trkpt lat="46.20167" lon="4.68395">
        <ele>417</ele>
        <time>2016-11-03T11:02:53Z</time>
      </trkpt>
      <trkpt lat="46.20165" lon="4.68396">
        <ele>417</ele>
        <time>2016-11-03T11:02:54Z</time>
      </trkpt>
      <trkpt lat="46.20157" lon="4.68401">
        <ele>417</ele>
        <time>2016-11-03T11:03:01Z</time>
      </trkpt>
      <trkpt lat="46.20156" lon="4.68402">
        <ele>417</ele>
        <time>2016-11-03T11:03:02Z</time>
      </trkpt>
      <trkpt lat="46.20149" lon="4.68409">
        <ele>417</ele>
        <time>2016-11-03T11:03:09Z</time>
      </trkpt>
      <trkpt lat="46.20148" lon="4.6841">
        <ele>417</ele>
        <time>2016-11-03T11:03:10Z</time>
      </trkpt>
      <trkpt lat="46.20143" lon="4.68418">
        <ele>420</ele>
        <time>2016-11-03T11:03:17Z</time>
      </trkpt>
      <trkpt lat="46.20142" lon="4.68419">
        <ele>420</ele>
        <time>2016-11-03T11:03:18Z</time>
      </trkpt>
      <trkpt lat="46.20136" lon="4.68428">
        <ele>420</ele>
        <time>2016-11-03T11:03:25Z</time>
      </trkpt>
      <trkpt lat="46.20135" lon="4.68429">
        <ele>420</ele>
        <time>2016-11-03T11:03:26Z</time>
      </trkpt>
      <trkpt lat="46.20129" lon="4.68438">
        <ele>420</ele>
        <time>2016-11-03T11:03:33Z</time>
      </trkpt>
      <trkpt lat="46.20128" lon="4.68439">
        <ele>420</ele>
        <time>2016-11-03T11:03:34Z</time>
      </trkpt>
      <trkpt lat="46.20123" lon="4.68448">
        <ele>420</ele>
        <time>2016-11-03T11:03:40Z</time>
      </trkpt>
      <trkpt lat="46.20122" lon="4.6845">
        <ele>421</ele>
        <time>2016-11-03T11:03:41Z</time>
      </trkpt>
      <trkpt lat="46.20118" lon="4.6846">
        <ele>421</ele>
        <time>2016-11-03T11:03:47Z</time>
      </trkpt>
      <trkpt lat="46.20117" lon="4.68461">
        <ele>421</ele>
        <time>2016-11-03T11:03:48Z</time>
      </trkpt>
      <trkpt lat="46.20114" lon="4.68472">
        <ele>421</ele>
        <time>2016-11-03T11:03:56Z</time>
      </trkpt>
      <trkpt lat="46.20113" lon="4.68474">
        <ele>421</ele>
        <time>2016-11-03T11:03:57Z</time>
      </trkpt>
      <trkpt lat="46.20109" lon="4.68484">
        <ele>422</ele>
        <time>2016-11-03T11:04:05Z</time>
      </trkpt>
      <trkpt lat="46.20108" lon="4.68486">
        <ele>422</ele>
        <time>2016-11-03T11:04:06Z</time>
      </trkpt>
      <trkpt lat="46.20107" lon="4.68497">
        <ele>422</ele>
        <time>2016-11-03T11:04:13Z</time>
      </trkpt>
      <trkpt lat="46.20106" lon="4.68499">
        <ele>422</ele>
        <time>2016-11-03T11:04:14Z</time>
      </trkpt>
      <trkpt lat="46.20105" lon="4.68511">
        <ele>422</ele>
        <time>2016-11-03T11:04:21Z</time>
      </trkpt>
      <trkpt lat="46.20105" lon="4.68513">
        <ele>422</ele>
        <time>2016-11-03T11:04:22Z</time>
      </trkpt>
      <trkpt lat="46.20105" lon="4.68525">
        <ele>422</ele>
        <time>2016-11-03T11:04:29Z</time>
      </trkpt>
      <trkpt lat="46.20105" lon="4.68526">
        <ele>422</ele>
        <time>2016-11-03T11:04:30Z</time>
      </trkpt>
      <trkpt lat="46.20101" lon="4.68538">
        <ele>421</ele>
        <time>2016-11-03T11:05:26Z</time>
      </trkpt>
      <trkpt lat="46.201" lon="4.68538">
        <ele>421</ele>
        <time>2016-11-03T11:05:27Z</time>
      </trkpt>
      <trkpt lat="46.20096" lon="4.68548">
        <ele>421</ele>
        <time>2016-11-03T11:05:47Z</time>
      </trkpt>
      <trkpt lat="46.20095" lon="4.68549">
        <ele>421</ele>
        <time>2016-11-03T11:05:48Z</time>
      </trkpt>
      <trkpt lat="46.2009" lon="4.6856">
        <ele>421</ele>
        <time>2016-11-03T11:05:55Z</time>
      </trkpt>
      <trkpt lat="46.20089" lon="4.68561">
        <ele>421</ele>
        <time>2016-11-03T11:05:56Z</time>
      </trkpt>
      <trkpt lat="46.20083" lon="4.68569">
        <ele>421</ele>
        <time>2016-11-03T11:06:03Z</time>
      </trkpt>
      <trkpt lat="46.20082" lon="4.6857">
        <ele>421</ele>
        <time>2016-11-03T11:06:04Z</time>
      </trkpt>
      <trkpt lat="46.20076" lon="4.68579">
        <ele>421</ele>
        <time>2016-11-03T11:06:11Z</time>
      </trkpt>
      <trkpt lat="46.20075" lon="4.6858">
        <ele>421</ele>
        <time>2016-11-03T11:06:12Z</time>
      </trkpt>
      <trkpt lat="46.20069" lon="4.6859">
        <ele>417</ele>
        <time>2016-11-03T11:06:19Z</time>
      </trkpt>
      <trkpt lat="46.20068" lon="4.6859">
        <ele>416</ele>
        <time>2016-11-03T11:06:20Z</time>
      </trkpt>
      <trkpt lat="46.2006" lon="4.68593">
        <ele>415</ele>
        <time>2016-11-03T11:07:11Z</time>
      </trkpt>
      <trkpt lat="46.20059" lon="4.68594">
        <ele>415</ele>
        <time>2016-11-03T11:07:12Z</time>
      </trkpt>
      <trkpt lat="46.20052" lon="4.686">
        <ele>415</ele>
        <time>2016-11-03T11:07:19Z</time>
      </trkpt>
      <trkpt lat="46.2005" lon="4.68601">
        <ele>414</ele>
        <time>2016-11-03T11:07:20Z</time>
      </trkpt>
      <trkpt lat="46.20042" lon="4.68604">
        <ele>414</ele>
        <time>2016-11-03T11:07:27Z</time>
      </trkpt>
      <trkpt lat="46.20041" lon="4.68605">
        <ele>414</ele>
        <time>2016-11-03T11:07:28Z</time>
      </trkpt>
      <trkpt lat="46.20033" lon="4.68607">
        <ele>414</ele>
        <time>2016-11-03T11:07:35Z</time>
      </trkpt>
      <trkpt lat="46.20032" lon="4.68607">
        <ele>414</ele>
        <time>2016-11-03T11:07:36Z</time>
      </trkpt>
      <trkpt lat="46.20024" lon="4.68611">
        <ele>414</ele>
        <time>2016-11-03T11:07:43Z</time>
      </trkpt>
      <trkpt lat="46.20022" lon="4.68612">
        <ele>414</ele>
        <time>2016-11-03T11:07:44Z</time>
      </trkpt>
      <trkpt lat="46.20014" lon="4.68615">
        <ele>414</ele>
        <time>2016-11-03T11:07:50Z</time>
      </trkpt>
      <trkpt lat="46.20012" lon="4.68615">
        <ele>414</ele>
        <time>2016-11-03T11:07:51Z</time>
      </trkpt>
      <trkpt lat="46.20004" lon="4.68618">
        <ele>413</ele>
        <time>2016-11-03T11:07:57Z</time>
      </trkpt>
      <trkpt lat="46.20003" lon="4.68619">
        <ele>413</ele>
        <time>2016-11-03T11:07:58Z</time>
      </trkpt>
      <trkpt lat="46.19995" lon="4.68622">
        <ele>417</ele>
        <time>2016-11-03T11:08:05Z</time>
      </trkpt>
      <trkpt lat="46.19993" lon="4.68622">
        <ele>417</ele>
        <time>2016-11-03T11:08:06Z</time>
      </trkpt>
      <trkpt lat="46.19985" lon="4.68625">
        <ele>417</ele>
        <time>2016-11-03T11:08:13Z</time>
      </trkpt>
      <trkpt lat="46.19984" lon="4.68626">
        <ele>417</ele>
        <time>2016-11-03T11:08:14Z</time>
      </trkpt>
      <trkpt lat="46.19975" lon="4.68628">
        <ele>417</ele>
        <time>2016-11-03T11:08:21Z</time>
      </trkpt>
      <trkpt lat="46.19974" lon="4.68628">
        <ele>417</ele>
        <time>2016-11-03T11:08:22Z</time>
      </trkpt>
      <trkpt lat="46.19967" lon="4.68633">
        <ele>418</ele>
        <time>2016-11-03T11:08:29Z</time>
      </trkpt>
      <trkpt lat="46.19966" lon="4.68633">
        <ele>418</ele>
        <time>2016-11-03T11:08:30Z</time>
      </trkpt>
      <trkpt lat="46.19959" lon="4.68641">
        <ele>418</ele>
        <time>2016-11-03T11:08:37Z</time>
      </trkpt>
      <trkpt lat="46.19958" lon="4.68642">
        <ele>418</ele>
        <time>2016-11-03T11:08:38Z</time>
      </trkpt>
      <trkpt lat="46.1995" lon="4.68648">
        <ele>418</ele>
        <time>2016-11-03T11:08:48Z</time>
      </trkpt>
      <trkpt lat="46.1995" lon="4.68649">
        <ele>418</ele>
        <time>2016-11-03T11:08:49Z</time>
      </trkpt>
      <trkpt lat="46.19942" lon="4.68654">
        <ele>419</ele>
        <time>2016-11-03T11:08:57Z</time>
      </trkpt>
      <trkpt lat="46.19941" lon="4.68655">
        <ele>419</ele>
        <time>2016-11-03T11:08:58Z</time>
      </trkpt>
      <trkpt lat="46.19934" lon="4.68662">
        <ele>420</ele>
        <time>2016-11-03T11:09:07Z</time>
      </trkpt>
      <trkpt lat="46.19933" lon="4.68663">
        <ele>420</ele>
        <time>2016-11-03T11:09:08Z</time>
      </trkpt>
      <trkpt lat="46.19926" lon="4.68669">
        <ele>417</ele>
        <time>2016-11-03T11:09:16Z</time>
      </trkpt>
      <trkpt lat="46.19925" lon="4.6867">
        <ele>417</ele>
        <time>2016-11-03T11:09:17Z</time>
      </trkpt>
      <trkpt lat="46.19919" lon="4.68679">
        <ele>415</ele>
        <time>2016-11-03T11:09:25Z</time>
      </trkpt>
      <trkpt lat="46.19918" lon="4.6868">
        <ele>415</ele>
        <time>2016-11-03T11:09:26Z</time>
      </trkpt>
      <trkpt lat="46.1991" lon="4.68685">
        <ele>421</ele>
        <time>2016-11-03T11:09:34Z</time>
      </trkpt>
      <trkpt lat="46.19909" lon="4.68685">
        <ele>421</ele>
        <time>2016-11-03T11:09:35Z</time>
      </trkpt>
      <trkpt lat="46.19901" lon="4.6869">
        <ele>421</ele>
        <time>2016-11-03T11:09:42Z</time>
      </trkpt>
      <trkpt lat="46.199" lon="4.6869">
        <ele>421</ele>
        <time>2016-11-03T11:09:43Z</time>
      </trkpt>
      <trkpt lat="46.19891" lon="4.68692">
        <ele>421</ele>
        <time>2016-11-03T11:09:51Z</time>
      </trkpt>
      <trkpt lat="46.1989" lon="4.68692">
        <ele>421</ele>
        <time>2016-11-03T11:09:52Z</time>
      </trkpt>
      <trkpt lat="46.19882" lon="4.68694">
        <ele>421</ele>
        <time>2016-11-03T11:10:01Z</time>
      </trkpt>
      <trkpt lat="46.19881" lon="4.68694">
        <ele>421</ele>
        <time>2016-11-03T11:10:02Z</time>
      </trkpt>
      <trkpt lat="46.19872" lon="4.68695">
        <ele>422</ele>
        <time>2016-11-03T11:10:11Z</time>
      </trkpt>
      <trkpt lat="46.19871" lon="4.68695">
        <ele>422</ele>
        <time>2016-11-03T11:10:12Z</time>
      </trkpt>
      <trkpt lat="46.19863" lon="4.68695">
        <ele>422</ele>
        <time>2016-11-03T11:10:20Z</time>
      </trkpt>
      <trkpt lat="46.19862" lon="4.68695">
        <ele>422</ele>
        <time>2016-11-03T11:10:21Z</time>
      </trkpt>
      <trkpt lat="46.19854" lon="4.68694">
        <ele>423</ele>
        <time>2016-11-03T11:10:28Z</time>
      </trkpt>
      <trkpt lat="46.19852" lon="4.68694">
        <ele>423</ele>
        <time>2016-11-03T11:10:29Z</time>
      </trkpt>
      <trkpt lat="46.19844" lon="4.68695">
        <ele>424</ele>
        <time>2016-11-03T11:10:36Z</time>
      </trkpt>
      <trkpt lat="46.19843" lon="4.68695">
        <ele>424</ele>
        <time>2016-11-03T11:10:37Z</time>
      </trkpt>
      <trkpt lat="46.19834" lon="4.68693">
        <ele>424</ele>
        <time>2016-11-03T11:10:44Z</time>
      </trkpt>
      <trkpt lat="46.19833" lon="4.68693">
        <ele>427</ele>
        <time>2016-11-03T11:10:45Z</time>
      </trkpt>
      <trkpt lat="46.19825" lon="4.68694">
        <ele>426</ele>
        <time>2016-11-03T11:10:52Z</time>
      </trkpt>
      <trkpt lat="46.19824" lon="4.68694">
        <ele>426</ele>
        <time>2016-11-03T11:10:53Z</time>
      </trkpt>
      <trkpt lat="46.19815" lon="4.68695">
        <ele>426</ele>
        <time>2016-11-03T11:11:00Z</time>
      </trkpt>
      <trkpt lat="46.19814" lon="4.68694">
        <ele>426</ele>
        <time>2016-11-03T11:11:01Z</time>
      </trkpt>
      <trkpt lat="46.19814" lon="4.68706">
        <ele>425</ele>
        <time>2016-11-03T11:11:32Z</time>
      </trkpt>
      <trkpt lat="46.19814" lon="4.68708">
        <ele>425</ele>
        <time>2016-11-03T11:11:33Z</time>
      </trkpt>
      <trkpt lat="46.19813" lon="4.6872">
        <ele>425</ele>
        <time>2016-11-03T11:12:20Z</time>
      </trkpt>
      <trkpt lat="46.19813" lon="4.68721">
        <ele>425</ele>
        <time>2016-11-03T11:12:21Z</time>
      </trkpt>
      <trkpt lat="46.19807" lon="4.6873">
        <ele>424</ele>
        <time>2016-11-03T11:12:59Z</time>
      </trkpt>
      <trkpt lat="46.19806" lon="4.68731">
        <ele>424</ele>
        <time>2016-11-03T11:13:00Z</time>
      </trkpt>
      <trkpt lat="46.19799" lon="4.68735">
        <ele>424</ele>
        <time>2016-11-03T11:13:21Z</time>
      </trkpt>
      <trkpt lat="46.19797" lon="4.68736">
        <ele>424</ele>
        <time>2016-11-03T11:13:22Z</time>
      </trkpt>
      <trkpt lat="46.19789" lon="4.68739">
        <ele>424</ele>
        <time>2016-11-03T11:13:28Z</time>
      </trkpt>
      <trkpt lat="46.19787" lon="4.68739">
        <ele>424</ele>
        <time>2016-11-03T11:13:29Z</time>
      </trkpt>
      <trkpt lat="46.19779" lon="4.6874">
        <ele>424</ele>
        <time>2016-11-03T11:13:35Z</time>
      </trkpt>
      <trkpt lat="46.19778" lon="4.6874">
        <ele>424</ele>
        <time>2016-11-03T11:13:36Z</time>
      </trkpt>
      <trkpt lat="46.19769" lon="4.68741">
        <ele>424</ele>
        <time>2016-11-03T11:13:43Z</time>
      </trkpt>
      <trkpt lat="46.19768" lon="4.68741">
        <ele>424</ele>
        <time>2016-11-03T11:13:44Z</time>
      </trkpt>
      <trkpt lat="46.19759" lon="4.68743">
        <ele>423</ele>
        <time>2016-11-03T11:13:51Z</time>
      </trkpt>
      <trkpt lat="46.19758" lon="4.68743">
        <ele>423</ele>
        <time>2016-11-03T11:13:52Z</time>
      </trkpt>
      <trkpt lat="46.19749" lon="4.68744">
        <ele>422</ele>
        <time>2016-11-03T11:13:59Z</time>
      </trkpt>
      <trkpt lat="46.19748" lon="4.68744">
        <ele>422</ele>
        <time>2016-11-03T11:14:00Z</time>
      </trkpt>
      <trkpt lat="46.1974" lon="4.68744">
        <ele>423</ele>
        <time>2016-11-03T11:14:06Z</time>
      </trkpt>
      <trkpt lat="46.19739" lon="4.68744">
        <ele>423</ele>
        <time>2016-11-03T11:14:07Z</time>
      </trkpt>
      <trkpt lat="46.1973" lon="4.68745">
        <ele>423</ele>
        <time>2016-11-03T11:14:14Z</time>
      </trkpt>
      <trkpt lat="46.19729" lon="4.68746">
        <ele>423</ele>
        <time>2016-11-03T11:14:15Z</time>
      </trkpt>
      <trkpt lat="46.19721" lon="4.6875">
        <ele>417</ele>
        <time>2016-11-03T11:14:22Z</time>
      </trkpt>
      <trkpt lat="46.1972" lon="4.68751">
        <ele>417</ele>
        <time>2016-11-03T11:14:23Z</time>
      </trkpt>
      <trkpt lat="46.19713" lon="4.68756">
        <ele>416</ele>
        <time>2016-11-03T11:14:29Z</time>
      </trkpt>
      <trkpt lat="46.19712" lon="4.68756">
        <ele>416</ele>
        <time>2016-11-03T11:14:30Z</time>
      </trkpt>
      <trkpt lat="46.19703" lon="4.6876">
        <ele>416</ele>
        <time>2016-11-03T11:14:37Z</time>
      </trkpt>
      <trkpt lat="46.19702" lon="4.6876">
        <ele>416</ele>
        <time>2016-11-03T11:14:38Z</time>
      </trkpt>
      <trkpt lat="46.19694" lon="4.68764">
        <ele>416</ele>
        <time>2016-11-03T11:14:44Z</time>
      </trkpt>
      <trkpt lat="46.19693" lon="4.68764">
        <ele>416</ele>
        <time>2016-11-03T11:14:45Z</time>
      </trkpt>
      <trkpt lat="46.19685" lon="4.68765">
        <ele>417</ele>
        <time>2016-11-03T11:14:52Z</time>
      </trkpt>
      <trkpt lat="46.19683" lon="4.68765">
        <ele>417</ele>
        <time>2016-11-03T11:14:53Z</time>
      </trkpt>
      <trkpt lat="46.19675" lon="4.68766">
        <ele>418</ele>
        <time>2016-11-03T11:15:01Z</time>
      </trkpt>
      <trkpt lat="46.19674" lon="4.68766">
        <ele>418</ele>
        <time>2016-11-03T11:15:02Z</time>
      </trkpt>
      <trkpt lat="46.19666" lon="4.68769">
        <ele>416</ele>
        <time>2016-11-03T11:15:09Z</time>
      </trkpt>
      <trkpt lat="46.19664" lon="4.68769">
        <ele>416</ele>
        <time>2016-11-03T11:15:10Z</time>
      </trkpt>
      <trkpt lat="46.19656" lon="4.68771">
        <ele>415</ele>
        <time>2016-11-03T11:15:18Z</time>
      </trkpt>
      <trkpt lat="46.19655" lon="4.68771">
        <ele>415</ele>
        <time>2016-11-03T11:15:19Z</time>
      </trkpt>
      <trkpt lat="46.1965" lon="4.68761">
        <ele>416</ele>
        <time>2016-11-03T11:15:33Z</time>
      </trkpt>
      <trkpt lat="46.19649" lon="4.6876">
        <ele>416</ele>
        <time>2016-11-03T11:15:34Z</time>
      </trkpt>
      <trkpt lat="46.19643" lon="4.68768">
        <ele>414</ele>
        <time>2016-11-03T11:16:00Z</time>
      </trkpt>
      <trkpt lat="46.19642" lon="4.68769">
        <ele>414</ele>
        <time>2016-11-03T11:16:01Z</time>
      </trkpt>
      <trkpt lat="46.19635" lon="4.68776">
        <ele>413</ele>
        <time>2016-11-03T11:16:22Z</time>
      </trkpt>
      <trkpt lat="46.19634" lon="4.68777">
        <ele>412</ele>
        <time>2016-11-03T11:16:23Z</time>
      </trkpt>
      <trkpt lat="46.19629" lon="4.68767">
        <ele>413</ele>
        <time>2016-11-03T11:18:51Z</time>
      </trkpt>
      <trkpt lat="46.19629" lon="4.68766">
        <ele>413</ele>
        <time>2016-11-03T11:18:52Z</time>
      </trkpt>
      <trkpt lat="46.1962" lon="4.68768">
        <ele>412</ele>
        <time>2016-11-03T11:20:35Z</time>
      </trkpt>
      <trkpt lat="46.1962" lon="4.68768">
        <ele>412</ele>
        <time>2016-11-03T11:20:36Z</time>
      </trkpt>
      <trkpt lat="46.19628" lon="4.68767">
        <ele>413</ele>
        <time>2016-11-03T11:21:45Z</time>
      </trkpt>
      <trkpt lat="46.19629" lon="4.68767">
        <ele>413</ele>
        <time>2016-11-03T11:21:46Z</time>
      </trkpt>
      <trkpt lat="46.19624" lon="4.68777">
        <ele>412</ele>
        <time>2016-11-03T11:57:14Z</time>
      </trkpt>
      <trkpt lat="46.19623" lon="4.68778">
        <ele>412</ele>
        <time>2016-11-03T11:57:15Z</time>
      </trkpt>
      <trkpt lat="46.19628" lon="4.68788">
        <ele>411</ele>
        <time>2016-11-03T11:57:28Z</time>
      </trkpt>
      <trkpt lat="46.19629" lon="4.68789">
        <ele>411</ele>
        <time>2016-11-03T11:57:29Z</time>
      </trkpt>
      <trkpt lat="46.19621" lon="4.68795">
        <ele>410</ele>
        <time>2016-11-03T11:57:53Z</time>
      </trkpt>
      <trkpt lat="46.1962" lon="4.68795">
        <ele>410</ele>
        <time>2016-11-03T11:57:54Z</time>
      </trkpt>
      <trkpt lat="46.19612" lon="4.68789">
        <ele>410</ele>
        <time>2016-11-03T11:58:02Z</time>
      </trkpt>
      <trkpt lat="46.19611" lon="4.68788">
        <ele>410</ele>
        <time>2016-11-03T11:58:03Z</time>
      </trkpt>
      <trkpt lat="46.19604" lon="4.68781">
        <ele>410</ele>
        <time>2016-11-03T11:58:10Z</time>
      </trkpt>
      <trkpt lat="46.19603" lon="4.68781">
        <ele>410</ele>
        <time>2016-11-03T11:58:11Z</time>
      </trkpt>
      <trkpt lat="46.19595" lon="4.68777">
        <ele>410</ele>
        <time>2016-11-03T11:58:19Z</time>
      </trkpt>
      <trkpt lat="46.19594" lon="4.68776">
        <ele>410</ele>
        <time>2016-11-03T11:58:20Z</time>
      </trkpt>
      <trkpt lat="46.19589" lon="4.68767">
        <ele>410</ele>
        <time>2016-11-03T11:58:28Z</time>
      </trkpt>
      <trkpt lat="46.19588" lon="4.68765">
        <ele>410</ele>
        <time>2016-11-03T11:58:29Z</time>
      </trkpt>
      <trkpt lat="46.19581" lon="4.68757">
        <ele>407</ele>
        <time>2016-11-03T11:58:38Z</time>
      </trkpt>
      <trkpt lat="46.1958" lon="4.68756">
        <ele>407</ele>
        <time>2016-11-03T11:58:39Z</time>
      </trkpt>
      <trkpt lat="46.19575" lon="4.68746">
        <ele>406</ele>
        <time>2016-11-03T11:58:48Z</time>
      </trkpt>
      <trkpt lat="46.19574" lon="4.68745">
        <ele>406</ele>
        <time>2016-11-03T11:58:49Z</time>
      </trkpt>
      <trkpt lat="46.1957" lon="4.68735">
        <ele>403</ele>
        <time>2016-11-03T11:58:57Z</time>
      </trkpt>
      <trkpt lat="46.1957" lon="4.68733">
        <ele>403</ele>
        <time>2016-11-03T11:58:58Z</time>
      </trkpt>
      <trkpt lat="46.19567" lon="4.68721">
        <ele>401</ele>
        <time>2016-11-03T11:59:08Z</time>
      </trkpt>
      <trkpt lat="46.19568" lon="4.6872">
        <ele>401</ele>
        <time>2016-11-03T11:59:09Z</time>
      </trkpt>
      <trkpt lat="46.19565" lon="4.68709">
        <ele>400</ele>
        <time>2016-11-03T11:59:17Z</time>
      </trkpt>
      <trkpt lat="46.19564" lon="4.68707">
        <ele>400</ele>
        <time>2016-11-03T11:59:18Z</time>
      </trkpt>
      <trkpt lat="46.19564" lon="4.68695">
        <ele>400</ele>
        <time>2016-11-03T11:59:26Z</time>
      </trkpt>
      <trkpt lat="46.19564" lon="4.68694">
        <ele>401</ele>
        <time>2016-11-03T11:59:27Z</time>
      </trkpt>
      <trkpt lat="46.19562" lon="4.68682">
        <ele>401</ele>
        <time>2016-11-03T11:59:35Z</time>
      </trkpt>
      <trkpt lat="46.19562" lon="4.6868">
        <ele>401</ele>
        <time>2016-11-03T11:59:36Z</time>
      </trkpt>
      <trkpt lat="46.19562" lon="4.68669">
        <ele>401</ele>
        <time>2016-11-03T11:59:44Z</time>
      </trkpt>
      <trkpt lat="46.19561" lon="4.68667">
        <ele>401</ele>
        <time>2016-11-03T11:59:45Z</time>
      </trkpt>
      <trkpt lat="46.19559" lon="4.68655">
        <ele>398</ele>
        <time>2016-11-03T11:59:54Z</time>
      </trkpt>
      <trkpt lat="46.19559" lon="4.68653">
        <ele>398</ele>
        <time>2016-11-03T11:59:55Z</time>
      </trkpt>
      <trkpt lat="46.19558" lon="4.68641">
        <ele>397</ele>
        <time>2016-11-03T12:00:03Z</time>
      </trkpt>
      <trkpt lat="46.19558" lon="4.68639">
        <ele>397</ele>
        <time>2016-11-03T12:00:04Z</time>
      </trkpt>
      <trkpt lat="46.19558" lon="4.68628">
        <ele>396</ele>
        <time>2016-11-03T12:00:11Z</time>
      </trkpt>
      <trkpt lat="46.19558" lon="4.68626">
        <ele>396</ele>
        <time>2016-11-03T12:00:12Z</time>
      </trkpt>
      <trkpt lat="46.19558" lon="4.68614">
        <ele>396</ele>
        <time>2016-11-03T12:00:19Z</time>
      </trkpt>
      <trkpt lat="46.19557" lon="4.68613">
        <ele>396</ele>
        <time>2016-11-03T12:00:20Z</time>
      </trkpt>
      <trkpt lat="46.19554" lon="4.68602">
        <ele>395</ele>
        <time>2016-11-03T12:00:27Z</time>
      </trkpt>
      <trkpt lat="46.19553" lon="4.68601">
        <ele>395</ele>
        <time>2016-11-03T12:00:28Z</time>
      </trkpt>
      <trkpt lat="46.19552" lon="4.68588">
        <ele>395</ele>
        <time>2016-11-03T12:00:36Z</time>
      </trkpt>
      <trkpt lat="46.19552" lon="4.68587">
        <ele>395</ele>
        <time>2016-11-03T12:00:37Z</time>
      </trkpt>
      <trkpt lat="46.19551" lon="4.68574">
        <ele>391</ele>
        <time>2016-11-03T12:00:47Z</time>
      </trkpt>
      <trkpt lat="46.19551" lon="4.68573">
        <ele>391</ele>
        <time>2016-11-03T12:00:48Z</time>
      </trkpt>
      <trkpt lat="46.19548" lon="4.68561">
        <ele>390</ele>
        <time>2016-11-03T12:00:55Z</time>
      </trkpt>
      <trkpt lat="46.19548" lon="4.68559">
        <ele>390</ele>
        <time>2016-11-03T12:00:56Z</time>
      </trkpt>
      <trkpt lat="46.19549" lon="4.68547">
        <ele>389</ele>
        <time>2016-11-03T12:01:03Z</time>
      </trkpt>
      <trkpt lat="46.19549" lon="4.68545">
        <ele>389</ele>
        <time>2016-11-03T12:01:04Z</time>
      </trkpt>
      <trkpt lat="46.19553" lon="4.68535">
        <ele>389</ele>
        <time>2016-11-03T12:01:11Z</time>
      </trkpt>
      <trkpt lat="46.19554" lon="4.68533">
        <ele>389</ele>
        <time>2016-11-03T12:01:12Z</time>
      </trkpt>
      <trkpt lat="46.19557" lon="4.68523">
        <ele>389</ele>
        <time>2016-11-03T12:01:19Z</time>
      </trkpt>
      <trkpt lat="46.19558" lon="4.68521">
        <ele>389</ele>
        <time>2016-11-03T12:01:20Z</time>
      </trkpt>
      <trkpt lat="46.19562" lon="4.6851">
        <ele>389</ele>
        <time>2016-11-03T12:01:28Z</time>
      </trkpt>
      <trkpt lat="46.19563" lon="4.6851">
        <ele>389</ele>
        <time>2016-11-03T12:01:29Z</time>
      </trkpt>
      <trkpt lat="46.19569" lon="4.68501">
        <ele>389</ele>
        <time>2016-11-03T12:01:36Z</time>
      </trkpt>
      <trkpt lat="46.19571" lon="4.685">
        <ele>389</ele>
        <time>2016-11-03T12:01:37Z</time>
      </trkpt>
      <trkpt lat="46.19578" lon="4.68494">
        <ele>387</ele>
        <time>2016-11-03T12:01:43Z</time>
      </trkpt>
      <trkpt lat="46.19579" lon="4.68493">
        <ele>387</ele>
        <time>2016-11-03T12:01:44Z</time>
      </trkpt>
      <trkpt lat="46.19586" lon="4.68484">
        <ele>389</ele>
        <time>2016-11-03T12:01:51Z</time>
      </trkpt>
      <trkpt lat="46.19586" lon="4.68482">
        <ele>389</ele>
        <time>2016-11-03T12:01:52Z</time>
      </trkpt>
      <trkpt lat="46.19589" lon="4.6847">
        <ele>388</ele>
        <time>2016-11-03T12:02:01Z</time>
      </trkpt>
      <trkpt lat="46.1959" lon="4.68469">
        <ele>387</ele>
        <time>2016-11-03T12:02:02Z</time>
      </trkpt>
      <trkpt lat="46.19582" lon="4.68464">
        <ele>381</ele>
        <time>2016-11-03T12:02:24Z</time>
      </trkpt>
      <trkpt lat="46.19581" lon="4.68464">
        <ele>381</ele>
        <time>2016-11-03T12:02:25Z</time>
      </trkpt>
      <trkpt lat="46.19573" lon="4.68462">
        <ele>381</ele>
        <time>2016-11-03T12:02:33Z</time>
      </trkpt>
      <trkpt lat="46.19572" lon="4.68461">
        <ele>380</ele>
        <time>2016-11-03T12:02:34Z</time>
      </trkpt>
      <trkpt lat="46.19563" lon="4.68462">
        <ele>380</ele>
        <time>2016-11-03T12:02:43Z</time>
      </trkpt>
      <trkpt lat="46.19562" lon="4.68462">
        <ele>380</ele>
        <time>2016-11-03T12:02:44Z</time>
      </trkpt>
      <trkpt lat="46.19553" lon="4.68463">
        <ele>380</ele>
        <time>2016-11-03T12:02:52Z</time>
      </trkpt>
      <trkpt lat="46.19552" lon="4.68463">
        <ele>380</ele>
        <time>2016-11-03T12:02:53Z</time>
      </trkpt>
      <trkpt lat="46.19545" lon="4.68459">
        <ele>379</ele>
        <time>2016-11-03T12:03:00Z</time>
      </trkpt>
      <trkpt lat="46.19543" lon="4.68459">
        <ele>379</ele>
        <time>2016-11-03T12:03:01Z</time>
      </trkpt>
      <trkpt lat="46.19535" lon="4.68456">
        <ele>378</ele>
        <time>2016-11-03T12:03:08Z</time>
      </trkpt>
      <trkpt lat="46.19534" lon="4.68457">
        <ele>378</ele>
        <time>2016-11-03T12:03:09Z</time>
      </trkpt>
      <trkpt lat="46.19526" lon="4.68462">
        <ele>378</ele>
        <time>2016-11-03T12:03:16Z</time>
      </trkpt>
      <trkpt lat="46.19525" lon="4.68464">
        <ele>378</ele>
        <time>2016-11-03T12:03:17Z</time>
      </trkpt>
      <trkpt lat="46.19519" lon="4.68472">
        <ele>379</ele>
        <time>2016-11-03T12:03:24Z</time>
      </trkpt>
      <trkpt lat="46.19518" lon="4.68473">
        <ele>379</ele>
        <time>2016-11-03T12:03:25Z</time>
      </trkpt>
      <trkpt lat="46.1951" lon="4.68477">
        <ele>379</ele>
        <time>2016-11-03T12:03:31Z</time>
      </trkpt>
      <trkpt lat="46.19509" lon="4.68478">
        <ele>379</ele>
        <time>2016-11-03T12:03:32Z</time>
      </trkpt>
      <trkpt lat="46.19502" lon="4.68483">
        <ele>379</ele>
        <time>2016-11-03T12:03:38Z</time>
      </trkpt>
      <trkpt lat="46.19501" lon="4.68484">
        <ele>379</ele>
        <time>2016-11-03T12:03:39Z</time>
      </trkpt>
      <trkpt lat="46.19494" lon="4.68491">
        <ele>375</ele>
        <time>2016-11-03T12:03:46Z</time>
      </trkpt>
      <trkpt lat="46.19492" lon="4.68492">
        <ele>375</ele>
        <time>2016-11-03T12:03:47Z</time>
      </trkpt>
      <trkpt lat="46.19484" lon="4.68487">
        <ele>373</ele>
        <time>2016-11-03T12:03:56Z</time>
      </trkpt>
      <trkpt lat="46.19484" lon="4.68485">
        <ele>373</ele>
        <time>2016-11-03T12:03:57Z</time>
      </trkpt>
      <trkpt lat="46.19485" lon="4.68474">
        <ele>371</ele>
        <time>2016-11-03T12:04:04Z</time>
      </trkpt>
      <trkpt lat="46.19486" lon="4.68472">
        <ele>371</ele>
        <time>2016-11-03T12:04:05Z</time>
      </trkpt>
      <trkpt lat="46.19489" lon="4.6846">
        <ele>371</ele>
        <time>2016-11-03T12:04:13Z</time>
      </trkpt>
      <trkpt lat="46.1949" lon="4.68459">
        <ele>371</ele>
        <time>2016-11-03T12:04:14Z</time>
      </trkpt>
      <trkpt lat="46.19496" lon="4.6845">
        <ele>370</ele>
        <time>2016-11-03T12:04:22Z</time>
      </trkpt>
      <trkpt lat="46.19497" lon="4.68449">
        <ele>370</ele>
        <time>2016-11-03T12:04:23Z</time>
      </trkpt>
      <trkpt lat="46.19503" lon="4.68441">
        <ele>375</ele>
        <time>2016-11-03T12:04:30Z</time>
      </trkpt>
      <trkpt lat="46.19503" lon="4.6844">
        <ele>375</ele>
        <time>2016-11-03T12:04:31Z</time>
      </trkpt>
      <trkpt lat="46.19502" lon="4.68428">
        <ele>373</ele>
        <time>2016-11-03T12:04:40Z</time>
      </trkpt>
      <trkpt lat="46.19501" lon="4.68427">
        <ele>373</ele>
        <time>2016-11-03T12:04:41Z</time>
      </trkpt>
      <trkpt lat="46.19493" lon="4.68425">
        <ele>370</ele>
        <time>2016-11-03T12:04:49Z</time>
      </trkpt>
      <trkpt lat="46.19492" lon="4.68425">
        <ele>370</ele>
        <time>2016-11-03T12:04:50Z</time>
      </trkpt>
      <trkpt lat="46.19484" lon="4.68427">
        <ele>369</ele>
        <time>2016-11-03T12:04:58Z</time>
      </trkpt>
      <trkpt lat="46.19483" lon="4.68427">
        <ele>369</ele>
        <time>2016-11-03T12:04:59Z</time>
      </trkpt>
      <trkpt lat="46.19475" lon="4.6843">
        <ele>369</ele>
        <time>2016-11-03T12:05:05Z</time>
      </trkpt>
      <trkpt lat="46.19474" lon="4.68431">
        <ele>369</ele>
        <time>2016-11-03T12:05:06Z</time>
      </trkpt>
      <trkpt lat="46.19466" lon="4.68434">
        <ele>368</ele>
        <time>2016-11-03T12:05:12Z</time>
      </trkpt>
      <trkpt lat="46.19465" lon="4.68435">
        <ele>368</ele>
        <time>2016-11-03T12:05:13Z</time>
      </trkpt>
      <trkpt lat="46.19456" lon="4.68438">
        <ele>368</ele>
        <time>2016-11-03T12:05:19Z</time>
      </trkpt>
      <trkpt lat="46.19455" lon="4.68438">
        <ele>368</ele>
        <time>2016-11-03T12:05:20Z</time>
      </trkpt>
      <trkpt lat="46.19448" lon="4.6843">
        <ele>367</ele>
        <time>2016-11-03T12:05:27Z</time>
      </trkpt>
      <trkpt lat="46.19447" lon="4.68429">
        <ele>367</ele>
        <time>2016-11-03T12:05:28Z</time>
      </trkpt>
      <trkpt lat="46.19443" lon="4.68417">
        <ele>366</ele>
        <time>2016-11-03T12:05:34Z</time>
      </trkpt>
      <trkpt lat="46.19442" lon="4.68415">
        <ele>362</ele>
        <time>2016-11-03T12:05:35Z</time>
      </trkpt>
      <trkpt lat="46.19437" lon="4.68406">
        <ele>361</ele>
        <time>2016-11-03T12:05:41Z</time>
      </trkpt>
      <trkpt lat="46.19436" lon="4.68405">
        <ele>361</ele>
        <time>2016-11-03T12:05:42Z</time>
      </trkpt>
      <trkpt lat="46.19428" lon="4.68399">
        <ele>361</ele>
        <time>2016-11-03T12:05:49Z</time>
      </trkpt>
      <trkpt lat="46.19428" lon="4.68398">
        <ele>361</ele>
        <time>2016-11-03T12:05:50Z</time>
      </trkpt>
      <trkpt lat="46.19423" lon="4.68389">
        <ele>360</ele>
        <time>2016-11-03T12:05:58Z</time>
      </trkpt>
      <trkpt lat="46.19422" lon="4.68388">
        <ele>360</ele>
        <time>2016-11-03T12:05:59Z</time>
      </trkpt>
      <trkpt lat="46.19418" lon="4.68377">
        <ele>359</ele>
        <time>2016-11-03T12:06:07Z</time>
      </trkpt>
      <trkpt lat="46.19417" lon="4.68375">
        <ele>359</ele>
        <time>2016-11-03T12:06:08Z</time>
      </trkpt>
      <trkpt lat="46.19418" lon="4.68364">
        <ele>358</ele>
        <time>2016-11-03T12:06:15Z</time>
      </trkpt>
      <trkpt lat="46.19418" lon="4.68362">
        <ele>358</ele>
        <time>2016-11-03T12:06:16Z</time>
      </trkpt>
      <trkpt lat="46.19422" lon="4.68352">
        <ele>357</ele>
        <time>2016-11-03T12:06:23Z</time>
      </trkpt>
      <trkpt lat="46.19423" lon="4.68351">
        <ele>357</ele>
        <time>2016-11-03T12:06:24Z</time>
      </trkpt>
      <trkpt lat="46.19426" lon="4.68339">
        <ele>355</ele>
        <time>2016-11-03T12:06:32Z</time>
      </trkpt>
      <trkpt lat="46.19426" lon="4.68337">
        <ele>355</ele>
        <time>2016-11-03T12:06:33Z</time>
      </trkpt>
      <trkpt lat="46.19431" lon="4.68327">
        <ele>350</ele>
        <time>2016-11-03T12:06:41Z</time>
      </trkpt>
      <trkpt lat="46.19432" lon="4.68326">
        <ele>350</ele>
        <time>2016-11-03T12:06:42Z</time>
      </trkpt>
      <trkpt lat="46.19439" lon="4.6832">
        <ele>349</ele>
        <time>2016-11-03T12:06:49Z</time>
      </trkpt>
      <trkpt lat="46.19441" lon="4.6832">
        <ele>349</ele>
        <time>2016-11-03T12:06:50Z</time>
      </trkpt>
      <trkpt lat="46.19449" lon="4.68318">
        <ele>349</ele>
        <time>2016-11-03T12:06:57Z</time>
      </trkpt>
      <trkpt lat="46.1945" lon="4.68318">
        <ele>349</ele>
        <time>2016-11-03T12:06:58Z</time>
      </trkpt>
      <trkpt lat="46.19459" lon="4.68317">
        <ele>349</ele>
        <time>2016-11-03T12:07:06Z</time>
      </trkpt>
      <trkpt lat="46.1946" lon="4.68317">
        <ele>349</ele>
        <time>2016-11-03T12:07:07Z</time>
      </trkpt>
      <trkpt lat="46.19468" lon="4.68315">
        <ele>349</ele>
        <time>2016-11-03T12:07:14Z</time>
      </trkpt>
      <trkpt lat="46.1947" lon="4.68315">
        <ele>349</ele>
        <time>2016-11-03T12:07:15Z</time>
      </trkpt>
      <trkpt lat="46.19478" lon="4.68315">
        <ele>350</ele>
        <time>2016-11-03T12:07:21Z</time>
      </trkpt>
      <trkpt lat="46.19479" lon="4.68315">
        <ele>350</ele>
        <time>2016-11-03T12:07:22Z</time>
      </trkpt>
      <trkpt lat="46.19488" lon="4.68312">
        <ele>350</ele>
        <time>2016-11-03T12:07:30Z</time>
      </trkpt>
      <trkpt lat="46.19489" lon="4.68311">
        <ele>350</ele>
        <time>2016-11-03T12:07:31Z</time>
      </trkpt>
      <trkpt lat="46.19497" lon="4.68307">
        <ele>350</ele>
        <time>2016-11-03T12:07:38Z</time>
      </trkpt>
      <trkpt lat="46.19498" lon="4.68306">
        <ele>350</ele>
        <time>2016-11-03T12:07:39Z</time>
      </trkpt>
      <trkpt lat="46.19506" lon="4.68304">
        <ele>352</ele>
        <time>2016-11-03T12:07:47Z</time>
      </trkpt>
      <trkpt lat="46.19507" lon="4.68303">
        <ele>352</ele>
        <time>2016-11-03T12:07:48Z</time>
      </trkpt>
      <trkpt lat="46.19516" lon="4.68303">
        <ele>352</ele>
        <time>2016-11-03T12:07:55Z</time>
      </trkpt>
      <trkpt lat="46.19517" lon="4.68304">
        <ele>352</ele>
        <time>2016-11-03T12:07:56Z</time>
      </trkpt>
      <trkpt lat="46.19525" lon="4.68299">
        <ele>352</ele>
        <time>2016-11-03T12:08:04Z</time>
      </trkpt>
      <trkpt lat="46.19526" lon="4.68298">
        <ele>352</ele>
        <time>2016-11-03T12:08:05Z</time>
      </trkpt>
      <trkpt lat="46.1952" lon="4.68289">
        <ele>351</ele>
        <time>2016-11-03T12:08:15Z</time>
      </trkpt>
      <trkpt lat="46.19519" lon="4.68288">
        <ele>350</ele>
        <time>2016-11-03T12:08:16Z</time>
      </trkpt>
      <trkpt lat="46.19512" lon="4.6828">
        <ele>349</ele>
        <time>2016-11-03T12:08:23Z</time>
      </trkpt>
      <trkpt lat="46.19511" lon="4.6828">
        <ele>349</ele>
        <time>2016-11-03T12:08:24Z</time>
      </trkpt>
      <trkpt lat="46.19502" lon="4.68279">
        <ele>349</ele>
        <time>2016-11-03T12:08:32Z</time>
      </trkpt>
      <trkpt lat="46.19501" lon="4.6828">
        <ele>349</ele>
        <time>2016-11-03T12:08:33Z</time>
      </trkpt>
      <trkpt lat="46.19493" lon="4.68277">
        <ele>346</ele>
        <time>2016-11-03T12:08:42Z</time>
      </trkpt>
      <trkpt lat="46.19492" lon="4.68277">
        <ele>346</ele>
        <time>2016-11-03T12:08:43Z</time>
      </trkpt>
      <trkpt lat="46.19483" lon="4.68277">
        <ele>346</ele>
        <time>2016-11-03T12:08:51Z</time>
      </trkpt>
      <trkpt lat="46.19482" lon="4.68277">
        <ele>346</ele>
        <time>2016-11-03T12:08:52Z</time>
      </trkpt>
      <trkpt lat="46.19474" lon="4.68273">
        <ele>346</ele>
        <time>2016-11-03T12:08:59Z</time>
      </trkpt>
      <trkpt lat="46.19473" lon="4.68272">
        <ele>346</ele>
        <time>2016-11-03T12:09:00Z</time>
      </trkpt>
      <trkpt lat="46.19465" lon="4.68272">
        <ele>345</ele>
        <time>2016-11-03T12:09:08Z</time>
      </trkpt>
      <trkpt lat="46.19463" lon="4.68272">
        <ele>345</ele>
        <time>2016-11-03T12:09:09Z</time>
      </trkpt>
      <trkpt lat="46.19456" lon="4.68266">
        <ele>345</ele>
        <time>2016-11-03T12:09:20Z</time>
      </trkpt>
      <trkpt lat="46.19455" lon="4.68266">
        <ele>345</ele>
        <time>2016-11-03T12:09:21Z</time>
      </trkpt>
      <trkpt lat="46.19447" lon="4.68263">
        <ele>344</ele>
        <time>2016-11-03T12:09:29Z</time>
      </trkpt>
      <trkpt lat="46.19446" lon="4.68263">
        <ele>344</ele>
        <time>2016-11-03T12:09:30Z</time>
      </trkpt>
      <trkpt lat="46.19438" lon="4.68258">
        <ele>343</ele>
        <time>2016-11-03T12:09:37Z</time>
      </trkpt>
      <trkpt lat="46.19437" lon="4.68257">
        <ele>343</ele>
        <time>2016-11-03T12:09:38Z</time>
      </trkpt>
      <trkpt lat="46.19428" lon="4.68253">
        <ele>341</ele>
        <time>2016-11-03T12:09:46Z</time>
      </trkpt>
      <trkpt lat="46.19427" lon="4.68253">
        <ele>340</ele>
        <time>2016-11-03T12:09:47Z</time>
      </trkpt>
      <trkpt lat="46.19419" lon="4.68253">
        <ele>338</ele>
        <time>2016-11-03T12:09:53Z</time>
      </trkpt>
      <trkpt lat="46.19418" lon="4.68253">
        <ele>338</ele>
        <time>2016-11-03T12:09:54Z</time>
      </trkpt>
      <trkpt lat="46.1941" lon="4.68253">
        <ele>338</ele>
        <time>2016-11-03T12:10:00Z</time>
      </trkpt>
      <trkpt lat="46.19409" lon="4.68253">
        <ele>338</ele>
        <time>2016-11-03T12:10:01Z</time>
      </trkpt>
      <trkpt lat="46.19401" lon="4.68252">
        <ele>338</ele>
        <time>2016-11-03T12:10:06Z</time>
      </trkpt>
      <trkpt lat="46.19399" lon="4.68252">
        <ele>338</ele>
        <time>2016-11-03T12:10:07Z</time>
      </trkpt>
      <trkpt lat="46.19391" lon="4.68253">
        <ele>338</ele>
        <time>2016-11-03T12:10:12Z</time>
      </trkpt>
      <trkpt lat="46.19389" lon="4.68253">
        <ele>338</ele>
        <time>2016-11-03T12:10:13Z</time>
      </trkpt>
      <trkpt lat="46.19381" lon="4.68255">
        <ele>337</ele>
        <time>2016-11-03T12:10:19Z</time>
      </trkpt>
      <trkpt lat="46.19379" lon="4.68256">
        <ele>337</ele>
        <time>2016-11-03T12:10:20Z</time>
      </trkpt>
      <trkpt lat="46.19372" lon="4.6826">
        <ele>337</ele>
        <time>2016-11-03T12:10:26Z</time>
      </trkpt>
      <trkpt lat="46.19371" lon="4.68261">
        <ele>337</ele>
        <time>2016-11-03T12:10:27Z</time>
      </trkpt>
      <trkpt lat="46.19364" lon="4.68266">
        <ele>337</ele>
        <time>2016-11-03T12:10:33Z</time>
      </trkpt>
      <trkpt lat="46.19363" lon="4.68267">
        <ele>336</ele>
        <time>2016-11-03T12:10:34Z</time>
      </trkpt>
      <trkpt lat="46.19355" lon="4.68273">
        <ele>336</ele>
        <time>2016-11-03T12:10:41Z</time>
      </trkpt>
      <trkpt lat="46.19354" lon="4.68273">
        <ele>336</ele>
        <time>2016-11-03T12:10:42Z</time>
      </trkpt>
      <trkpt lat="46.19345" lon="4.68274">
        <ele>336</ele>
        <time>2016-11-03T12:10:50Z</time>
      </trkpt>
      <trkpt lat="46.19344" lon="4.68275">
        <ele>336</ele>
        <time>2016-11-03T12:10:51Z</time>
      </trkpt>
      <trkpt lat="46.19336" lon="4.68278">
        <ele>336</ele>
        <time>2016-11-03T12:10:58Z</time>
      </trkpt>
      <trkpt lat="46.19334" lon="4.68278">
        <ele>336</ele>
        <time>2016-11-03T12:10:59Z</time>
      </trkpt>
      <trkpt lat="46.19325" lon="4.6828">
        <ele>329</ele>
        <time>2016-11-03T12:11:07Z</time>
      </trkpt>
      <trkpt lat="46.19325" lon="4.68281">
        <ele>329</ele>
        <time>2016-11-03T12:11:08Z</time>
      </trkpt>
      <trkpt lat="46.19317" lon="4.68285">
        <ele>329</ele>
        <time>2016-11-03T12:11:16Z</time>
      </trkpt>
      <trkpt lat="46.19316" lon="4.68286">
        <ele>329</ele>
        <time>2016-11-03T12:11:17Z</time>
      </trkpt>
      <trkpt lat="46.19309" lon="4.68293">
        <ele>330</ele>
        <time>2016-11-03T12:11:25Z</time>
      </trkpt>
      <trkpt lat="46.19308" lon="4.68293">
        <ele>329</ele>
        <time>2016-11-03T12:11:26Z</time>
      </trkpt>
      <trkpt lat="46.19311" lon="4.68282">
        <ele>329</ele>
        <time>2016-11-03T12:12:01Z</time>
      </trkpt>
      <trkpt lat="46.19311" lon="4.68281">
        <ele>329</ele>
        <time>2016-11-03T12:12:02Z</time>
      </trkpt>
      <trkpt lat="46.19313" lon="4.68269">
        <ele>329</ele>
        <time>2016-11-03T12:12:12Z</time>
      </trkpt>
      <trkpt lat="46.19314" lon="4.68268">
        <ele>329</ele>
        <time>2016-11-03T12:12:13Z</time>
      </trkpt>
      <trkpt lat="46.19322" lon="4.68265">
        <ele>329</ele>
        <time>2016-11-03T12:12:21Z</time>
      </trkpt>
      <trkpt lat="46.19323" lon="4.68264">
        <ele>329</ele>
        <time>2016-11-03T12:12:22Z</time>
      </trkpt>
      <trkpt lat="46.19328" lon="4.68255">
        <ele>329</ele>
        <time>2016-11-03T12:12:31Z</time>
      </trkpt>
      <trkpt lat="46.19328" lon="4.68254">
        <ele>329</ele>
        <time>2016-11-03T12:12:32Z</time>
      </trkpt>
      <trkpt lat="46.19328" lon="4.68241">
        <ele>328</ele>
        <time>2016-11-03T12:12:40Z</time>
      </trkpt>
      <trkpt lat="46.19328" lon="4.6824">
        <ele>328</ele>
        <time>2016-11-03T12:12:41Z</time>
      </trkpt>
      <trkpt lat="46.19326" lon="4.68228">
        <ele>327</ele>
        <time>2016-11-03T12:12:47Z</time>
      </trkpt>
      <trkpt lat="46.19326" lon="4.68226">
        <ele>327</ele>
        <time>2016-11-03T12:12:48Z</time>
      </trkpt>
      <trkpt lat="46.19323" lon="4.68215">
        <ele>327</ele>
        <time>2016-11-03T12:12:54Z</time>
      </trkpt>
      <trkpt lat="46.19323" lon="4.68213">
        <ele>327</ele>
        <time>2016-11-03T12:12:55Z</time>
      </trkpt>
      <trkpt lat="46.19316" lon="4.68206">
        <ele>327</ele>
        <time>2016-11-03T12:13:04Z</time>
      </trkpt>
      <trkpt lat="46.19315" lon="4.68206">
        <ele>327</ele>
        <time>2016-11-03T12:13:05Z</time>
      </trkpt>
      <trkpt lat="46.19307" lon="4.68207">
        <ele>327</ele>
        <time>2016-11-03T12:13:13Z</time>
      </trkpt>
      <trkpt lat="46.19306" lon="4.68207">
        <ele>327</ele>
        <time>2016-11-03T12:13:14Z</time>
      </trkpt>
      <trkpt lat="46.19298" lon="4.68204">
        <ele>327</ele>
        <time>2016-11-03T12:13:21Z</time>
      </trkpt>
      <trkpt lat="46.19296" lon="4.68204">
        <ele>327</ele>
        <time>2016-11-03T12:13:22Z</time>
      </trkpt>
      <trkpt lat="46.19288" lon="4.68202">
        <ele>326</ele>
        <time>2016-11-03T12:13:29Z</time>
      </trkpt>
      <trkpt lat="46.19286" lon="4.68202">
        <ele>326</ele>
        <time>2016-11-03T12:13:30Z</time>
      </trkpt>
      <trkpt lat="46.19278" lon="4.68198">
        <ele>326</ele>
        <time>2016-11-03T12:13:38Z</time>
      </trkpt>
      <trkpt lat="46.19277" lon="4.68197">
        <ele>326</ele>
        <time>2016-11-03T12:13:39Z</time>
      </trkpt>
      <trkpt lat="46.19269" lon="4.68194">
        <ele>326</ele>
        <time>2016-11-03T12:13:46Z</time>
      </trkpt>
      <trkpt lat="46.19268" lon="4.68193">
        <ele>326</ele>
        <time>2016-11-03T12:13:47Z</time>
      </trkpt>
      <trkpt lat="46.19259" lon="4.68192">
        <ele>325</ele>
        <time>2016-11-03T12:13:54Z</time>
      </trkpt>
      <trkpt lat="46.19258" lon="4.68192">
        <ele>325</ele>
        <time>2016-11-03T12:13:55Z</time>
      </trkpt>
      <trkpt lat="46.19249" lon="4.68193">
        <ele>324</ele>
        <time>2016-11-03T12:14:03Z</time>
      </trkpt>
      <trkpt lat="46.19248" lon="4.68193">
        <ele>324</ele>
        <time>2016-11-03T12:14:04Z</time>
      </trkpt>
      <trkpt lat="46.1924" lon="4.68192">
        <ele>324</ele>
        <time>2016-11-03T12:14:11Z</time>
      </trkpt>
      <trkpt lat="46.19239" lon="4.68191">
        <ele>324</ele>
        <time>2016-11-03T12:14:12Z</time>
      </trkpt>
      <trkpt lat="46.1923" lon="4.68191">
        <ele>325</ele>
        <time>2016-11-03T12:14:18Z</time>
      </trkpt>
      <trkpt lat="46.19229" lon="4.6819">
        <ele>325</ele>
        <time>2016-11-03T12:14:19Z</time>
      </trkpt>
      <trkpt lat="46.1922" lon="4.68192">
        <ele>325</ele>
        <time>2016-11-03T12:14:26Z</time>
      </trkpt>
      <trkpt lat="46.1922" lon="4.68193">
        <ele>325</ele>
        <time>2016-11-03T12:14:27Z</time>
      </trkpt>
      <trkpt lat="46.19214" lon="4.68202">
        <ele>324</ele>
        <time>2016-11-03T12:14:34Z</time>
      </trkpt>
      <trkpt lat="46.19213" lon="4.68203">
        <ele>324</ele>
        <time>2016-11-03T12:14:35Z</time>
      </trkpt>
      <trkpt lat="46.19211" lon="4.68214">
        <ele>324</ele>
        <time>2016-11-03T12:14:42Z</time>
      </trkpt>
      <trkpt lat="46.1921" lon="4.68216">
        <ele>324</ele>
        <time>2016-11-03T12:14:43Z</time>
      </trkpt>
      <trkpt lat="46.19208" lon="4.68228">
        <ele>324</ele>
        <time>2016-11-03T12:14:49Z</time>
      </trkpt>
      <trkpt lat="46.19207" lon="4.6823">
        <ele>323</ele>
        <time>2016-11-03T12:14:50Z</time>
      </trkpt>
      <trkpt lat="46.19205" lon="4.68242">
        <ele>323</ele>
        <time>2016-11-03T12:14:56Z</time>
      </trkpt>
      <trkpt lat="46.19205" lon="4.68243">
        <ele>323</ele>
        <time>2016-11-03T12:14:57Z</time>
      </trkpt>
      <trkpt lat="46.192" lon="4.68255">
        <ele>321</ele>
        <time>2016-11-03T12:15:04Z</time>
      </trkpt>
      <trkpt lat="46.192" lon="4.68256">
        <ele>321</ele>
        <time>2016-11-03T12:15:05Z</time>
      </trkpt>
      <trkpt lat="46.19194" lon="4.68264">
        <ele>321</ele>
        <time>2016-11-03T12:15:11Z</time>
      </trkpt>
      <trkpt lat="46.19193" lon="4.68265">
        <ele>321</ele>
        <time>2016-11-03T12:15:12Z</time>
      </trkpt>
      <trkpt lat="46.19185" lon="4.68269">
        <ele>321</ele>
        <time>2016-11-03T12:18:56Z</time>
      </trkpt>
      <trkpt lat="46.19183" lon="4.68269">
        <ele>321</ele>
        <time>2016-11-03T12:18:57Z</time>
      </trkpt>
      <trkpt lat="46.19176" lon="4.68262">
        <ele>321</ele>
        <time>2016-11-03T12:19:05Z</time>
      </trkpt>
      <trkpt lat="46.19175" lon="4.68262">
        <ele>321</ele>
        <time>2016-11-03T12:19:06Z</time>
      </trkpt>
      <trkpt lat="46.19167" lon="4.68265">
        <ele>322</ele>
        <time>2016-11-03T12:19:15Z</time>
      </trkpt>
      <trkpt lat="46.19166" lon="4.68266">
        <ele>322</ele>
        <time>2016-11-03T12:19:16Z</time>
      </trkpt>
      <trkpt lat="46.19159" lon="4.68271">
        <ele>323</ele>
        <time>2016-11-03T12:19:23Z</time>
      </trkpt>
      <trkpt lat="46.19158" lon="4.68272">
        <ele>323</ele>
        <time>2016-11-03T12:19:24Z</time>
      </trkpt>
      <trkpt lat="46.19151" lon="4.68279">
        <ele>323</ele>
        <time>2016-11-03T12:19:33Z</time>
      </trkpt>
      <trkpt lat="46.1915" lon="4.6828">
        <ele>323</ele>
        <time>2016-11-03T12:19:34Z</time>
      </trkpt>
      <trkpt lat="46.19142" lon="4.68283">
        <ele>323</ele>
        <time>2016-11-03T12:19:42Z</time>
      </trkpt>
      <trkpt lat="46.19141" lon="4.68284">
        <ele>323</ele>
        <time>2016-11-03T12:19:43Z</time>
      </trkpt>
      <trkpt lat="46.19133" lon="4.68286">
        <ele>324</ele>
        <time>2016-11-03T12:19:50Z</time>
      </trkpt>
      <trkpt lat="46.19131" lon="4.68287">
        <ele>324</ele>
        <time>2016-11-03T12:19:51Z</time>
      </trkpt>
      <trkpt lat="46.19124" lon="4.68291">
        <ele>324</ele>
        <time>2016-11-03T12:19:58Z</time>
      </trkpt>
      <trkpt lat="46.19123" lon="4.68292">
        <ele>324</ele>
        <time>2016-11-03T12:19:59Z</time>
      </trkpt>
      <trkpt lat="46.19115" lon="4.68298">
        <ele>324</ele>
        <time>2016-11-03T12:20:06Z</time>
      </trkpt>
      <trkpt lat="46.19114" lon="4.68299">
        <ele>324</ele>
        <time>2016-11-03T12:20:07Z</time>
      </trkpt>
      <trkpt lat="46.19106" lon="4.68302">
        <ele>324</ele>
        <time>2016-11-03T12:20:14Z</time>
      </trkpt>
      <trkpt lat="46.19105" lon="4.68302">
        <ele>325</ele>
        <time>2016-11-03T12:20:15Z</time>
      </trkpt>
      <trkpt lat="46.19096" lon="4.68308">
        <ele>324</ele>
        <time>2016-11-03T12:20:23Z</time>
      </trkpt>
      <trkpt lat="46.19096" lon="4.68308">
        <ele>324</ele>
        <time>2016-11-03T12:20:24Z</time>
      </trkpt>
      <trkpt lat="46.19088" lon="4.68315">
        <ele>324</ele>
        <time>2016-11-03T12:20:33Z</time>
      </trkpt>
      <trkpt lat="46.19087" lon="4.68316">
        <ele>324</ele>
        <time>2016-11-03T12:20:34Z</time>
      </trkpt>
      <trkpt lat="46.1908" lon="4.68323">
        <ele>329</ele>
        <time>2016-11-03T12:20:43Z</time>
      </trkpt>
      <trkpt lat="46.19079" lon="4.68323">
        <ele>329</ele>
        <time>2016-11-03T12:20:44Z</time>
      </trkpt>
      <trkpt lat="46.1907" lon="4.68327">
        <ele>330</ele>
        <time>2016-11-03T12:20:52Z</time>
      </trkpt>
      <trkpt lat="46.19069" lon="4.68327">
        <ele>330</ele>
        <time>2016-11-03T12:20:53Z</time>
      </trkpt>
      <trkpt lat="46.19061" lon="4.68331">
        <ele>332</ele>
        <time>2016-11-03T12:21:01Z</time>
      </trkpt>
      <trkpt lat="46.1906" lon="4.68331">
        <ele>333</ele>
        <time>2016-11-03T12:21:02Z</time>
      </trkpt>
      <trkpt lat="46.19051" lon="4.68335">
        <ele>325</ele>
        <time>2016-11-03T12:21:10Z</time>
      </trkpt>
      <trkpt lat="46.1905" lon="4.68336">
        <ele>325</ele>
        <time>2016-11-03T12:21:11Z</time>
      </trkpt>
      <trkpt lat="46.19042" lon="4.68335">
        <ele>326</ele>
        <time>2016-11-03T12:21:18Z</time>
      </trkpt>
      <trkpt lat="46.19041" lon="4.68334">
        <ele>326</ele>
        <time>2016-11-03T12:21:19Z</time>
      </trkpt>
      <trkpt lat="46.19034" lon="4.6834">
        <ele>327</ele>
        <time>2016-11-03T12:21:27Z</time>
      </trkpt>
      <trkpt lat="46.19033" lon="4.68341">
        <ele>327</ele>
        <time>2016-11-03T12:21:28Z</time>
      </trkpt>
      <trkpt lat="46.19025" lon="4.68345">
        <ele>329</ele>
        <time>2016-11-03T12:21:36Z</time>
      </trkpt>
      <trkpt lat="46.19024" lon="4.68346">
        <ele>329</ele>
        <time>2016-11-03T12:21:37Z</time>
      </trkpt>
      <trkpt lat="46.19017" lon="4.68352">
        <ele>329</ele>
        <time>2016-11-03T12:21:44Z</time>
      </trkpt>
      <trkpt lat="46.19016" lon="4.68353">
        <ele>329</ele>
        <time>2016-11-03T12:21:45Z</time>
      </trkpt>
      <trkpt lat="46.19009" lon="4.68359">
        <ele>328</ele>
        <time>2016-11-03T12:21:52Z</time>
      </trkpt>
      <trkpt lat="46.19008" lon="4.6836">
        <ele>328</ele>
        <time>2016-11-03T12:21:53Z</time>
      </trkpt>
      <trkpt lat="46.19001" lon="4.68365">
        <ele>327</ele>
        <time>2016-11-03T12:22:00Z</time>
      </trkpt>
      <trkpt lat="46.18999" lon="4.68366">
        <ele>333</ele>
        <time>2016-11-03T12:22:01Z</time>
      </trkpt>
      <trkpt lat="46.18992" lon="4.6837">
        <ele>333</ele>
        <time>2016-11-03T12:22:07Z</time>
      </trkpt>
      <trkpt lat="46.18991" lon="4.68371">
        <ele>333</ele>
        <time>2016-11-03T12:22:08Z</time>
      </trkpt>
      <trkpt lat="46.18983" lon="4.68376">
        <ele>332</ele>
        <time>2016-11-03T12:22:15Z</time>
      </trkpt>
      <trkpt lat="46.18982" lon="4.68377">
        <ele>332</ele>
        <time>2016-11-03T12:22:16Z</time>
      </trkpt>
      <trkpt lat="46.18974" lon="4.68383">
        <ele>331</ele>
        <time>2016-11-03T12:22:23Z</time>
      </trkpt>
      <trkpt lat="46.18973" lon="4.68383">
        <ele>331</ele>
        <time>2016-11-03T12:22:24Z</time>
      </trkpt>
      <trkpt lat="46.18966" lon="4.68391">
        <ele>331</ele>
        <time>2016-11-03T12:22:31Z</time>
      </trkpt>
      <trkpt lat="46.18965" lon="4.68392">
        <ele>331</ele>
        <time>2016-11-03T12:22:32Z</time>
      </trkpt>
      <trkpt lat="46.18957" lon="4.68396">
        <ele>331</ele>
        <time>2016-11-03T12:22:40Z</time>
      </trkpt>
      <trkpt lat="46.18956" lon="4.68396">
        <ele>331</ele>
        <time>2016-11-03T12:22:41Z</time>
      </trkpt>
      <trkpt lat="46.18948" lon="4.68401">
        <ele>331</ele>
        <time>2016-11-03T12:22:48Z</time>
      </trkpt>
      <trkpt lat="46.18947" lon="4.68402">
        <ele>331</ele>
        <time>2016-11-03T12:22:49Z</time>
      </trkpt>
      <trkpt lat="46.18939" lon="4.68404">
        <ele>331</ele>
        <time>2016-11-03T12:22:55Z</time>
      </trkpt>
      <trkpt lat="46.18938" lon="4.68405">
        <ele>331</ele>
        <time>2016-11-03T12:22:56Z</time>
      </trkpt>
      <trkpt lat="46.1893" lon="4.68408">
        <ele>330</ele>
        <time>2016-11-03T12:23:03Z</time>
      </trkpt>
      <trkpt lat="46.18929" lon="4.68408">
        <ele>330</ele>
        <time>2016-11-03T12:23:04Z</time>
      </trkpt>
      <trkpt lat="46.18921" lon="4.68413">
        <ele>329</ele>
        <time>2016-11-03T12:23:11Z</time>
      </trkpt>
      <trkpt lat="46.18919" lon="4.68413">
        <ele>329</ele>
        <time>2016-11-03T12:23:12Z</time>
      </trkpt>
      <trkpt lat="46.18913" lon="4.68419">
        <ele>327</ele>
        <time>2016-11-03T12:23:19Z</time>
      </trkpt>
      <trkpt lat="46.18912" lon="4.68421">
        <ele>326</ele>
        <time>2016-11-03T12:23:20Z</time>
      </trkpt>
      <trkpt lat="46.18905" lon="4.68428">
        <ele>324</ele>
        <time>2016-11-03T12:23:27Z</time>
      </trkpt>
      <trkpt lat="46.18903" lon="4.68429">
        <ele>324</ele>
        <time>2016-11-03T12:23:28Z</time>
      </trkpt>
      <trkpt lat="46.18895" lon="4.68429">
        <ele>323</ele>
        <time>2016-11-03T12:23:34Z</time>
      </trkpt>
      <trkpt lat="46.18894" lon="4.68429">
        <ele>323</ele>
        <time>2016-11-03T12:23:35Z</time>
      </trkpt>
      <trkpt lat="46.18886" lon="4.68425">
        <ele>323</ele>
        <time>2016-11-03T12:23:42Z</time>
      </trkpt>
      <trkpt lat="46.18885" lon="4.68425">
        <ele>323</ele>
        <time>2016-11-03T12:23:43Z</time>
      </trkpt>
      <trkpt lat="46.18877" lon="4.68418">
        <ele>323</ele>
        <time>2016-11-03T12:23:50Z</time>
      </trkpt>
      <trkpt lat="46.18876" lon="4.68416">
        <ele>331</ele>
        <time>2016-11-03T12:23:51Z</time>
      </trkpt>
      <trkpt lat="46.18869" lon="4.6841">
        <ele>331</ele>
        <time>2016-11-03T12:23:57Z</time>
      </trkpt>
      <trkpt lat="46.18868" lon="4.68409">
        <ele>331</ele>
        <time>2016-11-03T12:23:58Z</time>
      </trkpt>
      <trkpt lat="46.18861" lon="4.68401">
        <ele>331</ele>
        <time>2016-11-03T12:24:04Z</time>
      </trkpt>
      <trkpt lat="46.1886" lon="4.684">
        <ele>331</ele>
        <time>2016-11-03T12:24:05Z</time>
      </trkpt>
      <trkpt lat="46.18853" lon="4.68395">
        <ele>331</ele>
        <time>2016-11-03T12:24:11Z</time>
      </trkpt>
      <trkpt lat="46.18852" lon="4.68394">
        <ele>331</ele>
        <time>2016-11-03T12:24:12Z</time>
      </trkpt>
      <trkpt lat="46.18845" lon="4.68387">
        <ele>332</ele>
        <time>2016-11-03T12:24:19Z</time>
      </trkpt>
      <trkpt lat="46.18844" lon="4.68386">
        <ele>332</ele>
        <time>2016-11-03T12:24:20Z</time>
      </trkpt>
      <trkpt lat="46.18838" lon="4.68379">
        <ele>332</ele>
        <time>2016-11-03T12:24:27Z</time>
      </trkpt>
      <trkpt lat="46.18837" lon="4.68378">
        <ele>332</ele>
        <time>2016-11-03T12:24:28Z</time>
      </trkpt>
      <trkpt lat="46.18829" lon="4.68373">
        <ele>330</ele>
        <time>2016-11-03T12:24:36Z</time>
      </trkpt>
      <trkpt lat="46.18828" lon="4.68372">
        <ele>330</ele>
        <time>2016-11-03T12:24:37Z</time>
      </trkpt>
      <trkpt lat="46.18819" lon="4.68368">
        <ele>330</ele>
        <time>2016-11-03T12:24:45Z</time>
      </trkpt>
      <trkpt lat="46.18818" lon="4.68368">
        <ele>330</ele>
        <time>2016-11-03T12:24:46Z</time>
      </trkpt>
      <trkpt lat="46.18811" lon="4.68362">
        <ele>331</ele>
        <time>2016-11-03T12:24:53Z</time>
      </trkpt>
      <trkpt lat="46.1881" lon="4.68361">
        <ele>331</ele>
        <time>2016-11-03T12:24:54Z</time>
      </trkpt>
      <trkpt lat="46.18803" lon="4.68354">
        <ele>331</ele>
        <time>2016-11-03T12:25:01Z</time>
      </trkpt>
      <trkpt lat="46.18802" lon="4.68353">
        <ele>331</ele>
        <time>2016-11-03T12:25:02Z</time>
      </trkpt>
      <trkpt lat="46.18797" lon="4.68343">
        <ele>331</ele>
        <time>2016-11-03T12:25:09Z</time>
      </trkpt>
      <trkpt lat="46.18797" lon="4.68342">
        <ele>331</ele>
        <time>2016-11-03T12:25:10Z</time>
      </trkpt>
      <trkpt lat="46.18789" lon="4.68336">
        <ele>331</ele>
        <time>2016-11-03T12:25:18Z</time>
      </trkpt>
      <trkpt lat="46.18789" lon="4.68335">
        <ele>331</ele>
        <time>2016-11-03T12:25:19Z</time>
      </trkpt>
      <trkpt lat="46.18782" lon="4.68342">
        <ele>330</ele>
        <time>2016-11-03T12:25:28Z</time>
      </trkpt>
      <trkpt lat="46.18781" lon="4.68343">
        <ele>330</ele>
        <time>2016-11-03T12:25:29Z</time>
      </trkpt>
      <trkpt lat="46.18778" lon="4.68355">
        <ele>330</ele>
        <time>2016-11-03T12:25:36Z</time>
      </trkpt>
      <trkpt lat="46.18777" lon="4.68357">
        <ele>330</ele>
        <time>2016-11-03T12:25:37Z</time>
      </trkpt>
      <trkpt lat="46.18772" lon="4.68367">
        <ele>329</ele>
        <time>2016-11-03T12:25:44Z</time>
      </trkpt>
      <trkpt lat="46.18772" lon="4.68368">
        <ele>329</ele>
        <time>2016-11-03T12:25:45Z</time>
      </trkpt>
      <trkpt lat="46.18766" lon="4.68375">
        <ele>329</ele>
        <time>2016-11-03T12:25:52Z</time>
      </trkpt>
      <trkpt lat="46.18765" lon="4.68376">
        <ele>329</ele>
        <time>2016-11-03T12:25:53Z</time>
      </trkpt>
      <trkpt lat="46.18757" lon="4.68383">
        <ele>328</ele>
        <time>2016-11-03T12:26:01Z</time>
      </trkpt>
      <trkpt lat="46.18757" lon="4.68384">
        <ele>328</ele>
        <time>2016-11-03T12:26:02Z</time>
      </trkpt>
      <trkpt lat="46.18753" lon="4.68372">
        <ele>329</ele>
        <time>2016-11-03T12:27:27Z</time>
      </trkpt>
      <trkpt lat="46.18752" lon="4.68371">
        <ele>329</ele>
        <time>2016-11-03T12:27:28Z</time>
      </trkpt>
      <trkpt lat="46.18746" lon="4.68364">
        <ele>325</ele>
        <time>2016-11-03T12:27:37Z</time>
      </trkpt>
      <trkpt lat="46.18745" lon="4.68363">
        <ele>325</ele>
        <time>2016-11-03T12:27:38Z</time>
      </trkpt>
      <trkpt lat="46.18738" lon="4.68355">
        <ele>326</ele>
        <time>2016-11-03T12:27:46Z</time>
      </trkpt>
      <trkpt lat="46.18737" lon="4.68355">
        <ele>326</ele>
        <time>2016-11-03T12:27:47Z</time>
      </trkpt>
      <trkpt lat="46.1873" lon="4.68348">
        <ele>326</ele>
        <time>2016-11-03T12:27:54Z</time>
      </trkpt>
      <trkpt lat="46.18729" lon="4.68346">
        <ele>326</ele>
        <time>2016-11-03T12:27:55Z</time>
      </trkpt>
      <trkpt lat="46.18726" lon="4.68335">
        <ele>326</ele>
        <time>2016-11-03T12:28:02Z</time>
      </trkpt>
      <trkpt lat="46.18725" lon="4.68334">
        <ele>325</ele>
        <time>2016-11-03T12:28:03Z</time>
      </trkpt>
      <trkpt lat="46.18719" lon="4.68326">
        <ele>326</ele>
        <time>2016-11-03T12:28:10Z</time>
      </trkpt>
      <trkpt lat="46.18719" lon="4.68325">
        <ele>326</ele>
        <time>2016-11-03T12:28:11Z</time>
      </trkpt>
      <trkpt lat="46.18714" lon="4.68315">
        <ele>326</ele>
        <time>2016-11-03T12:28:18Z</time>
      </trkpt>
      <trkpt lat="46.18713" lon="4.68313">
        <ele>326</ele>
        <time>2016-11-03T12:28:19Z</time>
      </trkpt>
      <trkpt lat="46.18707" lon="4.68304">
        <ele>326</ele>
        <time>2016-11-03T12:28:26Z</time>
      </trkpt>
      <trkpt lat="46.18707" lon="4.68303">
        <ele>326</ele>
        <time>2016-11-03T12:28:27Z</time>
      </trkpt>
      <trkpt lat="46.18703" lon="4.68291">
        <ele>325</ele>
        <time>2016-11-03T12:28:36Z</time>
      </trkpt>
      <trkpt lat="46.18703" lon="4.68289">
        <ele>325</ele>
        <time>2016-11-03T12:28:37Z</time>
      </trkpt>
      <trkpt lat="46.18704" lon="4.68277">
        <ele>326</ele>
        <time>2016-11-03T12:31:09Z</time>
      </trkpt>
      <trkpt lat="46.18704" lon="4.68275">
        <ele>326</ele>
        <time>2016-11-03T12:31:10Z</time>
      </trkpt>
      <trkpt lat="46.18705" lon="4.68264">
        <ele>326</ele>
        <time>2016-11-03T12:31:17Z</time>
      </trkpt>
      <trkpt lat="46.18705" lon="4.68262">
        <ele>326</ele>
        <time>2016-11-03T12:31:18Z</time>
      </trkpt>
      <trkpt lat="46.18706" lon="4.68249">
        <ele>327</ele>
        <time>2016-11-03T12:31:26Z</time>
      </trkpt>
      <trkpt lat="46.18706" lon="4.68248">
        <ele>327</ele>
        <time>2016-11-03T12:31:27Z</time>
      </trkpt>
      <trkpt lat="46.18707" lon="4.68235">
        <ele>327</ele>
        <time>2016-11-03T12:31:35Z</time>
      </trkpt>
      <trkpt lat="46.18707" lon="4.68233">
        <ele>327</ele>
        <time>2016-11-03T12:31:36Z</time>
      </trkpt>
      <trkpt lat="46.18709" lon="4.68221">
        <ele>328</ele>
        <time>2016-11-03T12:31:43Z</time>
      </trkpt>
      <trkpt lat="46.18709" lon="4.68219">
        <ele>328</ele>
        <time>2016-11-03T12:31:44Z</time>
      </trkpt>
      <trkpt lat="46.18701" lon="4.68217">
        <ele>327</ele>
        <time>2016-11-03T12:31:55Z</time>
      </trkpt>
      <trkpt lat="46.187" lon="4.68217">
        <ele>327</ele>
        <time>2016-11-03T12:31:56Z</time>
      </trkpt>
      <trkpt lat="46.18691" lon="4.6822">
        <ele>326</ele>
        <time>2016-11-03T12:32:05Z</time>
      </trkpt>
      <trkpt lat="46.1869" lon="4.6822">
        <ele>326</ele>
        <time>2016-11-03T12:32:06Z</time>
      </trkpt>
      <trkpt lat="46.18683" lon="4.68224">
        <ele>326</ele>
        <time>2016-11-03T12:32:15Z</time>
      </trkpt>
      <trkpt lat="46.18682" lon="4.68224">
        <ele>325</ele>
        <time>2016-11-03T12:32:16Z</time>
      </trkpt>
      <trkpt lat="46.18674" lon="4.68229">
        <ele>325</ele>
        <time>2016-11-03T12:32:24Z</time>
      </trkpt>
      <trkpt lat="46.18673" lon="4.6823">
        <ele>324</ele>
        <time>2016-11-03T12:32:25Z</time>
      </trkpt>
      <trkpt lat="46.18665" lon="4.68229">
        <ele>319</ele>
        <time>2016-11-03T12:32:33Z</time>
      </trkpt>
      <trkpt lat="46.18664" lon="4.68228">
        <ele>319</ele>
        <time>2016-11-03T12:32:34Z</time>
      </trkpt>
      <trkpt lat="46.18661" lon="4.68217">
        <ele>319</ele>
        <time>2016-11-03T12:32:41Z</time>
      </trkpt>
      <trkpt lat="46.18661" lon="4.68215">
        <ele>319</ele>
        <time>2016-11-03T12:32:42Z</time>
      </trkpt>
      <trkpt lat="46.18657" lon="4.68204">
        <ele>319</ele>
        <time>2016-11-03T12:32:50Z</time>
      </trkpt>
      <trkpt lat="46.18657" lon="4.68203">
        <ele>320</ele>
        <time>2016-11-03T12:32:51Z</time>
      </trkpt>
      <trkpt lat="46.18653" lon="4.68192">
        <ele>320</ele>
        <time>2016-11-03T12:33:00Z</time>
      </trkpt>
      <trkpt lat="46.18653" lon="4.6819">
        <ele>320</ele>
        <time>2016-11-03T12:33:01Z</time>
      </trkpt>
      <trkpt lat="46.18651" lon="4.68179">
        <ele>321</ele>
        <time>2016-11-03T12:33:09Z</time>
      </trkpt>
      <trkpt lat="46.1865" lon="4.68177">
        <ele>321</ele>
        <time>2016-11-03T12:33:10Z</time>
      </trkpt>
      <trkpt lat="46.18649" lon="4.68165">
        <ele>324</ele>
        <time>2016-11-03T12:33:33Z</time>
      </trkpt>
      <trkpt lat="46.18649" lon="4.68164">
        <ele>324</ele>
        <time>2016-11-03T12:33:34Z</time>
      </trkpt>
      <trkpt lat="46.18643" lon="4.68156">
        <ele>324</ele>
        <time>2016-11-03T12:33:43Z</time>
      </trkpt>
      <trkpt lat="46.18642" lon="4.68156">
        <ele>324</ele>
        <time>2016-11-03T12:33:44Z</time>
      </trkpt>
      <trkpt lat="46.18634" lon="4.68149">
        <ele>324</ele>
        <time>2016-11-03T12:33:53Z</time>
      </trkpt>
      <trkpt lat="46.18633" lon="4.68149">
        <ele>324</ele>
        <time>2016-11-03T12:33:54Z</time>
      </trkpt>
      <trkpt lat="46.18625" lon="4.68151">
        <ele>324</ele>
        <time>2016-11-03T12:34:12Z</time>
      </trkpt>
      <trkpt lat="46.18625" lon="4.68152">
        <ele>324</ele>
        <time>2016-11-03T12:34:13Z</time>
      </trkpt>
      <trkpt lat="46.18616" lon="4.68147">
        <ele>324</ele>
        <time>2016-11-03T12:34:55Z</time>
      </trkpt>
      <trkpt lat="46.18616" lon="4.68147">
        <ele>324</ele>
        <time>2016-11-03T12:34:56Z</time>
      </trkpt>
      <trkpt lat="46.18607" lon="4.68147">
        <ele>323</ele>
        <time>2016-11-03T12:36:15Z</time>
      </trkpt>
      <trkpt lat="46.18607" lon="4.68147">
        <ele>323</ele>
        <time>2016-11-03T12:36:16Z</time>
      </trkpt>
      <trkpt lat="46.186" lon="4.68139">
        <ele>323</ele>
        <time>2016-11-03T12:36:54Z</time>
      </trkpt>
      <trkpt lat="46.18599" lon="4.68139">
        <ele>323</ele>
        <time>2016-11-03T12:36:55Z</time>
      </trkpt>
      <trkpt lat="46.18594" lon="4.6813">
        <ele>324</ele>
        <time>2016-11-03T12:37:11Z</time>
      </trkpt>
      <trkpt lat="46.18593" lon="4.68129">
        <ele>324</ele>
        <time>2016-11-03T12:37:12Z</time>
      </trkpt>
      <trkpt lat="46.18587" lon="4.6812">
        <ele>325</ele>
        <time>2016-11-03T12:38:52Z</time>
      </trkpt>
      <trkpt lat="46.18586" lon="4.6812">
        <ele>325</ele>
        <time>2016-11-03T12:38:53Z</time>
      </trkpt>
      <trkpt lat="46.1858" lon="4.68129">
        <ele>325</ele>
        <time>2016-11-03T12:39:14Z</time>
      </trkpt>
      <trkpt lat="46.1858" lon="4.6813">
        <ele>324</ele>
        <time>2016-11-03T12:39:15Z</time>
      </trkpt>
      <trkpt lat="46.18577" lon="4.68142">
        <ele>323</ele>
        <time>2016-11-03T12:39:38Z</time>
      </trkpt>
      <trkpt lat="46.18577" lon="4.68143">
        <ele>323</ele>
        <time>2016-11-03T12:39:39Z</time>
      </trkpt>
      <trkpt lat="46.18569" lon="4.68143">
        <ele>323</ele>
        <time>2016-11-03T12:40:05Z</time>
      </trkpt>
      <trkpt lat="46.18568" lon="4.68143">
        <ele>324</ele>
        <time>2016-11-03T12:40:06Z</time>
      </trkpt>
      <trkpt lat="46.18559" lon="4.68144">
        <ele>324</ele>
        <time>2016-11-03T12:40:13Z</time>
      </trkpt>
      <trkpt lat="46.18558" lon="4.68144">
        <ele>324</ele>
        <time>2016-11-03T12:40:14Z</time>
      </trkpt>
      <trkpt lat="46.18549" lon="4.68144">
        <ele>325</ele>
        <time>2016-11-03T12:40:21Z</time>
      </trkpt>
      <trkpt lat="46.18548" lon="4.68144">
        <ele>325</ele>
        <time>2016-11-03T12:40:22Z</time>
      </trkpt>
      <trkpt lat="46.1854" lon="4.68141">
        <ele>325</ele>
        <time>2016-11-03T12:40:28Z</time>
      </trkpt>
      <trkpt lat="46.18539" lon="4.68141">
        <ele>325</ele>
        <time>2016-11-03T12:40:29Z</time>
      </trkpt>
      <trkpt lat="46.18531" lon="4.6814">
        <ele>326</ele>
        <time>2016-11-03T12:40:37Z</time>
      </trkpt>
      <trkpt lat="46.1853" lon="4.6814">
        <ele>326</ele>
        <time>2016-11-03T12:40:38Z</time>
      </trkpt>
      <trkpt lat="46.18522" lon="4.68139">
        <ele>326</ele>
        <time>2016-11-03T12:40:45Z</time>
      </trkpt>
      <trkpt lat="46.18521" lon="4.6814">
        <ele>326</ele>
        <time>2016-11-03T12:40:46Z</time>
      </trkpt>
      <trkpt lat="46.18513" lon="4.68144">
        <ele>326</ele>
        <time>2016-11-03T12:40:53Z</time>
      </trkpt>
      <trkpt lat="46.18512" lon="4.68145">
        <ele>325</ele>
        <time>2016-11-03T12:40:54Z</time>
      </trkpt>
      <trkpt lat="46.18506" lon="4.68153">
        <ele>325</ele>
        <time>2016-11-03T12:41:00Z</time>
      </trkpt>
      <trkpt lat="46.18505" lon="4.68155">
        <ele>325</ele>
        <time>2016-11-03T12:41:01Z</time>
      </trkpt>
      <trkpt lat="46.18497" lon="4.6816">
        <ele>325</ele>
        <time>2016-11-03T12:41:08Z</time>
      </trkpt>
      <trkpt lat="46.18496" lon="4.68161">
        <ele>325</ele>
        <time>2016-11-03T12:41:09Z</time>
      </trkpt>
      <trkpt lat="46.1849" lon="4.68169">
        <ele>322</ele>
        <time>2016-11-03T12:41:19Z</time>
      </trkpt>
      <trkpt lat="46.18489" lon="4.6817">
        <ele>322</ele>
        <time>2016-11-03T12:41:20Z</time>
      </trkpt>
      <trkpt lat="46.18481" lon="4.68176">
        <ele>321</ele>
        <time>2016-11-03T12:41:28Z</time>
      </trkpt>
      <trkpt lat="46.1848" lon="4.68177">
        <ele>321</ele>
        <time>2016-11-03T12:41:29Z</time>
      </trkpt>
      <trkpt lat="46.18473" lon="4.68182">
        <ele>321</ele>
        <time>2016-11-03T12:41:36Z</time>
      </trkpt>
      <trkpt lat="46.18472" lon="4.68182">
        <ele>321</ele>
        <time>2016-11-03T12:41:37Z</time>
      </trkpt>
      <trkpt lat="46.18464" lon="4.68184">
        <ele>320</ele>
        <time>2016-11-03T12:41:44Z</time>
      </trkpt>
      <trkpt lat="46.18462" lon="4.68184">
        <ele>320</ele>
        <time>2016-11-03T12:41:45Z</time>
      </trkpt>
      <trkpt lat="46.18454" lon="4.68183">
        <ele>320</ele>
        <time>2016-11-03T12:41:52Z</time>
      </trkpt>
      <trkpt lat="46.18452" lon="4.68183">
        <ele>320</ele>
        <time>2016-11-03T12:41:53Z</time>
      </trkpt>
      <trkpt lat="46.18445" lon="4.6818">
        <ele>321</ele>
        <time>2016-11-03T12:41:59Z</time>
      </trkpt>
      <trkpt lat="46.18444" lon="4.68179">
        <ele>321</ele>
        <time>2016-11-03T12:42:00Z</time>
      </trkpt>
      <trkpt lat="46.18435" lon="4.68179">
        <ele>321</ele>
        <time>2016-11-03T12:42:06Z</time>
      </trkpt>
      <trkpt lat="46.18434" lon="4.68179">
        <ele>321</ele>
        <time>2016-11-03T12:42:07Z</time>
      </trkpt>
      <trkpt lat="46.18426" lon="4.68179">
        <ele>322</ele>
        <time>2016-11-03T12:42:13Z</time>
      </trkpt>
      <trkpt lat="46.18425" lon="4.68179">
        <ele>322</ele>
        <time>2016-11-03T12:42:14Z</time>
      </trkpt>
      <trkpt lat="46.18417" lon="4.68179">
        <ele>324</ele>
        <time>2016-11-03T12:42:21Z</time>
      </trkpt>
      <trkpt lat="46.18416" lon="4.68179">
        <ele>324</ele>
        <time>2016-11-03T12:42:22Z</time>
      </trkpt>
      <trkpt lat="46.18409" lon="4.68188">
        <ele>324</ele>
        <time>2016-11-03T12:42:29Z</time>
      </trkpt>
      <trkpt lat="46.18409" lon="4.6819">
        <ele>324</ele>
        <time>2016-11-03T12:42:30Z</time>
      </trkpt>
      <trkpt lat="46.18404" lon="4.682">
        <ele>324</ele>
        <time>2016-11-03T12:42:36Z</time>
      </trkpt>
      <trkpt lat="46.18404" lon="4.68201">
        <ele>323</ele>
        <time>2016-11-03T12:42:37Z</time>
      </trkpt>
      <trkpt lat="46.18401" lon="4.68213">
        <ele>323</ele>
        <time>2016-11-03T12:42:43Z</time>
      </trkpt>
      <trkpt lat="46.184" lon="4.68214">
        <ele>323</ele>
        <time>2016-11-03T12:42:44Z</time>
      </trkpt>
      <trkpt lat="46.18397" lon="4.68224">
        <ele>322</ele>
        <time>2016-11-03T12:42:50Z</time>
      </trkpt>
      <trkpt lat="46.18396" lon="4.68226">
        <ele>322</ele>
        <time>2016-11-03T12:42:51Z</time>
      </trkpt>
      <trkpt lat="46.1839" lon="4.68234">
        <ele>322</ele>
        <time>2016-11-03T12:42:58Z</time>
      </trkpt>
      <trkpt lat="46.18389" lon="4.68235">
        <ele>322</ele>
        <time>2016-11-03T12:42:59Z</time>
      </trkpt>
      <trkpt lat="46.18381" lon="4.6824">
        <ele>323</ele>
        <time>2016-11-03T12:43:06Z</time>
      </trkpt>
      <trkpt lat="46.1838" lon="4.68241">
        <ele>323</ele>
        <time>2016-11-03T12:43:07Z</time>
      </trkpt>
      <trkpt lat="46.18372" lon="4.68246">
        <ele>323</ele>
        <time>2016-11-03T12:43:14Z</time>
      </trkpt>
      <trkpt lat="46.18371" lon="4.68247">
        <ele>323</ele>
        <time>2016-11-03T12:43:15Z</time>
      </trkpt>
      <trkpt lat="46.18364" lon="4.68253">
        <ele>320</ele>
        <time>2016-11-03T12:43:22Z</time>
      </trkpt>
      <trkpt lat="46.18363" lon="4.68254">
        <ele>320</ele>
        <time>2016-11-03T12:43:23Z</time>
      </trkpt>
      <trkpt lat="46.18357" lon="4.68264">
        <ele>320</ele>
        <time>2016-11-03T12:43:31Z</time>
      </trkpt>
      <trkpt lat="46.18356" lon="4.68265">
        <ele>320</ele>
        <time>2016-11-03T12:43:32Z</time>
      </trkpt>
      <trkpt lat="46.18349" lon="4.68272">
        <ele>320</ele>
        <time>2016-11-03T12:43:39Z</time>
      </trkpt>
      <trkpt lat="46.18348" lon="4.68273">
        <ele>320</ele>
        <time>2016-11-03T12:43:40Z</time>
      </trkpt>
      <trkpt lat="46.1834" lon="4.68279">
        <ele>320</ele>
        <time>2016-11-03T12:43:47Z</time>
      </trkpt>
      <trkpt lat="46.18339" lon="4.6828">
        <ele>320</ele>
        <time>2016-11-03T12:43:48Z</time>
      </trkpt>
      <trkpt lat="46.18331" lon="4.68281">
        <ele>326</ele>
        <time>2016-11-03T12:43:55Z</time>
      </trkpt>
      <trkpt lat="46.1833" lon="4.68281">
        <ele>326</ele>
        <time>2016-11-03T12:43:56Z</time>
      </trkpt>
      <trkpt lat="46.18322" lon="4.68276">
        <ele>326</ele>
        <time>2016-11-03T12:44:03Z</time>
      </trkpt>
      <trkpt lat="46.18321" lon="4.68276">
        <ele>326</ele>
        <time>2016-11-03T12:44:04Z</time>
      </trkpt>
      <trkpt lat="46.18314" lon="4.6827">
        <ele>326</ele>
        <time>2016-11-03T12:44:10Z</time>
      </trkpt>
      <trkpt lat="46.18313" lon="4.6827">
        <ele>326</ele>
        <time>2016-11-03T12:44:11Z</time>
      </trkpt>
      <trkpt lat="46.18305" lon="4.68263">
        <ele>327</ele>
        <time>2016-11-03T12:44:17Z</time>
      </trkpt>
      <trkpt lat="46.18304" lon="4.68262">
        <ele>327</ele>
        <time>2016-11-03T12:44:18Z</time>
      </trkpt>
      <trkpt lat="46.18296" lon="4.68258">
        <ele>327</ele>
        <time>2016-11-03T12:44:25Z</time>
      </trkpt>
      <trkpt lat="46.18294" lon="4.68257">
        <ele>327</ele>
        <time>2016-11-03T12:44:26Z</time>
      </trkpt>
      <trkpt lat="46.18287" lon="4.6825">
        <ele>331</ele>
        <time>2016-11-03T12:44:33Z</time>
      </trkpt>
      <trkpt lat="46.18286" lon="4.68249">
        <ele>331</ele>
        <time>2016-11-03T12:44:34Z</time>
      </trkpt>
      <trkpt lat="46.18279" lon="4.68247">
        <ele>332</ele>
        <time>2016-11-03T12:44:42Z</time>
      </trkpt>
      <trkpt lat="46.18277" lon="4.68246">
        <ele>332</ele>
        <time>2016-11-03T12:44:43Z</time>
      </trkpt>
      <trkpt lat="46.1827" lon="4.68241">
        <ele>332</ele>
        <time>2016-11-03T12:44:51Z</time>
      </trkpt>
      <trkpt lat="46.18269" lon="4.6824">
        <ele>332</ele>
        <time>2016-11-03T12:44:52Z</time>
      </trkpt>
      <trkpt lat="46.1826" lon="4.6824">
        <ele>332</ele>
        <time>2016-11-03T12:45:00Z</time>
      </trkpt>
      <trkpt lat="46.18259" lon="4.6824">
        <ele>332</ele>
        <time>2016-11-03T12:45:01Z</time>
      </trkpt>
      <trkpt lat="46.18251" lon="4.68239">
        <ele>332</ele>
        <time>2016-11-03T12:45:07Z</time>
      </trkpt>
      <trkpt lat="46.1825" lon="4.68239">
        <ele>333</ele>
        <time>2016-11-03T12:45:08Z</time>
      </trkpt>
      <trkpt lat="46.18241" lon="4.68237">
        <ele>333</ele>
        <time>2016-11-03T12:45:14Z</time>
      </trkpt>
      <trkpt lat="46.1824" lon="4.68236">
        <ele>334</ele>
        <time>2016-11-03T12:45:15Z</time>
      </trkpt>
      <trkpt lat="46.18231" lon="4.68234">
        <ele>334</ele>
        <time>2016-11-03T12:45:21Z</time>
      </trkpt>
      <trkpt lat="46.1823" lon="4.68234">
        <ele>334</ele>
        <time>2016-11-03T12:45:22Z</time>
      </trkpt>
      <trkpt lat="46.18221" lon="4.68232">
        <ele>334</ele>
        <time>2016-11-03T12:45:28Z</time>
      </trkpt>
      <trkpt lat="46.1822" lon="4.68232">
        <ele>334</ele>
        <time>2016-11-03T12:45:29Z</time>
      </trkpt>
      <trkpt lat="46.18211" lon="4.68233">
        <ele>334</ele>
        <time>2016-11-03T12:45:35Z</time>
      </trkpt>
      <trkpt lat="46.1821" lon="4.68233">
        <ele>334</ele>
        <time>2016-11-03T12:45:36Z</time>
      </trkpt>
      <trkpt lat="46.18201" lon="4.68234">
        <ele>334</ele>
        <time>2016-11-03T12:45:43Z</time>
      </trkpt>
      <trkpt lat="46.182" lon="4.68233">
        <ele>334</ele>
        <time>2016-11-03T12:45:44Z</time>
      </trkpt>
      <trkpt lat="46.18192" lon="4.68232">
        <ele>334</ele>
        <time>2016-11-03T12:45:50Z</time>
      </trkpt>
      <trkpt lat="46.1819" lon="4.68232">
        <ele>334</ele>
        <time>2016-11-03T12:45:51Z</time>
      </trkpt>
      <trkpt lat="46.18182" lon="4.6823">
        <ele>334</ele>
        <time>2016-11-03T12:45:56Z</time>
      </trkpt>
      <trkpt lat="46.18181" lon="4.6823">
        <ele>334</ele>
        <time>2016-11-03T12:45:57Z</time>
      </trkpt>
      <trkpt lat="46.18173" lon="4.6823">
        <ele>333</ele>
        <time>2016-11-03T12:46:03Z</time>
      </trkpt>
      <trkpt lat="46.18171" lon="4.6823">
        <ele>333</ele>
        <time>2016-11-03T12:46:04Z</time>
      </trkpt>
      <trkpt lat="46.18163" lon="4.6823">
        <ele>333</ele>
        <time>2016-11-03T12:46:11Z</time>
      </trkpt>
      <trkpt lat="46.18161" lon="4.68231">
        <ele>333</ele>
        <time>2016-11-03T12:46:12Z</time>
      </trkpt>
      <trkpt lat="46.18153" lon="4.68233">
        <ele>333</ele>
        <time>2016-11-03T12:46:18Z</time>
      </trkpt>
      <trkpt lat="46.18151" lon="4.68233">
        <ele>333</ele>
        <time>2016-11-03T12:46:19Z</time>
      </trkpt>
      <trkpt lat="46.18143" lon="4.68233">
        <ele>333</ele>
        <time>2016-11-03T12:46:25Z</time>
      </trkpt>
      <trkpt lat="46.18141" lon="4.68232">
        <ele>333</ele>
        <time>2016-11-03T12:46:26Z</time>
      </trkpt>
      <trkpt lat="46.18133" lon="4.68229">
        <ele>333</ele>
        <time>2016-11-03T12:46:33Z</time>
      </trkpt>
      <trkpt lat="46.18132" lon="4.68228">
        <ele>333</ele>
        <time>2016-11-03T12:46:34Z</time>
      </trkpt>
      <trkpt lat="46.18124" lon="4.68224">
        <ele>333</ele>
        <time>2016-11-03T12:46:40Z</time>
      </trkpt>
      <trkpt lat="46.18123" lon="4.68224">
        <ele>333</ele>
        <time>2016-11-03T12:46:41Z</time>
      </trkpt>
      <trkpt lat="46.18114" lon="4.68221">
        <ele>333</ele>
        <time>2016-11-03T12:46:47Z</time>
      </trkpt>
      <trkpt lat="46.18113" lon="4.68221">
        <ele>333</ele>
        <time>2016-11-03T12:46:48Z</time>
      </trkpt>
      <trkpt lat="46.18106" lon="4.68217">
        <ele>333</ele>
        <time>2016-11-03T12:46:54Z</time>
      </trkpt>
      <trkpt lat="46.18104" lon="4.68216">
        <ele>333</ele>
        <time>2016-11-03T12:46:55Z</time>
      </trkpt>
      <trkpt lat="46.18097" lon="4.68211">
        <ele>333</ele>
        <time>2016-11-03T12:47:01Z</time>
      </trkpt>
      <trkpt lat="46.18096" lon="4.68211">
        <ele>333</ele>
        <time>2016-11-03T12:47:02Z</time>
      </trkpt>
      <trkpt lat="46.18087" lon="4.68207">
        <ele>333</ele>
        <time>2016-11-03T12:47:09Z</time>
      </trkpt>
      <trkpt lat="46.18086" lon="4.68207">
        <ele>333</ele>
        <time>2016-11-03T12:47:10Z</time>
      </trkpt>
      <trkpt lat="46.18077" lon="4.68206">
        <ele>330</ele>
        <time>2016-11-03T12:47:16Z</time>
      </trkpt>
      <trkpt lat="46.18076" lon="4.68205">
        <ele>330</ele>
        <time>2016-11-03T12:47:17Z</time>
      </trkpt>
      <trkpt lat="46.18068" lon="4.68201">
        <ele>330</ele>
        <time>2016-11-03T12:47:23Z</time>
      </trkpt>
      <trkpt lat="46.18067" lon="4.682">
        <ele>330</ele>
        <time>2016-11-03T12:47:24Z</time>
      </trkpt>
      <trkpt lat="46.1806" lon="4.68193">
        <ele>331</ele>
        <time>2016-11-03T12:47:30Z</time>
      </trkpt>
      <trkpt lat="46.18059" lon="4.68192">
        <ele>331</ele>
        <time>2016-11-03T12:47:31Z</time>
      </trkpt>
      <trkpt lat="46.18052" lon="4.68187">
        <ele>330</ele>
        <time>2016-11-03T12:47:38Z</time>
      </trkpt>
      <trkpt lat="46.18051" lon="4.68186">
        <ele>330</ele>
        <time>2016-11-03T12:47:39Z</time>
      </trkpt>
      <trkpt lat="46.18043" lon="4.68181">
        <ele>330</ele>
        <time>2016-11-03T12:47:46Z</time>
      </trkpt>
      <trkpt lat="46.18041" lon="4.6818">
        <ele>330</ele>
        <time>2016-11-03T12:47:47Z</time>
      </trkpt>
      <trkpt lat="46.18033" lon="4.68176">
        <ele>330</ele>
        <time>2016-11-03T12:48:21Z</time>
      </trkpt>
      <trkpt lat="46.18032" lon="4.68175">
        <ele>330</ele>
        <time>2016-11-03T12:48:22Z</time>
      </trkpt>
      <trkpt lat="46.18024" lon="4.68171">
        <ele>329</ele>
        <time>2016-11-03T12:48:29Z</time>
      </trkpt>
      <trkpt lat="46.18023" lon="4.6817">
        <ele>329</ele>
        <time>2016-11-03T12:48:30Z</time>
      </trkpt>
      <trkpt lat="46.18015" lon="4.68164">
        <ele>332</ele>
        <time>2016-11-03T12:48:37Z</time>
      </trkpt>
      <trkpt lat="46.18015" lon="4.68164">
        <ele>332</ele>
        <time>2016-11-03T12:48:38Z</time>
      </trkpt>
      <trkpt lat="46.18007" lon="4.68157">
        <ele>332</ele>
        <time>2016-11-03T12:50:01Z</time>
      </trkpt>
      <trkpt lat="46.18006" lon="4.68156">
        <ele>332</ele>
        <time>2016-11-03T12:50:02Z</time>
      </trkpt>
      <trkpt lat="46.18" lon="4.68151">
        <ele>330</ele>
        <time>2016-11-03T12:50:08Z</time>
      </trkpt>
      <trkpt lat="46.17999" lon="4.6815">
        <ele>330</ele>
        <time>2016-11-03T12:50:09Z</time>
      </trkpt>
      <trkpt lat="46.17991" lon="4.68142">
        <ele>330</ele>
        <time>2016-11-03T12:50:16Z</time>
      </trkpt>
      <trkpt lat="46.1799" lon="4.68141">
        <ele>330</ele>
        <time>2016-11-03T12:50:17Z</time>
      </trkpt>
      <trkpt lat="46.17983" lon="4.68134">
        <ele>330</ele>
        <time>2016-11-03T12:50:23Z</time>
      </trkpt>
      <trkpt lat="46.17982" lon="4.68133">
        <ele>330</ele>
        <time>2016-11-03T12:50:24Z</time>
      </trkpt>
      <trkpt lat="46.17974" lon="4.68128">
        <ele>330</ele>
        <time>2016-11-03T12:50:30Z</time>
      </trkpt>
      <trkpt lat="46.17973" lon="4.68128">
        <ele>330</ele>
        <time>2016-11-03T12:50:31Z</time>
      </trkpt>
      <trkpt lat="46.17964" lon="4.68126">
        <ele>330</ele>
        <time>2016-11-03T12:50:37Z</time>
      </trkpt>
      <trkpt lat="46.17963" lon="4.68126">
        <ele>330</ele>
        <time>2016-11-03T12:50:38Z</time>
      </trkpt>
      <trkpt lat="46.17954" lon="4.68123">
        <ele>330</ele>
        <time>2016-11-03T12:50:44Z</time>
      </trkpt>
      <trkpt lat="46.17953" lon="4.68122">
        <ele>330</ele>
        <time>2016-11-03T12:50:45Z</time>
      </trkpt>
      <trkpt lat="46.17945" lon="4.68117">
        <ele>330</ele>
        <time>2016-11-03T12:50:52Z</time>
      </trkpt>
      <trkpt lat="46.17944" lon="4.68116">
        <ele>330</ele>
        <time>2016-11-03T12:50:53Z</time>
      </trkpt>
      <trkpt lat="46.17937" lon="4.6811">
        <ele>330</ele>
        <time>2016-11-03T12:50:58Z</time>
      </trkpt>
      <trkpt lat="46.17936" lon="4.68109">
        <ele>330</ele>
        <time>2016-11-03T12:50:59Z</time>
      </trkpt>
      <trkpt lat="46.17928" lon="4.68106">
        <ele>330</ele>
        <time>2016-11-03T12:51:05Z</time>
      </trkpt>
      <trkpt lat="46.17926" lon="4.68106">
        <ele>330</ele>
        <time>2016-11-03T12:51:06Z</time>
      </trkpt>
      <trkpt lat="46.17918" lon="4.68107">
        <ele>330</ele>
        <time>2016-11-03T12:51:12Z</time>
      </trkpt>
      <trkpt lat="46.17917" lon="4.68107">
        <ele>329</ele>
        <time>2016-11-03T12:51:13Z</time>
      </trkpt>
      <trkpt lat="46.1791" lon="4.68112">
        <ele>327</ele>
        <time>2016-11-03T12:51:20Z</time>
      </trkpt>
      <trkpt lat="46.17909" lon="4.68113">
        <ele>327</ele>
        <time>2016-11-03T12:51:21Z</time>
      </trkpt>
      <trkpt lat="46.17908" lon="4.68125">
        <ele>326</ele>
        <time>2016-11-03T12:51:59Z</time>
      </trkpt>
      <trkpt lat="46.17908" lon="4.68126">
        <ele>326</ele>
        <time>2016-11-03T12:52:00Z</time>
      </trkpt>
      <trkpt lat="46.17908" lon="4.68139">
        <ele>325</ele>
        <time>2016-11-03T12:52:08Z</time>
      </trkpt>
      <trkpt lat="46.17909" lon="4.68141">
        <ele>325</ele>
        <time>2016-11-03T12:52:09Z</time>
      </trkpt>
      <trkpt lat="46.17909" lon="4.68153">
        <ele>325</ele>
        <time>2016-11-03T12:52:16Z</time>
      </trkpt>
      <trkpt lat="46.17909" lon="4.68155">
        <ele>325</ele>
        <time>2016-11-03T12:52:17Z</time>
      </trkpt>
      <trkpt lat="46.1791" lon="4.68167">
        <ele>323</ele>
        <time>2016-11-03T12:52:24Z</time>
      </trkpt>
      <trkpt lat="46.1791" lon="4.68169">
        <ele>323</ele>
        <time>2016-11-03T12:52:25Z</time>
      </trkpt>
      <trkpt lat="46.1791" lon="4.68181">
        <ele>322</ele>
        <time>2016-11-03T12:52:33Z</time>
      </trkpt>
      <trkpt lat="46.1791" lon="4.68183">
        <ele>322</ele>
        <time>2016-11-03T12:52:34Z</time>
      </trkpt>
      <trkpt lat="46.1791" lon="4.68195">
        <ele>321</ele>
        <time>2016-11-03T12:52:41Z</time>
      </trkpt>
      <trkpt lat="46.17909" lon="4.68197">
        <ele>321</ele>
        <time>2016-11-03T12:52:42Z</time>
      </trkpt>
      <trkpt lat="46.17908" lon="4.68208">
        <ele>320</ele>
        <time>2016-11-03T12:52:48Z</time>
      </trkpt>
      <trkpt lat="46.17908" lon="4.6821">
        <ele>320</ele>
        <time>2016-11-03T12:52:49Z</time>
      </trkpt>
      <trkpt lat="46.17907" lon="4.68221">
        <ele>319</ele>
        <time>2016-11-03T12:52:56Z</time>
      </trkpt>
      <trkpt lat="46.17907" lon="4.68223">
        <ele>319</ele>
        <time>2016-11-03T12:52:57Z</time>
      </trkpt>
      <trkpt lat="46.17907" lon="4.68234">
        <ele>319</ele>
        <time>2016-11-03T12:53:04Z</time>
      </trkpt>
      <trkpt lat="46.17907" lon="4.68236">
        <ele>319</ele>
        <time>2016-11-03T12:53:05Z</time>
      </trkpt>
      <trkpt lat="46.17907" lon="4.68248">
        <ele>318</ele>
        <time>2016-11-03T12:53:12Z</time>
      </trkpt>
      <trkpt lat="46.17907" lon="4.6825">
        <ele>318</ele>
        <time>2016-11-03T12:53:13Z</time>
      </trkpt>
      <trkpt lat="46.17907" lon="4.68262">
        <ele>316</ele>
        <time>2016-11-03T12:53:21Z</time>
      </trkpt>
      <trkpt lat="46.17907" lon="4.68264">
        <ele>316</ele>
        <time>2016-11-03T12:53:22Z</time>
      </trkpt>
      <trkpt lat="46.17899" lon="4.6827">
        <ele>315</ele>
        <time>2016-11-03T12:53:32Z</time>
      </trkpt>
      <trkpt lat="46.17898" lon="4.6827">
        <ele>315</ele>
        <time>2016-11-03T12:53:33Z</time>
      </trkpt>
      <trkpt lat="46.1789" lon="4.68265">
        <ele>315</ele>
        <time>2016-11-03T12:53:40Z</time>
      </trkpt>
      <trkpt lat="46.17889" lon="4.68264">
        <ele>315</ele>
        <time>2016-11-03T12:53:41Z</time>
      </trkpt>
      <trkpt lat="46.17881" lon="4.6826">
        <ele>315</ele>
        <time>2016-11-03T12:53:48Z</time>
      </trkpt>
      <trkpt lat="46.1788" lon="4.68259">
        <ele>315</ele>
        <time>2016-11-03T12:53:49Z</time>
      </trkpt>
      <trkpt lat="46.17873" lon="4.68254">
        <ele>315</ele>
        <time>2016-11-03T12:53:56Z</time>
      </trkpt>
      <trkpt lat="46.17872" lon="4.68253">
        <ele>315</ele>
        <time>2016-11-03T12:53:57Z</time>
      </trkpt>
      <trkpt lat="46.17864" lon="4.68249">
        <ele>318</ele>
        <time>2016-11-03T12:54:04Z</time>
      </trkpt>
      <trkpt lat="46.17862" lon="4.68248">
        <ele>317</ele>
        <time>2016-11-03T12:54:05Z</time>
      </trkpt>
      <trkpt lat="46.17855" lon="4.68244">
        <ele>317</ele>
        <time>2016-11-03T12:54:12Z</time>
      </trkpt>
      <trkpt lat="46.17854" lon="4.68244">
        <ele>317</ele>
        <time>2016-11-03T12:54:13Z</time>
      </trkpt>
      <trkpt lat="46.17845" lon="4.68241">
        <ele>316</ele>
        <time>2016-11-03T12:54:22Z</time>
      </trkpt>
      <trkpt lat="46.17844" lon="4.6824">
        <ele>316</ele>
        <time>2016-11-03T12:54:23Z</time>
      </trkpt>
      <trkpt lat="46.17835" lon="4.6824">
        <ele>316</ele>
        <time>2016-11-03T12:54:29Z</time>
      </trkpt>
      <trkpt lat="46.17834" lon="4.68241">
        <ele>316</ele>
        <time>2016-11-03T12:54:30Z</time>
      </trkpt>
      <trkpt lat="46.17825" lon="4.68239">
        <ele>315</ele>
        <time>2016-11-03T12:54:36Z</time>
      </trkpt>
      <trkpt lat="46.17824" lon="4.68238">
        <ele>315</ele>
        <time>2016-11-03T12:54:37Z</time>
      </trkpt>
      <trkpt lat="46.17816" lon="4.68234">
        <ele>316</ele>
        <time>2016-11-03T12:54:44Z</time>
      </trkpt>
      <trkpt lat="46.17814" lon="4.68234">
        <ele>316</ele>
        <time>2016-11-03T12:54:45Z</time>
      </trkpt>
      <trkpt lat="46.17808" lon="4.68228">
        <ele>316</ele>
        <time>2016-11-03T12:54:51Z</time>
      </trkpt>
      <trkpt lat="46.17806" lon="4.68228">
        <ele>316</ele>
        <time>2016-11-03T12:54:52Z</time>
      </trkpt>
      <trkpt lat="46.178" lon="4.68222">
        <ele>316</ele>
        <time>2016-11-03T12:54:58Z</time>
      </trkpt>
      <trkpt lat="46.17799" lon="4.68221">
        <ele>316</ele>
        <time>2016-11-03T12:54:59Z</time>
      </trkpt>
      <trkpt lat="46.17791" lon="4.68216">
        <ele>316</ele>
        <time>2016-11-03T12:55:05Z</time>
      </trkpt>
      <trkpt lat="46.1779" lon="4.68215">
        <ele>316</ele>
        <time>2016-11-03T12:55:06Z</time>
      </trkpt>
      <trkpt lat="46.17782" lon="4.6821">
        <ele>316</ele>
        <time>2016-11-03T12:55:13Z</time>
      </trkpt>
      <trkpt lat="46.17781" lon="4.68209">
        <ele>316</ele>
        <time>2016-11-03T12:55:14Z</time>
      </trkpt>
      <trkpt lat="46.17773" lon="4.68205">
        <ele>316</ele>
        <time>2016-11-03T12:55:23Z</time>
      </trkpt>
      <trkpt lat="46.17772" lon="4.68204">
        <ele>316</ele>
        <time>2016-11-03T12:55:24Z</time>
      </trkpt>
      <trkpt lat="46.17765" lon="4.68197">
        <ele>317</ele>
        <time>2016-11-03T12:55:34Z</time>
      </trkpt>
      <trkpt lat="46.17764" lon="4.68195">
        <ele>317</ele>
        <time>2016-11-03T12:55:35Z</time>
      </trkpt>
      <trkpt lat="46.17762" lon="4.68184">
        <ele>317</ele>
        <time>2016-11-03T12:55:41Z</time>
      </trkpt>
      <trkpt lat="46.17761" lon="4.68183">
        <ele>317</ele>
        <time>2016-11-03T12:55:42Z</time>
      </trkpt>
      <trkpt lat="46.17752" lon="4.68182">
        <ele>317</ele>
        <time>2016-11-03T12:55:50Z</time>
      </trkpt>
      <trkpt lat="46.17751" lon="4.68182">
        <ele>317</ele>
        <time>2016-11-03T12:55:51Z</time>
      </trkpt>
      <trkpt lat="46.17742" lon="4.68185">
        <ele>316</ele>
        <time>2016-11-03T12:55:59Z</time>
      </trkpt>
      <trkpt lat="46.17741" lon="4.68185">
        <ele>316</ele>
        <time>2016-11-03T12:56:00Z</time>
      </trkpt>
      <trkpt lat="46.17733" lon="4.68182">
        <ele>315</ele>
        <time>2016-11-03T12:56:09Z</time>
      </trkpt>
      <trkpt lat="46.17732" lon="4.68182">
        <ele>315</ele>
        <time>2016-11-03T12:56:10Z</time>
      </trkpt>
      <trkpt lat="46.17723" lon="4.6818">
        <ele>315</ele>
        <time>2016-11-03T12:56:23Z</time>
      </trkpt>
      <trkpt lat="46.17722" lon="4.68179">
        <ele>315</ele>
        <time>2016-11-03T12:56:24Z</time>
      </trkpt>
      <trkpt lat="46.17714" lon="4.68176">
        <ele>315</ele>
        <time>2016-11-03T12:56:36Z</time>
      </trkpt>
      <trkpt lat="46.17713" lon="4.68176">
        <ele>315</ele>
        <time>2016-11-03T12:56:37Z</time>
      </trkpt>
      <trkpt lat="46.17705" lon="4.68179">
        <ele>314</ele>
        <time>2016-11-03T12:56:53Z</time>
      </trkpt>
      <trkpt lat="46.17704" lon="4.6818">
        <ele>314</ele>
        <time>2016-11-03T12:56:54Z</time>
      </trkpt>
      <trkpt lat="46.17696" lon="4.68177">
        <ele>314</ele>
        <time>2016-11-03T12:57:08Z</time>
      </trkpt>
      <trkpt lat="46.17695" lon="4.68175">
        <ele>314</ele>
        <time>2016-11-03T12:57:09Z</time>
      </trkpt>
      <trkpt lat="46.17691" lon="4.68165">
        <ele>316</ele>
        <time>2016-11-03T12:57:16Z</time>
      </trkpt>
      <trkpt lat="46.17691" lon="4.68163">
        <ele>316</ele>
        <time>2016-11-03T12:57:17Z</time>
      </trkpt>
      <trkpt lat="46.17688" lon="4.68153">
        <ele>316</ele>
        <time>2016-11-03T12:57:23Z</time>
      </trkpt>
      <trkpt lat="46.17687" lon="4.68151">
        <ele>316</ele>
        <time>2016-11-03T12:57:24Z</time>
      </trkpt>
      <trkpt lat="46.17683" lon="4.68141">
        <ele>316</ele>
        <time>2016-11-03T12:57:31Z</time>
      </trkpt>
      <trkpt lat="46.17683" lon="4.68139">
        <ele>316</ele>
        <time>2016-11-03T12:57:32Z</time>
      </trkpt>
      <trkpt lat="46.17679" lon="4.6813">
        <ele>317</ele>
        <time>2016-11-03T12:57:39Z</time>
      </trkpt>
      <trkpt lat="46.17678" lon="4.68128">
        <ele>317</ele>
        <time>2016-11-03T12:57:40Z</time>
      </trkpt>
      <trkpt lat="46.17674" lon="4.68117">
        <ele>317</ele>
        <time>2016-11-03T12:57:47Z</time>
      </trkpt>
      <trkpt lat="46.17673" lon="4.68115">
        <ele>317</ele>
        <time>2016-11-03T12:57:48Z</time>
      </trkpt>
      <trkpt lat="46.1767" lon="4.68104">
        <ele>317</ele>
        <time>2016-11-03T12:57:54Z</time>
      </trkpt>
      <trkpt lat="46.1767" lon="4.68102">
        <ele>317</ele>
        <time>2016-11-03T12:57:55Z</time>
      </trkpt>
      <trkpt lat="46.17666" lon="4.6809">
        <ele>316</ele>
        <time>2016-11-03T12:58:02Z</time>
      </trkpt>
      <trkpt lat="46.17666" lon="4.68088">
        <ele>316</ele>
        <time>2016-11-03T12:58:03Z</time>
      </trkpt>
      <trkpt lat="46.17662" lon="4.68077">
        <ele>316</ele>
        <time>2016-11-03T12:58:09Z</time>
      </trkpt>
      <trkpt lat="46.17662" lon="4.68076">
        <ele>316</ele>
        <time>2016-11-03T12:58:10Z</time>
      </trkpt>
      <trkpt lat="46.17658" lon="4.68065">
        <ele>316</ele>
        <time>2016-11-03T12:58:17Z</time>
      </trkpt>
      <trkpt lat="46.17658" lon="4.68063">
        <ele>316</ele>
        <time>2016-11-03T12:58:18Z</time>
      </trkpt>
      <trkpt lat="46.17655" lon="4.68053">
        <ele>316</ele>
        <time>2016-11-03T12:58:24Z</time>
      </trkpt>
      <trkpt lat="46.17655" lon="4.68051">
        <ele>316</ele>
        <time>2016-11-03T12:58:25Z</time>
      </trkpt>
      <trkpt lat="46.17653" lon="4.6804">
        <ele>316</ele>
        <time>2016-11-03T12:58:31Z</time>
      </trkpt>
      <trkpt lat="46.17652" lon="4.68038">
        <ele>316</ele>
        <time>2016-11-03T12:58:32Z</time>
      </trkpt>
      <trkpt lat="46.17647" lon="4.68028">
        <ele>316</ele>
        <time>2016-11-03T12:59:14Z</time>
      </trkpt>
      <trkpt lat="46.17647" lon="4.68027">
        <ele>316</ele>
        <time>2016-11-03T12:59:15Z</time>
      </trkpt>
      <trkpt lat="46.17642" lon="4.68017">
        <ele>316</ele>
        <time>2016-11-03T12:59:25Z</time>
      </trkpt>
      <trkpt lat="46.17641" lon="4.68016">
        <ele>316</ele>
        <time>2016-11-03T12:59:26Z</time>
      </trkpt>
      <trkpt lat="46.17634" lon="4.68011">
        <ele>316</ele>
        <time>2016-11-03T12:59:42Z</time>
      </trkpt>
      <trkpt lat="46.17633" lon="4.68011">
        <ele>316</ele>
        <time>2016-11-03T12:59:43Z</time>
      </trkpt>
      <trkpt lat="46.17624" lon="4.68006">
        <ele>315</ele>
        <time>2016-11-03T12:59:50Z</time>
      </trkpt>
      <trkpt lat="46.17623" lon="4.68006">
        <ele>315</ele>
        <time>2016-11-03T12:59:51Z</time>
      </trkpt>
      <trkpt lat="46.17615" lon="4.68001">
        <ele>315</ele>
        <time>2016-11-03T12:59:58Z</time>
      </trkpt>
      <trkpt lat="46.17614" lon="4.68001">
        <ele>315</ele>
        <time>2016-11-03T12:59:59Z</time>
      </trkpt>
      <trkpt lat="46.17605" lon="4.67997">
        <ele>315</ele>
        <time>2016-11-03T13:00:06Z</time>
      </trkpt>
      <trkpt lat="46.17604" lon="4.67997">
        <ele>314</ele>
        <time>2016-11-03T13:00:07Z</time>
      </trkpt>
      <trkpt lat="46.17596" lon="4.67994">
        <ele>314</ele>
        <time>2016-11-03T13:00:13Z</time>
      </trkpt>
      <trkpt lat="46.17594" lon="4.67994">
        <ele>314</ele>
        <time>2016-11-03T13:00:14Z</time>
      </trkpt>
      <trkpt lat="46.17586" lon="4.67993">
        <ele>314</ele>
        <time>2016-11-03T13:00:20Z</time>
      </trkpt>
      <trkpt lat="46.17584" lon="4.67993">
        <ele>314</ele>
        <time>2016-11-03T13:00:21Z</time>
      </trkpt>
      <trkpt lat="46.17577" lon="4.67993">
        <ele>312</ele>
        <time>2016-11-03T13:00:26Z</time>
      </trkpt>
      <trkpt lat="46.17575" lon="4.67993">
        <ele>312</ele>
        <time>2016-11-03T13:00:27Z</time>
      </trkpt>
      <trkpt lat="46.17566" lon="4.67992">
        <ele>311</ele>
        <time>2016-11-03T13:00:33Z</time>
      </trkpt>
      <trkpt lat="46.17565" lon="4.67992">
        <ele>311</ele>
        <time>2016-11-03T13:00:34Z</time>
      </trkpt>
      <trkpt lat="46.17557" lon="4.67989">
        <ele>310</ele>
        <time>2016-11-03T13:00:41Z</time>
      </trkpt>
      <trkpt lat="46.17556" lon="4.67988">
        <ele>310</ele>
        <time>2016-11-03T13:00:42Z</time>
      </trkpt>
      <trkpt lat="46.17549" lon="4.67981">
        <ele>309</ele>
        <time>2016-11-03T13:00:49Z</time>
      </trkpt>
      <trkpt lat="46.17547" lon="4.6798">
        <ele>309</ele>
        <time>2016-11-03T13:00:50Z</time>
      </trkpt>
      <trkpt lat="46.17539" lon="4.67975">
        <ele>309</ele>
        <time>2016-11-03T13:00:57Z</time>
      </trkpt>
      <trkpt lat="46.17538" lon="4.67975">
        <ele>309</ele>
        <time>2016-11-03T13:00:58Z</time>
      </trkpt>
      <trkpt lat="46.1753" lon="4.67969">
        <ele>308</ele>
        <time>2016-11-03T13:01:05Z</time>
      </trkpt>
      <trkpt lat="46.17529" lon="4.67968">
        <ele>308</ele>
        <time>2016-11-03T13:01:06Z</time>
      </trkpt>
      <trkpt lat="46.17522" lon="4.67961">
        <ele>308</ele>
        <time>2016-11-03T13:01:14Z</time>
      </trkpt>
      <trkpt lat="46.17521" lon="4.6796">
        <ele>308</ele>
        <time>2016-11-03T13:01:15Z</time>
      </trkpt>
      <trkpt lat="46.17517" lon="4.67949">
        <ele>308</ele>
        <time>2016-11-03T13:01:25Z</time>
      </trkpt>
      <trkpt lat="46.17517" lon="4.67948">
        <ele>308</ele>
        <time>2016-11-03T13:01:26Z</time>
      </trkpt>
      <trkpt lat="46.17515" lon="4.67936">
        <ele>307</ele>
        <time>2016-11-03T13:01:33Z</time>
      </trkpt>
      <trkpt lat="46.17516" lon="4.67934">
        <ele>307</ele>
        <time>2016-11-03T13:01:34Z</time>
      </trkpt>
      <trkpt lat="46.1752" lon="4.67923">
        <ele>307</ele>
        <time>2016-11-03T13:01:42Z</time>
      </trkpt>
      <trkpt lat="46.17521" lon="4.67922">
        <ele>307</ele>
        <time>2016-11-03T13:01:43Z</time>
      </trkpt>
      <trkpt lat="46.17526" lon="4.67912">
        <ele>304</ele>
        <time>2016-11-03T13:01:52Z</time>
      </trkpt>
      <trkpt lat="46.17527" lon="4.67911">
        <ele>304</ele>
        <time>2016-11-03T13:01:53Z</time>
      </trkpt>
      <trkpt lat="46.17533" lon="4.67904">
        <ele>304</ele>
        <time>2016-11-03T13:01:59Z</time>
      </trkpt>
      <trkpt lat="46.17534" lon="4.67903">
        <ele>304</ele>
        <time>2016-11-03T13:02:00Z</time>
      </trkpt>
      <trkpt lat="46.1754" lon="4.67896">
        <ele>304</ele>
        <time>2016-11-03T13:02:06Z</time>
      </trkpt>
      <trkpt lat="46.17541" lon="4.67894">
        <ele>304</ele>
        <time>2016-11-03T13:02:07Z</time>
      </trkpt>
      <trkpt lat="46.17547" lon="4.67885">
        <ele>303</ele>
        <time>2016-11-03T13:02:13Z</time>
      </trkpt>
      <trkpt lat="46.17548" lon="4.67884">
        <ele>303</ele>
        <time>2016-11-03T13:02:14Z</time>
      </trkpt>
      <trkpt lat="46.17554" lon="4.67874">
        <ele>303</ele>
        <time>2016-11-03T13:02:20Z</time>
      </trkpt>
      <trkpt lat="46.17555" lon="4.67873">
        <ele>303</ele>
        <time>2016-11-03T13:02:21Z</time>
      </trkpt>
      <trkpt lat="46.17561" lon="4.67864">
        <ele>303</ele>
        <time>2016-11-03T13:02:27Z</time>
      </trkpt>
      <trkpt lat="46.17561" lon="4.67863">
        <ele>303</ele>
        <time>2016-11-03T13:02:28Z</time>
      </trkpt>
      <trkpt lat="46.17567" lon="4.67853">
        <ele>302</ele>
        <time>2016-11-03T13:02:35Z</time>
      </trkpt>
      <trkpt lat="46.17567" lon="4.67851">
        <ele>302</ele>
        <time>2016-11-03T13:02:36Z</time>
      </trkpt>
      <trkpt lat="46.17572" lon="4.6784">
        <ele>302</ele>
        <time>2016-11-03T13:02:43Z</time>
      </trkpt>
      <trkpt lat="46.17573" lon="4.67839">
        <ele>302</ele>
        <time>2016-11-03T13:02:44Z</time>
      </trkpt>
      <trkpt lat="46.17576" lon="4.67828">
        <ele>300</ele>
        <time>2016-11-03T13:02:50Z</time>
      </trkpt>
      <trkpt lat="46.17576" lon="4.67827">
        <ele>299</ele>
        <time>2016-11-03T13:02:51Z</time>
      </trkpt>
      <trkpt lat="46.1758" lon="4.67816">
        <ele>298</ele>
        <time>2016-11-03T13:02:58Z</time>
      </trkpt>
      <trkpt lat="46.1758" lon="4.67815">
        <ele>298</ele>
        <time>2016-11-03T13:02:59Z</time>
      </trkpt>
      <trkpt lat="46.17584" lon="4.67804">
        <ele>302</ele>
        <time>2016-11-03T13:03:07Z</time>
      </trkpt>
      <trkpt lat="46.17585" lon="4.67802">
        <ele>302</ele>
        <time>2016-11-03T13:03:08Z</time>
      </trkpt>
      <trkpt lat="46.1759" lon="4.67792">
        <ele>302</ele>
        <time>2016-11-03T13:03:14Z</time>
      </trkpt>
      <trkpt lat="46.1759" lon="4.6779">
        <ele>302</ele>
        <time>2016-11-03T13:03:15Z</time>
      </trkpt>
      <trkpt lat="46.17592" lon="4.67777">
        <ele>301</ele>
        <time>2016-11-03T13:04:02Z</time>
      </trkpt>
      <trkpt lat="46.17592" lon="4.67776">
        <ele>301</ele>
        <time>2016-11-03T13:04:03Z</time>
      </trkpt>
      <trkpt lat="46.17585" lon="4.67785">
        <ele>301</ele>
        <time>2016-11-03T13:04:41Z</time>
      </trkpt>
      <trkpt lat="46.17585" lon="4.67785">
        <ele>301</ele>
        <time>2016-11-03T13:04:42Z</time>
      </trkpt>
      <trkpt lat="46.17576" lon="4.67785">
        <ele>295</ele>
        <time>2016-11-03T13:05:02Z</time>
      </trkpt>
      <trkpt lat="46.17575" lon="4.67785">
        <ele>295</ele>
        <time>2016-11-03T13:05:03Z</time>
      </trkpt>
      <trkpt lat="46.17568" lon="4.6779">
        <ele>295</ele>
        <time>2016-11-03T13:05:10Z</time>
      </trkpt>
      <trkpt lat="46.17567" lon="4.6779">
        <ele>295</ele>
        <time>2016-11-03T13:05:11Z</time>
      </trkpt>
      <trkpt lat="46.17558" lon="4.67792">
        <ele>295</ele>
        <time>2016-11-03T13:05:18Z</time>
      </trkpt>
      <trkpt lat="46.17557" lon="4.67793">
        <ele>295</ele>
        <time>2016-11-03T13:05:19Z</time>
      </trkpt>
      <trkpt lat="46.17549" lon="4.67794">
        <ele>294</ele>
        <time>2016-11-03T13:05:26Z</time>
      </trkpt>
      <trkpt lat="46.17547" lon="4.67794">
        <ele>294</ele>
        <time>2016-11-03T13:05:27Z</time>
      </trkpt>
      <trkpt lat="46.1754" lon="4.67796">
        <ele>294</ele>
        <time>2016-11-03T13:05:33Z</time>
      </trkpt>
      <trkpt lat="46.17538" lon="4.67796">
        <ele>294</ele>
        <time>2016-11-03T13:05:34Z</time>
      </trkpt>
      <trkpt lat="46.1753" lon="4.67797">
        <ele>293</ele>
        <time>2016-11-03T13:05:40Z</time>
      </trkpt>
      <trkpt lat="46.17529" lon="4.67797">
        <ele>293</ele>
        <time>2016-11-03T13:05:41Z</time>
      </trkpt>
      <trkpt lat="46.17521" lon="4.67797">
        <ele>293</ele>
        <time>2016-11-03T13:05:47Z</time>
      </trkpt>
      <trkpt lat="46.1752" lon="4.67797">
        <ele>293</ele>
        <time>2016-11-03T13:05:48Z</time>
      </trkpt>
      <trkpt lat="46.17512" lon="4.67799">
        <ele>292</ele>
        <time>2016-11-03T13:05:54Z</time>
      </trkpt>
      <trkpt lat="46.17511" lon="4.67799">
        <ele>292</ele>
        <time>2016-11-03T13:05:55Z</time>
      </trkpt>
      <trkpt lat="46.17503" lon="4.67803">
        <ele>292</ele>
        <time>2016-11-03T13:06:01Z</time>
      </trkpt>
      <trkpt lat="46.17501" lon="4.67803">
        <ele>292</ele>
        <time>2016-11-03T13:06:02Z</time>
      </trkpt>
      <trkpt lat="46.17493" lon="4.67804">
        <ele>286</ele>
        <time>2016-11-03T13:06:08Z</time>
      </trkpt>
      <trkpt lat="46.17492" lon="4.67805">
        <ele>286</ele>
        <time>2016-11-03T13:06:09Z</time>
      </trkpt>
      <trkpt lat="46.17484" lon="4.67807">
        <ele>286</ele>
        <time>2016-11-03T13:06:15Z</time>
      </trkpt>
      <trkpt lat="46.17483" lon="4.67807">
        <ele>286</ele>
        <time>2016-11-03T13:06:16Z</time>
      </trkpt>
      <trkpt lat="46.17475" lon="4.67811">
        <ele>286</ele>
        <time>2016-11-03T13:06:23Z</time>
      </trkpt>
      <trkpt lat="46.17473" lon="4.67811">
        <ele>285</ele>
        <time>2016-11-03T13:06:24Z</time>
      </trkpt>
      <trkpt lat="46.17466" lon="4.67814">
        <ele>285</ele>
        <time>2016-11-03T13:06:30Z</time>
      </trkpt>
      <trkpt lat="46.17464" lon="4.67815">
        <ele>285</ele>
        <time>2016-11-03T13:06:31Z</time>
      </trkpt>
      <trkpt lat="46.17456" lon="4.67819">
        <ele>284</ele>
        <time>2016-11-03T13:06:37Z</time>
      </trkpt>
      <trkpt lat="46.17455" lon="4.6782">
        <ele>284</ele>
        <time>2016-11-03T13:06:38Z</time>
      </trkpt>
      <trkpt lat="46.17446" lon="4.67825">
        <ele>284</ele>
        <time>2016-11-03T13:06:44Z</time>
      </trkpt>
      <trkpt lat="46.17445" lon="4.67826">
        <ele>284</ele>
        <time>2016-11-03T13:06:45Z</time>
      </trkpt>
      <trkpt lat="46.17437" lon="4.67831">
        <ele>283</ele>
        <time>2016-11-03T13:06:51Z</time>
      </trkpt>
      <trkpt lat="46.17436" lon="4.67832">
        <ele>283</ele>
        <time>2016-11-03T13:06:52Z</time>
      </trkpt>
      <trkpt lat="46.17429" lon="4.67839">
        <ele>286</ele>
        <time>2016-11-03T13:06:58Z</time>
      </trkpt>
      <trkpt lat="46.17428" lon="4.6784">
        <ele>286</ele>
        <time>2016-11-03T13:06:59Z</time>
      </trkpt>
      <trkpt lat="46.1742" lon="4.67846">
        <ele>286</ele>
        <time>2016-11-03T13:07:06Z</time>
      </trkpt>
      <trkpt lat="46.17419" lon="4.67846">
        <ele>286</ele>
        <time>2016-11-03T13:07:07Z</time>
      </trkpt>
      <trkpt lat="46.17411" lon="4.67848">
        <ele>282</ele>
        <time>2016-11-03T13:07:14Z</time>
      </trkpt>
      <trkpt lat="46.1741" lon="4.67848">
        <ele>282</ele>
        <time>2016-11-03T13:07:15Z</time>
      </trkpt>
      <trkpt lat="46.17401" lon="4.6785">
        <ele>282</ele>
        <time>2016-11-03T13:07:21Z</time>
      </trkpt>
      <trkpt lat="46.17399" lon="4.6785">
        <ele>282</ele>
        <time>2016-11-03T13:07:22Z</time>
      </trkpt>
      <trkpt lat="46.17392" lon="4.67854">
        <ele>281</ele>
        <time>2016-11-03T13:07:28Z</time>
      </trkpt>
      <trkpt lat="46.17391" lon="4.67855">
        <ele>281</ele>
        <time>2016-11-03T13:07:29Z</time>
      </trkpt>
      <trkpt lat="46.17384" lon="4.67859">
        <ele>281</ele>
        <time>2016-11-03T13:07:34Z</time>
      </trkpt>
      <trkpt lat="46.17383" lon="4.6786">
        <ele>281</ele>
        <time>2016-11-03T13:07:35Z</time>
      </trkpt>
      <trkpt lat="46.17376" lon="4.67866">
        <ele>281</ele>
        <time>2016-11-03T13:07:41Z</time>
      </trkpt>
      <trkpt lat="46.17375" lon="4.67867">
        <ele>281</ele>
        <time>2016-11-03T13:07:42Z</time>
      </trkpt>
      <trkpt lat="46.17368" lon="4.67875">
        <ele>281</ele>
        <time>2016-11-03T13:07:49Z</time>
      </trkpt>
      <trkpt lat="46.17367" lon="4.67876">
        <ele>281</ele>
        <time>2016-11-03T13:07:50Z</time>
      </trkpt>
      <trkpt lat="46.17361" lon="4.67884">
        <ele>281</ele>
        <time>2016-11-03T13:07:56Z</time>
      </trkpt>
      <trkpt lat="46.17359" lon="4.67885">
        <ele>281</ele>
        <time>2016-11-03T13:07:57Z</time>
      </trkpt>
      <trkpt lat="46.17352" lon="4.67889">
        <ele>281</ele>
        <time>2016-11-03T13:08:03Z</time>
      </trkpt>
      <trkpt lat="46.17351" lon="4.67889">
        <ele>281</ele>
        <time>2016-11-03T13:08:04Z</time>
      </trkpt>
      <trkpt lat="46.17342" lon="4.67893">
        <ele>280</ele>
        <time>2016-11-03T13:08:10Z</time>
      </trkpt>
      <trkpt lat="46.17341" lon="4.67893">
        <ele>280</ele>
        <time>2016-11-03T13:08:11Z</time>
      </trkpt>
      <trkpt lat="46.17333" lon="4.67896">
        <ele>275</ele>
        <time>2016-11-03T13:08:17Z</time>
      </trkpt>
      <trkpt lat="46.17332" lon="4.67897">
        <ele>275</ele>
        <time>2016-11-03T13:08:18Z</time>
      </trkpt>
      <trkpt lat="46.17324" lon="4.67901">
        <ele>276</ele>
        <time>2016-11-03T13:08:25Z</time>
      </trkpt>
      <trkpt lat="46.17323" lon="4.67901">
        <ele>275</ele>
        <time>2016-11-03T13:08:26Z</time>
      </trkpt>
      <trkpt lat="46.17314" lon="4.67905">
        <ele>275</ele>
        <time>2016-11-03T13:08:34Z</time>
      </trkpt>
      <trkpt lat="46.17313" lon="4.67905">
        <ele>275</ele>
        <time>2016-11-03T13:08:35Z</time>
      </trkpt>
      <trkpt lat="46.17305" lon="4.67905">
        <ele>274</ele>
        <time>2016-11-03T13:08:42Z</time>
      </trkpt>
      <trkpt lat="46.17303" lon="4.67904">
        <ele>273</ele>
        <time>2016-11-03T13:08:43Z</time>
      </trkpt>
      <trkpt lat="46.17295" lon="4.67905">
        <ele>272</ele>
        <time>2016-11-03T13:08:50Z</time>
      </trkpt>
      <trkpt lat="46.17294" lon="4.67906">
        <ele>272</ele>
        <time>2016-11-03T13:08:51Z</time>
      </trkpt>
      <trkpt lat="46.17287" lon="4.6791">
        <ele>272</ele>
        <time>2016-11-03T13:08:57Z</time>
      </trkpt>
      <trkpt lat="46.17285" lon="4.67911">
        <ele>272</ele>
        <time>2016-11-03T13:08:58Z</time>
      </trkpt>
      <trkpt lat="46.17278" lon="4.67916">
        <ele>271</ele>
        <time>2016-11-03T13:09:03Z</time>
      </trkpt>
      <trkpt lat="46.17277" lon="4.67917">
        <ele>273</ele>
        <time>2016-11-03T13:09:04Z</time>
      </trkpt>
      <trkpt lat="46.17269" lon="4.67924">
        <ele>272</ele>
        <time>2016-11-03T13:09:11Z</time>
      </trkpt>
      <trkpt lat="46.17268" lon="4.67925">
        <ele>272</ele>
        <time>2016-11-03T13:09:12Z</time>
      </trkpt>
      <trkpt lat="46.17261" lon="4.67932">
        <ele>271</ele>
        <time>2016-11-03T13:09:19Z</time>
      </trkpt>
      <trkpt lat="46.1726" lon="4.67933">
        <ele>271</ele>
        <time>2016-11-03T13:09:20Z</time>
      </trkpt>
      <trkpt lat="46.17256" lon="4.67944">
        <ele>272</ele>
        <time>2016-11-03T13:09:42Z</time>
      </trkpt>
      <trkpt lat="46.17255" lon="4.67945">
        <ele>272</ele>
        <time>2016-11-03T13:09:43Z</time>
      </trkpt>
      <trkpt lat="46.1725" lon="4.67955">
        <ele>273</ele>
        <time>2016-11-03T13:09:49Z</time>
      </trkpt>
      <trkpt lat="46.17249" lon="4.67957">
        <ele>266</ele>
        <time>2016-11-03T13:09:50Z</time>
      </trkpt>
      <trkpt lat="46.17243" lon="4.67965">
        <ele>266</ele>
        <time>2016-11-03T13:09:56Z</time>
      </trkpt>
      <trkpt lat="46.17242" lon="4.67966">
        <ele>266</ele>
        <time>2016-11-03T13:09:57Z</time>
      </trkpt>
      <trkpt lat="46.17236" lon="4.67973">
        <ele>266</ele>
        <time>2016-11-03T13:10:03Z</time>
      </trkpt>
      <trkpt lat="46.17235" lon="4.67975">
        <ele>266</ele>
        <time>2016-11-03T13:10:04Z</time>
      </trkpt>
      <trkpt lat="46.17227" lon="4.67982">
        <ele>266</ele>
        <time>2016-11-03T13:10:11Z</time>
      </trkpt>
      <trkpt lat="46.17226" lon="4.67983">
        <ele>266</ele>
        <time>2016-11-03T13:10:12Z</time>
      </trkpt>
      <trkpt lat="46.17218" lon="4.67989">
        <ele>265</ele>
        <time>2016-11-03T13:10:19Z</time>
      </trkpt>
      <trkpt lat="46.17217" lon="4.6799">
        <ele>265</ele>
        <time>2016-11-03T13:10:20Z</time>
      </trkpt>
      <trkpt lat="46.17211" lon="4.67996">
        <ele>264</ele>
        <time>2016-11-03T13:10:26Z</time>
      </trkpt>
      <trkpt lat="46.1721" lon="4.67997">
        <ele>264</ele>
        <time>2016-11-03T13:10:27Z</time>
      </trkpt>
      <trkpt lat="46.17205" lon="4.68007">
        <ele>265</ele>
        <time>2016-11-03T13:10:33Z</time>
      </trkpt>
      <trkpt lat="46.17204" lon="4.68009">
        <ele>264</ele>
        <time>2016-11-03T13:10:34Z</time>
      </trkpt>
      <trkpt lat="46.172" lon="4.6802">
        <ele>264</ele>
        <time>2016-11-03T13:10:40Z</time>
      </trkpt>
      <trkpt lat="46.172" lon="4.68022">
        <ele>264</ele>
        <time>2016-11-03T13:10:41Z</time>
      </trkpt>
      <trkpt lat="46.17201" lon="4.68033">
        <ele>265</ele>
        <time>2016-11-03T13:10:48Z</time>
      </trkpt>
      <trkpt lat="46.17202" lon="4.68035">
        <ele>265</ele>
        <time>2016-11-03T13:10:49Z</time>
      </trkpt>
      <trkpt lat="46.17206" lon="4.68046">
        <ele>265</ele>
        <time>2016-11-03T13:10:57Z</time>
      </trkpt>
      <trkpt lat="46.17207" lon="4.68047">
        <ele>265</ele>
        <time>2016-11-03T13:10:58Z</time>
      </trkpt>
      <trkpt lat="46.17209" lon="4.68058">
        <ele>265</ele>
        <time>2016-11-03T13:11:06Z</time>
      </trkpt>
      <trkpt lat="46.17209" lon="4.6806">
        <ele>265</ele>
        <time>2016-11-03T13:11:07Z</time>
      </trkpt>
      <trkpt lat="46.17205" lon="4.68071">
        <ele>265</ele>
        <time>2016-11-03T13:11:15Z</time>
      </trkpt>
      <trkpt lat="46.17204" lon="4.68072">
        <ele>265</ele>
        <time>2016-11-03T13:11:16Z</time>
      </trkpt>
      <trkpt lat="46.17198" lon="4.68081">
        <ele>264</ele>
        <time>2016-11-03T13:11:24Z</time>
      </trkpt>
      <trkpt lat="46.17197" lon="4.68082">
        <ele>264</ele>
        <time>2016-11-03T13:11:25Z</time>
      </trkpt>
      <trkpt lat="46.17189" lon="4.68086">
        <ele>265</ele>
        <time>2016-11-03T13:11:33Z</time>
      </trkpt>
      <trkpt lat="46.17188" lon="4.68086">
        <ele>265</ele>
        <time>2016-11-03T13:11:34Z</time>
      </trkpt>
      <trkpt lat="46.1718" lon="4.68089">
        <ele>264</ele>
        <time>2016-11-03T13:11:41Z</time>
      </trkpt>
      <trkpt lat="46.17179" lon="4.68089">
        <ele>263</ele>
        <time>2016-11-03T13:11:42Z</time>
      </trkpt>
      <trkpt lat="46.17171" lon="4.68095">
        <ele>263</ele>
        <time>2016-11-03T13:11:50Z</time>
      </trkpt>
      <trkpt lat="46.1717" lon="4.68095">
        <ele>263</ele>
        <time>2016-11-03T13:11:51Z</time>
      </trkpt>
      <trkpt lat="46.17161" lon="4.68099">
        <ele>260</ele>
        <time>2016-11-03T13:11:59Z</time>
      </trkpt>
      <trkpt lat="46.17161" lon="4.681">
        <ele>260</ele>
        <time>2016-11-03T13:12:00Z</time>
      </trkpt>
      <trkpt lat="46.17152" lon="4.68102">
        <ele>260</ele>
        <time>2016-11-03T13:12:10Z</time>
      </trkpt>
      <trkpt lat="46.17151" lon="4.68101">
        <ele>260</ele>
        <time>2016-11-03T13:12:11Z</time>
      </trkpt>
      <trkpt lat="46.17144" lon="4.68099">
        <ele>260</ele>
        <time>2016-11-03T13:12:19Z</time>
      </trkpt>
      <trkpt lat="46.17143" lon="4.68098">
        <ele>260</ele>
        <time>2016-11-03T13:12:20Z</time>
      </trkpt>
      <trkpt lat="46.17135" lon="4.68096">
        <ele>260</ele>
        <time>2016-11-03T13:12:26Z</time>
      </trkpt>
      <trkpt lat="46.17133" lon="4.68095">
        <ele>260</ele>
        <time>2016-11-03T13:12:27Z</time>
      </trkpt>
      <trkpt lat="46.17125" lon="4.68094">
        <ele>260</ele>
        <time>2016-11-03T13:12:49Z</time>
      </trkpt>
      <trkpt lat="46.17124" lon="4.68094">
        <ele>260</ele>
        <time>2016-11-03T13:12:50Z</time>
      </trkpt>
      <trkpt lat="46.17116" lon="4.68096">
        <ele>259</ele>
        <time>2016-11-03T13:12:57Z</time>
      </trkpt>
      <trkpt lat="46.17114" lon="4.68097">
        <ele>259</ele>
        <time>2016-11-03T13:12:58Z</time>
      </trkpt>
      <trkpt lat="46.17106" lon="4.68097">
        <ele>259</ele>
        <time>2016-11-03T13:13:04Z</time>
      </trkpt>
      <trkpt lat="46.17104" lon="4.68097">
        <ele>259</ele>
        <time>2016-11-03T13:13:05Z</time>
      </trkpt>
      <trkpt lat="46.17096" lon="4.68098">
        <ele>259</ele>
        <time>2016-11-03T13:13:10Z</time>
      </trkpt>
      <trkpt lat="46.17094" lon="4.68098">
        <ele>259</ele>
        <time>2016-11-03T13:13:11Z</time>
      </trkpt>
      <trkpt lat="46.17086" lon="4.681">
        <ele>258</ele>
        <time>2016-11-03T13:13:16Z</time>
      </trkpt>
      <trkpt lat="46.17085" lon="4.681">
        <ele>258</ele>
        <time>2016-11-03T13:13:17Z</time>
      </trkpt>
      <trkpt lat="46.17076" lon="4.68101">
        <ele>258</ele>
        <time>2016-11-03T13:13:23Z</time>
      </trkpt>
      <trkpt lat="46.17075" lon="4.68102">
        <ele>258</ele>
        <time>2016-11-03T13:13:24Z</time>
      </trkpt>
      <trkpt lat="46.17067" lon="4.68104">
        <ele>259</ele>
        <time>2016-11-03T13:13:30Z</time>
      </trkpt>
      <trkpt lat="46.17066" lon="4.68105">
        <ele>259</ele>
        <time>2016-11-03T13:13:31Z</time>
      </trkpt>
      <trkpt lat="46.17058" lon="4.68109">
        <ele>259</ele>
        <time>2016-11-03T13:13:38Z</time>
      </trkpt>
      <trkpt lat="46.17057" lon="4.6811">
        <ele>259</ele>
        <time>2016-11-03T13:13:39Z</time>
      </trkpt>
      <trkpt lat="46.1705" lon="4.68116">
        <ele>259</ele>
        <time>2016-11-03T13:13:45Z</time>
      </trkpt>
      <trkpt lat="46.17048" lon="4.68117">
        <ele>259</ele>
        <time>2016-11-03T13:13:46Z</time>
      </trkpt>
      <trkpt lat="46.17041" lon="4.68122">
        <ele>259</ele>
        <time>2016-11-03T13:13:52Z</time>
      </trkpt>
      <trkpt lat="46.1704" lon="4.68123">
        <ele>259</ele>
        <time>2016-11-03T13:13:53Z</time>
      </trkpt>
      <trkpt lat="46.17033" lon="4.68127">
        <ele>259</ele>
        <time>2016-11-03T13:14:00Z</time>
      </trkpt>
      <trkpt lat="46.17031" lon="4.68128">
        <ele>259</ele>
        <time>2016-11-03T13:14:01Z</time>
      </trkpt>
      <trkpt lat="46.17024" lon="4.68131">
        <ele>259</ele>
        <time>2016-11-03T13:14:07Z</time>
      </trkpt>
      <trkpt lat="46.17023" lon="4.68132">
        <ele>259</ele>
        <time>2016-11-03T13:14:08Z</time>
      </trkpt>
      <trkpt lat="46.17015" lon="4.68137">
        <ele>259</ele>
        <time>2016-11-03T13:14:15Z</time>
      </trkpt>
      <trkpt lat="46.17014" lon="4.68138">
        <ele>259</ele>
        <time>2016-11-03T13:14:16Z</time>
      </trkpt>
      <trkpt lat="46.17006" lon="4.68145">
        <ele>259</ele>
        <time>2016-11-03T13:14:23Z</time>
      </trkpt>
      <trkpt lat="46.17005" lon="4.68146">
        <ele>259</ele>
        <time>2016-11-03T13:14:24Z</time>
      </trkpt>
      <trkpt lat="46.17" lon="4.68155">
        <ele>261</ele>
        <time>2016-11-03T13:14:31Z</time>
      </trkpt>
      <trkpt lat="46.16999" lon="4.68156">
        <ele>261</ele>
        <time>2016-11-03T13:14:32Z</time>
      </trkpt>
      <trkpt lat="46.16993" lon="4.68164">
        <ele>260</ele>
        <time>2016-11-03T13:14:39Z</time>
      </trkpt>
      <trkpt lat="46.16992" lon="4.68165">
        <ele>260</ele>
        <time>2016-11-03T13:14:40Z</time>
      </trkpt>
      <trkpt lat="46.16987" lon="4.68176">
        <ele>260</ele>
        <time>2016-11-03T13:14:47Z</time>
      </trkpt>
      <trkpt lat="46.16987" lon="4.68178">
        <ele>260</ele>
        <time>2016-11-03T13:14:48Z</time>
      </trkpt>
      <trkpt lat="46.16983" lon="4.68188">
        <ele>260</ele>
        <time>2016-11-03T13:14:54Z</time>
      </trkpt>
      <trkpt lat="46.16982" lon="4.6819">
        <ele>260</ele>
        <time>2016-11-03T13:14:55Z</time>
      </trkpt>
      <trkpt lat="46.16978" lon="4.68201">
        <ele>260</ele>
        <time>2016-11-03T13:15:02Z</time>
      </trkpt>
      <trkpt lat="46.16977" lon="4.68203">
        <ele>260</ele>
        <time>2016-11-03T13:15:03Z</time>
      </trkpt>
      <trkpt lat="46.16973" lon="4.68213">
        <ele>260</ele>
        <time>2016-11-03T13:15:09Z</time>
      </trkpt>
      <trkpt lat="46.16973" lon="4.68215">
        <ele>260</ele>
        <time>2016-11-03T13:15:10Z</time>
      </trkpt>
      <trkpt lat="46.16967" lon="4.68223">
        <ele>260</ele>
        <time>2016-11-03T13:15:18Z</time>
      </trkpt>
      <trkpt lat="46.16965" lon="4.68223">
        <ele>260</ele>
        <time>2016-11-03T13:15:19Z</time>
      </trkpt>
      <trkpt lat="46.16958" lon="4.68217">
        <ele>261</ele>
        <time>2016-11-03T13:15:33Z</time>
      </trkpt>
      <trkpt lat="46.16958" lon="4.68216">
        <ele>261</ele>
        <time>2016-11-03T13:15:34Z</time>
      </trkpt>
      <trkpt lat="46.1695" lon="4.6821">
        <ele>261</ele>
        <time>2016-11-03T13:15:42Z</time>
      </trkpt>
      <trkpt lat="46.16949" lon="4.68209">
        <ele>261</ele>
        <time>2016-11-03T13:15:43Z</time>
      </trkpt>
      <trkpt lat="46.1694" lon="4.68208">
        <ele>262</ele>
        <time>2016-11-03T13:15:51Z</time>
      </trkpt>
      <trkpt lat="46.16939" lon="4.68208">
        <ele>262</ele>
        <time>2016-11-03T13:15:52Z</time>
      </trkpt>
      <trkpt lat="46.16931" lon="4.68204">
        <ele>262</ele>
        <time>2016-11-03T13:15:59Z</time>
      </trkpt>
      <trkpt lat="46.1693" lon="4.68203">
        <ele>262</ele>
        <time>2016-11-03T13:16:00Z</time>
      </trkpt>
      <trkpt lat="46.16922" lon="4.68204">
        <ele>262</ele>
        <time>2016-11-03T13:16:08Z</time>
      </trkpt>
      <trkpt lat="46.16921" lon="4.68203">
        <ele>262</ele>
        <time>2016-11-03T13:16:09Z</time>
      </trkpt>
      <trkpt lat="46.16913" lon="4.68199">
        <ele>267</ele>
        <time>2016-11-03T13:16:17Z</time>
      </trkpt>
      <trkpt lat="46.16912" lon="4.68198">
        <ele>268</ele>
        <time>2016-11-03T13:16:18Z</time>
      </trkpt>
      <trkpt lat="46.16903" lon="4.68196">
        <ele>268</ele>
        <time>2016-11-03T13:16:27Z</time>
      </trkpt>
      <trkpt lat="46.16902" lon="4.68196">
        <ele>268</ele>
        <time>2016-11-03T13:16:28Z</time>
      </trkpt>
      <trkpt lat="46.16894" lon="4.68193">
        <ele>268</ele>
        <time>2016-11-03T13:16:36Z</time>
      </trkpt>
      <trkpt lat="46.16893" lon="4.68193">
        <ele>268</ele>
        <time>2016-11-03T13:16:37Z</time>
      </trkpt>
      <trkpt lat="46.16885" lon="4.68189">
        <ele>269</ele>
        <time>2016-11-03T13:16:45Z</time>
      </trkpt>
      <trkpt lat="46.16884" lon="4.6819">
        <ele>269</ele>
        <time>2016-11-03T13:16:46Z</time>
      </trkpt>
      <trkpt lat="46.16877" lon="4.68186">
        <ele>269</ele>
        <time>2016-11-03T13:16:55Z</time>
      </trkpt>
      <trkpt lat="46.16876" lon="4.68185">
        <ele>269</ele>
        <time>2016-11-03T13:16:56Z</time>
      </trkpt>
      <trkpt lat="46.16867" lon="4.68184">
        <ele>270</ele>
        <time>2016-11-03T13:17:06Z</time>
      </trkpt>
      <trkpt lat="46.16867" lon="4.68184">
        <ele>270</ele>
        <time>2016-11-03T13:17:07Z</time>
      </trkpt>
      <trkpt lat="46.16858" lon="4.68185">
        <ele>271</ele>
        <time>2016-11-03T13:17:17Z</time>
      </trkpt>
      <trkpt lat="46.16857" lon="4.68184">
        <ele>271</ele>
        <time>2016-11-03T13:17:18Z</time>
      </trkpt>
      <trkpt lat="46.16849" lon="4.68183">
        <ele>272</ele>
        <time>2016-11-03T13:17:28Z</time>
      </trkpt>
      <trkpt lat="46.16848" lon="4.68182">
        <ele>272</ele>
        <time>2016-11-03T13:17:29Z</time>
      </trkpt>
      <trkpt lat="46.1684" lon="4.6818">
        <ele>272</ele>
        <time>2016-11-03T13:17:39Z</time>
      </trkpt>
      <trkpt lat="46.16839" lon="4.6818">
        <ele>272</ele>
        <time>2016-11-03T13:17:40Z</time>
      </trkpt>
      <trkpt lat="46.1683" lon="4.68179">
        <ele>275</ele>
        <time>2016-11-03T13:17:48Z</time>
      </trkpt>
      <trkpt lat="46.16829" lon="4.68178">
        <ele>275</ele>
        <time>2016-11-03T13:17:49Z</time>
      </trkpt>
      <trkpt lat="46.16821" lon="4.68179">
        <ele>275</ele>
        <time>2016-11-03T13:17:58Z</time>
      </trkpt>
      <trkpt lat="46.1682" lon="4.68179">
        <ele>275</ele>
        <time>2016-11-03T13:17:59Z</time>
      </trkpt>
      <trkpt lat="46.16812" lon="4.68175">
        <ele>275</ele>
        <time>2016-11-03T13:18:07Z</time>
      </trkpt>
      <trkpt lat="46.16811" lon="4.68174">
        <ele>275</ele>
        <time>2016-11-03T13:18:08Z</time>
      </trkpt>
      <trkpt lat="46.16803" lon="4.68171">
        <ele>276</ele>
        <time>2016-11-03T13:18:15Z</time>
      </trkpt>
      <trkpt lat="46.16802" lon="4.68171">
        <ele>276</ele>
        <time>2016-11-03T13:18:16Z</time>
      </trkpt>
      <trkpt lat="46.16794" lon="4.6817">
        <ele>276</ele>
        <time>2016-11-03T13:18:23Z</time>
      </trkpt>
      <trkpt lat="46.16793" lon="4.6817">
        <ele>276</ele>
        <time>2016-11-03T13:18:24Z</time>
      </trkpt>
      <trkpt lat="46.16785" lon="4.68166">
        <ele>278</ele>
        <time>2016-11-03T13:18:32Z</time>
      </trkpt>
      <trkpt lat="46.16784" lon="4.68166">
        <ele>278</ele>
        <time>2016-11-03T13:18:33Z</time>
      </trkpt>
      <trkpt lat="46.16776" lon="4.68164">
        <ele>279</ele>
        <time>2016-11-03T13:18:40Z</time>
      </trkpt>
      <trkpt lat="46.16775" lon="4.68164">
        <ele>279</ele>
        <time>2016-11-03T13:18:41Z</time>
      </trkpt>
      <trkpt lat="46.16767" lon="4.68162">
        <ele>279</ele>
        <time>2016-11-03T13:18:48Z</time>
      </trkpt>
      <trkpt lat="46.16766" lon="4.68162">
        <ele>279</ele>
        <time>2016-11-03T13:18:49Z</time>
      </trkpt>
      <trkpt lat="46.16757" lon="4.68161">
        <ele>279</ele>
        <time>2016-11-03T13:18:57Z</time>
      </trkpt>
      <trkpt lat="46.16756" lon="4.68161">
        <ele>279</ele>
        <time>2016-11-03T13:18:58Z</time>
      </trkpt>
      <trkpt lat="46.16747" lon="4.68161">
        <ele>280</ele>
        <time>2016-11-03T13:19:05Z</time>
      </trkpt>
      <trkpt lat="46.16746" lon="4.68161">
        <ele>280</ele>
        <time>2016-11-03T13:19:06Z</time>
      </trkpt>
      <trkpt lat="46.16737" lon="4.68159">
        <ele>280</ele>
        <time>2016-11-03T13:19:13Z</time>
      </trkpt>
      <trkpt lat="46.16736" lon="4.68159">
        <ele>280</ele>
        <time>2016-11-03T13:19:14Z</time>
      </trkpt>
      <trkpt lat="46.16728" lon="4.68157">
        <ele>280</ele>
        <time>2016-11-03T13:19:21Z</time>
      </trkpt>
      <trkpt lat="46.16726" lon="4.68156">
        <ele>280</ele>
        <time>2016-11-03T13:19:22Z</time>
      </trkpt>
      <trkpt lat="46.16718" lon="4.68155">
        <ele>280</ele>
        <time>2016-11-03T13:19:28Z</time>
      </trkpt>
      <trkpt lat="46.16717" lon="4.68154">
        <ele>281</ele>
        <time>2016-11-03T13:19:29Z</time>
      </trkpt>
      <trkpt lat="46.16709" lon="4.68152">
        <ele>281</ele>
        <time>2016-11-03T13:19:36Z</time>
      </trkpt>
      <trkpt lat="46.16708" lon="4.68152">
        <ele>281</ele>
        <time>2016-11-03T13:19:37Z</time>
      </trkpt>
      <trkpt lat="46.167" lon="4.6815">
        <ele>281</ele>
        <time>2016-11-03T13:19:44Z</time>
      </trkpt>
      <trkpt lat="46.16698" lon="4.6815">
        <ele>281</ele>
        <time>2016-11-03T13:19:45Z</time>
      </trkpt>
      <trkpt lat="46.1669" lon="4.68148">
        <ele>281</ele>
        <time>2016-11-03T13:19:51Z</time>
      </trkpt>
      <trkpt lat="46.16689" lon="4.68147">
        <ele>281</ele>
        <time>2016-11-03T13:19:52Z</time>
      </trkpt>
      <trkpt lat="46.16682" lon="4.68143">
        <ele>281</ele>
        <time>2016-11-03T13:19:58Z</time>
      </trkpt>
      <trkpt lat="46.16681" lon="4.68142">
        <ele>281</ele>
        <time>2016-11-03T13:19:59Z</time>
      </trkpt>
      <trkpt lat="46.16673" lon="4.68136">
        <ele>281</ele>
        <time>2016-11-03T13:20:06Z</time>
      </trkpt>
      <trkpt lat="46.16672" lon="4.68135">
        <ele>281</ele>
        <time>2016-11-03T13:20:07Z</time>
      </trkpt>
      <trkpt lat="46.16665" lon="4.6813">
        <ele>280</ele>
        <time>2016-11-03T13:20:14Z</time>
      </trkpt>
      <trkpt lat="46.16664" lon="4.68129">
        <ele>280</ele>
        <time>2016-11-03T13:20:15Z</time>
      </trkpt>
      <trkpt lat="46.16655" lon="4.68128">
        <ele>280</ele>
        <time>2016-11-03T13:20:24Z</time>
      </trkpt>
      <trkpt lat="46.16654" lon="4.68127">
        <ele>280</ele>
        <time>2016-11-03T13:20:25Z</time>
      </trkpt>
      <trkpt lat="46.16646" lon="4.68123">
        <ele>280</ele>
        <time>2016-11-03T13:20:32Z</time>
      </trkpt>
      <trkpt lat="46.16644" lon="4.68123">
        <ele>280</ele>
        <time>2016-11-03T13:20:33Z</time>
      </trkpt>
      <trkpt lat="46.16637" lon="4.6812">
        <ele>280</ele>
        <time>2016-11-03T13:20:39Z</time>
      </trkpt>
      <trkpt lat="46.16635" lon="4.68119">
        <ele>280</ele>
        <time>2016-11-03T13:20:40Z</time>
      </trkpt>
      <trkpt lat="46.16627" lon="4.68116">
        <ele>280</ele>
        <time>2016-11-03T13:20:47Z</time>
      </trkpt>
      <trkpt lat="46.16626" lon="4.68115">
        <ele>280</ele>
        <time>2016-11-03T13:20:48Z</time>
      </trkpt>
      <trkpt lat="46.16618" lon="4.6811">
        <ele>280</ele>
        <time>2016-11-03T13:20:56Z</time>
      </trkpt>
      <trkpt lat="46.16616" lon="4.68109">
        <ele>280</ele>
        <time>2016-11-03T13:20:57Z</time>
      </trkpt>
      <trkpt lat="46.16608" lon="4.68105">
        <ele>280</ele>
        <time>2016-11-03T13:21:04Z</time>
      </trkpt>
      <trkpt lat="46.16607" lon="4.68104">
        <ele>280</ele>
        <time>2016-11-03T13:21:05Z</time>
      </trkpt>
      <trkpt lat="46.166" lon="4.68099">
        <ele>280</ele>
        <time>2016-11-03T13:21:12Z</time>
      </trkpt>
      <trkpt lat="46.16599" lon="4.68098">
        <ele>280</ele>
        <time>2016-11-03T13:21:13Z</time>
      </trkpt>
      <trkpt lat="46.16591" lon="4.68093">
        <ele>280</ele>
        <time>2016-11-03T13:21:20Z</time>
      </trkpt>
      <trkpt lat="46.1659" lon="4.68092">
        <ele>280</ele>
        <time>2016-11-03T13:21:21Z</time>
      </trkpt>
      <trkpt lat="46.16585" lon="4.68083">
        <ele>281</ele>
        <time>2016-11-03T13:21:27Z</time>
      </trkpt>
      <trkpt lat="46.16584" lon="4.68082">
        <ele>281</ele>
        <time>2016-11-03T13:21:28Z</time>
      </trkpt>
      <trkpt lat="46.16579" lon="4.68072">
        <ele>282</ele>
        <time>2016-11-03T13:21:35Z</time>
      </trkpt>
      <trkpt lat="46.16578" lon="4.68071">
        <ele>282</ele>
        <time>2016-11-03T13:21:36Z</time>
      </trkpt>
      <trkpt lat="46.16573" lon="4.68061">
        <ele>282</ele>
        <time>2016-11-03T13:21:43Z</time>
      </trkpt>
      <trkpt lat="46.16572" lon="4.6806">
        <ele>282</ele>
        <time>2016-11-03T13:21:44Z</time>
      </trkpt>
      <trkpt lat="46.16564" lon="4.68054">
        <ele>282</ele>
        <time>2016-11-03T13:21:52Z</time>
      </trkpt>
      <trkpt lat="46.16563" lon="4.68053">
        <ele>282</ele>
        <time>2016-11-03T13:21:53Z</time>
      </trkpt>
      <trkpt lat="46.16555" lon="4.68047">
        <ele>282</ele>
        <time>2016-11-03T13:22:00Z</time>
      </trkpt>
      <trkpt lat="46.16554" lon="4.68046">
        <ele>282</ele>
        <time>2016-11-03T13:22:01Z</time>
      </trkpt>
      <trkpt lat="46.16548" lon="4.68039">
        <ele>282</ele>
        <time>2016-11-03T13:22:08Z</time>
      </trkpt>
      <trkpt lat="46.16547" lon="4.68038">
        <ele>282</ele>
        <time>2016-11-03T13:22:09Z</time>
      </trkpt>
      <trkpt lat="46.16539" lon="4.68034">
        <ele>282</ele>
        <time>2016-11-03T13:22:16Z</time>
      </trkpt>
      <trkpt lat="46.16538" lon="4.68034">
        <ele>282</ele>
        <time>2016-11-03T13:22:17Z</time>
      </trkpt>
      <trkpt lat="46.16529" lon="4.68031">
        <ele>282</ele>
        <time>2016-11-03T13:22:25Z</time>
      </trkpt>
      <trkpt lat="46.16528" lon="4.68031">
        <ele>282</ele>
        <time>2016-11-03T13:22:26Z</time>
      </trkpt>
      <trkpt lat="46.1652" lon="4.68029">
        <ele>282</ele>
        <time>2016-11-03T13:22:33Z</time>
      </trkpt>
      <trkpt lat="46.16519" lon="4.68029">
        <ele>282</ele>
        <time>2016-11-03T13:22:34Z</time>
      </trkpt>
      <trkpt lat="46.1651" lon="4.68029">
        <ele>282</ele>
        <time>2016-11-03T13:22:42Z</time>
      </trkpt>
      <trkpt lat="46.16508" lon="4.68028">
        <ele>282</ele>
        <time>2016-11-03T13:22:43Z</time>
      </trkpt>
      <trkpt lat="46.165" lon="4.68025">
        <ele>282</ele>
        <time>2016-11-03T13:22:50Z</time>
      </trkpt>
      <trkpt lat="46.16499" lon="4.68025">
        <ele>282</ele>
        <time>2016-11-03T13:22:51Z</time>
      </trkpt>
      <trkpt lat="46.16491" lon="4.68024">
        <ele>282</ele>
        <time>2016-11-03T13:22:58Z</time>
      </trkpt>
      <trkpt lat="46.1649" lon="4.68024">
        <ele>282</ele>
        <time>2016-11-03T13:22:59Z</time>
      </trkpt>
      <trkpt lat="46.16481" lon="4.68025">
        <ele>282</ele>
        <time>2016-11-03T13:23:06Z</time>
      </trkpt>
      <trkpt lat="46.1648" lon="4.68025">
        <ele>282</ele>
        <time>2016-11-03T13:23:07Z</time>
      </trkpt>
      <trkpt lat="46.16471" lon="4.68026">
        <ele>282</ele>
        <time>2016-11-03T13:23:14Z</time>
      </trkpt>
      <trkpt lat="46.1647" lon="4.68026">
        <ele>282</ele>
        <time>2016-11-03T13:23:15Z</time>
      </trkpt>
      <trkpt lat="46.16462" lon="4.68023">
        <ele>282</ele>
        <time>2016-11-03T13:23:22Z</time>
      </trkpt>
      <trkpt lat="46.16461" lon="4.68023">
        <ele>282</ele>
        <time>2016-11-03T13:23:23Z</time>
      </trkpt>
      <trkpt lat="46.16453" lon="4.68021">
        <ele>282</ele>
        <time>2016-11-03T13:23:30Z</time>
      </trkpt>
      <trkpt lat="46.16452" lon="4.68022">
        <ele>282</ele>
        <time>2016-11-03T13:23:31Z</time>
      </trkpt>
      <trkpt lat="46.16444" lon="4.68023">
        <ele>282</ele>
        <time>2016-11-03T13:23:38Z</time>
      </trkpt>
      <trkpt lat="46.16442" lon="4.68024">
        <ele>282</ele>
        <time>2016-11-03T13:23:39Z</time>
      </trkpt>
      <trkpt lat="46.16434" lon="4.68025">
        <ele>282</ele>
        <time>2016-11-03T13:23:46Z</time>
      </trkpt>
      <trkpt lat="46.16433" lon="4.68025">
        <ele>282</ele>
        <time>2016-11-03T13:23:47Z</time>
      </trkpt>
      <trkpt lat="46.16425" lon="4.68024">
        <ele>283</ele>
        <time>2016-11-03T13:23:54Z</time>
      </trkpt>
      <trkpt lat="46.16424" lon="4.68024">
        <ele>283</ele>
        <time>2016-11-03T13:23:55Z</time>
      </trkpt>
      <trkpt lat="46.16415" lon="4.68025">
        <ele>283</ele>
        <time>2016-11-03T13:24:02Z</time>
      </trkpt>
      <trkpt lat="46.16413" lon="4.68025">
        <ele>283</ele>
        <time>2016-11-03T13:24:03Z</time>
      </trkpt>
      <trkpt lat="46.16405" lon="4.68023">
        <ele>283</ele>
        <time>2016-11-03T13:24:10Z</time>
      </trkpt>
      <trkpt lat="46.16404" lon="4.68023">
        <ele>283</ele>
        <time>2016-11-03T13:24:11Z</time>
      </trkpt>
      <trkpt lat="46.16396" lon="4.68024">
        <ele>283</ele>
        <time>2016-11-03T13:24:18Z</time>
      </trkpt>
      <trkpt lat="46.16395" lon="4.68024">
        <ele>283</ele>
        <time>2016-11-03T13:24:19Z</time>
      </trkpt>
      <trkpt lat="46.16386" lon="4.68023">
        <ele>284</ele>
        <time>2016-11-03T13:24:27Z</time>
      </trkpt>
      <trkpt lat="46.16385" lon="4.68023">
        <ele>284</ele>
        <time>2016-11-03T13:24:28Z</time>
      </trkpt>
      <trkpt lat="46.16377" lon="4.68017">
        <ele>284</ele>
        <time>2016-11-03T13:24:36Z</time>
      </trkpt>
      <trkpt lat="46.16376" lon="4.68016">
        <ele>284</ele>
        <time>2016-11-03T13:24:37Z</time>
      </trkpt>
      <trkpt lat="46.16367" lon="4.68015">
        <ele>284</ele>
        <time>2016-11-03T13:24:44Z</time>
      </trkpt>
      <trkpt lat="46.16366" lon="4.68015">
        <ele>284</ele>
        <time>2016-11-03T13:24:45Z</time>
      </trkpt>
      <trkpt lat="46.16358" lon="4.68017">
        <ele>284</ele>
        <time>2016-11-03T13:24:51Z</time>
      </trkpt>
      <trkpt lat="46.16356" lon="4.68016">
        <ele>284</ele>
        <time>2016-11-03T13:24:52Z</time>
      </trkpt>
      <trkpt lat="46.16348" lon="4.68015">
        <ele>284</ele>
        <time>2016-11-03T13:24:58Z</time>
      </trkpt>
      <trkpt lat="46.16347" lon="4.68014">
        <ele>284</ele>
        <time>2016-11-03T13:24:59Z</time>
      </trkpt>
      <trkpt lat="46.16338" lon="4.68014">
        <ele>285</ele>
        <time>2016-11-03T13:25:06Z</time>
      </trkpt>
      <trkpt lat="46.16337" lon="4.68014">
        <ele>285</ele>
        <time>2016-11-03T13:25:07Z</time>
      </trkpt>
      <trkpt lat="46.16328" lon="4.68015">
        <ele>285</ele>
        <time>2016-11-03T13:25:14Z</time>
      </trkpt>
      <trkpt lat="46.16327" lon="4.68016">
        <ele>285</ele>
        <time>2016-11-03T13:25:15Z</time>
      </trkpt>
      <trkpt lat="46.16318" lon="4.68017">
        <ele>285</ele>
        <time>2016-11-03T13:25:22Z</time>
      </trkpt>
      <trkpt lat="46.16317" lon="4.68017">
        <ele>285</ele>
        <time>2016-11-03T13:25:23Z</time>
      </trkpt>
      <trkpt lat="46.16308" lon="4.68016">
        <ele>285</ele>
        <time>2016-11-03T13:25:30Z</time>
      </trkpt>
      <trkpt lat="46.16307" lon="4.68016">
        <ele>285</ele>
        <time>2016-11-03T13:25:31Z</time>
      </trkpt>
      <trkpt lat="46.16299" lon="4.68017">
        <ele>285</ele>
        <time>2016-11-03T13:25:37Z</time>
      </trkpt>
      <trkpt lat="46.16298" lon="4.68018">
        <ele>285</ele>
        <time>2016-11-03T13:25:38Z</time>
      </trkpt>
      <trkpt lat="46.1629" lon="4.68016">
        <ele>285</ele>
        <time>2016-11-03T13:25:45Z</time>
      </trkpt>
      <trkpt lat="46.16288" lon="4.68015">
        <ele>285</ele>
        <time>2016-11-03T13:25:46Z</time>
      </trkpt>
      <trkpt lat="46.1628" lon="4.68013">
        <ele>286</ele>
        <time>2016-11-03T13:25:54Z</time>
      </trkpt>
      <trkpt lat="46.16279" lon="4.68013">
        <ele>286</ele>
        <time>2016-11-03T13:25:55Z</time>
      </trkpt>
      <trkpt lat="46.1627" lon="4.68016">
        <ele>286</ele>
        <time>2016-11-03T13:26:03Z</time>
      </trkpt>
      <trkpt lat="46.16269" lon="4.68017">
        <ele>286</ele>
        <time>2016-11-03T13:26:04Z</time>
      </trkpt>
      <trkpt lat="46.16261" lon="4.6802">
        <ele>286</ele>
        <time>2016-11-03T13:26:11Z</time>
      </trkpt>
      <trkpt lat="46.1626" lon="4.6802">
        <ele>286</ele>
        <time>2016-11-03T13:26:12Z</time>
      </trkpt>
      <trkpt lat="46.16253" lon="4.68016">
        <ele>286</ele>
        <time>2016-11-03T13:26:19Z</time>
      </trkpt>
      <trkpt lat="46.16252" lon="4.68014">
        <ele>286</ele>
        <time>2016-11-03T13:26:20Z</time>
      </trkpt>
      <trkpt lat="46.16243" lon="4.68015">
        <ele>287</ele>
        <time>2016-11-03T13:26:29Z</time>
      </trkpt>
      <trkpt lat="46.16242" lon="4.68015">
        <ele>287</ele>
        <time>2016-11-03T13:26:30Z</time>
      </trkpt>
      <trkpt lat="46.16234" lon="4.68016">
        <ele>287</ele>
        <time>2016-11-03T13:26:36Z</time>
      </trkpt>
      <trkpt lat="46.16233" lon="4.68016">
        <ele>287</ele>
        <time>2016-11-03T13:26:37Z</time>
      </trkpt>
      <trkpt lat="46.16225" lon="4.68017">
        <ele>287</ele>
        <time>2016-11-03T13:26:43Z</time>
      </trkpt>
      <trkpt lat="46.16224" lon="4.68016">
        <ele>287</ele>
        <time>2016-11-03T13:26:44Z</time>
      </trkpt>
      <trkpt lat="46.16215" lon="4.68017">
        <ele>287</ele>
        <time>2016-11-03T13:26:52Z</time>
      </trkpt>
      <trkpt lat="46.16214" lon="4.68017">
        <ele>287</ele>
        <time>2016-11-03T13:26:53Z</time>
      </trkpt>
      <trkpt lat="46.16206" lon="4.68017">
        <ele>287</ele>
        <time>2016-11-03T13:26:59Z</time>
      </trkpt>
      <trkpt lat="46.16204" lon="4.68017">
        <ele>287</ele>
        <time>2016-11-03T13:27:00Z</time>
      </trkpt>
      <trkpt lat="46.16195" lon="4.68017">
        <ele>287</ele>
        <time>2016-11-03T13:27:12Z</time>
      </trkpt>
      <trkpt lat="46.16195" lon="4.68017">
        <ele>287</ele>
        <time>2016-11-03T13:27:13Z</time>
      </trkpt>
      <trkpt lat="46.1619" lon="4.68006">
        <ele>288</ele>
        <time>2016-11-03T13:27:21Z</time>
      </trkpt>
      <trkpt lat="46.16189" lon="4.68005">
        <ele>288</ele>
        <time>2016-11-03T13:27:22Z</time>
      </trkpt>
      <trkpt lat="46.16181" lon="4.68002">
        <ele>288</ele>
        <time>2016-11-03T13:27:28Z</time>
      </trkpt>
      <trkpt lat="46.1618" lon="4.68002">
        <ele>289</ele>
        <time>2016-11-03T13:27:29Z</time>
      </trkpt>
      <trkpt lat="46.16172" lon="4.68001">
        <ele>289</ele>
        <time>2016-11-03T13:27:38Z</time>
      </trkpt>
      <trkpt lat="46.16171" lon="4.68001">
        <ele>289</ele>
        <time>2016-11-03T13:27:39Z</time>
      </trkpt>
      <trkpt lat="46.16162" lon="4.68002">
        <ele>290</ele>
        <time>2016-11-03T13:27:46Z</time>
      </trkpt>
      <trkpt lat="46.16161" lon="4.68002">
        <ele>290</ele>
        <time>2016-11-03T13:27:47Z</time>
      </trkpt>
      <trkpt lat="46.16154" lon="4.68007">
        <ele>289</ele>
        <time>2016-11-03T13:27:55Z</time>
      </trkpt>
      <trkpt lat="46.16153" lon="4.68008">
        <ele>289</ele>
        <time>2016-11-03T13:27:56Z</time>
      </trkpt>
      <trkpt lat="46.16146" lon="4.68013">
        <ele>289</ele>
        <time>2016-11-03T13:30:07Z</time>
      </trkpt>
      <trkpt lat="46.16145" lon="4.68013">
        <ele>289</ele>
        <time>2016-11-03T13:30:08Z</time>
      </trkpt>
      <trkpt lat="46.16139" lon="4.68022">
        <ele>288</ele>
        <time>2016-11-03T13:33:13Z</time>
      </trkpt>
      <trkpt lat="46.16139" lon="4.68023">
        <ele>288</ele>
        <time>2016-11-03T13:33:14Z</time>
      </trkpt>
      <trkpt lat="46.16131" lon="4.68027">
        <ele>288</ele>
        <time>2016-11-03T13:33:26Z</time>
      </trkpt>
      <trkpt lat="46.1613" lon="4.68028">
        <ele>288</ele>
        <time>2016-11-03T13:33:27Z</time>
      </trkpt>
      <trkpt lat="46.16122" lon="4.68034">
        <ele>288</ele>
        <time>2016-11-03T13:33:38Z</time>
      </trkpt>
      <trkpt lat="46.16122" lon="4.68035">
        <ele>288</ele>
        <time>2016-11-03T13:33:39Z</time>
      </trkpt>
      <trkpt lat="46.16115" lon="4.68041">
        <ele>288</ele>
        <time>2016-11-03T13:33:49Z</time>
      </trkpt>
      <trkpt lat="46.16114" lon="4.68041">
        <ele>288</ele>
        <time>2016-11-03T13:33:50Z</time>
      </trkpt>
      <trkpt lat="46.16106" lon="4.68046">
        <ele>288</ele>
        <time>2016-11-03T13:33:57Z</time>
      </trkpt>
      <trkpt lat="46.16105" lon="4.68047">
        <ele>288</ele>
        <time>2016-11-03T13:33:58Z</time>
      </trkpt>
      <trkpt lat="46.16098" lon="4.68053">
        <ele>287</ele>
        <time>2016-11-03T13:34:05Z</time>
      </trkpt>
      <trkpt lat="46.16096" lon="4.68054">
        <ele>287</ele>
        <time>2016-11-03T13:34:06Z</time>
      </trkpt>
      <trkpt lat="46.16088" lon="4.68056">
        <ele>287</ele>
        <time>2016-11-03T13:34:13Z</time>
      </trkpt>
      <trkpt lat="46.16087" lon="4.68056">
        <ele>287</ele>
        <time>2016-11-03T13:34:14Z</time>
      </trkpt>
      <trkpt lat="46.16079" lon="4.68054">
        <ele>287</ele>
        <time>2016-11-03T13:34:20Z</time>
      </trkpt>
      <trkpt lat="46.16077" lon="4.68054">
        <ele>287</ele>
        <time>2016-11-03T13:34:21Z</time>
      </trkpt>
      <trkpt lat="46.16069" lon="4.68053">
        <ele>287</ele>
        <time>2016-11-03T13:34:27Z</time>
      </trkpt>
      <trkpt lat="46.16068" lon="4.68053">
        <ele>287</ele>
        <time>2016-11-03T13:34:28Z</time>
      </trkpt>
      <trkpt lat="46.16059" lon="4.68051">
        <ele>287</ele>
        <time>2016-11-03T13:34:35Z</time>
      </trkpt>
      <trkpt lat="46.16058" lon="4.68051">
        <ele>287</ele>
        <time>2016-11-03T13:34:36Z</time>
      </trkpt>
      <trkpt lat="46.1605" lon="4.68048">
        <ele>288</ele>
        <time>2016-11-03T13:34:43Z</time>
      </trkpt>
      <trkpt lat="46.16048" lon="4.68047">
        <ele>288</ele>
        <time>2016-11-03T13:34:44Z</time>
      </trkpt>
      <trkpt lat="46.16039" lon="4.68047">
        <ele>288</ele>
        <time>2016-11-03T13:34:52Z</time>
      </trkpt>
      <trkpt lat="46.16038" lon="4.68047">
        <ele>288</ele>
        <time>2016-11-03T13:34:53Z</time>
      </trkpt>
      <trkpt lat="46.1603" lon="4.68044">
        <ele>288</ele>
        <time>2016-11-03T13:34:59Z</time>
      </trkpt>
      <trkpt lat="46.16029" lon="4.68044">
        <ele>288</ele>
        <time>2016-11-03T13:35:00Z</time>
      </trkpt>
      <trkpt lat="46.1602" lon="4.68044">
        <ele>288</ele>
        <time>2016-11-03T13:35:07Z</time>
      </trkpt>
      <trkpt lat="46.16019" lon="4.68044">
        <ele>288</ele>
        <time>2016-11-03T13:35:08Z</time>
      </trkpt>
      <trkpt lat="46.1601" lon="4.6804">
        <ele>288</ele>
        <time>2016-11-03T13:35:16Z</time>
      </trkpt>
      <trkpt lat="46.1601" lon="4.6804">
        <ele>288</ele>
        <time>2016-11-03T13:35:17Z</time>
      </trkpt>
      <trkpt lat="46.16001" lon="4.68038">
        <ele>288</ele>
        <time>2016-11-03T13:35:28Z</time>
      </trkpt>
      <trkpt lat="46.16001" lon="4.68037">
        <ele>288</ele>
        <time>2016-11-03T13:35:29Z</time>
      </trkpt>
      <trkpt lat="46.15993" lon="4.68032">
        <ele>287</ele>
        <time>2016-11-03T13:35:57Z</time>
      </trkpt>
      <trkpt lat="46.15993" lon="4.68031">
        <ele>288</ele>
        <time>2016-11-03T13:35:58Z</time>
      </trkpt>
      <trkpt lat="46.15986" lon="4.68023">
        <ele>288</ele>
        <time>2016-11-03T13:36:07Z</time>
      </trkpt>
      <trkpt lat="46.15985" lon="4.68022">
        <ele>288</ele>
        <time>2016-11-03T13:36:08Z</time>
      </trkpt>
      <trkpt lat="46.1598" lon="4.68012">
        <ele>288</ele>
        <time>2016-11-03T13:36:16Z</time>
      </trkpt>
      <trkpt lat="46.1598" lon="4.6801">
        <ele>288</ele>
        <time>2016-11-03T13:36:17Z</time>
      </trkpt>
      <trkpt lat="46.15979" lon="4.67997">
        <ele>290</ele>
        <time>2016-11-03T13:36:25Z</time>
      </trkpt>
      <trkpt lat="46.15979" lon="4.67995">
        <ele>290</ele>
        <time>2016-11-03T13:36:26Z</time>
      </trkpt>
      <trkpt lat="46.15978" lon="4.67983">
        <ele>291</ele>
        <time>2016-11-03T13:36:34Z</time>
      </trkpt>
      <trkpt lat="46.15978" lon="4.67982">
        <ele>291</ele>
        <time>2016-11-03T13:36:35Z</time>
      </trkpt>
      <trkpt lat="46.15976" lon="4.67971">
        <ele>291</ele>
        <time>2016-11-03T13:36:45Z</time>
      </trkpt>
      <trkpt lat="46.15976" lon="4.67969">
        <ele>291</ele>
        <time>2016-11-03T13:36:46Z</time>
      </trkpt>
      <trkpt lat="46.15977" lon="4.67957">
        <ele>291</ele>
        <time>2016-11-03T13:36:53Z</time>
      </trkpt>
      <trkpt lat="46.15978" lon="4.67955">
        <ele>291</ele>
        <time>2016-11-03T13:36:54Z</time>
      </trkpt>
      <trkpt lat="46.15975" lon="4.67943">
        <ele>292</ele>
        <time>2016-11-03T13:37:28Z</time>
      </trkpt>
      <trkpt lat="46.15975" lon="4.67942">
        <ele>292</ele>
        <time>2016-11-03T13:37:29Z</time>
      </trkpt>
      <trkpt lat="46.15981" lon="4.67932">
        <ele>293</ele>
        <time>2016-11-03T13:37:37Z</time>
      </trkpt>
      <trkpt lat="46.15982" lon="4.67931">
        <ele>293</ele>
        <time>2016-11-03T13:37:38Z</time>
      </trkpt>
      <trkpt lat="46.15984" lon="4.67919">
        <ele>293</ele>
        <time>2016-11-03T13:37:50Z</time>
      </trkpt>
      <trkpt lat="46.15984" lon="4.67918">
        <ele>293</ele>
        <time>2016-11-03T13:37:51Z</time>
      </trkpt>
      <trkpt lat="46.15986" lon="4.67906">
        <ele>295</ele>
        <time>2016-11-03T13:37:59Z</time>
      </trkpt>
      <trkpt lat="46.15986" lon="4.67904">
        <ele>295</ele>
        <time>2016-11-03T13:38:00Z</time>
      </trkpt>
      <trkpt lat="46.15986" lon="4.67892">
        <ele>295</ele>
        <time>2016-11-03T13:38:07Z</time>
      </trkpt>
      <trkpt lat="46.15986" lon="4.67891">
        <ele>295</ele>
        <time>2016-11-03T13:38:08Z</time>
      </trkpt>
      <trkpt lat="46.15987" lon="4.67879">
        <ele>295</ele>
        <time>2016-11-03T13:38:15Z</time>
      </trkpt>
      <trkpt lat="46.15987" lon="4.67878">
        <ele>295</ele>
        <time>2016-11-03T13:38:16Z</time>
      </trkpt>
      <trkpt lat="46.15986" lon="4.67865">
        <ele>296</ele>
        <time>2016-11-03T13:38:25Z</time>
      </trkpt>
      <trkpt lat="46.15987" lon="4.67864">
        <ele>296</ele>
        <time>2016-11-03T13:38:26Z</time>
      </trkpt>
      <trkpt lat="46.15991" lon="4.67853">
        <ele>297</ele>
        <time>2016-11-03T13:38:33Z</time>
      </trkpt>
      <trkpt lat="46.15991" lon="4.67851">
        <ele>297</ele>
        <time>2016-11-03T13:38:34Z</time>
      </trkpt>
      <trkpt lat="46.15994" lon="4.67841">
        <ele>298</ele>
        <time>2016-11-03T13:38:40Z</time>
      </trkpt>
      <trkpt lat="46.15994" lon="4.67839">
        <ele>299</ele>
        <time>2016-11-03T13:38:41Z</time>
      </trkpt>
      <trkpt lat="46.15995" lon="4.67827">
        <ele>299</ele>
        <time>2016-11-03T13:38:48Z</time>
      </trkpt>
      <trkpt lat="46.15995" lon="4.67825">
        <ele>299</ele>
        <time>2016-11-03T13:38:49Z</time>
      </trkpt>
      <trkpt lat="46.15996" lon="4.67812">
        <ele>299</ele>
        <time>2016-11-03T13:38:58Z</time>
      </trkpt>
      <trkpt lat="46.15996" lon="4.67811">
        <ele>299</ele>
        <time>2016-11-03T13:38:59Z</time>
      </trkpt>
      <trkpt lat="46.15997" lon="4.67798">
        <ele>299</ele>
        <time>2016-11-03T13:39:06Z</time>
      </trkpt>
      <trkpt lat="46.15998" lon="4.67796">
        <ele>299</ele>
        <time>2016-11-03T13:39:07Z</time>
      </trkpt>
      <trkpt lat="46.15998" lon="4.67783">
        <ele>299</ele>
        <time>2016-11-03T13:39:14Z</time>
      </trkpt>
      <trkpt lat="46.15999" lon="4.67781">
        <ele>300</ele>
        <time>2016-11-03T13:39:15Z</time>
      </trkpt>
      <trkpt lat="46.16001" lon="4.6777">
        <ele>301</ele>
        <time>2016-11-03T13:39:21Z</time>
      </trkpt>
      <trkpt lat="46.16002" lon="4.67768">
        <ele>301</ele>
        <time>2016-11-03T13:39:22Z</time>
      </trkpt>
      <trkpt lat="46.16003" lon="4.67756">
        <ele>302</ele>
        <time>2016-11-03T13:39:29Z</time>
      </trkpt>
      <trkpt lat="46.16002" lon="4.67754">
        <ele>302</ele>
        <time>2016-11-03T13:39:30Z</time>
      </trkpt>
      <trkpt lat="46.16003" lon="4.67742">
        <ele>303</ele>
        <time>2016-11-03T13:39:37Z</time>
      </trkpt>
      <trkpt lat="46.16003" lon="4.67741">
        <ele>303</ele>
        <time>2016-11-03T13:39:38Z</time>
      </trkpt>
      <trkpt lat="46.16003" lon="4.67728">
        <ele>303</ele>
        <time>2016-11-03T13:39:45Z</time>
      </trkpt>
      <trkpt lat="46.16003" lon="4.67726">
        <ele>303</ele>
        <time>2016-11-03T13:39:46Z</time>
      </trkpt>
      <trkpt lat="46.15996" lon="4.67718">
        <ele>302</ele>
        <time>2016-11-03T13:40:00Z</time>
      </trkpt>
      <trkpt lat="46.15995" lon="4.67718">
        <ele>302</ele>
        <time>2016-11-03T13:40:01Z</time>
      </trkpt>
      <trkpt lat="46.15987" lon="4.67718">
        <ele>302</ele>
        <time>2016-11-03T13:40:08Z</time>
      </trkpt>
      <trkpt lat="46.15986" lon="4.67717">
        <ele>302</ele>
        <time>2016-11-03T13:40:09Z</time>
      </trkpt>
      <trkpt lat="46.15978" lon="4.67717">
        <ele>302</ele>
        <time>2016-11-03T13:40:15Z</time>
      </trkpt>
      <trkpt lat="46.15976" lon="4.67717">
        <ele>302</ele>
        <time>2016-11-03T13:40:16Z</time>
      </trkpt>
      <trkpt lat="46.15968" lon="4.67716">
        <ele>302</ele>
        <time>2016-11-03T13:40:22Z</time>
      </trkpt>
      <trkpt lat="46.15967" lon="4.67716">
        <ele>302</ele>
        <time>2016-11-03T13:40:23Z</time>
      </trkpt>
      <trkpt lat="46.15959" lon="4.67715">
        <ele>301</ele>
        <time>2016-11-03T13:40:31Z</time>
      </trkpt>
      <trkpt lat="46.15958" lon="4.67715">
        <ele>301</ele>
        <time>2016-11-03T13:40:32Z</time>
      </trkpt>
      <trkpt lat="46.1595" lon="4.67712">
        <ele>301</ele>
        <time>2016-11-03T13:40:40Z</time>
      </trkpt>
      <trkpt lat="46.15949" lon="4.67712">
        <ele>301</ele>
        <time>2016-11-03T13:40:41Z</time>
      </trkpt>
      <trkpt lat="46.15941" lon="4.67711">
        <ele>301</ele>
        <time>2016-11-03T13:40:48Z</time>
      </trkpt>
      <trkpt lat="46.15939" lon="4.67711">
        <ele>301</ele>
        <time>2016-11-03T13:40:49Z</time>
      </trkpt>
      <trkpt lat="46.15931" lon="4.67709">
        <ele>301</ele>
        <time>2016-11-03T13:40:55Z</time>
      </trkpt>
      <trkpt lat="46.15929" lon="4.67708">
        <ele>301</ele>
        <time>2016-11-03T13:40:56Z</time>
      </trkpt>
      <trkpt lat="46.15922" lon="4.67706">
        <ele>301</ele>
        <time>2016-11-03T13:41:01Z</time>
      </trkpt>
      <trkpt lat="46.1592" lon="4.67706">
        <ele>301</ele>
        <time>2016-11-03T13:41:02Z</time>
      </trkpt>
      <trkpt lat="46.15912" lon="4.67703">
        <ele>303</ele>
        <time>2016-11-03T13:41:08Z</time>
      </trkpt>
      <trkpt lat="46.15911" lon="4.67703">
        <ele>303</ele>
        <time>2016-11-03T13:41:09Z</time>
      </trkpt>
      <trkpt lat="46.15903" lon="4.67698">
        <ele>303</ele>
        <time>2016-11-03T13:41:17Z</time>
      </trkpt>
      <trkpt lat="46.15902" lon="4.67697">
        <ele>303</ele>
        <time>2016-11-03T13:41:18Z</time>
      </trkpt>
      <trkpt lat="46.15895" lon="4.6769">
        <ele>303</ele>
        <time>2016-11-03T13:41:36Z</time>
      </trkpt>
      <trkpt lat="46.15894" lon="4.67689">
        <ele>303</ele>
        <time>2016-11-03T13:41:37Z</time>
      </trkpt>
      <trkpt lat="46.15886" lon="4.67687">
        <ele>304</ele>
        <time>2016-11-03T13:41:50Z</time>
      </trkpt>
      <trkpt lat="46.15885" lon="4.67687">
        <ele>304</ele>
        <time>2016-11-03T13:41:51Z</time>
      </trkpt>
      <trkpt lat="46.15877" lon="4.67684">
        <ele>305</ele>
        <time>2016-11-03T13:42:04Z</time>
      </trkpt>
      <trkpt lat="46.15876" lon="4.67684">
        <ele>305</ele>
        <time>2016-11-03T13:42:05Z</time>
      </trkpt>
      <trkpt lat="46.15867" lon="4.67683">
        <ele>306</ele>
        <time>2016-11-03T13:42:18Z</time>
      </trkpt>
      <trkpt lat="46.15866" lon="4.67682">
        <ele>306</ele>
        <time>2016-11-03T13:42:19Z</time>
      </trkpt>
      <trkpt lat="46.15858" lon="4.67682">
        <ele>306</ele>
        <time>2016-11-03T13:42:31Z</time>
      </trkpt>
      <trkpt lat="46.15857" lon="4.67682">
        <ele>307</ele>
        <time>2016-11-03T13:42:32Z</time>
      </trkpt>
      <trkpt lat="46.15852" lon="4.67673">
        <ele>308</ele>
        <time>2016-11-03T13:42:41Z</time>
      </trkpt>
      <trkpt lat="46.15852" lon="4.67671">
        <ele>308</ele>
        <time>2016-11-03T13:42:42Z</time>
      </trkpt>
      <trkpt lat="46.1585" lon="4.6766">
        <ele>310</ele>
        <time>2016-11-03T13:42:49Z</time>
      </trkpt>
      <trkpt lat="46.1585" lon="4.67659">
        <ele>310</ele>
        <time>2016-11-03T13:42:50Z</time>
      </trkpt>
      <trkpt lat="46.15852" lon="4.67648">
        <ele>310</ele>
        <time>2016-11-03T13:42:57Z</time>
      </trkpt>
      <trkpt lat="46.15852" lon="4.67646">
        <ele>310</ele>
        <time>2016-11-03T13:42:58Z</time>
      </trkpt>
      <trkpt lat="46.15853" lon="4.67634">
        <ele>310</ele>
        <time>2016-11-03T13:43:05Z</time>
      </trkpt>
      <trkpt lat="46.15853" lon="4.67632">
        <ele>310</ele>
        <time>2016-11-03T13:43:06Z</time>
      </trkpt>
      <trkpt lat="46.15853" lon="4.6762">
        <ele>311</ele>
        <time>2016-11-03T13:43:13Z</time>
      </trkpt>
      <trkpt lat="46.15854" lon="4.67618">
        <ele>311</ele>
        <time>2016-11-03T13:43:14Z</time>
      </trkpt>
      <trkpt lat="46.15856" lon="4.67605">
        <ele>311</ele>
        <time>2016-11-03T13:43:21Z</time>
      </trkpt>
      <trkpt lat="46.15857" lon="4.67604">
        <ele>311</ele>
        <time>2016-11-03T13:43:22Z</time>
      </trkpt>
      <trkpt lat="46.1586" lon="4.67593">
        <ele>312</ele>
        <time>2016-11-03T13:43:29Z</time>
      </trkpt>
      <trkpt lat="46.1586" lon="4.67591">
        <ele>312</ele>
        <time>2016-11-03T13:43:30Z</time>
      </trkpt>
      <trkpt lat="46.15852" lon="4.67588">
        <ele>313</ele>
        <time>2016-11-03T13:43:40Z</time>
      </trkpt>
      <trkpt lat="46.15851" lon="4.67589">
        <ele>313</ele>
        <time>2016-11-03T13:43:41Z</time>
      </trkpt>
      <trkpt lat="46.15843" lon="4.67592">
        <ele>314</ele>
        <time>2016-11-03T13:43:49Z</time>
      </trkpt>
      <trkpt lat="46.15842" lon="4.67592">
        <ele>314</ele>
        <time>2016-11-03T13:43:50Z</time>
      </trkpt>
      <trkpt lat="46.15834" lon="4.67594">
        <ele>314</ele>
        <time>2016-11-03T13:43:57Z</time>
      </trkpt>
      <trkpt lat="46.15833" lon="4.67595">
        <ele>317</ele>
        <time>2016-11-03T13:43:58Z</time>
      </trkpt>
      <trkpt lat="46.15825" lon="4.67596">
        <ele>317</ele>
        <time>2016-11-03T13:44:06Z</time>
      </trkpt>
      <trkpt lat="46.15824" lon="4.67597">
        <ele>317</ele>
        <time>2016-11-03T13:44:07Z</time>
      </trkpt>
      <trkpt lat="46.15816" lon="4.67601">
        <ele>317</ele>
        <time>2016-11-03T13:44:15Z</time>
      </trkpt>
      <trkpt lat="46.15815" lon="4.676">
        <ele>317</ele>
        <time>2016-11-03T13:44:16Z</time>
      </trkpt>
      <trkpt lat="46.15806" lon="4.67601">
        <ele>317</ele>
        <time>2016-11-03T13:44:24Z</time>
      </trkpt>
      <trkpt lat="46.15805" lon="4.67601">
        <ele>317</ele>
        <time>2016-11-03T13:44:25Z</time>
      </trkpt>
      <trkpt lat="46.15798" lon="4.67604">
        <ele>317</ele>
        <time>2016-11-03T13:44:33Z</time>
      </trkpt>
      <trkpt lat="46.15796" lon="4.67605">
        <ele>317</ele>
        <time>2016-11-03T13:44:34Z</time>
      </trkpt>
      <trkpt lat="46.15789" lon="4.67607">
        <ele>317</ele>
        <time>2016-11-03T13:44:40Z</time>
      </trkpt>
      <trkpt lat="46.15787" lon="4.67608">
        <ele>317</ele>
        <time>2016-11-03T13:44:41Z</time>
      </trkpt>
      <trkpt lat="46.15779" lon="4.6761">
        <ele>318</ele>
        <time>2016-11-03T13:44:48Z</time>
      </trkpt>
      <trkpt lat="46.15778" lon="4.67611">
        <ele>318</ele>
        <time>2016-11-03T13:44:49Z</time>
      </trkpt>
      <trkpt lat="46.15769" lon="4.67613">
        <ele>318</ele>
        <time>2016-11-03T13:44:57Z</time>
      </trkpt>
      <trkpt lat="46.15768" lon="4.67613">
        <ele>318</ele>
        <time>2016-11-03T13:44:58Z</time>
      </trkpt>
      <trkpt lat="46.1576" lon="4.67613">
        <ele>318</ele>
        <time>2016-11-03T13:45:04Z</time>
      </trkpt>
      <trkpt lat="46.15758" lon="4.67613">
        <ele>318</ele>
        <time>2016-11-03T13:45:05Z</time>
      </trkpt>
      <trkpt lat="46.1575" lon="4.67611">
        <ele>319</ele>
        <time>2016-11-03T13:45:11Z</time>
      </trkpt>
      <trkpt lat="46.15749" lon="4.6761">
        <ele>320</ele>
        <time>2016-11-03T13:45:12Z</time>
      </trkpt>
      <trkpt lat="46.15741" lon="4.67609">
        <ele>320</ele>
        <time>2016-11-03T13:45:18Z</time>
      </trkpt>
      <trkpt lat="46.1574" lon="4.67609">
        <ele>320</ele>
        <time>2016-11-03T13:45:19Z</time>
      </trkpt>
      <trkpt lat="46.15732" lon="4.67611">
        <ele>319</ele>
        <time>2016-11-03T13:45:26Z</time>
      </trkpt>
      <trkpt lat="46.15731" lon="4.67611">
        <ele>319</ele>
        <time>2016-11-03T13:45:27Z</time>
      </trkpt>
      <trkpt lat="46.15722" lon="4.67612">
        <ele>319</ele>
        <time>2016-11-03T13:45:34Z</time>
      </trkpt>
      <trkpt lat="46.15721" lon="4.67613">
        <ele>319</ele>
        <time>2016-11-03T13:45:35Z</time>
      </trkpt>
      <trkpt lat="46.15712" lon="4.67613">
        <ele>319</ele>
        <time>2016-11-03T13:45:43Z</time>
      </trkpt>
      <trkpt lat="46.15711" lon="4.67614">
        <ele>319</ele>
        <time>2016-11-03T13:45:44Z</time>
      </trkpt>
      <trkpt lat="46.15702" lon="4.67614">
        <ele>319</ele>
        <time>2016-11-03T13:45:52Z</time>
      </trkpt>
      <trkpt lat="46.15701" lon="4.67614">
        <ele>319</ele>
        <time>2016-11-03T13:45:53Z</time>
      </trkpt>
      <trkpt lat="46.15694" lon="4.67617">
        <ele>319</ele>
        <time>2016-11-03T13:45:59Z</time>
      </trkpt>
      <trkpt lat="46.15692" lon="4.67617">
        <ele>319</ele>
        <time>2016-11-03T13:46:00Z</time>
      </trkpt>
      <trkpt lat="46.15684" lon="4.67618">
        <ele>319</ele>
        <time>2016-11-03T13:46:07Z</time>
      </trkpt>
      <trkpt lat="46.15683" lon="4.67618">
        <ele>319</ele>
        <time>2016-11-03T13:46:08Z</time>
      </trkpt>
      <trkpt lat="46.15674" lon="4.6762">
        <ele>319</ele>
        <time>2016-11-03T13:46:17Z</time>
      </trkpt>
      <trkpt lat="46.15673" lon="4.67621">
        <ele>319</ele>
        <time>2016-11-03T13:46:18Z</time>
      </trkpt>
      <trkpt lat="46.15665" lon="4.67623">
        <ele>321</ele>
        <time>2016-11-03T13:46:25Z</time>
      </trkpt>
      <trkpt lat="46.15663" lon="4.67623">
        <ele>321</ele>
        <time>2016-11-03T13:46:26Z</time>
      </trkpt>
      <trkpt lat="46.15656" lon="4.67621">
        <ele>321</ele>
        <time>2016-11-03T13:46:32Z</time>
      </trkpt>
      <trkpt lat="46.15654" lon="4.6762">
        <ele>321</ele>
        <time>2016-11-03T13:46:33Z</time>
      </trkpt>
      <trkpt lat="46.1565" lon="4.67611">
        <ele>321</ele>
        <time>2016-11-03T13:46:38Z</time>
      </trkpt>
      <trkpt lat="46.15649" lon="4.67609">
        <ele>321</ele>
        <time>2016-11-03T13:46:39Z</time>
      </trkpt>
      <trkpt lat="46.15645" lon="4.67598">
        <ele>321</ele>
        <time>2016-11-03T13:46:45Z</time>
      </trkpt>
      <trkpt lat="46.15645" lon="4.67596">
        <ele>321</ele>
        <time>2016-11-03T13:46:46Z</time>
      </trkpt>
      <trkpt lat="46.15642" lon="4.67585">
        <ele>321</ele>
        <time>2016-11-03T13:46:52Z</time>
      </trkpt>
      <trkpt lat="46.15642" lon="4.67583">
        <ele>322</ele>
        <time>2016-11-03T13:46:53Z</time>
      </trkpt>
      <trkpt lat="46.1564" lon="4.67572">
        <ele>322</ele>
        <time>2016-11-03T13:46:59Z</time>
      </trkpt>
      <trkpt lat="46.15639" lon="4.6757">
        <ele>322</ele>
        <time>2016-11-03T13:47:00Z</time>
      </trkpt>
      <trkpt lat="46.15636" lon="4.67559">
        <ele>323</ele>
        <time>2016-11-03T13:47:07Z</time>
      </trkpt>
      <trkpt lat="46.15635" lon="4.67558">
        <ele>323</ele>
        <time>2016-11-03T13:47:08Z</time>
      </trkpt>
      <trkpt lat="46.15633" lon="4.67547">
        <ele>323</ele>
        <time>2016-11-03T13:47:15Z</time>
      </trkpt>
      <trkpt lat="46.15633" lon="4.67545">
        <ele>323</ele>
        <time>2016-11-03T13:47:16Z</time>
      </trkpt>
      <trkpt lat="46.15629" lon="4.67534">
        <ele>323</ele>
        <time>2016-11-03T13:47:24Z</time>
      </trkpt>
      <trkpt lat="46.15629" lon="4.67532">
        <ele>323</ele>
        <time>2016-11-03T13:47:25Z</time>
      </trkpt>
      <trkpt lat="46.15625" lon="4.67522">
        <ele>323</ele>
        <time>2016-11-03T13:47:37Z</time>
      </trkpt>
      <trkpt lat="46.15624" lon="4.67521">
        <ele>323</ele>
        <time>2016-11-03T13:47:38Z</time>
      </trkpt>
      <trkpt lat="46.15619" lon="4.67511">
        <ele>323</ele>
        <time>2016-11-03T13:47:45Z</time>
      </trkpt>
      <trkpt lat="46.15618" lon="4.6751">
        <ele>323</ele>
        <time>2016-11-03T13:47:46Z</time>
      </trkpt>
      <trkpt lat="46.1561" lon="4.67506">
        <ele>324</ele>
        <time>2016-11-03T13:47:54Z</time>
      </trkpt>
      <trkpt lat="46.15609" lon="4.67507">
        <ele>324</ele>
        <time>2016-11-03T13:47:55Z</time>
      </trkpt>
      <trkpt lat="46.15601" lon="4.6751">
        <ele>324</ele>
        <time>2016-11-03T13:48:03Z</time>
      </trkpt>
      <trkpt lat="46.15599" lon="4.67511">
        <ele>324</ele>
        <time>2016-11-03T13:48:04Z</time>
      </trkpt>
      <trkpt lat="46.15591" lon="4.67513">
        <ele>324</ele>
        <time>2016-11-03T13:48:10Z</time>
      </trkpt>
      <trkpt lat="46.1559" lon="4.67514">
        <ele>324</ele>
        <time>2016-11-03T13:48:11Z</time>
      </trkpt>
      <trkpt lat="46.15583" lon="4.67521">
        <ele>327</ele>
        <time>2016-11-03T13:48:18Z</time>
      </trkpt>
      <trkpt lat="46.15582" lon="4.67522">
        <ele>327</ele>
        <time>2016-11-03T13:48:19Z</time>
      </trkpt>
      <trkpt lat="46.15576" lon="4.67529">
        <ele>327</ele>
        <time>2016-11-03T13:48:28Z</time>
      </trkpt>
      <trkpt lat="46.15574" lon="4.6753">
        <ele>327</ele>
        <time>2016-11-03T13:48:29Z</time>
      </trkpt>
      <trkpt lat="46.15566" lon="4.67534">
        <ele>328</ele>
        <time>2016-11-03T13:48:39Z</time>
      </trkpt>
      <trkpt lat="46.15566" lon="4.67535">
        <ele>328</ele>
        <time>2016-11-03T13:48:40Z</time>
      </trkpt>
      <trkpt lat="46.15558" lon="4.67541">
        <ele>328</ele>
        <time>2016-11-03T13:48:49Z</time>
      </trkpt>
      <trkpt lat="46.15557" lon="4.67542">
        <ele>328</ele>
        <time>2016-11-03T13:48:50Z</time>
      </trkpt>
      <trkpt lat="46.1555" lon="4.67548">
        <ele>328</ele>
        <time>2016-11-03T13:49:00Z</time>
      </trkpt>
      <trkpt lat="46.15549" lon="4.67548">
        <ele>328</ele>
        <time>2016-11-03T13:49:01Z</time>
      </trkpt>
      <trkpt lat="46.15542" lon="4.67554">
        <ele>329</ele>
        <time>2016-11-03T13:49:10Z</time>
      </trkpt>
      <trkpt lat="46.15541" lon="4.67555">
        <ele>329</ele>
        <time>2016-11-03T13:49:11Z</time>
      </trkpt>
      <trkpt lat="46.15533" lon="4.67559">
        <ele>330</ele>
        <time>2016-11-03T13:49:21Z</time>
      </trkpt>
      <trkpt lat="46.15532" lon="4.67558">
        <ele>330</ele>
        <time>2016-11-03T13:49:22Z</time>
      </trkpt>
      <trkpt lat="46.15524" lon="4.67555">
        <ele>330</ele>
        <time>2016-11-03T13:49:31Z</time>
      </trkpt>
      <trkpt lat="46.15523" lon="4.67556">
        <ele>330</ele>
        <time>2016-11-03T13:49:32Z</time>
      </trkpt>
      <trkpt lat="46.15515" lon="4.67559">
        <ele>331</ele>
        <time>2016-11-03T13:49:39Z</time>
      </trkpt>
      <trkpt lat="46.15514" lon="4.67559">
        <ele>331</ele>
        <time>2016-11-03T13:49:40Z</time>
      </trkpt>
      <trkpt lat="46.15506" lon="4.67566">
        <ele>332</ele>
        <time>2016-11-03T13:49:48Z</time>
      </trkpt>
      <trkpt lat="46.15505" lon="4.67567">
        <ele>332</ele>
        <time>2016-11-03T13:49:49Z</time>
      </trkpt>
      <trkpt lat="46.15497" lon="4.6757">
        <ele>335</ele>
        <time>2016-11-03T13:49:58Z</time>
      </trkpt>
      <trkpt lat="46.15496" lon="4.67571">
        <ele>335</ele>
        <time>2016-11-03T13:49:59Z</time>
      </trkpt>
      <trkpt lat="46.15488" lon="4.67575">
        <ele>335</ele>
        <time>2016-11-03T13:50:10Z</time>
      </trkpt>
      <trkpt lat="46.15487" lon="4.67575">
        <ele>335</ele>
        <time>2016-11-03T13:50:11Z</time>
      </trkpt>
      <trkpt lat="46.15479" lon="4.67576">
        <ele>336</ele>
        <time>2016-11-03T13:50:22Z</time>
      </trkpt>
      <trkpt lat="46.15478" lon="4.67577">
        <ele>336</ele>
        <time>2016-11-03T13:50:23Z</time>
      </trkpt>
      <trkpt lat="46.1547" lon="4.67582">
        <ele>336</ele>
        <time>2016-11-03T13:50:36Z</time>
      </trkpt>
      <trkpt lat="46.15469" lon="4.67582">
        <ele>336</ele>
        <time>2016-11-03T13:50:37Z</time>
      </trkpt>
      <trkpt lat="46.1546" lon="4.67583">
        <ele>337</ele>
        <time>2016-11-03T13:50:49Z</time>
      </trkpt>
      <trkpt lat="46.15459" lon="4.67583">
        <ele>337</ele>
        <time>2016-11-03T13:50:50Z</time>
      </trkpt>
      <trkpt lat="46.15451" lon="4.67584">
        <ele>341</ele>
        <time>2016-11-03T13:51:04Z</time>
      </trkpt>
      <trkpt lat="46.1545" lon="4.67584">
        <ele>341</ele>
        <time>2016-11-03T13:51:05Z</time>
      </trkpt>
      <trkpt lat="46.15442" lon="4.67585">
        <ele>342</ele>
        <time>2016-11-03T13:51:15Z</time>
      </trkpt>
      <trkpt lat="46.1544" lon="4.67585">
        <ele>342</ele>
        <time>2016-11-03T13:51:16Z</time>
      </trkpt>
      <trkpt lat="46.15433" lon="4.67589">
        <ele>343</ele>
        <time>2016-11-03T13:51:23Z</time>
      </trkpt>
      <trkpt lat="46.15432" lon="4.6759">
        <ele>343</ele>
        <time>2016-11-03T13:51:24Z</time>
      </trkpt>
      <trkpt lat="46.15423" lon="4.67592">
        <ele>343</ele>
        <time>2016-11-03T13:51:31Z</time>
      </trkpt>
      <trkpt lat="46.15422" lon="4.67592">
        <ele>343</ele>
        <time>2016-11-03T13:51:32Z</time>
      </trkpt>
      <trkpt lat="46.15414" lon="4.67595">
        <ele>345</ele>
        <time>2016-11-03T13:51:40Z</time>
      </trkpt>
      <trkpt lat="46.15413" lon="4.67595">
        <ele>345</ele>
        <time>2016-11-03T13:51:41Z</time>
      </trkpt>
      <trkpt lat="46.15404" lon="4.67597">
        <ele>346</ele>
        <time>2016-11-03T13:51:47Z</time>
      </trkpt>
      <trkpt lat="46.15403" lon="4.67598">
        <ele>346</ele>
        <time>2016-11-03T13:51:48Z</time>
      </trkpt>
      <trkpt lat="46.15394" lon="4.67601">
        <ele>347</ele>
        <time>2016-11-03T13:51:55Z</time>
      </trkpt>
      <trkpt lat="46.15393" lon="4.67602">
        <ele>347</ele>
        <time>2016-11-03T13:51:56Z</time>
      </trkpt>
      <trkpt lat="46.15386" lon="4.67608">
        <ele>347</ele>
        <time>2016-11-03T13:52:04Z</time>
      </trkpt>
      <trkpt lat="46.15385" lon="4.67609">
        <ele>347</ele>
        <time>2016-11-03T13:52:05Z</time>
      </trkpt>
      <trkpt lat="46.15378" lon="4.67614">
        <ele>347</ele>
        <time>2016-11-03T13:52:12Z</time>
      </trkpt>
      <trkpt lat="46.15377" lon="4.67615">
        <ele>347</ele>
        <time>2016-11-03T13:52:13Z</time>
      </trkpt>
      <trkpt lat="46.15369" lon="4.67622">
        <ele>348</ele>
        <time>2016-11-03T13:52:20Z</time>
      </trkpt>
      <trkpt lat="46.15368" lon="4.67623">
        <ele>348</ele>
        <time>2016-11-03T13:52:21Z</time>
      </trkpt>
      <trkpt lat="46.1536" lon="4.67625">
        <ele>348</ele>
        <time>2016-11-03T13:52:28Z</time>
      </trkpt>
      <trkpt lat="46.15359" lon="4.67625">
        <ele>348</ele>
        <time>2016-11-03T13:52:29Z</time>
      </trkpt>
      <trkpt lat="46.15351" lon="4.67626">
        <ele>348</ele>
        <time>2016-11-03T13:52:36Z</time>
      </trkpt>
      <trkpt lat="46.1535" lon="4.67626">
        <ele>348</ele>
        <time>2016-11-03T13:52:37Z</time>
      </trkpt>
      <trkpt lat="46.15341" lon="4.67627">
        <ele>348</ele>
        <time>2016-11-03T13:52:44Z</time>
      </trkpt>
      <trkpt lat="46.1534" lon="4.67627">
        <ele>348</ele>
        <time>2016-11-03T13:52:45Z</time>
      </trkpt>
      <trkpt lat="46.15331" lon="4.67629">
        <ele>350</ele>
        <time>2016-11-03T13:52:52Z</time>
      </trkpt>
      <trkpt lat="46.1533" lon="4.67629">
        <ele>350</ele>
        <time>2016-11-03T13:52:53Z</time>
      </trkpt>
      <trkpt lat="46.15322" lon="4.67631">
        <ele>350</ele>
        <time>2016-11-03T13:53:00Z</time>
      </trkpt>
      <trkpt lat="46.1532" lon="4.67632">
        <ele>350</ele>
        <time>2016-11-03T13:53:01Z</time>
      </trkpt>
      <trkpt lat="46.15314" lon="4.67641">
        <ele>350</ele>
        <time>2016-11-03T13:53:10Z</time>
      </trkpt>
      <trkpt lat="46.15314" lon="4.67642">
        <ele>350</ele>
        <time>2016-11-03T13:53:11Z</time>
      </trkpt>
      <trkpt lat="46.15314" lon="4.67654">
        <ele>351</ele>
        <time>2016-11-03T13:53:19Z</time>
      </trkpt>
      <trkpt lat="46.15314" lon="4.67655">
        <ele>351</ele>
        <time>2016-11-03T13:53:20Z</time>
      </trkpt>
      <trkpt lat="46.15318" lon="4.67666">
        <ele>351</ele>
        <time>2016-11-03T13:54:02Z</time>
      </trkpt>
      <trkpt lat="46.15319" lon="4.67668">
        <ele>352</ele>
        <time>2016-11-03T13:54:03Z</time>
      </trkpt>
      <trkpt lat="46.1532" lon="4.6768">
        <ele>352</ele>
        <time>2016-11-03T13:54:10Z</time>
      </trkpt>
      <trkpt lat="46.1532" lon="4.67682">
        <ele>352</ele>
        <time>2016-11-03T13:54:11Z</time>
      </trkpt>
      <trkpt lat="46.15321" lon="4.67693">
        <ele>352</ele>
        <time>2016-11-03T13:54:17Z</time>
      </trkpt>
      <trkpt lat="46.15321" lon="4.67695">
        <ele>352</ele>
        <time>2016-11-03T13:54:18Z</time>
      </trkpt>
      <trkpt lat="46.15323" lon="4.67706">
        <ele>352</ele>
        <time>2016-11-03T13:54:25Z</time>
      </trkpt>
      <trkpt lat="46.15324" lon="4.67708">
        <ele>352</ele>
        <time>2016-11-03T13:54:26Z</time>
      </trkpt>
      <trkpt lat="46.15326" lon="4.6772">
        <ele>352</ele>
        <time>2016-11-03T13:54:34Z</time>
      </trkpt>
      <trkpt lat="46.15326" lon="4.67721">
        <ele>352</ele>
        <time>2016-11-03T13:54:35Z</time>
      </trkpt>
      <trkpt lat="46.1533" lon="4.67732">
        <ele>352</ele>
        <time>2016-11-03T13:54:43Z</time>
      </trkpt>
      <trkpt lat="46.15331" lon="4.67733">
        <ele>352</ele>
        <time>2016-11-03T13:54:44Z</time>
      </trkpt>
      <trkpt lat="46.15333" lon="4.67744">
        <ele>351</ele>
        <time>2016-11-03T13:54:52Z</time>
      </trkpt>
      <trkpt lat="46.15334" lon="4.67746">
        <ele>352</ele>
        <time>2016-11-03T13:54:53Z</time>
      </trkpt>
      <trkpt lat="46.15332" lon="4.67758">
        <ele>351</ele>
        <time>2016-11-03T13:55:00Z</time>
      </trkpt>
      <trkpt lat="46.15331" lon="4.67759">
        <ele>351</ele>
        <time>2016-11-03T13:55:01Z</time>
      </trkpt>
      <trkpt lat="46.15323" lon="4.67761">
        <ele>351</ele>
        <time>2016-11-03T13:55:09Z</time>
      </trkpt>
      <trkpt lat="46.15322" lon="4.67761">
        <ele>351</ele>
        <time>2016-11-03T13:55:10Z</time>
      </trkpt>
      <trkpt lat="46.15314" lon="4.67764">
        <ele>350</ele>
        <time>2016-11-03T13:55:18Z</time>
      </trkpt>
      <trkpt lat="46.15313" lon="4.67764">
        <ele>350</ele>
        <time>2016-11-03T13:55:19Z</time>
      </trkpt>
      <trkpt lat="46.15305" lon="4.67765">
        <ele>350</ele>
        <time>2016-11-03T13:55:27Z</time>
      </trkpt>
      <trkpt lat="46.15304" lon="4.67765">
        <ele>350</ele>
        <time>2016-11-03T13:55:28Z</time>
      </trkpt>
      <trkpt lat="46.15297" lon="4.67772">
        <ele>350</ele>
        <time>2016-11-03T13:55:40Z</time>
      </trkpt>
      <trkpt lat="46.15296" lon="4.67773">
        <ele>350</ele>
        <time>2016-11-03T13:55:41Z</time>
      </trkpt>
      <trkpt lat="46.15288" lon="4.67778">
        <ele>350</ele>
        <time>2016-11-03T13:55:49Z</time>
      </trkpt>
      <trkpt lat="46.15287" lon="4.67778">
        <ele>350</ele>
        <time>2016-11-03T13:55:50Z</time>
      </trkpt>
      <trkpt lat="46.15278" lon="4.67781">
        <ele>350</ele>
        <time>2016-11-03T13:55:58Z</time>
      </trkpt>
      <trkpt lat="46.15277" lon="4.67782">
        <ele>350</ele>
        <time>2016-11-03T13:55:59Z</time>
      </trkpt>
      <trkpt lat="46.1527" lon="4.67782">
        <ele>350</ele>
        <time>2016-11-03T13:56:06Z</time>
      </trkpt>
      <trkpt lat="46.15268" lon="4.67782">
        <ele>350</ele>
        <time>2016-11-03T13:56:07Z</time>
      </trkpt>
      <trkpt lat="46.1526" lon="4.67783">
        <ele>350</ele>
        <time>2016-11-03T13:56:14Z</time>
      </trkpt>
      <trkpt lat="46.15259" lon="4.67782">
        <ele>350</ele>
        <time>2016-11-03T13:56:15Z</time>
      </trkpt>
      <trkpt lat="46.15251" lon="4.67782">
        <ele>350</ele>
        <time>2016-11-03T13:56:25Z</time>
      </trkpt>
      <trkpt lat="46.1525" lon="4.67782">
        <ele>351</ele>
        <time>2016-11-03T13:56:26Z</time>
      </trkpt>
      <trkpt lat="46.15241" lon="4.67781">
        <ele>351</ele>
        <time>2016-11-03T13:56:35Z</time>
      </trkpt>
      <trkpt lat="46.15241" lon="4.6778">
        <ele>351</ele>
        <time>2016-11-03T13:56:36Z</time>
      </trkpt>
      <trkpt lat="46.15241" lon="4.67767">
        <ele>352</ele>
        <time>2016-11-03T13:56:43Z</time>
      </trkpt>
      <trkpt lat="46.15241" lon="4.67766">
        <ele>352</ele>
        <time>2016-11-03T13:56:44Z</time>
      </trkpt>
      <trkpt lat="46.15238" lon="4.67754">
        <ele>352</ele>
        <time>2016-11-03T13:56:52Z</time>
      </trkpt>
      <trkpt lat="46.15237" lon="4.67753">
        <ele>352</ele>
        <time>2016-11-03T13:56:53Z</time>
      </trkpt>
      <trkpt lat="46.15229" lon="4.67753">
        <ele>352</ele>
        <time>2016-11-03T13:57:00Z</time>
      </trkpt>
      <trkpt lat="46.15227" lon="4.67753">
        <ele>352</ele>
        <time>2016-11-03T13:57:01Z</time>
      </trkpt>
      <trkpt lat="46.15219" lon="4.67752">
        <ele>352</ele>
        <time>2016-11-03T13:57:08Z</time>
      </trkpt>
      <trkpt lat="46.15218" lon="4.67752">
        <ele>352</ele>
        <time>2016-11-03T13:57:09Z</time>
      </trkpt>
      <trkpt lat="46.1521" lon="4.67752">
        <ele>351</ele>
        <time>2016-11-03T13:57:17Z</time>
      </trkpt>
      <trkpt lat="46.15208" lon="4.67752">
        <ele>351</ele>
        <time>2016-11-03T13:57:18Z</time>
      </trkpt>
      <trkpt lat="46.152" lon="4.67753">
        <ele>351</ele>
        <time>2016-11-03T13:57:25Z</time>
      </trkpt>
      <trkpt lat="46.15199" lon="4.67753">
        <ele>351</ele>
        <time>2016-11-03T13:57:26Z</time>
      </trkpt>
      <trkpt lat="46.15191" lon="4.67755">
        <ele>351</ele>
        <time>2016-11-03T13:57:32Z</time>
      </trkpt>
      <trkpt lat="46.1519" lon="4.67755">
        <ele>351</ele>
        <time>2016-11-03T13:57:33Z</time>
      </trkpt>
      <trkpt lat="46.15182" lon="4.67757">
        <ele>352</ele>
        <time>2016-11-03T13:57:39Z</time>
      </trkpt>
      <trkpt lat="46.15181" lon="4.67757">
        <ele>352</ele>
        <time>2016-11-03T13:57:40Z</time>
      </trkpt>
      <trkpt lat="46.15173" lon="4.67757">
        <ele>352</ele>
        <time>2016-11-03T13:57:47Z</time>
      </trkpt>
      <trkpt lat="46.15171" lon="4.67757">
        <ele>352</ele>
        <time>2016-11-03T13:57:48Z</time>
      </trkpt>
      <trkpt lat="46.15162" lon="4.67759">
        <ele>351</ele>
        <time>2016-11-03T13:57:56Z</time>
      </trkpt>
      <trkpt lat="46.15162" lon="4.6776">
        <ele>351</ele>
        <time>2016-11-03T13:57:57Z</time>
      </trkpt>
      <trkpt lat="46.15155" lon="4.67768">
        <ele>351</ele>
        <time>2016-11-03T13:58:24Z</time>
      </trkpt>
      <trkpt lat="46.15155" lon="4.67768">
        <ele>351</ele>
        <time>2016-11-03T13:58:25Z</time>
      </trkpt>
      <trkpt lat="46.15146" lon="4.67766">
        <ele>351</ele>
        <time>2016-11-03T13:58:33Z</time>
      </trkpt>
      <trkpt lat="46.15145" lon="4.67765">
        <ele>351</ele>
        <time>2016-11-03T13:58:34Z</time>
      </trkpt>
      <trkpt lat="46.15137" lon="4.67763">
        <ele>351</ele>
        <time>2016-11-03T13:58:42Z</time>
      </trkpt>
      <trkpt lat="46.15136" lon="4.67763">
        <ele>350</ele>
        <time>2016-11-03T13:58:43Z</time>
      </trkpt>
      <trkpt lat="46.15127" lon="4.67764">
        <ele>350</ele>
        <time>2016-11-03T13:58:51Z</time>
      </trkpt>
      <trkpt lat="46.15126" lon="4.67763">
        <ele>350</ele>
        <time>2016-11-03T13:58:52Z</time>
      </trkpt>
      <trkpt lat="46.15118" lon="4.6776">
        <ele>350</ele>
        <time>2016-11-03T13:58:59Z</time>
      </trkpt>
      <trkpt lat="46.15117" lon="4.6776">
        <ele>350</ele>
        <time>2016-11-03T13:59:00Z</time>
      </trkpt>
      <trkpt lat="46.15108" lon="4.67758">
        <ele>350</ele>
        <time>2016-11-03T13:59:08Z</time>
      </trkpt>
      <trkpt lat="46.15107" lon="4.67758">
        <ele>350</ele>
        <time>2016-11-03T13:59:09Z</time>
      </trkpt>
      <trkpt lat="46.15099" lon="4.67757">
        <ele>349</ele>
        <time>2016-11-03T13:59:17Z</time>
      </trkpt>
      <trkpt lat="46.15098" lon="4.67757">
        <ele>349</ele>
        <time>2016-11-03T13:59:18Z</time>
      </trkpt>
      <trkpt lat="46.15089" lon="4.67756">
        <ele>349</ele>
        <time>2016-11-03T13:59:45Z</time>
      </trkpt>
      <trkpt lat="46.15088" lon="4.67756">
        <ele>349</ele>
        <time>2016-11-03T13:59:46Z</time>
      </trkpt>
      <trkpt lat="46.15079" lon="4.67756">
        <ele>347</ele>
        <time>2016-11-03T13:59:54Z</time>
      </trkpt>
      <trkpt lat="46.15078" lon="4.67756">
        <ele>347</ele>
        <time>2016-11-03T13:59:55Z</time>
      </trkpt>
      <trkpt lat="46.1507" lon="4.67751">
        <ele>346</ele>
        <time>2016-11-03T14:00:03Z</time>
      </trkpt>
      <trkpt lat="46.15069" lon="4.67751">
        <ele>346</ele>
        <time>2016-11-03T14:00:04Z</time>
      </trkpt>
      <trkpt lat="46.15061" lon="4.67751">
        <ele>345</ele>
        <time>2016-11-03T14:00:12Z</time>
      </trkpt>
      <trkpt lat="46.1506" lon="4.67751">
        <ele>344</ele>
        <time>2016-11-03T14:00:13Z</time>
      </trkpt>
      <trkpt lat="46.15051" lon="4.67752">
        <ele>344</ele>
        <time>2016-11-03T14:00:21Z</time>
      </trkpt>
      <trkpt lat="46.1505" lon="4.67752">
        <ele>343</ele>
        <time>2016-11-03T14:00:22Z</time>
      </trkpt>
      <trkpt lat="46.15042" lon="4.67751">
        <ele>342</ele>
        <time>2016-11-03T14:00:30Z</time>
      </trkpt>
      <trkpt lat="46.15041" lon="4.67751">
        <ele>342</ele>
        <time>2016-11-03T14:00:31Z</time>
      </trkpt>
      <trkpt lat="46.15032" lon="4.67747">
        <ele>339</ele>
        <time>2016-11-03T14:00:39Z</time>
      </trkpt>
      <trkpt lat="46.15031" lon="4.67746">
        <ele>339</ele>
        <time>2016-11-03T14:00:40Z</time>
      </trkpt>
      <trkpt lat="46.15024" lon="4.67742">
        <ele>338</ele>
        <time>2016-11-03T14:00:48Z</time>
      </trkpt>
      <trkpt lat="46.15023" lon="4.67742">
        <ele>338</ele>
        <time>2016-11-03T14:00:49Z</time>
      </trkpt>
      <trkpt lat="46.15014" lon="4.67739">
        <ele>337</ele>
        <time>2016-11-03T14:00:58Z</time>
      </trkpt>
      <trkpt lat="46.15013" lon="4.67739">
        <ele>337</ele>
        <time>2016-11-03T14:00:59Z</time>
      </trkpt>
      <trkpt lat="46.15006" lon="4.67732">
        <ele>337</ele>
        <time>2016-11-03T14:01:08Z</time>
      </trkpt>
      <trkpt lat="46.15005" lon="4.67732">
        <ele>337</ele>
        <time>2016-11-03T14:01:09Z</time>
      </trkpt>
      <trkpt lat="46.14997" lon="4.67727">
        <ele>330</ele>
        <time>2016-11-03T14:01:16Z</time>
      </trkpt>
      <trkpt lat="46.14996" lon="4.67726">
        <ele>330</ele>
        <time>2016-11-03T14:01:17Z</time>
      </trkpt>
      <trkpt lat="46.14988" lon="4.67725">
        <ele>329</ele>
        <time>2016-11-03T14:01:26Z</time>
      </trkpt>
      <trkpt lat="46.14987" lon="4.67725">
        <ele>329</ele>
        <time>2016-11-03T14:01:27Z</time>
      </trkpt>
      <trkpt lat="46.14979" lon="4.67722">
        <ele>328</ele>
        <time>2016-11-03T14:02:10Z</time>
      </trkpt>
      <trkpt lat="46.14978" lon="4.67722">
        <ele>328</ele>
        <time>2016-11-03T14:02:11Z</time>
      </trkpt>
      <trkpt lat="46.1497" lon="4.67719">
        <ele>327</ele>
        <time>2016-11-03T14:02:22Z</time>
      </trkpt>
      <trkpt lat="46.14969" lon="4.67718">
        <ele>327</ele>
        <time>2016-11-03T14:02:23Z</time>
      </trkpt>
      <trkpt lat="46.14961" lon="4.67714">
        <ele>326</ele>
        <time>2016-11-03T14:02:31Z</time>
      </trkpt>
      <trkpt lat="46.1496" lon="4.67714">
        <ele>326</ele>
        <time>2016-11-03T14:02:32Z</time>
      </trkpt>
      <trkpt lat="46.14951" lon="4.67713">
        <ele>325</ele>
        <time>2016-11-03T14:02:39Z</time>
      </trkpt>
      <trkpt lat="46.1495" lon="4.67713">
        <ele>325</ele>
        <time>2016-11-03T14:02:40Z</time>
      </trkpt>
      <trkpt lat="46.14942" lon="4.67715">
        <ele>325</ele>
        <time>2016-11-03T14:02:47Z</time>
      </trkpt>
      <trkpt lat="46.14941" lon="4.67715">
        <ele>324</ele>
        <time>2016-11-03T14:02:48Z</time>
      </trkpt>
      <trkpt lat="46.14937" lon="4.67706">
        <ele>324</ele>
        <time>2016-11-03T14:02:55Z</time>
      </trkpt>
      <trkpt lat="46.14936" lon="4.67704">
        <ele>324</ele>
        <time>2016-11-03T14:02:56Z</time>
      </trkpt>
      <trkpt lat="46.14935" lon="4.67691">
        <ele>324</ele>
        <time>2016-11-03T14:03:02Z</time>
      </trkpt>
      <trkpt lat="46.14935" lon="4.67689">
        <ele>323</ele>
        <time>2016-11-03T14:03:03Z</time>
      </trkpt>
      <trkpt lat="46.14936" lon="4.67678">
        <ele>323</ele>
        <time>2016-11-03T14:03:08Z</time>
      </trkpt>
      <trkpt lat="46.14935" lon="4.67676">
        <ele>323</ele>
        <time>2016-11-03T14:03:09Z</time>
      </trkpt>
      <trkpt lat="46.14933" lon="4.67665">
        <ele>321</ele>
        <time>2016-11-03T14:03:15Z</time>
      </trkpt>
      <trkpt lat="46.14933" lon="4.67663">
        <ele>321</ele>
        <time>2016-11-03T14:03:16Z</time>
      </trkpt>
      <trkpt lat="46.14932" lon="4.6765">
        <ele>322</ele>
        <time>2016-11-03T14:03:23Z</time>
      </trkpt>
      <trkpt lat="46.14932" lon="4.67649">
        <ele>322</ele>
        <time>2016-11-03T14:03:24Z</time>
      </trkpt>
      <trkpt lat="46.14929" lon="4.67638">
        <ele>322</ele>
        <time>2016-11-03T14:03:31Z</time>
      </trkpt>
      <trkpt lat="46.14928" lon="4.67637">
        <ele>322</ele>
        <time>2016-11-03T14:03:32Z</time>
      </trkpt>
      <trkpt lat="46.14921" lon="4.67631">
        <ele>322</ele>
        <time>2016-11-03T14:03:39Z</time>
      </trkpt>
      <trkpt lat="46.1492" lon="4.6763">
        <ele>322</ele>
        <time>2016-11-03T14:03:40Z</time>
      </trkpt>
      <trkpt lat="46.14913" lon="4.67625">
        <ele>316</ele>
        <time>2016-11-03T14:03:48Z</time>
      </trkpt>
      <trkpt lat="46.14912" lon="4.67625">
        <ele>316</ele>
        <time>2016-11-03T14:03:49Z</time>
      </trkpt>
      <trkpt lat="46.14904" lon="4.67621">
        <ele>316</ele>
        <time>2016-11-03T14:03:56Z</time>
      </trkpt>
      <trkpt lat="46.14903" lon="4.6762">
        <ele>316</ele>
        <time>2016-11-03T14:03:57Z</time>
      </trkpt>
      <trkpt lat="46.14896" lon="4.67616">
        <ele>315</ele>
        <time>2016-11-03T14:04:03Z</time>
      </trkpt>
      <trkpt lat="46.14894" lon="4.67616">
        <ele>315</ele>
        <time>2016-11-03T14:04:04Z</time>
      </trkpt>
      <trkpt lat="46.14886" lon="4.67615">
        <ele>315</ele>
        <time>2016-11-03T14:04:10Z</time>
      </trkpt>
      <trkpt lat="46.14885" lon="4.67616">
        <ele>315</ele>
        <time>2016-11-03T14:04:11Z</time>
      </trkpt>
      <trkpt lat="46.14877" lon="4.67617">
        <ele>314</ele>
        <time>2016-11-03T14:04:17Z</time>
      </trkpt>
      <trkpt lat="46.14876" lon="4.67618">
        <ele>314</ele>
        <time>2016-11-03T14:04:18Z</time>
      </trkpt>
      <trkpt lat="46.14868" lon="4.67621">
        <ele>314</ele>
        <time>2016-11-03T14:04:24Z</time>
      </trkpt>
      <trkpt lat="46.14867" lon="4.67622">
        <ele>314</ele>
        <time>2016-11-03T14:04:25Z</time>
      </trkpt>
      <trkpt lat="46.14859" lon="4.67624">
        <ele>313</ele>
        <time>2016-11-03T14:04:31Z</time>
      </trkpt>
      <trkpt lat="46.14857" lon="4.67625">
        <ele>313</ele>
        <time>2016-11-03T14:04:32Z</time>
      </trkpt>
      <trkpt lat="46.1485" lon="4.67626">
        <ele>313</ele>
        <time>2016-11-03T14:04:38Z</time>
      </trkpt>
      <trkpt lat="46.14848" lon="4.67626">
        <ele>313</ele>
        <time>2016-11-03T14:04:39Z</time>
      </trkpt>
      <trkpt lat="46.1484" lon="4.67626">
        <ele>313</ele>
        <time>2016-11-03T14:04:45Z</time>
      </trkpt>
      <trkpt lat="46.14839" lon="4.67626">
        <ele>313</ele>
        <time>2016-11-03T14:04:46Z</time>
      </trkpt>
      <trkpt lat="46.1483" lon="4.67627">
        <ele>308</ele>
        <time>2016-11-03T14:04:52Z</time>
      </trkpt>
      <trkpt lat="46.14829" lon="4.67627">
        <ele>308</ele>
        <time>2016-11-03T14:04:53Z</time>
      </trkpt>
      <trkpt lat="46.14821" lon="4.67628">
        <ele>308</ele>
        <time>2016-11-03T14:04:59Z</time>
      </trkpt>
      <trkpt lat="46.14819" lon="4.67628">
        <ele>308</ele>
        <time>2016-11-03T14:05:00Z</time>
      </trkpt>
      <trkpt lat="46.14811" lon="4.67627">
        <ele>308</ele>
        <time>2016-11-03T14:05:07Z</time>
      </trkpt>
      <trkpt lat="46.1481" lon="4.67627">
        <ele>308</ele>
        <time>2016-11-03T14:05:08Z</time>
      </trkpt>
      <trkpt lat="46.14802" lon="4.67627">
        <ele>308</ele>
        <time>2016-11-03T14:05:14Z</time>
      </trkpt>
      <trkpt lat="46.14801" lon="4.67628">
        <ele>308</ele>
        <time>2016-11-03T14:05:15Z</time>
      </trkpt>
      <trkpt lat="46.14793" lon="4.6763">
        <ele>308</ele>
        <time>2016-11-03T14:05:21Z</time>
      </trkpt>
      <trkpt lat="46.14791" lon="4.67631">
        <ele>307</ele>
        <time>2016-11-03T14:05:22Z</time>
      </trkpt>
      <trkpt lat="46.14783" lon="4.67632">
        <ele>307</ele>
        <time>2016-11-03T14:05:29Z</time>
      </trkpt>
      <trkpt lat="46.14782" lon="4.67632">
        <ele>307</ele>
        <time>2016-11-03T14:05:30Z</time>
      </trkpt>
      <trkpt lat="46.14773" lon="4.67634">
        <ele>307</ele>
        <time>2016-11-03T14:05:37Z</time>
      </trkpt>
      <trkpt lat="46.14772" lon="4.67634">
        <ele>307</ele>
        <time>2016-11-03T14:05:38Z</time>
      </trkpt>
      <trkpt lat="46.14764" lon="4.67633">
        <ele>307</ele>
        <time>2016-11-03T14:05:46Z</time>
      </trkpt>
      <trkpt lat="46.14763" lon="4.67633">
        <ele>307</ele>
        <time>2016-11-03T14:05:47Z</time>
      </trkpt>
      <trkpt lat="46.14755" lon="4.67626">
        <ele>307</ele>
        <time>2016-11-03T14:06:19Z</time>
      </trkpt>
      <trkpt lat="46.14755" lon="4.67624">
        <ele>307</ele>
        <time>2016-11-03T14:06:20Z</time>
      </trkpt>
      <trkpt lat="46.14752" lon="4.67613">
        <ele>306</ele>
        <time>2016-11-03T14:06:27Z</time>
      </trkpt>
      <trkpt lat="46.14751" lon="4.67611">
        <ele>306</ele>
        <time>2016-11-03T14:06:28Z</time>
      </trkpt>
      <trkpt lat="46.14748" lon="4.676">
        <ele>304</ele>
        <time>2016-11-03T14:06:35Z</time>
      </trkpt>
      <trkpt lat="46.14747" lon="4.67598">
        <ele>304</ele>
        <time>2016-11-03T14:06:36Z</time>
      </trkpt>
      <trkpt lat="46.14743" lon="4.67587">
        <ele>304</ele>
        <time>2016-11-03T14:06:49Z</time>
      </trkpt>
      <trkpt lat="46.14742" lon="4.67587">
        <ele>304</ele>
        <time>2016-11-03T14:06:50Z</time>
      </trkpt>
      <trkpt lat="46.14737" lon="4.67595">
        <ele>304</ele>
        <time>2016-11-03T14:06:57Z</time>
      </trkpt>
      <trkpt lat="46.14736" lon="4.67596">
        <ele>304</ele>
        <time>2016-11-03T14:06:58Z</time>
      </trkpt>
      <trkpt lat="46.14728" lon="4.67601">
        <ele>303</ele>
        <time>2016-11-03T14:07:05Z</time>
      </trkpt>
      <trkpt lat="46.14726" lon="4.67601">
        <ele>303</ele>
        <time>2016-11-03T14:07:06Z</time>
      </trkpt>
      <trkpt lat="46.14719" lon="4.67595">
        <ele>303</ele>
        <time>2016-11-03T14:07:13Z</time>
      </trkpt>
      <trkpt lat="46.14718" lon="4.67594">
        <ele>303</ele>
        <time>2016-11-03T14:07:14Z</time>
      </trkpt>
      <trkpt lat="46.14715" lon="4.67582">
        <ele>303</ele>
        <time>2016-11-03T14:07:21Z</time>
      </trkpt>
      <trkpt lat="46.14715" lon="4.6758">
        <ele>303</ele>
        <time>2016-11-03T14:07:22Z</time>
      </trkpt>
      <trkpt lat="46.1471" lon="4.67571">
        <ele>303</ele>
        <time>2016-11-03T14:07:28Z</time>
      </trkpt>
      <trkpt lat="46.1471" lon="4.67569">
        <ele>303</ele>
        <time>2016-11-03T14:07:29Z</time>
      </trkpt>
      <trkpt lat="46.14707" lon="4.67557">
        <ele>302</ele>
        <time>2016-11-03T14:07:36Z</time>
      </trkpt>
      <trkpt lat="46.14706" lon="4.67556">
        <ele>302</ele>
        <time>2016-11-03T14:07:37Z</time>
      </trkpt>
      <trkpt lat="46.14702" lon="4.67546">
        <ele>302</ele>
        <time>2016-11-03T14:07:43Z</time>
      </trkpt>
      <trkpt lat="46.14701" lon="4.67544">
        <ele>302</ele>
        <time>2016-11-03T14:07:44Z</time>
      </trkpt>
      <trkpt lat="46.14698" lon="4.67533">
        <ele>302</ele>
        <time>2016-11-03T14:07:50Z</time>
      </trkpt>
      <trkpt lat="46.14697" lon="4.67531">
        <ele>302</ele>
        <time>2016-11-03T14:07:51Z</time>
      </trkpt>
      <trkpt lat="46.14691" lon="4.67523">
        <ele>301</ele>
        <time>2016-11-03T14:08:11Z</time>
      </trkpt>
      <trkpt lat="46.1469" lon="4.67522">
        <ele>301</ele>
        <time>2016-11-03T14:08:12Z</time>
      </trkpt>
      <trkpt lat="46.14682" lon="4.67523">
        <ele>301</ele>
        <time>2016-11-03T14:08:23Z</time>
      </trkpt>
      <trkpt lat="46.14681" lon="4.67524">
        <ele>301</ele>
        <time>2016-11-03T14:08:24Z</time>
      </trkpt>
      <trkpt lat="46.14673" lon="4.67525">
        <ele>301</ele>
        <time>2016-11-03T14:08:31Z</time>
      </trkpt>
      <trkpt lat="46.14672" lon="4.67525">
        <ele>301</ele>
        <time>2016-11-03T14:08:32Z</time>
      </trkpt>
      <trkpt lat="46.14664" lon="4.67528">
        <ele>299</ele>
        <time>2016-11-03T14:08:37Z</time>
      </trkpt>
      <trkpt lat="46.14663" lon="4.67529">
        <ele>299</ele>
        <time>2016-11-03T14:08:38Z</time>
      </trkpt>
      <trkpt lat="46.14655" lon="4.67534">
        <ele>299</ele>
        <time>2016-11-03T14:08:45Z</time>
      </trkpt>
      <trkpt lat="46.14654" lon="4.67535">
        <ele>299</ele>
        <time>2016-11-03T14:08:46Z</time>
      </trkpt>
      <trkpt lat="46.14646" lon="4.6754">
        <ele>298</ele>
        <time>2016-11-03T14:08:54Z</time>
      </trkpt>
      <trkpt lat="46.14645" lon="4.67541">
        <ele>298</ele>
        <time>2016-11-03T14:08:55Z</time>
      </trkpt>
      <trkpt lat="46.14639" lon="4.67549">
        <ele>298</ele>
        <time>2016-11-03T14:09:02Z</time>
      </trkpt>
      <trkpt lat="46.14638" lon="4.6755">
        <ele>298</ele>
        <time>2016-11-03T14:09:03Z</time>
      </trkpt>
      <trkpt lat="46.14631" lon="4.67557">
        <ele>298</ele>
        <time>2016-11-03T14:09:09Z</time>
      </trkpt>
      <trkpt lat="46.1463" lon="4.67558">
        <ele>298</ele>
        <time>2016-11-03T14:09:10Z</time>
      </trkpt>
      <trkpt lat="46.14625" lon="4.67567">
        <ele>298</ele>
        <time>2016-11-03T14:09:16Z</time>
      </trkpt>
      <trkpt lat="46.14624" lon="4.67568">
        <ele>298</ele>
        <time>2016-11-03T14:09:17Z</time>
      </trkpt>
      <trkpt lat="46.14618" lon="4.67576">
        <ele>298</ele>
        <time>2016-11-03T14:09:24Z</time>
      </trkpt>
      <trkpt lat="46.14616" lon="4.67577">
        <ele>298</ele>
        <time>2016-11-03T14:09:25Z</time>
      </trkpt>
      <trkpt lat="46.14609" lon="4.67583">
        <ele>297</ele>
        <time>2016-11-03T14:09:31Z</time>
      </trkpt>
      <trkpt lat="46.14607" lon="4.67585">
        <ele>297</ele>
        <time>2016-11-03T14:09:32Z</time>
      </trkpt>
      <trkpt lat="46.14601" lon="4.67591">
        <ele>296</ele>
        <time>2016-11-03T14:09:39Z</time>
      </trkpt>
      <trkpt lat="46.14599" lon="4.67592">
        <ele>296</ele>
        <time>2016-11-03T14:09:40Z</time>
      </trkpt>
      <trkpt lat="46.14592" lon="4.67598">
        <ele>296</ele>
        <time>2016-11-03T14:09:47Z</time>
      </trkpt>
      <trkpt lat="46.14591" lon="4.67599">
        <ele>296</ele>
        <time>2016-11-03T14:09:48Z</time>
      </trkpt>
      <trkpt lat="46.14583" lon="4.67606">
        <ele>294</ele>
        <time>2016-11-03T14:09:55Z</time>
      </trkpt>
      <trkpt lat="46.14582" lon="4.67607">
        <ele>294</ele>
        <time>2016-11-03T14:09:56Z</time>
      </trkpt>
      <trkpt lat="46.14576" lon="4.67613">
        <ele>293</ele>
        <time>2016-11-03T14:10:03Z</time>
      </trkpt>
      <trkpt lat="46.14575" lon="4.67614">
        <ele>293</ele>
        <time>2016-11-03T14:10:04Z</time>
      </trkpt>
      <trkpt lat="46.14568" lon="4.67623">
        <ele>293</ele>
        <time>2016-11-03T14:10:10Z</time>
      </trkpt>
      <trkpt lat="46.14567" lon="4.67624">
        <ele>292</ele>
        <time>2016-11-03T14:10:11Z</time>
      </trkpt>
      <trkpt lat="46.14562" lon="4.67633">
        <ele>292</ele>
        <time>2016-11-03T14:10:17Z</time>
      </trkpt>
      <trkpt lat="46.14561" lon="4.67634">
        <ele>292</ele>
        <time>2016-11-03T14:10:18Z</time>
      </trkpt>
      <trkpt lat="46.14555" lon="4.67643">
        <ele>292</ele>
        <time>2016-11-03T14:10:25Z</time>
      </trkpt>
      <trkpt lat="46.14554" lon="4.67644">
        <ele>292</ele>
        <time>2016-11-03T14:10:26Z</time>
      </trkpt>
      <trkpt lat="46.14547" lon="4.67652">
        <ele>291</ele>
        <time>2016-11-03T14:10:33Z</time>
      </trkpt>
      <trkpt lat="46.14546" lon="4.67652">
        <ele>291</ele>
        <time>2016-11-03T14:10:34Z</time>
      </trkpt>
      <trkpt lat="46.14539" lon="4.67659">
        <ele>291</ele>
        <time>2016-11-03T14:10:42Z</time>
      </trkpt>
      <trkpt lat="46.14538" lon="4.6766">
        <ele>291</ele>
        <time>2016-11-03T14:10:43Z</time>
      </trkpt>
      <trkpt lat="46.1453" lon="4.67664">
        <ele>291</ele>
        <time>2016-11-03T14:10:49Z</time>
      </trkpt>
      <trkpt lat="46.14529" lon="4.67665">
        <ele>291</ele>
        <time>2016-11-03T14:10:50Z</time>
      </trkpt>
      <trkpt lat="46.14522" lon="4.6767">
        <ele>288</ele>
        <time>2016-11-03T14:10:56Z</time>
      </trkpt>
      <trkpt lat="46.1452" lon="4.6767">
        <ele>288</ele>
        <time>2016-11-03T14:10:57Z</time>
      </trkpt>
      <trkpt lat="46.14513" lon="4.67675">
        <ele>288</ele>
        <time>2016-11-03T14:11:03Z</time>
      </trkpt>
      <trkpt lat="46.14512" lon="4.67676">
        <ele>288</ele>
        <time>2016-11-03T14:11:04Z</time>
      </trkpt>
      <trkpt lat="46.14504" lon="4.67681">
        <ele>288</ele>
        <time>2016-11-03T14:11:11Z</time>
      </trkpt>
      <trkpt lat="46.14504" lon="4.67682">
        <ele>288</ele>
        <time>2016-11-03T14:11:12Z</time>
      </trkpt>
      <trkpt lat="46.14499" lon="4.67693">
        <ele>286</ele>
        <time>2016-11-03T14:11:19Z</time>
      </trkpt>
      <trkpt lat="46.14498" lon="4.67694">
        <ele>286</ele>
        <time>2016-11-03T14:11:20Z</time>
      </trkpt>
      <trkpt lat="46.14491" lon="4.67701">
        <ele>286</ele>
        <time>2016-11-03T14:11:26Z</time>
      </trkpt>
      <trkpt lat="46.1449" lon="4.67703">
        <ele>286</ele>
        <time>2016-11-03T14:11:27Z</time>
      </trkpt>
      <trkpt lat="46.14485" lon="4.6771">
        <ele>286</ele>
        <time>2016-11-03T14:11:32Z</time>
      </trkpt>
      <trkpt lat="46.14483" lon="4.67712">
        <ele>286</ele>
        <time>2016-11-03T14:11:33Z</time>
      </trkpt>
      <trkpt lat="46.14479" lon="4.67722">
        <ele>285</ele>
        <time>2016-11-03T14:11:39Z</time>
      </trkpt>
      <trkpt lat="46.14478" lon="4.67723">
        <ele>285</ele>
        <time>2016-11-03T14:11:40Z</time>
      </trkpt>
      <trkpt lat="46.14472" lon="4.67731">
        <ele>285</ele>
        <time>2016-11-03T14:11:46Z</time>
      </trkpt>
      <trkpt lat="46.14471" lon="4.67732">
        <ele>285</ele>
        <time>2016-11-03T14:11:47Z</time>
      </trkpt>
      <trkpt lat="46.14465" lon="4.67741">
        <ele>285</ele>
        <time>2016-11-03T14:11:54Z</time>
      </trkpt>
      <trkpt lat="46.14463" lon="4.67742">
        <ele>285</ele>
        <time>2016-11-03T14:11:55Z</time>
      </trkpt>
      <trkpt lat="46.14456" lon="4.67749">
        <ele>285</ele>
        <time>2016-11-03T14:12:01Z</time>
      </trkpt>
      <trkpt lat="46.14455" lon="4.6775">
        <ele>284</ele>
        <time>2016-11-03T14:12:02Z</time>
      </trkpt>
      <trkpt lat="46.14449" lon="4.67757">
        <ele>281</ele>
        <time>2016-11-03T14:12:08Z</time>
      </trkpt>
      <trkpt lat="46.14448" lon="4.67758">
        <ele>281</ele>
        <time>2016-11-03T14:12:09Z</time>
      </trkpt>
      <trkpt lat="46.14442" lon="4.67765">
        <ele>281</ele>
        <time>2016-11-03T14:12:16Z</time>
      </trkpt>
      <trkpt lat="46.14441" lon="4.67766">
        <ele>281</ele>
        <time>2016-11-03T14:12:17Z</time>
      </trkpt>
      <trkpt lat="46.14434" lon="4.67773">
        <ele>281</ele>
        <time>2016-11-03T14:12:24Z</time>
      </trkpt>
      <trkpt lat="46.14433" lon="4.67775">
        <ele>281</ele>
        <time>2016-11-03T14:12:25Z</time>
      </trkpt>
      <trkpt lat="46.14426" lon="4.67781">
        <ele>280</ele>
        <time>2016-11-03T14:12:31Z</time>
      </trkpt>
      <trkpt lat="46.14425" lon="4.67782">
        <ele>280</ele>
        <time>2016-11-03T14:12:32Z</time>
      </trkpt>
      <trkpt lat="46.14419" lon="4.6779">
        <ele>280</ele>
        <time>2016-11-03T14:12:39Z</time>
      </trkpt>
      <trkpt lat="46.14418" lon="4.67791">
        <ele>280</ele>
        <time>2016-11-03T14:12:40Z</time>
      </trkpt>
      <trkpt lat="46.14413" lon="4.67801">
        <ele>278</ele>
        <time>2016-11-03T14:12:49Z</time>
      </trkpt>
      <trkpt lat="46.14412" lon="4.67802">
        <ele>278</ele>
        <time>2016-11-03T14:12:50Z</time>
      </trkpt>
      <trkpt lat="46.14405" lon="4.67807">
        <ele>278</ele>
        <time>2016-11-03T14:12:56Z</time>
      </trkpt>
      <trkpt lat="46.14403" lon="4.67808">
        <ele>278</ele>
        <time>2016-11-03T14:12:57Z</time>
      </trkpt>
      <trkpt lat="46.14397" lon="4.67815">
        <ele>278</ele>
        <time>2016-11-03T14:13:02Z</time>
      </trkpt>
      <trkpt lat="46.14395" lon="4.67816">
        <ele>278</ele>
        <time>2016-11-03T14:13:03Z</time>
      </trkpt>
      <trkpt lat="46.14389" lon="4.67825">
        <ele>278</ele>
        <time>2016-11-03T14:14:29Z</time>
      </trkpt>
      <trkpt lat="46.14387" lon="4.67826">
        <ele>277</ele>
        <time>2016-11-03T14:14:30Z</time>
      </trkpt>
      <trkpt lat="46.1438" lon="4.67829">
        <ele>277</ele>
        <time>2016-11-03T14:14:35Z</time>
      </trkpt>
      <trkpt lat="46.14378" lon="4.6783">
        <ele>277</ele>
        <time>2016-11-03T14:14:36Z</time>
      </trkpt>
      <trkpt lat="46.1437" lon="4.67833">
        <ele>277</ele>
        <time>2016-11-03T14:14:41Z</time>
      </trkpt>
      <trkpt lat="46.14369" lon="4.67834">
        <ele>275</ele>
        <time>2016-11-03T14:14:42Z</time>
      </trkpt>
      <trkpt lat="46.14361" lon="4.67837">
        <ele>274</ele>
        <time>2016-11-03T14:14:47Z</time>
      </trkpt>
      <trkpt lat="46.1436" lon="4.67837">
        <ele>274</ele>
        <time>2016-11-03T14:14:48Z</time>
      </trkpt>
      <trkpt lat="46.14352" lon="4.67839">
        <ele>274</ele>
        <time>2016-11-03T14:14:57Z</time>
      </trkpt>
      <trkpt lat="46.14351" lon="4.67839">
        <ele>274</ele>
        <time>2016-11-03T14:14:58Z</time>
      </trkpt>
      <trkpt lat="46.14342" lon="4.6784">
        <ele>275</ele>
        <time>2016-11-03T14:15:05Z</time>
      </trkpt>
      <trkpt lat="46.14341" lon="4.67841">
        <ele>275</ele>
        <time>2016-11-03T14:15:06Z</time>
      </trkpt>
      <trkpt lat="46.14333" lon="4.67843">
        <ele>274</ele>
        <time>2016-11-03T14:15:12Z</time>
      </trkpt>
      <trkpt lat="46.14332" lon="4.67843">
        <ele>274</ele>
        <time>2016-11-03T14:15:13Z</time>
      </trkpt>
      <trkpt lat="46.14325" lon="4.67851">
        <ele>273</ele>
        <time>2016-11-03T14:15:21Z</time>
      </trkpt>
      <trkpt lat="46.14325" lon="4.67852">
        <ele>273</ele>
        <time>2016-11-03T14:15:22Z</time>
      </trkpt>
      <trkpt lat="46.14323" lon="4.67863">
        <ele>272</ele>
        <time>2016-11-03T14:15:34Z</time>
      </trkpt>
      <trkpt lat="46.14323" lon="4.67865">
        <ele>272</ele>
        <time>2016-11-03T14:15:35Z</time>
      </trkpt>
      <trkpt lat="46.1432" lon="4.67877">
        <ele>272</ele>
        <time>2016-11-03T14:15:45Z</time>
      </trkpt>
      <trkpt lat="46.1432" lon="4.67879">
        <ele>272</ele>
        <time>2016-11-03T14:15:46Z</time>
      </trkpt>
      <trkpt lat="46.14316" lon="4.67889">
        <ele>271</ele>
        <time>2016-11-03T14:15:54Z</time>
      </trkpt>
      <trkpt lat="46.14316" lon="4.6789">
        <ele>271</ele>
        <time>2016-11-03T14:15:55Z</time>
      </trkpt>
      <trkpt lat="46.1431" lon="4.67897">
        <ele>271</ele>
        <time>2016-11-03T14:16:01Z</time>
      </trkpt>
      <trkpt lat="46.14309" lon="4.67899">
        <ele>271</ele>
        <time>2016-11-03T14:16:02Z</time>
      </trkpt>
      <trkpt lat="46.14303" lon="4.67907">
        <ele>271</ele>
        <time>2016-11-03T14:16:09Z</time>
      </trkpt>
      <trkpt lat="46.14302" lon="4.67909">
        <ele>271</ele>
        <time>2016-11-03T14:16:10Z</time>
      </trkpt>
      <trkpt lat="46.14297" lon="4.67918">
        <ele>268</ele>
        <time>2016-11-03T14:16:17Z</time>
      </trkpt>
      <trkpt lat="46.14296" lon="4.6792">
        <ele>268</ele>
        <time>2016-11-03T14:16:18Z</time>
      </trkpt>
      <trkpt lat="46.14291" lon="4.67928">
        <ele>268</ele>
        <time>2016-11-03T14:16:25Z</time>
      </trkpt>
      <trkpt lat="46.1429" lon="4.6793">
        <ele>268</ele>
        <time>2016-11-03T14:16:26Z</time>
      </trkpt>
      <trkpt lat="46.14284" lon="4.67938">
        <ele>268</ele>
        <time>2016-11-03T14:16:33Z</time>
      </trkpt>
      <trkpt lat="46.14283" lon="4.67939">
        <ele>268</ele>
        <time>2016-11-03T14:16:34Z</time>
      </trkpt>
      <trkpt lat="46.14277" lon="4.67948">
        <ele>267</ele>
        <time>2016-11-03T14:16:41Z</time>
      </trkpt>
      <trkpt lat="46.14277" lon="4.6795">
        <ele>267</ele>
        <time>2016-11-03T14:16:42Z</time>
      </trkpt>
      <trkpt lat="46.14271" lon="4.6796">
        <ele>267</ele>
        <time>2016-11-03T14:16:49Z</time>
      </trkpt>
      <trkpt lat="46.14271" lon="4.67961">
        <ele>267</ele>
        <time>2016-11-03T14:16:50Z</time>
      </trkpt>
      <trkpt lat="46.14265" lon="4.67971">
        <ele>267</ele>
        <time>2016-11-03T14:16:57Z</time>
      </trkpt>
      <trkpt lat="46.14264" lon="4.67972">
        <ele>267</ele>
        <time>2016-11-03T14:16:58Z</time>
      </trkpt>
      <trkpt lat="46.14259" lon="4.67982">
        <ele>266</ele>
        <time>2016-11-03T14:17:06Z</time>
      </trkpt>
      <trkpt lat="46.14258" lon="4.67983">
        <ele>266</ele>
        <time>2016-11-03T14:17:07Z</time>
      </trkpt>
      <trkpt lat="46.14251" lon="4.67993">
        <ele>266</ele>
        <time>2016-11-03T14:17:14Z</time>
      </trkpt>
      <trkpt lat="46.14251" lon="4.67994">
        <ele>266</ele>
        <time>2016-11-03T14:17:15Z</time>
      </trkpt>
      <trkpt lat="46.14244" lon="4.68001">
        <ele>265</ele>
        <time>2016-11-03T14:17:22Z</time>
      </trkpt>
      <trkpt lat="46.14244" lon="4.68002">
        <ele>265</ele>
        <time>2016-11-03T14:17:23Z</time>
      </trkpt>
      <trkpt lat="46.14237" lon="4.68009">
        <ele>264</ele>
        <time>2016-11-03T14:17:30Z</time>
      </trkpt>
      <trkpt lat="46.14236" lon="4.6801">
        <ele>264</ele>
        <time>2016-11-03T14:17:31Z</time>
      </trkpt>
      <trkpt lat="46.14229" lon="4.68017">
        <ele>264</ele>
        <time>2016-11-03T14:17:39Z</time>
      </trkpt>
      <trkpt lat="46.14228" lon="4.68018">
        <ele>264</ele>
        <time>2016-11-03T14:17:40Z</time>
      </trkpt>
      <trkpt lat="46.14226" lon="4.6803">
        <ele>264</ele>
        <time>2016-11-03T14:17:50Z</time>
      </trkpt>
      <trkpt lat="46.14227" lon="4.68031">
        <ele>264</ele>
        <time>2016-11-03T14:17:51Z</time>
      </trkpt>
      <trkpt lat="46.14234" lon="4.68036">
        <ele>263</ele>
        <time>2016-11-03T14:17:57Z</time>
      </trkpt>
      <trkpt lat="46.14235" lon="4.68037">
        <ele>263</ele>
        <time>2016-11-03T14:17:58Z</time>
      </trkpt>
      <trkpt lat="46.14242" lon="4.68044">
        <ele>263</ele>
        <time>2016-11-03T14:18:05Z</time>
      </trkpt>
      <trkpt lat="46.14243" lon="4.68045">
        <ele>263</ele>
        <time>2016-11-03T14:18:06Z</time>
      </trkpt>
      <trkpt lat="46.1425" lon="4.68049">
        <ele>263</ele>
        <time>2016-11-03T14:18:14Z</time>
      </trkpt>
      <trkpt lat="46.14251" lon="4.6805">
        <ele>263</ele>
        <time>2016-11-03T14:18:15Z</time>
      </trkpt>
      <trkpt lat="46.14259" lon="4.68054">
        <ele>263</ele>
        <time>2016-11-03T14:18:23Z</time>
      </trkpt>
      <trkpt lat="46.1426" lon="4.68055">
        <ele>263</ele>
        <time>2016-11-03T14:18:24Z</time>
      </trkpt>
      <trkpt lat="46.14266" lon="4.68063">
        <ele>263</ele>
        <time>2016-11-03T14:18:32Z</time>
      </trkpt>
      <trkpt lat="46.14267" lon="4.68064">
        <ele>263</ele>
        <time>2016-11-03T14:18:33Z</time>
      </trkpt>
      <trkpt lat="46.14269" lon="4.68075">
        <ele>263</ele>
        <time>2016-11-03T14:18:41Z</time>
      </trkpt>
      <trkpt lat="46.14269" lon="4.68077">
        <ele>263</ele>
        <time>2016-11-03T14:18:42Z</time>
      </trkpt>
      <trkpt lat="46.14265" lon="4.68089">
        <ele>261</ele>
        <time>2016-11-03T14:18:49Z</time>
      </trkpt>
      <trkpt lat="46.14265" lon="4.68091">
        <ele>261</ele>
        <time>2016-11-03T14:18:50Z</time>
      </trkpt>
      <trkpt lat="46.14262" lon="4.68102">
        <ele>261</ele>
        <time>2016-11-03T14:18:57Z</time>
      </trkpt>
      <trkpt lat="46.14261" lon="4.68103">
        <ele>261</ele>
        <time>2016-11-03T14:18:58Z</time>
      </trkpt>
      <trkpt lat="46.14258" lon="4.68115">
        <ele>261</ele>
        <time>2016-11-03T14:19:05Z</time>
      </trkpt>
      <trkpt lat="46.14257" lon="4.68117">
        <ele>261</ele>
        <time>2016-11-03T14:19:06Z</time>
      </trkpt>
      <trkpt lat="46.14252" lon="4.68127">
        <ele>260</ele>
        <time>2016-11-03T14:19:13Z</time>
      </trkpt>
      <trkpt lat="46.14251" lon="4.68128">
        <ele>260</ele>
        <time>2016-11-03T14:19:14Z</time>
      </trkpt>
      <trkpt lat="46.14247" lon="4.68138">
        <ele>260</ele>
        <time>2016-11-03T14:19:21Z</time>
      </trkpt>
      <trkpt lat="46.14246" lon="4.6814">
        <ele>260</ele>
        <time>2016-11-03T14:19:22Z</time>
      </trkpt>
      <trkpt lat="46.14244" lon="4.68152">
        <ele>260</ele>
        <time>2016-11-03T14:19:29Z</time>
      </trkpt>
      <trkpt lat="46.14243" lon="4.68154">
        <ele>260</ele>
        <time>2016-11-03T14:19:30Z</time>
      </trkpt>
      <trkpt lat="46.14239" lon="4.68164">
        <ele>260</ele>
        <time>2016-11-03T14:19:36Z</time>
      </trkpt>
      <trkpt lat="46.14239" lon="4.68166">
        <ele>260</ele>
        <time>2016-11-03T14:19:37Z</time>
      </trkpt>
      <trkpt lat="46.14234" lon="4.68176">
        <ele>259</ele>
        <time>2016-11-03T14:19:43Z</time>
      </trkpt>
      <trkpt lat="46.14234" lon="4.68177">
        <ele>259</ele>
        <time>2016-11-03T14:19:44Z</time>
      </trkpt>
      <trkpt lat="46.14229" lon="4.68188">
        <ele>258</ele>
        <time>2016-11-03T14:19:51Z</time>
      </trkpt>
      <trkpt lat="46.14228" lon="4.68189">
        <ele>258</ele>
        <time>2016-11-03T14:19:52Z</time>
      </trkpt>
      <trkpt lat="46.14222" lon="4.68199">
        <ele>258</ele>
        <time>2016-11-03T14:19:59Z</time>
      </trkpt>
      <trkpt lat="46.14222" lon="4.682">
        <ele>258</ele>
        <time>2016-11-03T14:20:00Z</time>
      </trkpt>
      <trkpt lat="46.14219" lon="4.68211">
        <ele>258</ele>
        <time>2016-11-03T14:20:07Z</time>
      </trkpt>
      <trkpt lat="46.14218" lon="4.68213">
        <ele>258</ele>
        <time>2016-11-03T14:20:08Z</time>
      </trkpt>
      <trkpt lat="46.14215" lon="4.68224">
        <ele>258</ele>
        <time>2016-11-03T14:20:14Z</time>
      </trkpt>
      <trkpt lat="46.14214" lon="4.68226">
        <ele>258</ele>
        <time>2016-11-03T14:20:15Z</time>
      </trkpt>
      <trkpt lat="46.14211" lon="4.68238">
        <ele>258</ele>
        <time>2016-11-03T14:20:22Z</time>
      </trkpt>
      <trkpt lat="46.1421" lon="4.68239">
        <ele>258</ele>
        <time>2016-11-03T14:20:23Z</time>
      </trkpt>
      <trkpt lat="46.14206" lon="4.68249">
        <ele>258</ele>
        <time>2016-11-03T14:20:30Z</time>
      </trkpt>
      <trkpt lat="46.14206" lon="4.6825">
        <ele>258</ele>
        <time>2016-11-03T14:20:31Z</time>
      </trkpt>
      <trkpt lat="46.142" lon="4.6826">
        <ele>256</ele>
        <time>2016-11-03T14:20:38Z</time>
      </trkpt>
      <trkpt lat="46.142" lon="4.68261">
        <ele>256</ele>
        <time>2016-11-03T14:20:39Z</time>
      </trkpt>
      <trkpt lat="46.14196" lon="4.68271">
        <ele>256</ele>
        <time>2016-11-03T14:20:45Z</time>
      </trkpt>
      <trkpt lat="46.14196" lon="4.68273">
        <ele>256</ele>
        <time>2016-11-03T14:20:46Z</time>
      </trkpt>
      <trkpt lat="46.14192" lon="4.68284">
        <ele>256</ele>
        <time>2016-11-03T14:20:53Z</time>
      </trkpt>
      <trkpt lat="46.14191" lon="4.68285">
        <ele>256</ele>
        <time>2016-11-03T14:20:54Z</time>
      </trkpt>
      <trkpt lat="46.14189" lon="4.68297">
        <ele>256</ele>
        <time>2016-11-03T14:21:01Z</time>
      </trkpt>
      <trkpt lat="46.14189" lon="4.68299">
        <ele>256</ele>
        <time>2016-11-03T14:21:02Z</time>
      </trkpt>
      <trkpt lat="46.14186" lon="4.68309">
        <ele>256</ele>
        <time>2016-11-03T14:21:08Z</time>
      </trkpt>
      <trkpt lat="46.14186" lon="4.68311">
        <ele>256</ele>
        <time>2016-11-03T14:21:09Z</time>
      </trkpt>
      <trkpt lat="46.14183" lon="4.68323">
        <ele>255</ele>
        <time>2016-11-03T14:21:16Z</time>
      </trkpt>
      <trkpt lat="46.14182" lon="4.68325">
        <ele>255</ele>
        <time>2016-11-03T14:21:17Z</time>
      </trkpt>
      <trkpt lat="46.14181" lon="4.68336">
        <ele>254</ele>
        <time>2016-11-03T14:21:24Z</time>
      </trkpt>
      <trkpt lat="46.1418" lon="4.68338">
        <ele>254</ele>
        <time>2016-11-03T14:21:25Z</time>
      </trkpt>
      <trkpt lat="46.14179" lon="4.6835">
        <ele>254</ele>
        <time>2016-11-03T14:21:32Z</time>
      </trkpt>
      <trkpt lat="46.14178" lon="4.68352">
        <ele>254</ele>
        <time>2016-11-03T14:21:33Z</time>
      </trkpt>
      <trkpt lat="46.14176" lon="4.68364">
        <ele>254</ele>
        <time>2016-11-03T14:21:40Z</time>
      </trkpt>
      <trkpt lat="46.14176" lon="4.68366">
        <ele>254</ele>
        <time>2016-11-03T14:21:41Z</time>
      </trkpt>
      <trkpt lat="46.14174" lon="4.68378">
        <ele>254</ele>
        <time>2016-11-03T14:21:48Z</time>
      </trkpt>
      <trkpt lat="46.14174" lon="4.6838">
        <ele>254</ele>
        <time>2016-11-03T14:21:49Z</time>
      </trkpt>
      <trkpt lat="46.14174" lon="4.68392">
        <ele>254</ele>
        <time>2016-11-03T14:21:56Z</time>
      </trkpt>
      <trkpt lat="46.14174" lon="4.68393">
        <ele>254</ele>
        <time>2016-11-03T14:21:57Z</time>
      </trkpt>
      <trkpt lat="46.14172" lon="4.68405">
        <ele>254</ele>
        <time>2016-11-03T14:22:04Z</time>
      </trkpt>
      <trkpt lat="46.14172" lon="4.68407">
        <ele>254</ele>
        <time>2016-11-03T14:22:05Z</time>
      </trkpt>
      <trkpt lat="46.14171" lon="4.68418">
        <ele>254</ele>
        <time>2016-11-03T14:22:11Z</time>
      </trkpt>
      <trkpt lat="46.14171" lon="4.6842">
        <ele>253</ele>
        <time>2016-11-03T14:22:12Z</time>
      </trkpt>
      <trkpt lat="46.14169" lon="4.68432">
        <ele>253</ele>
        <time>2016-11-03T14:22:18Z</time>
      </trkpt>
      <trkpt lat="46.14169" lon="4.68434">
        <ele>253</ele>
        <time>2016-11-03T14:22:19Z</time>
      </trkpt>
      <trkpt lat="46.14169" lon="4.68446">
        <ele>252</ele>
        <time>2016-11-03T14:22:26Z</time>
      </trkpt>
      <trkpt lat="46.14169" lon="4.68447">
        <ele>252</ele>
        <time>2016-11-03T14:22:27Z</time>
      </trkpt>
      <trkpt lat="46.14167" lon="4.6846">
        <ele>252</ele>
        <time>2016-11-03T14:22:35Z</time>
      </trkpt>
      <trkpt lat="46.14167" lon="4.68462">
        <ele>252</ele>
        <time>2016-11-03T14:22:36Z</time>
      </trkpt>
      <trkpt lat="46.14165" lon="4.68474">
        <ele>253</ele>
        <time>2016-11-03T14:22:43Z</time>
      </trkpt>
      <trkpt lat="46.14165" lon="4.68476">
        <ele>253</ele>
        <time>2016-11-03T14:22:44Z</time>
      </trkpt>
      <trkpt lat="46.14162" lon="4.68487">
        <ele>253</ele>
        <time>2016-11-03T14:22:51Z</time>
      </trkpt>
      <trkpt lat="46.14162" lon="4.68489">
        <ele>253</ele>
        <time>2016-11-03T14:22:52Z</time>
      </trkpt>
      <trkpt lat="46.14161" lon="4.685">
        <ele>252</ele>
        <time>2016-11-03T14:22:59Z</time>
      </trkpt>
      <trkpt lat="46.14161" lon="4.68502">
        <ele>252</ele>
        <time>2016-11-03T14:23:00Z</time>
      </trkpt>
      <trkpt lat="46.14158" lon="4.68513">
        <ele>252</ele>
        <time>2016-11-03T14:23:07Z</time>
      </trkpt>
      <trkpt lat="46.14158" lon="4.68515">
        <ele>252</ele>
        <time>2016-11-03T14:23:08Z</time>
      </trkpt>
      <trkpt lat="46.14154" lon="4.68527">
        <ele>252</ele>
        <time>2016-11-03T14:23:16Z</time>
      </trkpt>
      <trkpt lat="46.14154" lon="4.68529">
        <ele>252</ele>
        <time>2016-11-03T14:23:17Z</time>
      </trkpt>
      <trkpt lat="46.14153" lon="4.68541">
        <ele>252</ele>
        <time>2016-11-03T14:23:25Z</time>
      </trkpt>
      <trkpt lat="46.14153" lon="4.68543">
        <ele>252</ele>
        <time>2016-11-03T14:23:26Z</time>
      </trkpt>
      <trkpt lat="46.14152" lon="4.68555">
        <ele>251</ele>
        <time>2016-11-03T14:23:34Z</time>
      </trkpt>
      <trkpt lat="46.14152" lon="4.68556">
        <ele>251</ele>
        <time>2016-11-03T14:23:35Z</time>
      </trkpt>
      <trkpt lat="46.1415" lon="4.68568">
        <ele>251</ele>
        <time>2016-11-03T14:23:42Z</time>
      </trkpt>
      <trkpt lat="46.1415" lon="4.6857">
        <ele>251</ele>
        <time>2016-11-03T14:23:43Z</time>
      </trkpt>
      <trkpt lat="46.14148" lon="4.68581">
        <ele>251</ele>
        <time>2016-11-03T14:23:50Z</time>
      </trkpt>
      <trkpt lat="46.14147" lon="4.68583">
        <ele>251</ele>
        <time>2016-11-03T14:23:51Z</time>
      </trkpt>
      <trkpt lat="46.14145" lon="4.68595">
        <ele>250</ele>
        <time>2016-11-03T14:23:58Z</time>
      </trkpt>
      <trkpt lat="46.14145" lon="4.68597">
        <ele>250</ele>
        <time>2016-11-03T14:23:59Z</time>
      </trkpt>
      <trkpt lat="46.14144" lon="4.6861">
        <ele>250</ele>
        <time>2016-11-03T14:24:05Z</time>
      </trkpt>
      <trkpt lat="46.14144" lon="4.68612">
        <ele>250</ele>
        <time>2016-11-03T14:24:06Z</time>
      </trkpt>
      <trkpt lat="46.14144" lon="4.68623">
        <ele>250</ele>
        <time>2016-11-03T14:24:12Z</time>
      </trkpt>
      <trkpt lat="46.14144" lon="4.68625">
        <ele>250</ele>
        <time>2016-11-03T14:24:13Z</time>
      </trkpt>
      <trkpt lat="46.14143" lon="4.68636">
        <ele>250</ele>
        <time>2016-11-03T14:24:19Z</time>
      </trkpt>
      <trkpt lat="46.14142" lon="4.68638">
        <ele>250</ele>
        <time>2016-11-03T14:24:20Z</time>
      </trkpt>
      <trkpt lat="46.14141" lon="4.6865">
        <ele>249</ele>
        <time>2016-11-03T14:24:27Z</time>
      </trkpt>
      <trkpt lat="46.1414" lon="4.68652">
        <ele>249</ele>
        <time>2016-11-03T14:24:28Z</time>
      </trkpt>
      <trkpt lat="46.14138" lon="4.68664">
        <ele>249</ele>
        <time>2016-11-03T14:24:35Z</time>
      </trkpt>
      <trkpt lat="46.14138" lon="4.68666">
        <ele>249</ele>
        <time>2016-11-03T14:24:36Z</time>
      </trkpt>
      <trkpt lat="46.14136" lon="4.68677">
        <ele>249</ele>
        <time>2016-11-03T14:24:42Z</time>
      </trkpt>
      <trkpt lat="46.14136" lon="4.68679">
        <ele>249</ele>
        <time>2016-11-03T14:24:43Z</time>
      </trkpt>
      <trkpt lat="46.14134" lon="4.6869">
        <ele>249</ele>
        <time>2016-11-03T14:24:49Z</time>
      </trkpt>
      <trkpt lat="46.14134" lon="4.68692">
        <ele>249</ele>
        <time>2016-11-03T14:24:50Z</time>
      </trkpt>
      <trkpt lat="46.14133" lon="4.68703">
        <ele>248</ele>
        <time>2016-11-03T14:24:56Z</time>
      </trkpt>
      <trkpt lat="46.14132" lon="4.68705">
        <ele>248</ele>
        <time>2016-11-03T14:24:57Z</time>
      </trkpt>
      <trkpt lat="46.14131" lon="4.68717">
        <ele>248</ele>
        <time>2016-11-03T14:25:04Z</time>
      </trkpt>
      <trkpt lat="46.14131" lon="4.68719">
        <ele>248</ele>
        <time>2016-11-03T14:25:05Z</time>
      </trkpt>
      <trkpt lat="46.1413" lon="4.68731">
        <ele>248</ele>
        <time>2016-11-03T14:25:12Z</time>
      </trkpt>
      <trkpt lat="46.1413" lon="4.68733">
        <ele>248</ele>
        <time>2016-11-03T14:25:13Z</time>
      </trkpt>
      <trkpt lat="46.14128" lon="4.68745">
        <ele>248</ele>
        <time>2016-11-03T14:25:20Z</time>
      </trkpt>
      <trkpt lat="46.14128" lon="4.68746">
        <ele>248</ele>
        <time>2016-11-03T14:25:21Z</time>
      </trkpt>
      <trkpt lat="46.14128" lon="4.68759">
        <ele>247</ele>
        <time>2016-11-03T14:25:29Z</time>
      </trkpt>
      <trkpt lat="46.14128" lon="4.68761">
        <ele>247</ele>
        <time>2016-11-03T14:25:30Z</time>
      </trkpt>
      <trkpt lat="46.14127" lon="4.68772">
        <ele>247</ele>
        <time>2016-11-03T14:25:37Z</time>
      </trkpt>
      <trkpt lat="46.14126" lon="4.68774">
        <ele>247</ele>
        <time>2016-11-03T14:25:38Z</time>
      </trkpt>
      <trkpt lat="46.14125" lon="4.68786">
        <ele>247</ele>
        <time>2016-11-03T14:25:45Z</time>
      </trkpt>
      <trkpt lat="46.14125" lon="4.68788">
        <ele>247</ele>
        <time>2016-11-03T14:25:46Z</time>
      </trkpt>
      <trkpt lat="46.14124" lon="4.688">
        <ele>247</ele>
        <time>2016-11-03T14:25:53Z</time>
      </trkpt>
      <trkpt lat="46.14124" lon="4.68802">
        <ele>247</ele>
        <time>2016-11-03T14:25:54Z</time>
      </trkpt>
      <trkpt lat="46.14122" lon="4.68813">
        <ele>247</ele>
        <time>2016-11-03T14:26:00Z</time>
      </trkpt>
      <trkpt lat="46.14121" lon="4.68815">
        <ele>247</ele>
        <time>2016-11-03T14:26:01Z</time>
      </trkpt>
      <trkpt lat="46.14119" lon="4.68826">
        <ele>247</ele>
        <time>2016-11-03T14:26:08Z</time>
      </trkpt>
      <trkpt lat="46.14118" lon="4.68827">
        <ele>247</ele>
        <time>2016-11-03T14:26:09Z</time>
      </trkpt>
      <trkpt lat="46.14111" lon="4.68836">
        <ele>246</ele>
        <time>2016-11-03T14:26:16Z</time>
      </trkpt>
      <trkpt lat="46.14111" lon="4.68838">
        <ele>246</ele>
        <time>2016-11-03T14:26:17Z</time>
      </trkpt>
      <trkpt lat="46.14107" lon="4.68849">
        <ele>246</ele>
        <time>2016-11-03T14:26:24Z</time>
      </trkpt>
      <trkpt lat="46.14106" lon="4.68851">
        <ele>246</ele>
        <time>2016-11-03T14:26:25Z</time>
      </trkpt>
      <trkpt lat="46.14104" lon="4.68862">
        <ele>246</ele>
        <time>2016-11-03T14:26:32Z</time>
      </trkpt>
      <trkpt lat="46.14104" lon="4.68864">
        <ele>246</ele>
        <time>2016-11-03T14:26:33Z</time>
      </trkpt>
      <trkpt lat="46.14102" lon="4.68875">
        <ele>246</ele>
        <time>2016-11-03T14:26:39Z</time>
      </trkpt>
      <trkpt lat="46.14101" lon="4.68877">
        <ele>246</ele>
        <time>2016-11-03T14:26:40Z</time>
      </trkpt>
      <trkpt lat="46.14098" lon="4.68887">
        <ele>246</ele>
        <time>2016-11-03T14:26:46Z</time>
      </trkpt>
      <trkpt lat="46.14098" lon="4.68889">
        <ele>246</ele>
        <time>2016-11-03T14:26:47Z</time>
      </trkpt>
      <trkpt lat="46.14095" lon="4.689">
        <ele>246</ele>
        <time>2016-11-03T14:26:54Z</time>
      </trkpt>
      <trkpt lat="46.14095" lon="4.68902">
        <ele>246</ele>
        <time>2016-11-03T14:26:55Z</time>
      </trkpt>
      <trkpt lat="46.14091" lon="4.68913">
        <ele>246</ele>
        <time>2016-11-03T14:27:02Z</time>
      </trkpt>
      <trkpt lat="46.14091" lon="4.68915">
        <ele>246</ele>
        <time>2016-11-03T14:27:03Z</time>
      </trkpt>
      <trkpt lat="46.1409" lon="4.68928">
        <ele>245</ele>
        <time>2016-11-03T14:27:10Z</time>
      </trkpt>
      <trkpt lat="46.1409" lon="4.68929">
        <ele>245</ele>
        <time>2016-11-03T14:27:11Z</time>
      </trkpt>
      <trkpt lat="46.14091" lon="4.68941">
        <ele>244</ele>
        <time>2016-11-03T14:27:17Z</time>
      </trkpt>
      <trkpt lat="46.14091" lon="4.68943">
        <ele>244</ele>
        <time>2016-11-03T14:27:18Z</time>
      </trkpt>
      <trkpt lat="46.14092" lon="4.68954">
        <ele>244</ele>
        <time>2016-11-03T14:27:24Z</time>
      </trkpt>
      <trkpt lat="46.14092" lon="4.68956">
        <ele>244</ele>
        <time>2016-11-03T14:27:25Z</time>
      </trkpt>
      <trkpt lat="46.1409" lon="4.68967">
        <ele>243</ele>
        <time>2016-11-03T14:27:31Z</time>
      </trkpt>
      <trkpt lat="46.1409" lon="4.68969">
        <ele>243</ele>
        <time>2016-11-03T14:27:32Z</time>
      </trkpt>
      <trkpt lat="46.14091" lon="4.68981">
        <ele>243</ele>
        <time>2016-11-03T14:27:39Z</time>
      </trkpt>
      <trkpt lat="46.14091" lon="4.68983">
        <ele>243</ele>
        <time>2016-11-03T14:27:40Z</time>
      </trkpt>
      <trkpt lat="46.14092" lon="4.68995">
        <ele>243</ele>
        <time>2016-11-03T14:27:48Z</time>
      </trkpt>
      <trkpt lat="46.14093" lon="4.68996">
        <ele>243</ele>
        <time>2016-11-03T14:27:49Z</time>
      </trkpt>
      <trkpt lat="46.14097" lon="4.69006">
        <ele>242</ele>
        <time>2016-11-03T14:27:55Z</time>
      </trkpt>
      <trkpt lat="46.14097" lon="4.69008">
        <ele>242</ele>
        <time>2016-11-03T14:27:56Z</time>
      </trkpt>
      <trkpt lat="46.14097" lon="4.6902">
        <ele>242</ele>
        <time>2016-11-03T14:28:02Z</time>
      </trkpt>
      <trkpt lat="46.14097" lon="4.69022">
        <ele>242</ele>
        <time>2016-11-03T14:28:03Z</time>
      </trkpt>
      <trkpt lat="46.14091" lon="4.69031">
        <ele>242</ele>
        <time>2016-11-03T14:28:21Z</time>
      </trkpt>
      <trkpt lat="46.1409" lon="4.69031">
        <ele>242</ele>
        <time>2016-11-03T14:28:22Z</time>
      </trkpt>
      <trkpt lat="46.14082" lon="4.69028">
        <ele>242</ele>
        <time>2016-11-03T14:28:29Z</time>
      </trkpt>
      <trkpt lat="46.1408" lon="4.69028">
        <ele>242</ele>
        <time>2016-11-03T14:28:30Z</time>
      </trkpt>
      <trkpt lat="46.14072" lon="4.69029">
        <ele>242</ele>
        <time>2016-11-03T14:28:36Z</time>
      </trkpt>
      <trkpt lat="46.1407" lon="4.69028">
        <ele>242</ele>
        <time>2016-11-03T14:28:37Z</time>
      </trkpt>
      <trkpt lat="46.14062" lon="4.69028">
        <ele>242</ele>
        <time>2016-11-03T14:28:43Z</time>
      </trkpt>
      <trkpt lat="46.14061" lon="4.69028">
        <ele>242</ele>
        <time>2016-11-03T14:28:44Z</time>
      </trkpt>
      <trkpt lat="46.14055" lon="4.69037">
        <ele>242</ele>
        <time>2016-11-03T14:28:50Z</time>
      </trkpt>
      <trkpt lat="46.14054" lon="4.69039">
        <ele>242</ele>
        <time>2016-11-03T14:28:51Z</time>
      </trkpt>
      <trkpt lat="46.14053" lon="4.6905">
        <ele>242</ele>
        <time>2016-11-03T14:28:57Z</time>
      </trkpt>
      <trkpt lat="46.14053" lon="4.69052">
        <ele>242</ele>
        <time>2016-11-03T14:28:58Z</time>
      </trkpt>
      <trkpt lat="46.1405" lon="4.69062">
        <ele>242</ele>
        <time>2016-11-03T14:29:04Z</time>
      </trkpt>
      <trkpt lat="46.1405" lon="4.69064">
        <ele>242</ele>
        <time>2016-11-03T14:29:05Z</time>
      </trkpt>
      <trkpt lat="46.14046" lon="4.69075">
        <ele>242</ele>
        <time>2016-11-03T14:29:12Z</time>
      </trkpt>
      <trkpt lat="46.14045" lon="4.69076">
        <ele>242</ele>
        <time>2016-11-03T14:29:13Z</time>
      </trkpt>
      <trkpt lat="46.1404" lon="4.69085">
        <ele>240</ele>
        <time>2016-11-03T14:29:19Z</time>
      </trkpt>
      <trkpt lat="46.14039" lon="4.69087">
        <ele>240</ele>
        <time>2016-11-03T14:29:20Z</time>
      </trkpt>
      <trkpt lat="46.14036" lon="4.69098">
        <ele>240</ele>
        <time>2016-11-03T14:29:26Z</time>
      </trkpt>
      <trkpt lat="46.14035" lon="4.691">
        <ele>240</ele>
        <time>2016-11-03T14:29:27Z</time>
      </trkpt>
      <trkpt lat="46.14031" lon="4.6911">
        <ele>240</ele>
        <time>2016-11-03T14:29:32Z</time>
      </trkpt>
      <trkpt lat="46.1403" lon="4.69112">
        <ele>240</ele>
        <time>2016-11-03T14:29:33Z</time>
      </trkpt>
      <trkpt lat="46.14025" lon="4.69122">
        <ele>240</ele>
        <time>2016-11-03T14:29:40Z</time>
      </trkpt>
      <trkpt lat="46.14024" lon="4.69123">
        <ele>240</ele>
        <time>2016-11-03T14:29:41Z</time>
      </trkpt>
      <trkpt lat="46.14019" lon="4.69132">
        <ele>240</ele>
        <time>2016-11-03T14:29:47Z</time>
      </trkpt>
      <trkpt lat="46.14018" lon="4.69134">
        <ele>240</ele>
        <time>2016-11-03T14:29:48Z</time>
      </trkpt>
      <trkpt lat="46.14015" lon="4.69145">
        <ele>240</ele>
        <time>2016-11-03T14:29:55Z</time>
      </trkpt>
      <trkpt lat="46.14015" lon="4.69147">
        <ele>240</ele>
        <time>2016-11-03T14:29:56Z</time>
      </trkpt>
      <trkpt lat="46.14011" lon="4.69156">
        <ele>239</ele>
        <time>2016-11-03T14:30:02Z</time>
      </trkpt>
      <trkpt lat="46.1401" lon="4.69158">
        <ele>239</ele>
        <time>2016-11-03T14:30:03Z</time>
      </trkpt>
      <trkpt lat="46.14005" lon="4.69168">
        <ele>239</ele>
        <time>2016-11-03T14:30:10Z</time>
      </trkpt>
      <trkpt lat="46.14004" lon="4.69169">
        <ele>239</ele>
        <time>2016-11-03T14:30:11Z</time>
      </trkpt>
      <trkpt lat="46.13998" lon="4.69179">
        <ele>239</ele>
        <time>2016-11-03T14:30:17Z</time>
      </trkpt>
      <trkpt lat="46.13998" lon="4.6918">
        <ele>238</ele>
        <time>2016-11-03T14:30:18Z</time>
      </trkpt>
      <trkpt lat="46.13996" lon="4.69193">
        <ele>238</ele>
        <time>2016-11-03T14:30:25Z</time>
      </trkpt>
      <trkpt lat="46.13996" lon="4.69194">
        <ele>238</ele>
        <time>2016-11-03T14:30:26Z</time>
      </trkpt>
      <trkpt lat="46.13991" lon="4.69204">
        <ele>238</ele>
        <time>2016-11-03T14:30:33Z</time>
      </trkpt>
      <trkpt lat="46.1399" lon="4.69205">
        <ele>238</ele>
        <time>2016-11-03T14:30:34Z</time>
      </trkpt>
      <trkpt lat="46.13982" lon="4.69206">
        <ele>238</ele>
        <time>2016-11-03T14:30:40Z</time>
      </trkpt>
      <trkpt lat="46.1398" lon="4.69206">
        <ele>238</ele>
        <time>2016-11-03T14:30:41Z</time>
      </trkpt>
      <trkpt lat="46.13972" lon="4.69206">
        <ele>238</ele>
        <time>2016-11-03T14:30:47Z</time>
      </trkpt>
      <trkpt lat="46.1397" lon="4.69205">
        <ele>238</ele>
        <time>2016-11-03T14:30:48Z</time>
      </trkpt>
      <trkpt lat="46.13962" lon="4.69204">
        <ele>238</ele>
        <time>2016-11-03T14:30:54Z</time>
      </trkpt>
      <trkpt lat="46.1396" lon="4.69204">
        <ele>238</ele>
        <time>2016-11-03T14:30:55Z</time>
      </trkpt>
      <trkpt lat="46.13951" lon="4.69203">
        <ele>238</ele>
        <time>2016-11-03T14:31:01Z</time>
      </trkpt>
      <trkpt lat="46.1395" lon="4.69203">
        <ele>238</ele>
        <time>2016-11-03T14:31:02Z</time>
      </trkpt>
      <trkpt lat="46.13944" lon="4.69212">
        <ele>238</ele>
        <time>2016-11-03T14:31:13Z</time>
      </trkpt>
      <trkpt lat="46.13943" lon="4.69214">
        <ele>238</ele>
        <time>2016-11-03T14:31:14Z</time>
      </trkpt>
      <trkpt lat="46.13939" lon="4.69224">
        <ele>238</ele>
        <time>2016-11-03T14:31:21Z</time>
      </trkpt>
      <trkpt lat="46.13939" lon="4.69226">
        <ele>238</ele>
        <time>2016-11-03T14:31:22Z</time>
      </trkpt>
      <trkpt lat="46.13935" lon="4.69236">
        <ele>237</ele>
        <time>2016-11-03T14:31:29Z</time>
      </trkpt>
      <trkpt lat="46.13935" lon="4.69238">
        <ele>237</ele>
        <time>2016-11-03T14:31:30Z</time>
      </trkpt>
      <trkpt lat="46.13929" lon="4.69247">
        <ele>237</ele>
        <time>2016-11-03T14:31:38Z</time>
      </trkpt>
      <trkpt lat="46.13929" lon="4.69248">
        <ele>237</ele>
        <time>2016-11-03T14:31:39Z</time>
      </trkpt>
      <trkpt lat="46.13922" lon="4.69257">
        <ele>237</ele>
        <time>2016-11-03T14:31:47Z</time>
      </trkpt>
      <trkpt lat="46.13922" lon="4.69258">
        <ele>237</ele>
        <time>2016-11-03T14:31:48Z</time>
      </trkpt>
      <trkpt lat="46.13917" lon="4.69266">
        <ele>237</ele>
        <time>2016-11-03T14:31:54Z</time>
      </trkpt>
      <trkpt lat="46.13916" lon="4.69267">
        <ele>237</ele>
        <time>2016-11-03T14:31:55Z</time>
      </trkpt>
      <trkpt lat="46.13912" lon="4.69278">
        <ele>237</ele>
        <time>2016-11-03T14:32:01Z</time>
      </trkpt>
      <trkpt lat="46.13912" lon="4.6928">
        <ele>237</ele>
        <time>2016-11-03T14:32:02Z</time>
      </trkpt>
      <trkpt lat="46.13909" lon="4.69292">
        <ele>237</ele>
        <time>2016-11-03T14:32:09Z</time>
      </trkpt>
      <trkpt lat="46.13908" lon="4.69294">
        <ele>237</ele>
        <time>2016-11-03T14:32:10Z</time>
      </trkpt>
      <trkpt lat="46.13904" lon="4.69304">
        <ele>237</ele>
        <time>2016-11-03T14:32:17Z</time>
      </trkpt>
      <trkpt lat="46.13904" lon="4.69306">
        <ele>237</ele>
        <time>2016-11-03T14:32:18Z</time>
      </trkpt>
      <trkpt lat="46.139" lon="4.69316">
        <ele>237</ele>
        <time>2016-11-03T14:32:24Z</time>
      </trkpt>
      <trkpt lat="46.13899" lon="4.69318">
        <ele>237</ele>
        <time>2016-11-03T14:32:25Z</time>
      </trkpt>
      <trkpt lat="46.13896" lon="4.69329">
        <ele>237</ele>
        <time>2016-11-03T14:32:31Z</time>
      </trkpt>
      <trkpt lat="46.13895" lon="4.69331">
        <ele>237</ele>
        <time>2016-11-03T14:32:32Z</time>
      </trkpt>
      <trkpt lat="46.13891" lon="4.69342">
        <ele>238</ele>
        <time>2016-11-03T14:32:39Z</time>
      </trkpt>
      <trkpt lat="46.13891" lon="4.69344">
        <ele>238</ele>
        <time>2016-11-03T14:32:40Z</time>
      </trkpt>
      <trkpt lat="46.13889" lon="4.69355">
        <ele>239</ele>
        <time>2016-11-03T14:32:46Z</time>
      </trkpt>
      <trkpt lat="46.13889" lon="4.69357">
        <ele>239</ele>
        <time>2016-11-03T14:32:47Z</time>
      </trkpt>
      <trkpt lat="46.13887" lon="4.6937">
        <ele>239</ele>
        <time>2016-11-03T14:32:53Z</time>
      </trkpt>
      <trkpt lat="46.13887" lon="4.69371">
        <ele>239</ele>
        <time>2016-11-03T14:32:54Z</time>
      </trkpt>
      <trkpt lat="46.13885" lon="4.69384">
        <ele>239</ele>
        <time>2016-11-03T14:33:01Z</time>
      </trkpt>
      <trkpt lat="46.13885" lon="4.69385">
        <ele>239</ele>
        <time>2016-11-03T14:33:02Z</time>
      </trkpt>
      <trkpt lat="46.13879" lon="4.69394">
        <ele>239</ele>
        <time>2016-11-03T14:33:22Z</time>
      </trkpt>
      <trkpt lat="46.13878" lon="4.69394">
        <ele>239</ele>
        <time>2016-11-03T14:33:23Z</time>
      </trkpt>
      <trkpt lat="46.1387" lon="4.6939">
        <ele>239</ele>
        <time>2016-11-03T14:33:30Z</time>
      </trkpt>
      <trkpt lat="46.13869" lon="4.6939">
        <ele>239</ele>
        <time>2016-11-03T14:33:31Z</time>
      </trkpt>
      <trkpt lat="46.13861" lon="4.6939">
        <ele>239</ele>
        <time>2016-11-03T14:33:38Z</time>
      </trkpt>
      <trkpt lat="46.1386" lon="4.6939">
        <ele>239</ele>
        <time>2016-11-03T14:33:39Z</time>
      </trkpt>
      <trkpt lat="46.13851" lon="4.69389">
        <ele>239</ele>
        <time>2016-11-03T14:33:46Z</time>
      </trkpt>
      <trkpt lat="46.1385" lon="4.69388">
        <ele>239</ele>
        <time>2016-11-03T14:33:47Z</time>
      </trkpt>
      <trkpt lat="46.13842" lon="4.69387">
        <ele>239</ele>
        <time>2016-11-03T14:33:54Z</time>
      </trkpt>
      <trkpt lat="46.13841" lon="4.69387">
        <ele>239</ele>
        <time>2016-11-03T14:33:55Z</time>
      </trkpt>
      <trkpt lat="46.13832" lon="4.69388">
        <ele>238</ele>
        <time>2016-11-03T14:34:03Z</time>
      </trkpt>
      <trkpt lat="46.13831" lon="4.69389">
        <ele>238</ele>
        <time>2016-11-03T14:34:04Z</time>
      </trkpt>
      <trkpt lat="46.1383" lon="4.694">
        <ele>239</ele>
        <time>2016-11-03T14:34:10Z</time>
      </trkpt>
      <trkpt lat="46.1383" lon="4.69402">
        <ele>239</ele>
        <time>2016-11-03T14:34:11Z</time>
      </trkpt>
      <trkpt lat="46.13829" lon="4.69415">
        <ele>240</ele>
        <time>2016-11-03T14:34:17Z</time>
      </trkpt>
      <trkpt lat="46.13829" lon="4.69417">
        <ele>240</ele>
        <time>2016-11-03T14:34:18Z</time>
      </trkpt>
      <trkpt lat="46.13828" lon="4.69428">
        <ele>240</ele>
        <time>2016-11-03T14:34:24Z</time>
      </trkpt>
      <trkpt lat="46.13828" lon="4.6943">
        <ele>240</ele>
        <time>2016-11-03T14:34:25Z</time>
      </trkpt>
      <trkpt lat="46.13828" lon="4.69442">
        <ele>240</ele>
        <time>2016-11-03T14:34:32Z</time>
      </trkpt>
      <trkpt lat="46.13828" lon="4.69444">
        <ele>240</ele>
        <time>2016-11-03T14:34:33Z</time>
      </trkpt>
      <trkpt lat="46.13826" lon="4.69455">
        <ele>240</ele>
        <time>2016-11-03T14:34:39Z</time>
      </trkpt>
      <trkpt lat="46.13826" lon="4.69457">
        <ele>240</ele>
        <time>2016-11-03T14:34:40Z</time>
      </trkpt>
      <trkpt lat="46.13825" lon="4.69469">
        <ele>241</ele>
        <time>2016-11-03T14:34:47Z</time>
      </trkpt>
      <trkpt lat="46.13824" lon="4.69471">
        <ele>241</ele>
        <time>2016-11-03T14:34:48Z</time>
      </trkpt>
      <trkpt lat="46.13823" lon="4.69483">
        <ele>241</ele>
        <time>2016-11-03T14:34:55Z</time>
      </trkpt>
      <trkpt lat="46.13823" lon="4.69484">
        <ele>241</ele>
        <time>2016-11-03T14:34:56Z</time>
      </trkpt>
      <trkpt lat="46.13822" lon="4.69497">
        <ele>241</ele>
        <time>2016-11-03T14:35:04Z</time>
      </trkpt>
      <trkpt lat="46.13822" lon="4.69499">
        <ele>241</ele>
        <time>2016-11-03T14:35:05Z</time>
      </trkpt>
      <trkpt lat="46.13822" lon="4.69511">
        <ele>242</ele>
        <time>2016-11-03T14:35:12Z</time>
      </trkpt>
      <trkpt lat="46.13822" lon="4.69513">
        <ele>242</ele>
        <time>2016-11-03T14:35:13Z</time>
      </trkpt>
      <trkpt lat="46.13821" lon="4.69524">
        <ele>242</ele>
        <time>2016-11-03T14:35:19Z</time>
      </trkpt>
      <trkpt lat="46.13821" lon="4.69526">
        <ele>242</ele>
        <time>2016-11-03T14:35:20Z</time>
      </trkpt>
      <trkpt lat="46.1382" lon="4.69538">
        <ele>242</ele>
        <time>2016-11-03T14:35:26Z</time>
      </trkpt>
      <trkpt lat="46.1382" lon="4.6954">
        <ele>242</ele>
        <time>2016-11-03T14:35:27Z</time>
      </trkpt>
      <trkpt lat="46.1382" lon="4.69551">
        <ele>242</ele>
        <time>2016-11-03T14:35:33Z</time>
      </trkpt>
      <trkpt lat="46.1382" lon="4.69553">
        <ele>242</ele>
        <time>2016-11-03T14:35:34Z</time>
      </trkpt>
      <trkpt lat="46.13821" lon="4.69564">
        <ele>242</ele>
        <time>2016-11-03T14:35:40Z</time>
      </trkpt>
      <trkpt lat="46.13821" lon="4.69566">
        <ele>242</ele>
        <time>2016-11-03T14:35:41Z</time>
      </trkpt>
      <trkpt lat="46.1382" lon="4.69579">
        <ele>243</ele>
        <time>2016-11-03T14:35:48Z</time>
      </trkpt>
      <trkpt lat="46.13821" lon="4.69581">
        <ele>243</ele>
        <time>2016-11-03T14:35:49Z</time>
      </trkpt>
      <trkpt lat="46.13821" lon="4.69592">
        <ele>243</ele>
        <time>2016-11-03T14:36:02Z</time>
      </trkpt>
      <trkpt lat="46.13821" lon="4.69594">
        <ele>243</ele>
        <time>2016-11-03T14:36:03Z</time>
      </trkpt>
      <trkpt lat="46.1382" lon="4.69605">
        <ele>243</ele>
        <time>2016-11-03T14:36:11Z</time>
      </trkpt>
      <trkpt lat="46.1382" lon="4.69607">
        <ele>243</ele>
        <time>2016-11-03T14:36:12Z</time>
      </trkpt>
      <trkpt lat="46.13819" lon="4.69618">
        <ele>243</ele>
        <time>2016-11-03T14:36:18Z</time>
      </trkpt>
      <trkpt lat="46.13819" lon="4.6962">
        <ele>243</ele>
        <time>2016-11-03T14:36:19Z</time>
      </trkpt>
      <trkpt lat="46.13818" lon="4.69631">
        <ele>243</ele>
        <time>2016-11-03T14:36:25Z</time>
      </trkpt>
      <trkpt lat="46.13818" lon="4.69633">
        <ele>243</ele>
        <time>2016-11-03T14:36:26Z</time>
      </trkpt>
      <trkpt lat="46.13818" lon="4.69644">
        <ele>243</ele>
        <time>2016-11-03T14:36:33Z</time>
      </trkpt>
      <trkpt lat="46.13818" lon="4.69646">
        <ele>243</ele>
        <time>2016-11-03T14:36:34Z</time>
      </trkpt>
      <trkpt lat="46.13818" lon="4.69658">
        <ele>243</ele>
        <time>2016-11-03T14:36:42Z</time>
      </trkpt>
      <trkpt lat="46.13818" lon="4.6966">
        <ele>243</ele>
        <time>2016-11-03T14:36:43Z</time>
      </trkpt>
      <trkpt lat="46.13818" lon="4.69673">
        <ele>243</ele>
        <time>2016-11-03T14:36:50Z</time>
      </trkpt>
      <trkpt lat="46.13818" lon="4.69674">
        <ele>243</ele>
        <time>2016-11-03T14:36:51Z</time>
      </trkpt>
      <trkpt lat="46.13818" lon="4.69686">
        <ele>242</ele>
        <time>2016-11-03T14:36:57Z</time>
      </trkpt>
      <trkpt lat="46.13817" lon="4.69688">
        <ele>242</ele>
        <time>2016-11-03T14:36:58Z</time>
      </trkpt>
      <trkpt lat="46.13817" lon="4.69699">
        <ele>242</ele>
        <time>2016-11-03T14:37:04Z</time>
      </trkpt>
      <trkpt lat="46.13816" lon="4.69701">
        <ele>242</ele>
        <time>2016-11-03T14:37:05Z</time>
      </trkpt>
      <trkpt lat="46.13816" lon="4.69713">
        <ele>242</ele>
        <time>2016-11-03T14:37:12Z</time>
      </trkpt>
      <trkpt lat="46.13816" lon="4.69715">
        <ele>242</ele>
        <time>2016-11-03T14:37:13Z</time>
      </trkpt>
      <trkpt lat="46.13813" lon="4.69727">
        <ele>242</ele>
        <time>2016-11-03T14:37:20Z</time>
      </trkpt>
      <trkpt lat="46.13813" lon="4.69729">
        <ele>242</ele>
        <time>2016-11-03T14:37:21Z</time>
      </trkpt>
      <trkpt lat="46.13805" lon="4.69727">
        <ele>242</ele>
        <time>2016-11-03T14:38:00Z</time>
      </trkpt>
      <trkpt lat="46.13804" lon="4.69727">
        <ele>242</ele>
        <time>2016-11-03T14:38:01Z</time>
      </trkpt>
      <trkpt lat="46.13796" lon="4.69727">
        <ele>242</ele>
        <time>2016-11-03T14:38:08Z</time>
      </trkpt>
      <trkpt lat="46.13794" lon="4.69727">
        <ele>242</ele>
        <time>2016-11-03T14:38:09Z</time>
      </trkpt>
      <trkpt lat="46.13786" lon="4.69727">
        <ele>242</ele>
        <time>2016-11-03T14:38:15Z</time>
      </trkpt>
      <trkpt lat="46.13785" lon="4.69727">
        <ele>242</ele>
        <time>2016-11-03T14:38:16Z</time>
      </trkpt>
      <trkpt lat="46.13776" lon="4.69728">
        <ele>242</ele>
        <time>2016-11-03T14:38:23Z</time>
      </trkpt>
      <trkpt lat="46.13775" lon="4.69728">
        <ele>242</ele>
        <time>2016-11-03T14:38:24Z</time>
      </trkpt>
      <trkpt lat="46.13767" lon="4.69729">
        <ele>242</ele>
        <time>2016-11-03T14:38:31Z</time>
      </trkpt>
      <trkpt lat="46.13766" lon="4.69729">
        <ele>242</ele>
        <time>2016-11-03T14:38:32Z</time>
      </trkpt>
      <trkpt lat="46.13757" lon="4.69728">
        <ele>242</ele>
        <time>2016-11-03T14:38:39Z</time>
      </trkpt>
      <trkpt lat="46.13756" lon="4.69728">
        <ele>242</ele>
        <time>2016-11-03T14:38:40Z</time>
      </trkpt>
      <trkpt lat="46.13747" lon="4.69726">
        <ele>240</ele>
        <time>2016-11-03T14:38:48Z</time>
      </trkpt>
      <trkpt lat="46.13746" lon="4.69725">
        <ele>240</ele>
        <time>2016-11-03T14:38:49Z</time>
      </trkpt>
      <trkpt lat="46.13737" lon="4.69724">
        <ele>240</ele>
        <time>2016-11-03T14:38:57Z</time>
      </trkpt>
      <trkpt lat="46.13736" lon="4.69724">
        <ele>240</ele>
        <time>2016-11-03T14:38:58Z</time>
      </trkpt>
      <trkpt lat="46.13734" lon="4.69735">
        <ele>240</ele>
        <time>2016-11-03T14:39:17Z</time>
      </trkpt>
      <trkpt lat="46.13734" lon="4.69737">
        <ele>240</ele>
        <time>2016-11-03T14:39:18Z</time>
      </trkpt>
      <trkpt lat="46.13732" lon="4.69748">
        <ele>240</ele>
        <time>2016-11-03T14:39:24Z</time>
      </trkpt>
      <trkpt lat="46.13732" lon="4.6975">
        <ele>240</ele>
        <time>2016-11-03T14:39:25Z</time>
      </trkpt>
      <trkpt lat="46.13731" lon="4.69762">
        <ele>239</ele>
        <time>2016-11-03T14:39:31Z</time>
      </trkpt>
      <trkpt lat="46.13731" lon="4.69764">
        <ele>239</ele>
        <time>2016-11-03T14:39:32Z</time>
      </trkpt>
      <trkpt lat="46.1373" lon="4.69777">
        <ele>239</ele>
        <time>2016-11-03T14:39:39Z</time>
      </trkpt>
      <trkpt lat="46.13729" lon="4.69779">
        <ele>239</ele>
        <time>2016-11-03T14:39:40Z</time>
      </trkpt>
      <trkpt lat="46.13727" lon="4.69791">
        <ele>239</ele>
        <time>2016-11-03T14:39:46Z</time>
      </trkpt>
      <trkpt lat="46.13727" lon="4.69793">
        <ele>239</ele>
        <time>2016-11-03T14:39:47Z</time>
      </trkpt>
      <trkpt lat="46.13725" lon="4.69804">
        <ele>239</ele>
        <time>2016-11-03T14:39:53Z</time>
      </trkpt>
      <trkpt lat="46.13725" lon="4.69806">
        <ele>239</ele>
        <time>2016-11-03T14:39:54Z</time>
      </trkpt>
      <trkpt lat="46.13724" lon="4.69818">
        <ele>239</ele>
        <time>2016-11-03T14:40:00Z</time>
      </trkpt>
      <trkpt lat="46.13724" lon="4.6982">
        <ele>239</ele>
        <time>2016-11-03T14:40:01Z</time>
      </trkpt>
      <trkpt lat="46.13722" lon="4.69831">
        <ele>238</ele>
        <time>2016-11-03T14:40:07Z</time>
      </trkpt>
      <trkpt lat="46.13722" lon="4.69833">
        <ele>238</ele>
        <time>2016-11-03T14:40:08Z</time>
      </trkpt>
      <trkpt lat="46.1372" lon="4.69844">
        <ele>237</ele>
        <time>2016-11-03T14:40:14Z</time>
      </trkpt>
      <trkpt lat="46.13719" lon="4.69846">
        <ele>237</ele>
        <time>2016-11-03T14:40:15Z</time>
      </trkpt>
      <trkpt lat="46.13716" lon="4.69856">
        <ele>237</ele>
        <time>2016-11-03T14:40:22Z</time>
      </trkpt>
      <trkpt lat="46.13716" lon="4.69858">
        <ele>237</ele>
        <time>2016-11-03T14:40:23Z</time>
      </trkpt>
      <trkpt lat="46.13715" lon="4.6987">
        <ele>237</ele>
        <time>2016-11-03T14:40:30Z</time>
      </trkpt>
      <trkpt lat="46.13715" lon="4.69872">
        <ele>237</ele>
        <time>2016-11-03T14:40:31Z</time>
      </trkpt>
      <trkpt lat="46.13713" lon="4.69883">
        <ele>237</ele>
        <time>2016-11-03T14:40:37Z</time>
      </trkpt>
      <trkpt lat="46.13713" lon="4.69885">
        <ele>237</ele>
        <time>2016-11-03T14:40:38Z</time>
      </trkpt>
      <trkpt lat="46.13711" lon="4.69896">
        <ele>237</ele>
        <time>2016-11-03T14:40:44Z</time>
      </trkpt>
      <trkpt lat="46.13711" lon="4.69898">
        <ele>237</ele>
        <time>2016-11-03T14:40:45Z</time>
      </trkpt>
      <trkpt lat="46.13709" lon="4.69909">
        <ele>237</ele>
        <time>2016-11-03T14:40:51Z</time>
      </trkpt>
      <trkpt lat="46.13709" lon="4.69911">
        <ele>237</ele>
        <time>2016-11-03T14:40:52Z</time>
      </trkpt>
      <trkpt lat="46.13706" lon="4.69923">
        <ele>235</ele>
        <time>2016-11-03T14:41:01Z</time>
      </trkpt>
      <trkpt lat="46.13706" lon="4.69924">
        <ele>235</ele>
        <time>2016-11-03T14:41:02Z</time>
      </trkpt>
      <trkpt lat="46.13704" lon="4.69936">
        <ele>235</ele>
        <time>2016-11-03T14:41:11Z</time>
      </trkpt>
      <trkpt lat="46.13704" lon="4.69937">
        <ele>235</ele>
        <time>2016-11-03T14:41:12Z</time>
      </trkpt>
      <trkpt lat="46.13702" lon="4.69948">
        <ele>235</ele>
        <time>2016-11-03T14:41:19Z</time>
      </trkpt>
      <trkpt lat="46.13702" lon="4.6995">
        <ele>235</ele>
        <time>2016-11-03T14:41:20Z</time>
      </trkpt>
      <trkpt lat="46.13699" lon="4.69962">
        <ele>235</ele>
        <time>2016-11-03T14:41:27Z</time>
      </trkpt>
      <trkpt lat="46.13699" lon="4.69964">
        <ele>235</ele>
        <time>2016-11-03T14:41:28Z</time>
      </trkpt>
      <trkpt lat="46.13698" lon="4.69975">
        <ele>235</ele>
        <time>2016-11-03T14:41:34Z</time>
      </trkpt>
      <trkpt lat="46.13697" lon="4.69977">
        <ele>235</ele>
        <time>2016-11-03T14:41:35Z</time>
      </trkpt>
      <trkpt lat="46.13695" lon="4.69989">
        <ele>235</ele>
        <time>2016-11-03T14:41:42Z</time>
      </trkpt>
      <trkpt lat="46.13695" lon="4.69991">
        <ele>235</ele>
        <time>2016-11-03T14:41:43Z</time>
      </trkpt>
      <trkpt lat="46.13692" lon="4.70003">
        <ele>234</ele>
        <time>2016-11-03T14:41:50Z</time>
      </trkpt>
      <trkpt lat="46.13692" lon="4.70004">
        <ele>234</ele>
        <time>2016-11-03T14:41:51Z</time>
      </trkpt>
      <trkpt lat="46.1369" lon="4.70016">
        <ele>234</ele>
        <time>2016-11-03T14:41:59Z</time>
      </trkpt>
      <trkpt lat="46.13689" lon="4.70018">
        <ele>234</ele>
        <time>2016-11-03T14:42:00Z</time>
      </trkpt>
      <trkpt lat="46.13688" lon="4.7003">
        <ele>234</ele>
        <time>2016-11-03T14:42:07Z</time>
      </trkpt>
      <trkpt lat="46.13688" lon="4.70031">
        <ele>234</ele>
        <time>2016-11-03T14:42:08Z</time>
      </trkpt>
      <trkpt lat="46.13686" lon="4.70043">
        <ele>234</ele>
        <time>2016-11-03T14:42:15Z</time>
      </trkpt>
      <trkpt lat="46.13686" lon="4.70045">
        <ele>234</ele>
        <time>2016-11-03T14:42:16Z</time>
      </trkpt>
      <trkpt lat="46.13685" lon="4.70057">
        <ele>234</ele>
        <time>2016-11-03T14:42:23Z</time>
      </trkpt>
      <trkpt lat="46.13684" lon="4.70058">
        <ele>234</ele>
        <time>2016-11-03T14:42:24Z</time>
      </trkpt>
      <trkpt lat="46.13682" lon="4.70071">
        <ele>234</ele>
        <time>2016-11-03T14:42:32Z</time>
      </trkpt>
      <trkpt lat="46.13682" lon="4.70072">
        <ele>234</ele>
        <time>2016-11-03T14:42:33Z</time>
      </trkpt>
      <trkpt lat="46.1369" lon="4.70076">
        <ele>234</ele>
        <time>2016-11-03T14:42:42Z</time>
      </trkpt>
      <trkpt lat="46.13691" lon="4.70076">
        <ele>234</ele>
        <time>2016-11-03T14:42:43Z</time>
      </trkpt>
      <trkpt lat="46.13699" lon="4.70074">
        <ele>234</ele>
        <time>2016-11-03T14:42:51Z</time>
      </trkpt>
      <trkpt lat="46.137" lon="4.70073">
        <ele>234</ele>
        <time>2016-11-03T14:42:52Z</time>
      </trkpt>
      <trkpt lat="46.13708" lon="4.70072">
        <ele>234</ele>
        <time>2016-11-03T14:43:00Z</time>
      </trkpt>
      <trkpt lat="46.13709" lon="4.70072">
        <ele>235</ele>
        <time>2016-11-03T14:43:01Z</time>
      </trkpt>
      <trkpt lat="46.13718" lon="4.70072">
        <ele>235</ele>
        <time>2016-11-03T14:43:13Z</time>
      </trkpt>
      <trkpt lat="46.13719" lon="4.70072">
        <ele>235</ele>
        <time>2016-11-03T14:43:14Z</time>
      </trkpt>
      <trkpt lat="46.13728" lon="4.70072">
        <ele>235</ele>
        <time>2016-11-03T14:43:24Z</time>
      </trkpt>
      <trkpt lat="46.13728" lon="4.70071">
        <ele>235</ele>
        <time>2016-11-03T14:43:25Z</time>
      </trkpt>
      <trkpt lat="46.13737" lon="4.70071">
        <ele>235</ele>
        <time>2016-11-03T14:43:33Z</time>
      </trkpt>
      <trkpt lat="46.13738" lon="4.70072">
        <ele>235</ele>
        <time>2016-11-03T14:43:34Z</time>
      </trkpt>
      <trkpt lat="46.13746" lon="4.70075">
        <ele>236</ele>
        <time>2016-11-03T14:44:09Z</time>
      </trkpt>
      <trkpt lat="46.13747" lon="4.70075">
        <ele>236</ele>
        <time>2016-11-03T14:44:10Z</time>
      </trkpt>
      <trkpt lat="46.13755" lon="4.70076">
        <ele>236</ele>
        <time>2016-11-03T14:44:22Z</time>
      </trkpt>
      <trkpt lat="46.13756" lon="4.70076">
        <ele>236</ele>
        <time>2016-11-03T14:44:23Z</time>
      </trkpt>
      <trkpt lat="46.13765" lon="4.70075">
        <ele>237</ele>
        <time>2016-11-03T14:44:31Z</time>
      </trkpt>
      <trkpt lat="46.13766" lon="4.70075">
        <ele>237</ele>
        <time>2016-11-03T14:44:32Z</time>
      </trkpt>
      <trkpt lat="46.13775" lon="4.70075">
        <ele>237</ele>
        <time>2016-11-03T14:44:40Z</time>
      </trkpt>
      <trkpt lat="46.13776" lon="4.70074">
        <ele>237</ele>
        <time>2016-11-03T14:44:41Z</time>
      </trkpt>
      <trkpt lat="46.13784" lon="4.70074">
        <ele>237</ele>
        <time>2016-11-03T14:44:48Z</time>
      </trkpt>
      <trkpt lat="46.13785" lon="4.70074">
        <ele>237</ele>
        <time>2016-11-03T14:44:49Z</time>
      </trkpt>
      <trkpt lat="46.13794" lon="4.70074">
        <ele>238</ele>
        <time>2016-11-03T14:44:55Z</time>
      </trkpt>
      <trkpt lat="46.13795" lon="4.70074">
        <ele>238</ele>
        <time>2016-11-03T14:44:56Z</time>
      </trkpt>
      <trkpt lat="46.13803" lon="4.70078">
        <ele>238</ele>
        <time>2016-11-03T14:45:05Z</time>
      </trkpt>
      <trkpt lat="46.13804" lon="4.70078">
        <ele>238</ele>
        <time>2016-11-03T14:45:06Z</time>
      </trkpt>
      <trkpt lat="46.13812" lon="4.70083">
        <ele>238</ele>
        <time>2016-11-03T14:45:32Z</time>
      </trkpt>
      <trkpt lat="46.13812" lon="4.70083">
        <ele>238</ele>
        <time>2016-11-03T14:45:33Z</time>
      </trkpt>
      <trkpt lat="46.13821" lon="4.70085">
        <ele>238</ele>
        <time>2016-11-03T14:46:06Z</time>
      </trkpt>
      <trkpt lat="46.13821" lon="4.70085">
        <ele>238</ele>
        <time>2016-11-03T14:46:07Z</time>
      </trkpt>
      <trkpt lat="46.13813" lon="4.70086">
        <ele>238</ele>
        <time>2016-11-03T14:47:17Z</time>
      </trkpt>
      <trkpt lat="46.13812" lon="4.70086">
        <ele>238</ele>
        <time>2016-11-03T14:47:18Z</time>
      </trkpt>
      <trkpt lat="46.13803" lon="4.70087">
        <ele>238</ele>
        <time>2016-11-03T14:47:32Z</time>
      </trkpt>
      <trkpt lat="46.13803" lon="4.70087">
        <ele>238</ele>
        <time>2016-11-03T14:47:33Z</time>
      </trkpt>
      <trkpt lat="46.13796" lon="4.70087">
        <ele>237</ele>
        <time>2016-11-03T14:48:10Z</time>
      </trkpt>
      <trkpt lat="46.13794" lon="4.70086">
        <ele>237</ele>
        <time>2016-11-03T14:48:11Z</time>
      </trkpt>
      <trkpt lat="46.13786" lon="4.70085">
        <ele>237</ele>
        <time>2016-11-03T14:48:15Z</time>
      </trkpt>
      <trkpt lat="46.13784" lon="4.70084">
        <ele>237</ele>
        <time>2016-11-03T14:48:16Z</time>
      </trkpt>
      <trkpt lat="46.13775" lon="4.70084">
        <ele>237</ele>
        <time>2016-11-03T14:48:21Z</time>
      </trkpt>
      <trkpt lat="46.13774" lon="4.70084">
        <ele>237</ele>
        <time>2016-11-03T14:48:22Z</time>
      </trkpt>
      <trkpt lat="46.13765" lon="4.70082">
        <ele>237</ele>
        <time>2016-11-03T14:48:31Z</time>
      </trkpt>
      <trkpt lat="46.13763" lon="4.70081">
        <ele>237</ele>
        <time>2016-11-03T14:48:32Z</time>
      </trkpt>
      <trkpt lat="46.13754" lon="4.70081">
        <ele>236</ele>
        <time>2016-11-03T14:49:10Z</time>
      </trkpt>
      <trkpt lat="46.13753" lon="4.70081">
        <ele>236</ele>
        <time>2016-11-03T14:49:11Z</time>
      </trkpt>
      <trkpt lat="46.13747" lon="4.70071">
        <ele>235</ele>
        <time>2016-11-03T14:49:56Z</time>
      </trkpt>
      <trkpt lat="46.13747" lon="4.7007">
        <ele>235</ele>
        <time>2016-11-03T14:49:57Z</time>
      </trkpt>
      <trkpt lat="46.13744" lon="4.70058">
        <ele>235</ele>
        <time>2016-11-03T14:50:05Z</time>
      </trkpt>
      <trkpt lat="46.13744" lon="4.70057">
        <ele>235</ele>
        <time>2016-11-03T14:50:06Z</time>
      </trkpt>
      <trkpt lat="46.13743" lon="4.70045">
        <ele>235</ele>
        <time>2016-11-03T14:50:13Z</time>
      </trkpt>
      <trkpt lat="46.13743" lon="4.70044">
        <ele>235</ele>
        <time>2016-11-03T14:50:14Z</time>
      </trkpt>
      <trkpt lat="46.13742" lon="4.70032">
        <ele>235</ele>
        <time>2016-11-03T14:50:31Z</time>
      </trkpt>
      <trkpt lat="46.13742" lon="4.70031">
        <ele>235</ele>
        <time>2016-11-03T14:50:32Z</time>
      </trkpt>
      <trkpt lat="46.13741" lon="4.70019">
        <ele>235</ele>
        <time>2016-11-03T14:51:03Z</time>
      </trkpt>
      <trkpt lat="46.13741" lon="4.70017">
        <ele>235</ele>
        <time>2016-11-03T14:51:04Z</time>
      </trkpt>
      <trkpt lat="46.13741" lon="4.70005">
        <ele>236</ele>
        <time>2016-11-03T14:51:11Z</time>
      </trkpt>
      <trkpt lat="46.13741" lon="4.70003">
        <ele>236</ele>
        <time>2016-11-03T14:51:12Z</time>
      </trkpt>
      <trkpt lat="46.13742" lon="4.6999">
        <ele>236</ele>
        <time>2016-11-03T14:51:20Z</time>
      </trkpt>
      <trkpt lat="46.13743" lon="4.69988">
        <ele>236</ele>
        <time>2016-11-03T14:51:21Z</time>
      </trkpt>
      <trkpt lat="46.13746" lon="4.69977">
        <ele>236</ele>
        <time>2016-11-03T14:51:28Z</time>
      </trkpt>
      <trkpt lat="46.13747" lon="4.69976">
        <ele>236</ele>
        <time>2016-11-03T14:51:29Z</time>
      </trkpt>
      <trkpt lat="46.13752" lon="4.69966">
        <ele>237</ele>
        <time>2016-11-03T14:51:36Z</time>
      </trkpt>
      <trkpt lat="46.13753" lon="4.69965">
        <ele>237</ele>
        <time>2016-11-03T14:51:37Z</time>
      </trkpt>
      <trkpt lat="46.13761" lon="4.6996">
        <ele>238</ele>
        <time>2016-11-03T14:51:45Z</time>
      </trkpt>
      <trkpt lat="46.13763" lon="4.6996">
        <ele>238</ele>
        <time>2016-11-03T14:51:46Z</time>
      </trkpt>
      <trkpt lat="46.1377" lon="4.6996">
        <ele>238</ele>
        <time>2016-11-03T14:51:51Z</time>
      </trkpt>
      <trkpt lat="46.13772" lon="4.69961">
        <ele>238</ele>
        <time>2016-11-03T14:51:52Z</time>
      </trkpt>
      <trkpt lat="46.1378" lon="4.69961">
        <ele>238</ele>
        <time>2016-11-03T14:51:58Z</time>
      </trkpt>
      <trkpt lat="46.13781" lon="4.69961">
        <ele>238</ele>
        <time>2016-11-03T14:51:59Z</time>
      </trkpt>
      <trkpt lat="46.1379" lon="4.6996">
        <ele>238</ele>
        <time>2016-11-03T14:52:06Z</time>
      </trkpt>
      <trkpt lat="46.13791" lon="4.6996">
        <ele>238</ele>
        <time>2016-11-03T14:52:07Z</time>
      </trkpt>
      <trkpt lat="46.138" lon="4.69962">
        <ele>238</ele>
        <time>2016-11-03T14:52:13Z</time>
      </trkpt>
      <trkpt lat="46.13801" lon="4.69963">
        <ele>238</ele>
        <time>2016-11-03T14:52:14Z</time>
      </trkpt>
      <trkpt lat="46.1381" lon="4.69961">
        <ele>238</ele>
        <time>2016-11-03T14:52:22Z</time>
      </trkpt>
      <trkpt lat="46.1381" lon="4.69961">
        <ele>238</ele>
        <time>2016-11-03T14:52:23Z</time>
      </trkpt>
      <trkpt lat="46.13814" lon="4.69973">
        <ele>238</ele>
        <time>2016-11-03T14:52:36Z</time>
      </trkpt>
      <trkpt lat="46.13813" lon="4.69974">
        <ele>238</ele>
        <time>2016-11-03T14:52:37Z</time>
      </trkpt>
      <trkpt lat="46.13813" lon="4.69986">
        <ele>238</ele>
        <time>2016-11-03T14:52:46Z</time>
      </trkpt>
      <trkpt lat="46.13813" lon="4.69988">
        <ele>238</ele>
        <time>2016-11-03T14:52:47Z</time>
      </trkpt>
      <trkpt lat="46.13817" lon="4.69999">
        <ele>238</ele>
        <time>2016-11-03T14:53:05Z</time>
      </trkpt>
      <trkpt lat="46.13819" lon="4.7">
        <ele>238</ele>
        <time>2016-11-03T14:53:06Z</time>
      </trkpt>
      <trkpt lat="46.13826" lon="4.70005">
        <ele>239</ele>
        <time>2016-11-03T14:53:13Z</time>
      </trkpt>
      <trkpt lat="46.13827" lon="4.70005">
        <ele>239</ele>
        <time>2016-11-03T14:53:14Z</time>
      </trkpt>
      <trkpt lat="46.13835" lon="4.7001">
        <ele>240</ele>
        <time>2016-11-03T14:53:22Z</time>
      </trkpt>
      <trkpt lat="46.13836" lon="4.70011">
        <ele>240</ele>
        <time>2016-11-03T14:53:23Z</time>
      </trkpt>
      <trkpt lat="46.13844" lon="4.70013">
        <ele>240</ele>
        <time>2016-11-03T14:53:31Z</time>
      </trkpt>
      <trkpt lat="46.13845" lon="4.70013">
        <ele>240</ele>
        <time>2016-11-03T14:53:32Z</time>
      </trkpt>
      <trkpt lat="46.13853" lon="4.70018">
        <ele>241</ele>
        <time>2016-11-03T14:53:40Z</time>
      </trkpt>
      <trkpt lat="46.13855" lon="4.70018">
        <ele>241</ele>
        <time>2016-11-03T14:53:41Z</time>
      </trkpt>
      <trkpt lat="46.13862" lon="4.70023">
        <ele>241</ele>
        <time>2016-11-03T14:53:48Z</time>
      </trkpt>
      <trkpt lat="46.13863" lon="4.70023">
        <ele>241</ele>
        <time>2016-11-03T14:53:49Z</time>
      </trkpt>
      <trkpt lat="46.1387" lon="4.70032">
        <ele>241</ele>
        <time>2016-11-03T14:54:18Z</time>
      </trkpt>
      <trkpt lat="46.13871" lon="4.70032">
        <ele>241</ele>
        <time>2016-11-03T14:54:19Z</time>
      </trkpt>
      <trkpt lat="46.13877" lon="4.7004">
        <ele>241</ele>
        <time>2016-11-03T14:54:26Z</time>
      </trkpt>
      <trkpt lat="46.13878" lon="4.70041">
        <ele>241</ele>
        <time>2016-11-03T14:54:27Z</time>
      </trkpt>
      <trkpt lat="46.13884" lon="4.70049">
        <ele>241</ele>
        <time>2016-11-03T14:54:35Z</time>
      </trkpt>
      <trkpt lat="46.13885" lon="4.7005">
        <ele>241</ele>
        <time>2016-11-03T14:54:36Z</time>
      </trkpt>
      <trkpt lat="46.13892" lon="4.70055">
        <ele>242</ele>
        <time>2016-11-03T14:54:43Z</time>
      </trkpt>
      <trkpt lat="46.13894" lon="4.70055">
        <ele>242</ele>
        <time>2016-11-03T14:54:44Z</time>
      </trkpt>
      <trkpt lat="46.13902" lon="4.70059">
        <ele>242</ele>
        <time>2016-11-03T14:54:51Z</time>
      </trkpt>
      <trkpt lat="46.13903" lon="4.7006">
        <ele>242</ele>
        <time>2016-11-03T14:54:52Z</time>
      </trkpt>
      <trkpt lat="46.1391" lon="4.70067">
        <ele>242</ele>
        <time>2016-11-03T14:55:00Z</time>
      </trkpt>
      <trkpt lat="46.13911" lon="4.70068">
        <ele>242</ele>
        <time>2016-11-03T14:55:01Z</time>
      </trkpt>
      <trkpt lat="46.13919" lon="4.70065">
        <ele>244</ele>
        <time>2016-11-03T14:55:41Z</time>
      </trkpt>
      <trkpt lat="46.1392" lon="4.70065">
        <ele>244</ele>
        <time>2016-11-03T14:55:42Z</time>
      </trkpt>
      <trkpt lat="46.13925" lon="4.70055">
        <ele>245</ele>
        <time>2016-11-03T14:55:52Z</time>
      </trkpt>
      <trkpt lat="46.13925" lon="4.70054">
        <ele>245</ele>
        <time>2016-11-03T14:55:53Z</time>
      </trkpt>
      <trkpt lat="46.13931" lon="4.70045">
        <ele>245</ele>
        <time>2016-11-03T14:56:05Z</time>
      </trkpt>
      <trkpt lat="46.13932" lon="4.70044">
        <ele>245</ele>
        <time>2016-11-03T14:56:06Z</time>
      </trkpt>
      <trkpt lat="46.13939" lon="4.70038">
        <ele>245</ele>
        <time>2016-11-03T14:56:15Z</time>
      </trkpt>
      <trkpt lat="46.1394" lon="4.70037">
        <ele>245</ele>
        <time>2016-11-03T14:56:16Z</time>
      </trkpt>
      <trkpt lat="46.13945" lon="4.70029">
        <ele>245</ele>
        <time>2016-11-03T14:56:23Z</time>
      </trkpt>
      <trkpt lat="46.13946" lon="4.70028">
        <ele>245</ele>
        <time>2016-11-03T14:56:24Z</time>
      </trkpt>
      <trkpt lat="46.13952" lon="4.7002">
        <ele>246</ele>
        <time>2016-11-03T14:56:32Z</time>
      </trkpt>
      <trkpt lat="46.13953" lon="4.70019">
        <ele>246</ele>
        <time>2016-11-03T14:56:33Z</time>
      </trkpt>
      <trkpt lat="46.1396" lon="4.70012">
        <ele>246</ele>
        <time>2016-11-03T14:56:42Z</time>
      </trkpt>
      <trkpt lat="46.13961" lon="4.70011">
        <ele>246</ele>
        <time>2016-11-03T14:56:43Z</time>
      </trkpt>
      <trkpt lat="46.13967" lon="4.70002">
        <ele>246</ele>
        <time>2016-11-03T14:56:51Z</time>
      </trkpt>
      <trkpt lat="46.13968" lon="4.70001">
        <ele>246</ele>
        <time>2016-11-03T14:56:52Z</time>
      </trkpt>
      <trkpt lat="46.13972" lon="4.69991">
        <ele>247</ele>
        <time>2016-11-03T14:56:59Z</time>
      </trkpt>
      <trkpt lat="46.13973" lon="4.6999">
        <ele>247</ele>
        <time>2016-11-03T14:57:00Z</time>
      </trkpt>
      <trkpt lat="46.13979" lon="4.69981">
        <ele>247</ele>
        <time>2016-11-03T14:57:08Z</time>
      </trkpt>
      <trkpt lat="46.13979" lon="4.6998">
        <ele>247</ele>
        <time>2016-11-03T14:57:09Z</time>
      </trkpt>
      <trkpt lat="46.13985" lon="4.6997">
        <ele>247</ele>
        <time>2016-11-03T14:57:19Z</time>
      </trkpt>
      <trkpt lat="46.13986" lon="4.69969">
        <ele>247</ele>
        <time>2016-11-03T14:57:20Z</time>
      </trkpt>
      <trkpt lat="46.13991" lon="4.69959">
        <ele>247</ele>
        <time>2016-11-03T14:57:28Z</time>
      </trkpt>
      <trkpt lat="46.13992" lon="4.69958">
        <ele>247</ele>
        <time>2016-11-03T14:57:29Z</time>
      </trkpt>
      <trkpt lat="46.13997" lon="4.69949">
        <ele>247</ele>
        <time>2016-11-03T14:57:36Z</time>
      </trkpt>
      <trkpt lat="46.13998" lon="4.69948">
        <ele>248</ele>
        <time>2016-11-03T14:57:37Z</time>
      </trkpt>
      <trkpt lat="46.14004" lon="4.69939">
        <ele>248</ele>
        <time>2016-11-03T14:57:45Z</time>
      </trkpt>
      <trkpt lat="46.14006" lon="4.69937">
        <ele>248</ele>
        <time>2016-11-03T14:57:46Z</time>
      </trkpt>
      <trkpt lat="46.14012" lon="4.69929">
        <ele>248</ele>
        <time>2016-11-03T14:57:52Z</time>
      </trkpt>
      <trkpt lat="46.14013" lon="4.69927">
        <ele>248</ele>
        <time>2016-11-03T14:57:53Z</time>
      </trkpt>
      <trkpt lat="46.14019" lon="4.69921">
        <ele>248</ele>
        <time>2016-11-03T14:57:58Z</time>
      </trkpt>
      <trkpt lat="46.14021" lon="4.6992">
        <ele>248</ele>
        <time>2016-11-03T14:57:59Z</time>
      </trkpt>
      <trkpt lat="46.14028" lon="4.69915">
        <ele>247</ele>
        <time>2016-11-03T14:58:03Z</time>
      </trkpt>
      <trkpt lat="46.14029" lon="4.69914">
        <ele>247</ele>
        <time>2016-11-03T14:58:04Z</time>
      </trkpt>
      <trkpt lat="46.14036" lon="4.69909">
        <ele>247</ele>
        <time>2016-11-03T14:58:08Z</time>
      </trkpt>
      <trkpt lat="46.14038" lon="4.69908">
        <ele>247</ele>
        <time>2016-11-03T14:58:09Z</time>
      </trkpt>
      <trkpt lat="46.14045" lon="4.69902">
        <ele>247</ele>
        <time>2016-11-03T14:58:18Z</time>
      </trkpt>
      <trkpt lat="46.14046" lon="4.69901">
        <ele>247</ele>
        <time>2016-11-03T14:58:19Z</time>
      </trkpt>
      <trkpt lat="46.14053" lon="4.69896">
        <ele>247</ele>
        <time>2016-11-03T14:58:25Z</time>
      </trkpt>
      <trkpt lat="46.14054" lon="4.69895">
        <ele>247</ele>
        <time>2016-11-03T14:58:26Z</time>
      </trkpt>
      <trkpt lat="46.1406" lon="4.69888">
        <ele>247</ele>
        <time>2016-11-03T14:58:33Z</time>
      </trkpt>
      <trkpt lat="46.14062" lon="4.69888">
        <ele>247</ele>
        <time>2016-11-03T14:58:34Z</time>
      </trkpt>
      <trkpt lat="46.14069" lon="4.69881">
        <ele>247</ele>
        <time>2016-11-03T14:58:41Z</time>
      </trkpt>
      <trkpt lat="46.1407" lon="4.6988">
        <ele>247</ele>
        <time>2016-11-03T14:58:42Z</time>
      </trkpt>
      <trkpt lat="46.14073" lon="4.69868">
        <ele>247</ele>
        <time>2016-11-03T14:58:54Z</time>
      </trkpt>
      <trkpt lat="46.14073" lon="4.69867">
        <ele>247</ele>
        <time>2016-11-03T14:58:55Z</time>
      </trkpt>
      <trkpt lat="46.14077" lon="4.69857">
        <ele>246</ele>
        <time>2016-11-03T14:59:03Z</time>
      </trkpt>
      <trkpt lat="46.14077" lon="4.69856">
        <ele>246</ele>
        <time>2016-11-03T14:59:04Z</time>
      </trkpt>
      <trkpt lat="46.14084" lon="4.6985">
        <ele>245</ele>
        <time>2016-11-03T14:59:10Z</time>
      </trkpt>
      <trkpt lat="46.14085" lon="4.69848">
        <ele>245</ele>
        <time>2016-11-03T14:59:11Z</time>
      </trkpt>
      <trkpt lat="46.14092" lon="4.69843">
        <ele>245</ele>
        <time>2016-11-03T14:59:17Z</time>
      </trkpt>
      <trkpt lat="46.14093" lon="4.69842">
        <ele>245</ele>
        <time>2016-11-03T14:59:18Z</time>
      </trkpt>
      <trkpt lat="46.141" lon="4.69835">
        <ele>245</ele>
        <time>2016-11-03T14:59:24Z</time>
      </trkpt>
      <trkpt lat="46.14101" lon="4.69835">
        <ele>245</ele>
        <time>2016-11-03T14:59:25Z</time>
      </trkpt>
      <trkpt lat="46.14108" lon="4.69828">
        <ele>246</ele>
        <time>2016-11-03T14:59:35Z</time>
      </trkpt>
      <trkpt lat="46.14109" lon="4.69827">
        <ele>246</ele>
        <time>2016-11-03T14:59:36Z</time>
      </trkpt>
      <trkpt lat="46.14116" lon="4.69822">
        <ele>246</ele>
        <time>2016-11-03T14:59:41Z</time>
      </trkpt>
      <trkpt lat="46.14117" lon="4.69821">
        <ele>246</ele>
        <time>2016-11-03T14:59:42Z</time>
      </trkpt>
      <trkpt lat="46.14125" lon="4.69816">
        <ele>245</ele>
        <time>2016-11-03T14:59:47Z</time>
      </trkpt>
      <trkpt lat="46.14126" lon="4.69815">
        <ele>245</ele>
        <time>2016-11-03T14:59:48Z</time>
      </trkpt>
      <trkpt lat="46.14134" lon="4.6981">
        <ele>245</ele>
        <time>2016-11-03T14:59:54Z</time>
      </trkpt>
      <trkpt lat="46.14135" lon="4.6981">
        <ele>245</ele>
        <time>2016-11-03T14:59:55Z</time>
      </trkpt>
      <trkpt lat="46.14143" lon="4.69807">
        <ele>245</ele>
        <time>2016-11-03T15:00:00Z</time>
      </trkpt>
      <trkpt lat="46.14144" lon="4.69806">
        <ele>245</ele>
        <time>2016-11-03T15:00:01Z</time>
      </trkpt>
      <trkpt lat="46.14152" lon="4.69802">
        <ele>245</ele>
        <time>2016-11-03T15:00:06Z</time>
      </trkpt>
      <trkpt lat="46.14153" lon="4.69801">
        <ele>245</ele>
        <time>2016-11-03T15:00:07Z</time>
      </trkpt>
      <trkpt lat="46.14161" lon="4.69798">
        <ele>245</ele>
        <time>2016-11-03T15:00:12Z</time>
      </trkpt>
      <trkpt lat="46.14163" lon="4.69797">
        <ele>245</ele>
        <time>2016-11-03T15:00:13Z</time>
      </trkpt>
      <trkpt lat="46.14171" lon="4.69793">
        <ele>241</ele>
        <time>2016-11-03T15:00:18Z</time>
      </trkpt>
      <trkpt lat="46.14172" lon="4.69792">
        <ele>241</ele>
        <time>2016-11-03T15:00:19Z</time>
      </trkpt>
      <trkpt lat="46.14181" lon="4.69788">
        <ele>241</ele>
        <time>2016-11-03T15:00:24Z</time>
      </trkpt>
      <trkpt lat="46.14182" lon="4.69787">
        <ele>241</ele>
        <time>2016-11-03T15:00:25Z</time>
      </trkpt>
      <trkpt lat="46.14191" lon="4.69784">
        <ele>241</ele>
        <time>2016-11-03T15:00:30Z</time>
      </trkpt>
      <trkpt lat="46.14193" lon="4.69783">
        <ele>240</ele>
        <time>2016-11-03T15:00:31Z</time>
      </trkpt>
      <trkpt lat="46.142" lon="4.6978">
        <ele>240</ele>
        <time>2016-11-03T15:00:36Z</time>
      </trkpt>
      <trkpt lat="46.14202" lon="4.6978">
        <ele>240</ele>
        <time>2016-11-03T15:00:37Z</time>
      </trkpt>
      <trkpt lat="46.1421" lon="4.69778">
        <ele>240</ele>
        <time>2016-11-03T15:00:42Z</time>
      </trkpt>
      <trkpt lat="46.14212" lon="4.69778">
        <ele>239</ele>
        <time>2016-11-03T15:00:43Z</time>
      </trkpt>
      <trkpt lat="46.1422" lon="4.69776">
        <ele>239</ele>
        <time>2016-11-03T15:00:48Z</time>
      </trkpt>
      <trkpt lat="46.14221" lon="4.69776">
        <ele>239</ele>
        <time>2016-11-03T15:00:49Z</time>
      </trkpt>
      <trkpt lat="46.14229" lon="4.69773">
        <ele>238</ele>
        <time>2016-11-03T15:00:54Z</time>
      </trkpt>
      <trkpt lat="46.14231" lon="4.69773">
        <ele>238</ele>
        <time>2016-11-03T15:00:55Z</time>
      </trkpt>
      <trkpt lat="46.14239" lon="4.6977">
        <ele>238</ele>
        <time>2016-11-03T15:01:01Z</time>
      </trkpt>
      <trkpt lat="46.1424" lon="4.6977">
        <ele>238</ele>
        <time>2016-11-03T15:01:02Z</time>
      </trkpt>
      <trkpt lat="46.14248" lon="4.69767">
        <ele>238</ele>
        <time>2016-11-03T15:01:09Z</time>
      </trkpt>
      <trkpt lat="46.14249" lon="4.69767">
        <ele>237</ele>
        <time>2016-11-03T15:01:10Z</time>
      </trkpt>
      <trkpt lat="46.14258" lon="4.69764">
        <ele>234</ele>
        <time>2016-11-03T15:01:18Z</time>
      </trkpt>
      <trkpt lat="46.14259" lon="4.69764">
        <ele>234</ele>
        <time>2016-11-03T15:01:19Z</time>
      </trkpt>
      <trkpt lat="46.14268" lon="4.69761">
        <ele>234</ele>
        <time>2016-11-03T15:01:26Z</time>
      </trkpt>
      <trkpt lat="46.14269" lon="4.69761">
        <ele>234</ele>
        <time>2016-11-03T15:01:27Z</time>
      </trkpt>
      <trkpt lat="46.14278" lon="4.6976">
        <ele>233</ele>
        <time>2016-11-03T15:01:33Z</time>
      </trkpt>
      <trkpt lat="46.14279" lon="4.6976">
        <ele>233</ele>
        <time>2016-11-03T15:01:34Z</time>
      </trkpt>
      <trkpt lat="46.14287" lon="4.69758">
        <ele>232</ele>
        <time>2016-11-03T15:01:41Z</time>
      </trkpt>
      <trkpt lat="46.14289" lon="4.69757">
        <ele>232</ele>
        <time>2016-11-03T15:01:42Z</time>
      </trkpt>
      <trkpt lat="46.14297" lon="4.69754">
        <ele>232</ele>
        <time>2016-11-03T15:01:49Z</time>
      </trkpt>
      <trkpt lat="46.14298" lon="4.69753">
        <ele>232</ele>
        <time>2016-11-03T15:01:50Z</time>
      </trkpt>
      <trkpt lat="46.14306" lon="4.6975">
        <ele>231</ele>
        <time>2016-11-03T15:01:56Z</time>
      </trkpt>
      <trkpt lat="46.14307" lon="4.6975">
        <ele>232</ele>
        <time>2016-11-03T15:01:57Z</time>
      </trkpt>
      <trkpt lat="46.14315" lon="4.69747">
        <ele>231</ele>
        <time>2016-11-03T15:02:03Z</time>
      </trkpt>
      <trkpt lat="46.14317" lon="4.69747">
        <ele>231</ele>
        <time>2016-11-03T15:02:04Z</time>
      </trkpt>
      <trkpt lat="46.14324" lon="4.69745">
        <ele>230</ele>
        <time>2016-11-03T15:02:09Z</time>
      </trkpt>
      <trkpt lat="46.14326" lon="4.69744">
        <ele>230</ele>
        <time>2016-11-03T15:02:10Z</time>
      </trkpt>
      <trkpt lat="46.14334" lon="4.69743">
        <ele>229</ele>
        <time>2016-11-03T15:02:16Z</time>
      </trkpt>
      <trkpt lat="46.14335" lon="4.69743">
        <ele>229</ele>
        <time>2016-11-03T15:02:17Z</time>
      </trkpt>
      <trkpt lat="46.14344" lon="4.69742">
        <ele>229</ele>
        <time>2016-11-03T15:02:23Z</time>
      </trkpt>
      <trkpt lat="46.14345" lon="4.69741">
        <ele>229</ele>
        <time>2016-11-03T15:02:24Z</time>
      </trkpt>
      <trkpt lat="46.1435" lon="4.69731">
        <ele>229</ele>
        <time>2016-11-03T15:02:34Z</time>
      </trkpt>
      <trkpt lat="46.14349" lon="4.69729">
        <ele>229</ele>
        <time>2016-11-03T15:02:35Z</time>
      </trkpt>
      <trkpt lat="46.14345" lon="4.69719">
        <ele>229</ele>
        <time>2016-11-03T15:02:41Z</time>
      </trkpt>
      <trkpt lat="46.14345" lon="4.69718">
        <ele>229</ele>
        <time>2016-11-03T15:02:42Z</time>
      </trkpt>
      <trkpt lat="46.14342" lon="4.69707">
        <ele>229</ele>
        <time>2016-11-03T15:02:49Z</time>
      </trkpt>
      <trkpt lat="46.14341" lon="4.69705">
        <ele>229</ele>
        <time>2016-11-03T15:02:50Z</time>
      </trkpt>
      <trkpt lat="46.14343" lon="4.69694">
        <ele>229</ele>
        <time>2016-11-03T15:02:58Z</time>
      </trkpt>
      <trkpt lat="46.14344" lon="4.69693">
        <ele>229</ele>
        <time>2016-11-03T15:02:59Z</time>
      </trkpt>
      <trkpt lat="46.14343" lon="4.6968">
        <ele>230</ele>
        <time>2016-11-03T15:03:07Z</time>
      </trkpt>
      <trkpt lat="46.14342" lon="4.69679">
        <ele>230</ele>
        <time>2016-11-03T15:03:08Z</time>
      </trkpt>
      <trkpt lat="46.14339" lon="4.69667">
        <ele>231</ele>
        <time>2016-11-03T15:03:15Z</time>
      </trkpt>
      <trkpt lat="46.14339" lon="4.69665">
        <ele>231</ele>
        <time>2016-11-03T15:03:16Z</time>
      </trkpt>
      <trkpt lat="46.14334" lon="4.69656">
        <ele>231</ele>
        <time>2016-11-03T15:03:22Z</time>
      </trkpt>
      <trkpt lat="46.14333" lon="4.69654">
        <ele>232</ele>
        <time>2016-11-03T15:03:23Z</time>
      </trkpt>
      <trkpt lat="46.1433" lon="4.69644">
        <ele>232</ele>
        <time>2016-11-03T15:03:29Z</time>
      </trkpt>
      <trkpt lat="46.1433" lon="4.69642">
        <ele>232</ele>
        <time>2016-11-03T15:03:30Z</time>
      </trkpt>
      <trkpt lat="46.14329" lon="4.69631">
        <ele>233</ele>
        <time>2016-11-03T15:03:36Z</time>
      </trkpt>
      <trkpt lat="46.14329" lon="4.69629">
        <ele>233</ele>
        <time>2016-11-03T15:03:37Z</time>
      </trkpt>
      <trkpt lat="46.14327" lon="4.69618">
        <ele>233</ele>
        <time>2016-11-03T15:03:43Z</time>
      </trkpt>
      <trkpt lat="46.14327" lon="4.69616">
        <ele>233</ele>
        <time>2016-11-03T15:03:44Z</time>
      </trkpt>
      <trkpt lat="46.14321" lon="4.69606">
        <ele>233</ele>
        <time>2016-11-03T15:03:51Z</time>
      </trkpt>
      <trkpt lat="46.1432" lon="4.69605">
        <ele>233</ele>
        <time>2016-11-03T15:03:52Z</time>
      </trkpt>
      <trkpt lat="46.14314" lon="4.69596">
        <ele>233</ele>
        <time>2016-11-03T15:03:58Z</time>
      </trkpt>
      <trkpt lat="46.14314" lon="4.69594">
        <ele>233</ele>
        <time>2016-11-03T15:03:59Z</time>
      </trkpt>
      <trkpt lat="46.14311" lon="4.69582">
        <ele>234</ele>
        <time>2016-11-03T15:04:11Z</time>
      </trkpt>
      <trkpt lat="46.1431" lon="4.69581">
        <ele>234</ele>
        <time>2016-11-03T15:04:12Z</time>
      </trkpt>
      <trkpt lat="46.14306" lon="4.6957">
        <ele>234</ele>
        <time>2016-11-03T15:04:20Z</time>
      </trkpt>
      <trkpt lat="46.14306" lon="4.69569">
        <ele>234</ele>
        <time>2016-11-03T15:04:21Z</time>
      </trkpt>
      <trkpt lat="46.143" lon="4.6956">
        <ele>234</ele>
        <time>2016-11-03T15:04:29Z</time>
      </trkpt>
      <trkpt lat="46.143" lon="4.69558">
        <ele>234</ele>
        <time>2016-11-03T15:04:30Z</time>
      </trkpt>
      <trkpt lat="46.14297" lon="4.69546">
        <ele>234</ele>
        <time>2016-11-03T15:04:37Z</time>
      </trkpt>
      <trkpt lat="46.14296" lon="4.69544">
        <ele>234</ele>
        <time>2016-11-03T15:04:38Z</time>
      </trkpt>
      <trkpt lat="46.14289" lon="4.69539">
        <ele>235</ele>
        <time>2016-11-03T15:04:44Z</time>
      </trkpt>
      <trkpt lat="46.14288" lon="4.69538">
        <ele>235</ele>
        <time>2016-11-03T15:04:45Z</time>
      </trkpt>
      <trkpt lat="46.14279" lon="4.69538">
        <ele>235</ele>
        <time>2016-11-03T15:04:54Z</time>
      </trkpt>
      <trkpt lat="46.14279" lon="4.69538">
        <ele>235</ele>
        <time>2016-11-03T15:04:55Z</time>
      </trkpt>
      <trkpt lat="46.14272" lon="4.69543">
        <ele>235</ele>
        <time>2016-11-03T15:05:08Z</time>
      </trkpt>
      <trkpt lat="46.14271" lon="4.69544">
        <ele>235</ele>
        <time>2016-11-03T15:05:09Z</time>
      </trkpt>
      <trkpt lat="46.14263" lon="4.69548">
        <ele>235</ele>
        <time>2016-11-03T15:05:28Z</time>
      </trkpt>
      <trkpt lat="46.14262" lon="4.69547">
        <ele>235</ele>
        <time>2016-11-03T15:05:29Z</time>
      </trkpt>
      <trkpt lat="46.14256" lon="4.69539">
        <ele>235</ele>
        <time>2016-11-03T15:05:39Z</time>
      </trkpt>
      <trkpt lat="46.14255" lon="4.69537">
        <ele>235</ele>
        <time>2016-11-03T15:05:40Z</time>
      </trkpt>
      <trkpt lat="46.1425" lon="4.69528">
        <ele>237</ele>
        <time>2016-11-03T15:05:49Z</time>
      </trkpt>
      <trkpt lat="46.14249" lon="4.69527">
        <ele>237</ele>
        <time>2016-11-03T15:05:50Z</time>
      </trkpt>
      <trkpt lat="46.14243" lon="4.69518">
        <ele>237</ele>
        <time>2016-11-03T15:05:56Z</time>
      </trkpt>
      <trkpt lat="46.14243" lon="4.69517">
        <ele>237</ele>
        <time>2016-11-03T15:05:57Z</time>
      </trkpt>
      <trkpt lat="46.14237" lon="4.69508">
        <ele>237</ele>
        <time>2016-11-03T15:06:03Z</time>
      </trkpt>
      <trkpt lat="46.14236" lon="4.69507">
        <ele>237</ele>
        <time>2016-11-03T15:06:04Z</time>
      </trkpt>
      <trkpt lat="46.1423" lon="4.69498">
        <ele>238</ele>
        <time>2016-11-03T15:06:10Z</time>
      </trkpt>
      <trkpt lat="46.14228" lon="4.69497">
        <ele>238</ele>
        <time>2016-11-03T15:06:11Z</time>
      </trkpt>
      <trkpt lat="46.14222" lon="4.69488">
        <ele>239</ele>
        <time>2016-11-03T15:06:17Z</time>
      </trkpt>
      <trkpt lat="46.14221" lon="4.69487">
        <ele>239</ele>
        <time>2016-11-03T15:06:18Z</time>
      </trkpt>
      <trkpt lat="46.14218" lon="4.69476">
        <ele>239</ele>
        <time>2016-11-03T15:06:27Z</time>
      </trkpt>
      <trkpt lat="46.14218" lon="4.69474">
        <ele>239</ele>
        <time>2016-11-03T15:06:28Z</time>
      </trkpt>
      <trkpt lat="46.14213" lon="4.69465">
        <ele>240</ele>
        <time>2016-11-03T15:06:35Z</time>
      </trkpt>
      <trkpt lat="46.14213" lon="4.69463">
        <ele>240</ele>
        <time>2016-11-03T15:06:36Z</time>
      </trkpt>
      <trkpt lat="46.1421" lon="4.69452">
        <ele>240</ele>
        <time>2016-11-03T15:06:43Z</time>
      </trkpt>
      <trkpt lat="46.1421" lon="4.69451">
        <ele>240</ele>
        <time>2016-11-03T15:06:44Z</time>
      </trkpt>
      <trkpt lat="46.1421" lon="4.69438">
        <ele>240</ele>
        <time>2016-11-03T15:06:55Z</time>
      </trkpt>
      <trkpt lat="46.1421" lon="4.69437">
        <ele>240</ele>
        <time>2016-11-03T15:06:56Z</time>
      </trkpt>
      <trkpt lat="46.14209" lon="4.69424">
        <ele>240</ele>
        <time>2016-11-03T15:07:04Z</time>
      </trkpt>
      <trkpt lat="46.14208" lon="4.69422">
        <ele>241</ele>
        <time>2016-11-03T15:07:05Z</time>
      </trkpt>
      <trkpt lat="46.14205" lon="4.69411">
        <ele>242</ele>
        <time>2016-11-03T15:07:11Z</time>
      </trkpt>
      <trkpt lat="46.14205" lon="4.69409">
        <ele>242</ele>
        <time>2016-11-03T15:07:12Z</time>
      </trkpt>
      <trkpt lat="46.14204" lon="4.69397">
        <ele>242</ele>
        <time>2016-11-03T15:07:20Z</time>
      </trkpt>
      <trkpt lat="46.14204" lon="4.69396">
        <ele>242</ele>
        <time>2016-11-03T15:07:21Z</time>
      </trkpt>
      <trkpt lat="46.14206" lon="4.69385">
        <ele>242</ele>
        <time>2016-11-03T15:07:33Z</time>
      </trkpt>
      <trkpt lat="46.14208" lon="4.69384">
        <ele>242</ele>
        <time>2016-11-03T15:07:34Z</time>
      </trkpt>
      <trkpt lat="46.14209" lon="4.69372">
        <ele>242</ele>
        <time>2016-11-03T15:07:41Z</time>
      </trkpt>
      <trkpt lat="46.14208" lon="4.6937">
        <ele>242</ele>
        <time>2016-11-03T15:07:42Z</time>
      </trkpt>
      <trkpt lat="46.1421" lon="4.69359">
        <ele>242</ele>
        <time>2016-11-03T15:07:47Z</time>
      </trkpt>
      <trkpt lat="46.1421" lon="4.69357">
        <ele>242</ele>
        <time>2016-11-03T15:07:48Z</time>
      </trkpt>
      <trkpt lat="46.14212" lon="4.69344">
        <ele>242</ele>
        <time>2016-11-03T15:07:55Z</time>
      </trkpt>
      <trkpt lat="46.14213" lon="4.69343">
        <ele>241</ele>
        <time>2016-11-03T15:07:56Z</time>
      </trkpt>
      <trkpt lat="46.14221" lon="4.69338">
        <ele>241</ele>
        <time>2016-11-03T15:08:08Z</time>
      </trkpt>
      <trkpt lat="46.14221" lon="4.69338">
        <ele>241</ele>
        <time>2016-11-03T15:08:09Z</time>
      </trkpt>
      <trkpt lat="46.14227" lon="4.69329">
        <ele>240</ele>
        <time>2016-11-03T15:08:43Z</time>
      </trkpt>
      <trkpt lat="46.14227" lon="4.69328">
        <ele>239</ele>
        <time>2016-11-03T15:08:44Z</time>
      </trkpt>
      <trkpt lat="46.14227" lon="4.69316">
        <ele>240</ele>
        <time>2016-11-03T15:08:51Z</time>
      </trkpt>
      <trkpt lat="46.14227" lon="4.69314">
        <ele>240</ele>
        <time>2016-11-03T15:08:52Z</time>
      </trkpt>
      <trkpt lat="46.14226" lon="4.69303">
        <ele>240</ele>
        <time>2016-11-03T15:08:59Z</time>
      </trkpt>
      <trkpt lat="46.14226" lon="4.69301">
        <ele>240</ele>
        <time>2016-11-03T15:09:00Z</time>
      </trkpt>
      <trkpt lat="46.14226" lon="4.69288">
        <ele>240</ele>
        <time>2016-11-03T15:09:08Z</time>
      </trkpt>
      <trkpt lat="46.14227" lon="4.69286">
        <ele>240</ele>
        <time>2016-11-03T15:09:09Z</time>
      </trkpt>
      <trkpt lat="46.14231" lon="4.69275">
        <ele>239</ele>
        <time>2016-11-03T15:09:15Z</time>
      </trkpt>
      <trkpt lat="46.14231" lon="4.69274">
        <ele>239</ele>
        <time>2016-11-03T15:09:16Z</time>
      </trkpt>
      <trkpt lat="46.14235" lon="4.69264">
        <ele>238</ele>
        <time>2016-11-03T15:09:21Z</time>
      </trkpt>
      <trkpt lat="46.14235" lon="4.69262">
        <ele>238</ele>
        <time>2016-11-03T15:09:22Z</time>
      </trkpt>
      <trkpt lat="46.14237" lon="4.69249">
        <ele>237</ele>
        <time>2016-11-03T15:09:29Z</time>
      </trkpt>
      <trkpt lat="46.14237" lon="4.69247">
        <ele>237</ele>
        <time>2016-11-03T15:09:30Z</time>
      </trkpt>
      <trkpt lat="46.14239" lon="4.69236">
        <ele>237</ele>
        <time>2016-11-03T15:09:36Z</time>
      </trkpt>
      <trkpt lat="46.1424" lon="4.69234">
        <ele>237</ele>
        <time>2016-11-03T15:09:37Z</time>
      </trkpt>
      <trkpt lat="46.14244" lon="4.69224">
        <ele>237</ele>
        <time>2016-11-03T15:09:54Z</time>
      </trkpt>
      <trkpt lat="46.14245" lon="4.69223">
        <ele>237</ele>
        <time>2016-11-03T15:09:55Z</time>
      </trkpt>
      <trkpt lat="46.14249" lon="4.69211">
        <ele>237</ele>
        <time>2016-11-03T15:12:36Z</time>
      </trkpt>
      <trkpt lat="46.1425" lon="4.69211">
        <ele>237</ele>
        <time>2016-11-03T15:12:37Z</time>
      </trkpt>
      <trkpt lat="46.14258" lon="4.6921">
        <ele>235</ele>
        <time>2016-11-03T15:12:48Z</time>
      </trkpt>
      <trkpt lat="46.14259" lon="4.6921">
        <ele>235</ele>
        <time>2016-11-03T15:12:49Z</time>
      </trkpt>
      <trkpt lat="46.14268" lon="4.69206">
        <ele>234</ele>
        <time>2016-11-03T15:12:56Z</time>
      </trkpt>
      <trkpt lat="46.14269" lon="4.69206">
        <ele>234</ele>
        <time>2016-11-03T15:12:57Z</time>
      </trkpt>
      <trkpt lat="46.14277" lon="4.69206">
        <ele>234</ele>
        <time>2016-11-03T15:13:04Z</time>
      </trkpt>
      <trkpt lat="46.14278" lon="4.69205">
        <ele>234</ele>
        <time>2016-11-03T15:13:05Z</time>
      </trkpt>
      <trkpt lat="46.14287" lon="4.69204">
        <ele>234</ele>
        <time>2016-11-03T15:13:13Z</time>
      </trkpt>
      <trkpt lat="46.14288" lon="4.69204">
        <ele>234</ele>
        <time>2016-11-03T15:13:14Z</time>
      </trkpt>
      <trkpt lat="46.14295" lon="4.69202">
        <ele>234</ele>
        <time>2016-11-03T15:13:20Z</time>
      </trkpt>
      <trkpt lat="46.14297" lon="4.69202">
        <ele>234</ele>
        <time>2016-11-03T15:13:21Z</time>
      </trkpt>
      <trkpt lat="46.14305" lon="4.69204">
        <ele>233</ele>
        <time>2016-11-03T15:13:28Z</time>
      </trkpt>
      <trkpt lat="46.14306" lon="4.69204">
        <ele>233</ele>
        <time>2016-11-03T15:13:29Z</time>
      </trkpt>
      <trkpt lat="46.14314" lon="4.69205">
        <ele>233</ele>
        <time>2016-11-03T15:13:36Z</time>
      </trkpt>
      <trkpt lat="46.14315" lon="4.69205">
        <ele>233</ele>
        <time>2016-11-03T15:13:37Z</time>
      </trkpt>
      <trkpt lat="46.14323" lon="4.69205">
        <ele>233</ele>
        <time>2016-11-03T15:13:43Z</time>
      </trkpt>
      <trkpt lat="46.14325" lon="4.69205">
        <ele>233</ele>
        <time>2016-11-03T15:13:44Z</time>
      </trkpt>
      <trkpt lat="46.14334" lon="4.69202">
        <ele>231</ele>
        <time>2016-11-03T15:13:51Z</time>
      </trkpt>
      <trkpt lat="46.14335" lon="4.69202">
        <ele>231</ele>
        <time>2016-11-03T15:13:52Z</time>
      </trkpt>
      <trkpt lat="46.14343" lon="4.69199">
        <ele>231</ele>
        <time>2016-11-03T15:13:58Z</time>
      </trkpt>
      <trkpt lat="46.14344" lon="4.69198">
        <ele>231</ele>
        <time>2016-11-03T15:13:59Z</time>
      </trkpt>
      <trkpt lat="46.14351" lon="4.69192">
        <ele>231</ele>
        <time>2016-11-03T15:14:05Z</time>
      </trkpt>
      <trkpt lat="46.14352" lon="4.69191">
        <ele>231</ele>
        <time>2016-11-03T15:14:06Z</time>
      </trkpt>
      <trkpt lat="46.1436" lon="4.69187">
        <ele>231</ele>
        <time>2016-11-03T15:14:12Z</time>
      </trkpt>
      <trkpt lat="46.14361" lon="4.69187">
        <ele>231</ele>
        <time>2016-11-03T15:14:13Z</time>
      </trkpt>
      <trkpt lat="46.14369" lon="4.69188">
        <ele>231</ele>
        <time>2016-11-03T15:14:18Z</time>
      </trkpt>
      <trkpt lat="46.14371" lon="4.69188">
        <ele>231</ele>
        <time>2016-11-03T15:14:19Z</time>
      </trkpt>
      <trkpt lat="46.14379" lon="4.69184">
        <ele>232</ele>
        <time>2016-11-03T15:14:25Z</time>
      </trkpt>
      <trkpt lat="46.1438" lon="4.69183">
        <ele>232</ele>
        <time>2016-11-03T15:14:26Z</time>
      </trkpt>
      <trkpt lat="46.14388" lon="4.69178">
        <ele>232</ele>
        <time>2016-11-03T15:14:32Z</time>
      </trkpt>
      <trkpt lat="46.14389" lon="4.69177">
        <ele>232</ele>
        <time>2016-11-03T15:14:33Z</time>
      </trkpt>
      <trkpt lat="46.14398" lon="4.69174">
        <ele>232</ele>
        <time>2016-11-03T15:14:39Z</time>
      </trkpt>
      <trkpt lat="46.14399" lon="4.69174">
        <ele>232</ele>
        <time>2016-11-03T15:14:40Z</time>
      </trkpt>
      <trkpt lat="46.14406" lon="4.69168">
        <ele>232</ele>
        <time>2016-11-03T15:14:46Z</time>
      </trkpt>
      <trkpt lat="46.14407" lon="4.69167">
        <ele>232</ele>
        <time>2016-11-03T15:14:47Z</time>
      </trkpt>
      <trkpt lat="46.14415" lon="4.69164">
        <ele>232</ele>
        <time>2016-11-03T15:14:53Z</time>
      </trkpt>
      <trkpt lat="46.14417" lon="4.69163">
        <ele>232</ele>
        <time>2016-11-03T15:14:54Z</time>
      </trkpt>
      <trkpt lat="46.14425" lon="4.69161">
        <ele>233</ele>
        <time>2016-11-03T15:15:00Z</time>
      </trkpt>
      <trkpt lat="46.14426" lon="4.6916">
        <ele>233</ele>
        <time>2016-11-03T15:15:01Z</time>
      </trkpt>
      <trkpt lat="46.14433" lon="4.69154">
        <ele>234</ele>
        <time>2016-11-03T15:15:07Z</time>
      </trkpt>
      <trkpt lat="46.14434" lon="4.69153">
        <ele>234</ele>
        <time>2016-11-03T15:15:08Z</time>
      </trkpt>
      <trkpt lat="46.14442" lon="4.6915">
        <ele>234</ele>
        <time>2016-11-03T15:15:14Z</time>
      </trkpt>
      <trkpt lat="46.14443" lon="4.6915">
        <ele>234</ele>
        <time>2016-11-03T15:15:15Z</time>
      </trkpt>
      <trkpt lat="46.1445" lon="4.69146">
        <ele>234</ele>
        <time>2016-11-03T15:15:21Z</time>
      </trkpt>
      <trkpt lat="46.14452" lon="4.69146">
        <ele>234</ele>
        <time>2016-11-03T15:15:22Z</time>
      </trkpt>
      <trkpt lat="46.14458" lon="4.6914">
        <ele>235</ele>
        <time>2016-11-03T15:15:28Z</time>
      </trkpt>
      <trkpt lat="46.14459" lon="4.69139">
        <ele>235</ele>
        <time>2016-11-03T15:15:29Z</time>
      </trkpt>
      <trkpt lat="46.14467" lon="4.69134">
        <ele>235</ele>
        <time>2016-11-03T15:15:35Z</time>
      </trkpt>
      <trkpt lat="46.14468" lon="4.69134">
        <ele>235</ele>
        <time>2016-11-03T15:15:36Z</time>
      </trkpt>
      <trkpt lat="46.14476" lon="4.69132">
        <ele>235</ele>
        <time>2016-11-03T15:15:42Z</time>
      </trkpt>
      <trkpt lat="46.14477" lon="4.69131">
        <ele>235</ele>
        <time>2016-11-03T15:15:43Z</time>
      </trkpt>
      <trkpt lat="46.14484" lon="4.69126">
        <ele>235</ele>
        <time>2016-11-03T15:15:49Z</time>
      </trkpt>
      <trkpt lat="46.14485" lon="4.69125">
        <ele>235</ele>
        <time>2016-11-03T15:15:50Z</time>
      </trkpt>
      <trkpt lat="46.14493" lon="4.69121">
        <ele>236</ele>
        <time>2016-11-03T15:15:56Z</time>
      </trkpt>
      <trkpt lat="46.14494" lon="4.6912">
        <ele>236</ele>
        <time>2016-11-03T15:15:57Z</time>
      </trkpt>
      <trkpt lat="46.14502" lon="4.69117">
        <ele>236</ele>
        <time>2016-11-03T15:16:03Z</time>
      </trkpt>
      <trkpt lat="46.14503" lon="4.69117">
        <ele>236</ele>
        <time>2016-11-03T15:16:04Z</time>
      </trkpt>
      <trkpt lat="46.14512" lon="4.69114">
        <ele>236</ele>
        <time>2016-11-03T15:16:10Z</time>
      </trkpt>
      <trkpt lat="46.14513" lon="4.69114">
        <ele>236</ele>
        <time>2016-11-03T15:16:11Z</time>
      </trkpt>
      <trkpt lat="46.1452" lon="4.69109">
        <ele>236</ele>
        <time>2016-11-03T15:16:17Z</time>
      </trkpt>
      <trkpt lat="46.14522" lon="4.69108">
        <ele>236</ele>
        <time>2016-11-03T15:16:18Z</time>
      </trkpt>
      <trkpt lat="46.14529" lon="4.69102">
        <ele>236</ele>
        <time>2016-11-03T15:16:25Z</time>
      </trkpt>
      <trkpt lat="46.1453" lon="4.69102">
        <ele>236</ele>
        <time>2016-11-03T15:16:26Z</time>
      </trkpt>
      <trkpt lat="46.14538" lon="4.69099">
        <ele>236</ele>
        <time>2016-11-03T15:16:33Z</time>
      </trkpt>
      <trkpt lat="46.14539" lon="4.69099">
        <ele>236</ele>
        <time>2016-11-03T15:16:34Z</time>
      </trkpt>
      <trkpt lat="46.14547" lon="4.69095">
        <ele>236</ele>
        <time>2016-11-03T15:16:40Z</time>
      </trkpt>
      <trkpt lat="46.14548" lon="4.69095">
        <ele>236</ele>
        <time>2016-11-03T15:16:41Z</time>
      </trkpt>
      <trkpt lat="46.14556" lon="4.69088">
        <ele>236</ele>
        <time>2016-11-03T15:16:48Z</time>
      </trkpt>
      <trkpt lat="46.14557" lon="4.69087">
        <ele>236</ele>
        <time>2016-11-03T15:16:49Z</time>
      </trkpt>
      <trkpt lat="46.14565" lon="4.6908">
        <ele>237</ele>
        <time>2016-11-03T15:16:56Z</time>
      </trkpt>
      <trkpt lat="46.14566" lon="4.69079">
        <ele>237</ele>
        <time>2016-11-03T15:16:57Z</time>
      </trkpt>
      <trkpt lat="46.14574" lon="4.69075">
        <ele>237</ele>
        <time>2016-11-03T15:17:04Z</time>
      </trkpt>
      <trkpt lat="46.14575" lon="4.69074">
        <ele>237</ele>
        <time>2016-11-03T15:17:05Z</time>
      </trkpt>
      <trkpt lat="46.14582" lon="4.69068">
        <ele>237</ele>
        <time>2016-11-03T15:17:11Z</time>
      </trkpt>
      <trkpt lat="46.14583" lon="4.69067">
        <ele>237</ele>
        <time>2016-11-03T15:17:12Z</time>
      </trkpt>
      <trkpt lat="46.14589" lon="4.6906">
        <ele>238</ele>
        <time>2016-11-03T15:17:18Z</time>
      </trkpt>
      <trkpt lat="46.1459" lon="4.69059">
        <ele>238</ele>
        <time>2016-11-03T15:17:19Z</time>
      </trkpt>
      <trkpt lat="46.14595" lon="4.69051">
        <ele>238</ele>
        <time>2016-11-03T15:17:25Z</time>
      </trkpt>
      <trkpt lat="46.14596" lon="4.69049">
        <ele>238</ele>
        <time>2016-11-03T15:17:26Z</time>
      </trkpt>
      <trkpt lat="46.14602" lon="4.6904">
        <ele>239</ele>
        <time>2016-11-03T15:17:32Z</time>
      </trkpt>
      <trkpt lat="46.14602" lon="4.69039">
        <ele>239</ele>
        <time>2016-11-03T15:17:33Z</time>
      </trkpt>
      <trkpt lat="46.14608" lon="4.69032">
        <ele>239</ele>
        <time>2016-11-03T15:17:40Z</time>
      </trkpt>
      <trkpt lat="46.14609" lon="4.6903">
        <ele>239</ele>
        <time>2016-11-03T15:17:41Z</time>
      </trkpt>
      <trkpt lat="46.14616" lon="4.69023">
        <ele>239</ele>
        <time>2016-11-03T15:17:48Z</time>
      </trkpt>
      <trkpt lat="46.14617" lon="4.69022">
        <ele>239</ele>
        <time>2016-11-03T15:17:49Z</time>
      </trkpt>
      <trkpt lat="46.14623" lon="4.69013">
        <ele>239</ele>
        <time>2016-11-03T15:17:56Z</time>
      </trkpt>
      <trkpt lat="46.14624" lon="4.69012">
        <ele>239</ele>
        <time>2016-11-03T15:17:57Z</time>
      </trkpt>
      <trkpt lat="46.14631" lon="4.69005">
        <ele>239</ele>
        <time>2016-11-03T15:18:05Z</time>
      </trkpt>
      <trkpt lat="46.14632" lon="4.69004">
        <ele>239</ele>
        <time>2016-11-03T15:18:06Z</time>
      </trkpt>
      <trkpt lat="46.14638" lon="4.68996">
        <ele>241</ele>
        <time>2016-11-03T15:18:13Z</time>
      </trkpt>
      <trkpt lat="46.14639" lon="4.68995">
        <ele>241</ele>
        <time>2016-11-03T15:18:14Z</time>
      </trkpt>
      <trkpt lat="46.14645" lon="4.68986">
        <ele>241</ele>
        <time>2016-11-03T15:18:21Z</time>
      </trkpt>
      <trkpt lat="46.14646" lon="4.68985">
        <ele>241</ele>
        <time>2016-11-03T15:18:22Z</time>
      </trkpt>
      <trkpt lat="46.14651" lon="4.68975">
        <ele>242</ele>
        <time>2016-11-03T15:18:29Z</time>
      </trkpt>
      <trkpt lat="46.14652" lon="4.68973">
        <ele>242</ele>
        <time>2016-11-03T15:18:30Z</time>
      </trkpt>
      <trkpt lat="46.14658" lon="4.68966">
        <ele>242</ele>
        <time>2016-11-03T15:18:36Z</time>
      </trkpt>
      <trkpt lat="46.14659" lon="4.68964">
        <ele>242</ele>
        <time>2016-11-03T15:18:37Z</time>
      </trkpt>
      <trkpt lat="46.14665" lon="4.68956">
        <ele>242</ele>
        <time>2016-11-03T15:18:43Z</time>
      </trkpt>
      <trkpt lat="46.14665" lon="4.68955">
        <ele>242</ele>
        <time>2016-11-03T15:18:44Z</time>
      </trkpt>
      <trkpt lat="46.14672" lon="4.68948">
        <ele>242</ele>
        <time>2016-11-03T15:18:51Z</time>
      </trkpt>
      <trkpt lat="46.14673" lon="4.68947">
        <ele>242</ele>
        <time>2016-11-03T15:18:52Z</time>
      </trkpt>
      <trkpt lat="46.1468" lon="4.68939">
        <ele>242</ele>
        <time>2016-11-03T15:18:59Z</time>
      </trkpt>
      <trkpt lat="46.14681" lon="4.68937">
        <ele>242</ele>
        <time>2016-11-03T15:19:00Z</time>
      </trkpt>
      <trkpt lat="46.14687" lon="4.68928">
        <ele>242</ele>
        <time>2016-11-03T15:19:07Z</time>
      </trkpt>
      <trkpt lat="46.14688" lon="4.68926">
        <ele>242</ele>
        <time>2016-11-03T15:19:08Z</time>
      </trkpt>
      <trkpt lat="46.14694" lon="4.68917">
        <ele>242</ele>
        <time>2016-11-03T15:19:15Z</time>
      </trkpt>
      <trkpt lat="46.14694" lon="4.68915">
        <ele>245</ele>
        <time>2016-11-03T15:19:16Z</time>
      </trkpt>
      <trkpt lat="46.14701" lon="4.68908">
        <ele>245</ele>
        <time>2016-11-03T15:19:22Z</time>
      </trkpt>
      <trkpt lat="46.14702" lon="4.68907">
        <ele>245</ele>
        <time>2016-11-03T15:19:23Z</time>
      </trkpt>
      <trkpt lat="46.14708" lon="4.689">
        <ele>245</ele>
        <time>2016-11-03T15:19:29Z</time>
      </trkpt>
      <trkpt lat="46.14709" lon="4.689">
        <ele>245</ele>
        <time>2016-11-03T15:19:30Z</time>
      </trkpt>
      <trkpt lat="46.14717" lon="4.68895">
        <ele>245</ele>
        <time>2016-11-03T15:19:36Z</time>
      </trkpt>
      <trkpt lat="46.14718" lon="4.68894">
        <ele>245</ele>
        <time>2016-11-03T15:19:37Z</time>
      </trkpt>
      <trkpt lat="46.14724" lon="4.68885">
        <ele>245</ele>
        <time>2016-11-03T15:19:44Z</time>
      </trkpt>
      <trkpt lat="46.14725" lon="4.68884">
        <ele>245</ele>
        <time>2016-11-03T15:19:45Z</time>
      </trkpt>
      <trkpt lat="46.14729" lon="4.68874">
        <ele>246</ele>
        <time>2016-11-03T15:19:51Z</time>
      </trkpt>
      <trkpt lat="46.1473" lon="4.68872">
        <ele>246</ele>
        <time>2016-11-03T15:19:52Z</time>
      </trkpt>
      <trkpt lat="46.14736" lon="4.68864">
        <ele>246</ele>
        <time>2016-11-03T15:19:58Z</time>
      </trkpt>
      <trkpt lat="46.14737" lon="4.68863">
        <ele>246</ele>
        <time>2016-11-03T15:19:59Z</time>
      </trkpt>
      <trkpt lat="46.14745" lon="4.68858">
        <ele>246</ele>
        <time>2016-11-03T15:20:06Z</time>
      </trkpt>
      <trkpt lat="46.14746" lon="4.68857">
        <ele>246</ele>
        <time>2016-11-03T15:20:07Z</time>
      </trkpt>
      <trkpt lat="46.14754" lon="4.68853">
        <ele>247</ele>
        <time>2016-11-03T15:20:14Z</time>
      </trkpt>
      <trkpt lat="46.14755" lon="4.68852">
        <ele>247</ele>
        <time>2016-11-03T15:20:15Z</time>
      </trkpt>
      <trkpt lat="46.14762" lon="4.68845">
        <ele>247</ele>
        <time>2016-11-03T15:20:22Z</time>
      </trkpt>
      <trkpt lat="46.14763" lon="4.68844">
        <ele>247</ele>
        <time>2016-11-03T15:20:23Z</time>
      </trkpt>
      <trkpt lat="46.14769" lon="4.68834">
        <ele>247</ele>
        <time>2016-11-03T15:20:31Z</time>
      </trkpt>
      <trkpt lat="46.14769" lon="4.68833">
        <ele>249</ele>
        <time>2016-11-03T15:20:32Z</time>
      </trkpt>
      <trkpt lat="46.14775" lon="4.68824">
        <ele>250</ele>
        <time>2016-11-03T15:20:39Z</time>
      </trkpt>
      <trkpt lat="46.14776" lon="4.68822">
        <ele>250</ele>
        <time>2016-11-03T15:20:40Z</time>
      </trkpt>
      <trkpt lat="46.14783" lon="4.68814">
        <ele>250</ele>
        <time>2016-11-03T15:20:47Z</time>
      </trkpt>
      <trkpt lat="46.14784" lon="4.68813">
        <ele>250</ele>
        <time>2016-11-03T15:20:48Z</time>
      </trkpt>
      <trkpt lat="46.14792" lon="4.68808">
        <ele>250</ele>
        <time>2016-11-03T15:21:11Z</time>
      </trkpt>
      <trkpt lat="46.14793" lon="4.68808">
        <ele>250</ele>
        <time>2016-11-03T15:21:12Z</time>
      </trkpt>
      <trkpt lat="46.148" lon="4.68805">
        <ele>250</ele>
        <time>2016-11-03T15:21:20Z</time>
      </trkpt>
      <trkpt lat="46.14801" lon="4.68804">
        <ele>250</ele>
        <time>2016-11-03T15:21:21Z</time>
      </trkpt>
      <trkpt lat="46.14809" lon="4.68802">
        <ele>250</ele>
        <time>2016-11-03T15:21:30Z</time>
      </trkpt>
      <trkpt lat="46.1481" lon="4.68802">
        <ele>250</ele>
        <time>2016-11-03T15:21:31Z</time>
      </trkpt>
      <trkpt lat="46.14817" lon="4.68794">
        <ele>251</ele>
        <time>2016-11-03T15:21:56Z</time>
      </trkpt>
      <trkpt lat="46.14818" lon="4.68793">
        <ele>251</ele>
        <time>2016-11-03T15:21:57Z</time>
      </trkpt>
      <trkpt lat="46.14826" lon="4.6879">
        <ele>251</ele>
        <time>2016-11-03T15:22:04Z</time>
      </trkpt>
      <trkpt lat="46.14827" lon="4.6879">
        <ele>251</ele>
        <time>2016-11-03T15:22:05Z</time>
      </trkpt>
      <trkpt lat="46.14835" lon="4.68787">
        <ele>251</ele>
        <time>2016-11-03T15:22:12Z</time>
      </trkpt>
      <trkpt lat="46.14836" lon="4.68787">
        <ele>251</ele>
        <time>2016-11-03T15:22:13Z</time>
      </trkpt>
      <trkpt lat="46.14844" lon="4.68786">
        <ele>251</ele>
        <time>2016-11-03T15:22:19Z</time>
      </trkpt>
      <trkpt lat="46.14845" lon="4.68785">
        <ele>251</ele>
        <time>2016-11-03T15:22:20Z</time>
      </trkpt>
      <trkpt lat="46.14853" lon="4.68785">
        <ele>251</ele>
        <time>2016-11-03T15:22:25Z</time>
      </trkpt>
      <trkpt lat="46.14854" lon="4.68784">
        <ele>251</ele>
        <time>2016-11-03T15:22:26Z</time>
      </trkpt>
      <trkpt lat="46.14863" lon="4.68785">
        <ele>251</ele>
        <time>2016-11-03T15:22:33Z</time>
      </trkpt>
      <trkpt lat="46.14864" lon="4.68785">
        <ele>251</ele>
        <time>2016-11-03T15:22:34Z</time>
      </trkpt>
      <trkpt lat="46.14872" lon="4.68787">
        <ele>251</ele>
        <time>2016-11-03T15:22:41Z</time>
      </trkpt>
      <trkpt lat="46.14874" lon="4.68788">
        <ele>251</ele>
        <time>2016-11-03T15:22:42Z</time>
      </trkpt>
      <trkpt lat="46.14881" lon="4.68791">
        <ele>251</ele>
        <time>2016-11-03T15:22:48Z</time>
      </trkpt>
      <trkpt lat="46.14883" lon="4.68791">
        <ele>251</ele>
        <time>2016-11-03T15:22:49Z</time>
      </trkpt>
      <trkpt lat="46.1489" lon="4.68794">
        <ele>251</ele>
        <time>2016-11-03T15:22:55Z</time>
      </trkpt>
      <trkpt lat="46.14892" lon="4.68795">
        <ele>251</ele>
        <time>2016-11-03T15:22:56Z</time>
      </trkpt>
      <trkpt lat="46.149" lon="4.68798">
        <ele>250</ele>
        <time>2016-11-03T15:23:03Z</time>
      </trkpt>
      <trkpt lat="46.14901" lon="4.68798">
        <ele>250</ele>
        <time>2016-11-03T15:23:04Z</time>
      </trkpt>
      <trkpt lat="46.14909" lon="4.68802">
        <ele>250</ele>
        <time>2016-11-03T15:23:11Z</time>
      </trkpt>
      <trkpt lat="46.1491" lon="4.68803">
        <ele>250</ele>
        <time>2016-11-03T15:23:12Z</time>
      </trkpt>
      <trkpt lat="46.14918" lon="4.68804">
        <ele>250</ele>
        <time>2016-11-03T15:23:19Z</time>
      </trkpt>
      <trkpt lat="46.14919" lon="4.68804">
        <ele>250</ele>
        <time>2016-11-03T15:23:20Z</time>
      </trkpt>
      <trkpt lat="46.14927" lon="4.68805">
        <ele>250</ele>
        <time>2016-11-03T15:23:28Z</time>
      </trkpt>
      <trkpt lat="46.14928" lon="4.68805">
        <ele>250</ele>
        <time>2016-11-03T15:23:29Z</time>
      </trkpt>
      <trkpt lat="46.14937" lon="4.68806">
        <ele>250</ele>
        <time>2016-11-03T15:23:37Z</time>
      </trkpt>
      <trkpt lat="46.14938" lon="4.68806">
        <ele>250</ele>
        <time>2016-11-03T15:23:38Z</time>
      </trkpt>
      <trkpt lat="46.14947" lon="4.68808">
        <ele>250</ele>
        <time>2016-11-03T15:23:45Z</time>
      </trkpt>
      <trkpt lat="46.14948" lon="4.68809">
        <ele>250</ele>
        <time>2016-11-03T15:23:46Z</time>
      </trkpt>
      <trkpt lat="46.14957" lon="4.6881">
        <ele>250</ele>
        <time>2016-11-03T15:23:52Z</time>
      </trkpt>
      <trkpt lat="46.14958" lon="4.6881">
        <ele>250</ele>
        <time>2016-11-03T15:23:53Z</time>
      </trkpt>
      <trkpt lat="46.14966" lon="4.6881">
        <ele>250</ele>
        <time>2016-11-03T15:23:59Z</time>
      </trkpt>
      <trkpt lat="46.14967" lon="4.6881">
        <ele>250</ele>
        <time>2016-11-03T15:24:00Z</time>
      </trkpt>
      <trkpt lat="46.14975" lon="4.68812">
        <ele>250</ele>
        <time>2016-11-03T15:24:06Z</time>
      </trkpt>
      <trkpt lat="46.14976" lon="4.68813">
        <ele>250</ele>
        <time>2016-11-03T15:24:07Z</time>
      </trkpt>
      <trkpt lat="46.14984" lon="4.68815">
        <ele>250</ele>
        <time>2016-11-03T15:24:14Z</time>
      </trkpt>
      <trkpt lat="46.14985" lon="4.68815">
        <ele>250</ele>
        <time>2016-11-03T15:24:15Z</time>
      </trkpt>
      <trkpt lat="46.14993" lon="4.68817">
        <ele>250</ele>
        <time>2016-11-03T15:24:23Z</time>
      </trkpt>
      <trkpt lat="46.14994" lon="4.68817">
        <ele>250</ele>
        <time>2016-11-03T15:24:24Z</time>
      </trkpt>
      <trkpt lat="46.15003" lon="4.68818">
        <ele>249</ele>
        <time>2016-11-03T15:24:33Z</time>
      </trkpt>
      <trkpt lat="46.15004" lon="4.68819">
        <ele>249</ele>
        <time>2016-11-03T15:24:34Z</time>
      </trkpt>
      <trkpt lat="46.15011" lon="4.68824">
        <ele>249</ele>
        <time>2016-11-03T15:24:41Z</time>
      </trkpt>
      <trkpt lat="46.15012" lon="4.68824">
        <ele>249</ele>
        <time>2016-11-03T15:24:42Z</time>
      </trkpt>
      <trkpt lat="46.1502" lon="4.68828">
        <ele>250</ele>
        <time>2016-11-03T15:24:49Z</time>
      </trkpt>
      <trkpt lat="46.15021" lon="4.68829">
        <ele>250</ele>
        <time>2016-11-03T15:24:50Z</time>
      </trkpt>
      <trkpt lat="46.15029" lon="4.68833">
        <ele>250</ele>
        <time>2016-11-03T15:24:57Z</time>
      </trkpt>
      <trkpt lat="46.1503" lon="4.68833">
        <ele>250</ele>
        <time>2016-11-03T15:24:58Z</time>
      </trkpt>
      <trkpt lat="46.15039" lon="4.68836">
        <ele>246</ele>
        <time>2016-11-03T15:25:06Z</time>
      </trkpt>
      <trkpt lat="46.1504" lon="4.68837">
        <ele>246</ele>
        <time>2016-11-03T15:25:07Z</time>
      </trkpt>
      <trkpt lat="46.15048" lon="4.68839">
        <ele>246</ele>
        <time>2016-11-03T15:25:14Z</time>
      </trkpt>
      <trkpt lat="46.15049" lon="4.68839">
        <ele>246</ele>
        <time>2016-11-03T15:25:15Z</time>
      </trkpt>
      <trkpt lat="46.15057" lon="4.68839">
        <ele>246</ele>
        <time>2016-11-03T15:25:22Z</time>
      </trkpt>
      <trkpt lat="46.15058" lon="4.68838">
        <ele>246</ele>
        <time>2016-11-03T15:25:23Z</time>
      </trkpt>
      <trkpt lat="46.15066" lon="4.68838">
        <ele>246</ele>
        <time>2016-11-03T15:25:30Z</time>
      </trkpt>
      <trkpt lat="46.15067" lon="4.68837">
        <ele>246</ele>
        <time>2016-11-03T15:25:31Z</time>
      </trkpt>
      <trkpt lat="46.15075" lon="4.68835">
        <ele>247</ele>
        <time>2016-11-03T15:25:39Z</time>
      </trkpt>
      <trkpt lat="46.15076" lon="4.68834">
        <ele>247</ele>
        <time>2016-11-03T15:25:40Z</time>
      </trkpt>
      <trkpt lat="46.15085" lon="4.68832">
        <ele>247</ele>
        <time>2016-11-03T15:25:47Z</time>
      </trkpt>
      <trkpt lat="46.15086" lon="4.68832">
        <ele>247</ele>
        <time>2016-11-03T15:25:48Z</time>
      </trkpt>
      <trkpt lat="46.15094" lon="4.68831">
        <ele>248</ele>
        <time>2016-11-03T15:25:56Z</time>
      </trkpt>
      <trkpt lat="46.15095" lon="4.68831">
        <ele>248</ele>
        <time>2016-11-03T15:25:57Z</time>
      </trkpt>
      <trkpt lat="46.15104" lon="4.68832">
        <ele>249</ele>
        <time>2016-11-03T15:26:06Z</time>
      </trkpt>
      <trkpt lat="46.15105" lon="4.68832">
        <ele>249</ele>
        <time>2016-11-03T15:26:07Z</time>
      </trkpt>
      <trkpt lat="46.15113" lon="4.68832">
        <ele>249</ele>
        <time>2016-11-03T15:26:14Z</time>
      </trkpt>
      <trkpt lat="46.15115" lon="4.68832">
        <ele>249</ele>
        <time>2016-11-03T15:26:15Z</time>
      </trkpt>
      <trkpt lat="46.15123" lon="4.68829">
        <ele>249</ele>
        <time>2016-11-03T15:26:23Z</time>
      </trkpt>
      <trkpt lat="46.15124" lon="4.68828">
        <ele>249</ele>
        <time>2016-11-03T15:26:24Z</time>
      </trkpt>
      <trkpt lat="46.15128" lon="4.68816">
        <ele>249</ele>
        <time>2016-11-03T15:26:32Z</time>
      </trkpt>
      <trkpt lat="46.15129" lon="4.68815">
        <ele>249</ele>
        <time>2016-11-03T15:26:33Z</time>
      </trkpt>
      <trkpt lat="46.15136" lon="4.68806">
        <ele>249</ele>
        <time>2016-11-03T15:26:42Z</time>
      </trkpt>
      <trkpt lat="46.15136" lon="4.68805">
        <ele>249</ele>
        <time>2016-11-03T15:26:43Z</time>
      </trkpt>
      <trkpt lat="46.15143" lon="4.68798">
        <ele>250</ele>
        <time>2016-11-03T15:26:50Z</time>
      </trkpt>
      <trkpt lat="46.15144" lon="4.68797">
        <ele>250</ele>
        <time>2016-11-03T15:26:51Z</time>
      </trkpt>
      <trkpt lat="46.1515" lon="4.6879">
        <ele>250</ele>
        <time>2016-11-03T15:26:58Z</time>
      </trkpt>
      <trkpt lat="46.15151" lon="4.68788">
        <ele>250</ele>
        <time>2016-11-03T15:26:59Z</time>
      </trkpt>
      <trkpt lat="46.15157" lon="4.6878">
        <ele>250</ele>
        <time>2016-11-03T15:27:06Z</time>
      </trkpt>
      <trkpt lat="46.15158" lon="4.68778">
        <ele>250</ele>
        <time>2016-11-03T15:27:07Z</time>
      </trkpt>
      <trkpt lat="46.15165" lon="4.68771">
        <ele>251</ele>
        <time>2016-11-03T15:27:14Z</time>
      </trkpt>
      <trkpt lat="46.15166" lon="4.6877">
        <ele>251</ele>
        <time>2016-11-03T15:27:15Z</time>
      </trkpt>
      <trkpt lat="46.15173" lon="4.68763">
        <ele>251</ele>
        <time>2016-11-03T15:27:22Z</time>
      </trkpt>
      <trkpt lat="46.15174" lon="4.68763">
        <ele>251</ele>
        <time>2016-11-03T15:27:23Z</time>
      </trkpt>
      <trkpt lat="46.15182" lon="4.68758">
        <ele>251</ele>
        <time>2016-11-03T15:27:31Z</time>
      </trkpt>
      <trkpt lat="46.15183" lon="4.68757">
        <ele>250</ele>
        <time>2016-11-03T15:27:32Z</time>
      </trkpt>
      <trkpt lat="46.1519" lon="4.68753">
        <ele>250</ele>
        <time>2016-11-03T15:27:39Z</time>
      </trkpt>
      <trkpt lat="46.15191" lon="4.68752">
        <ele>250</ele>
        <time>2016-11-03T15:27:40Z</time>
      </trkpt>
      <trkpt lat="46.15199" lon="4.68746">
        <ele>253</ele>
        <time>2016-11-03T15:27:48Z</time>
      </trkpt>
      <trkpt lat="46.152" lon="4.68745">
        <ele>253</ele>
        <time>2016-11-03T15:27:49Z</time>
      </trkpt>
      <trkpt lat="46.15206" lon="4.68736">
        <ele>253</ele>
        <time>2016-11-03T15:27:58Z</time>
      </trkpt>
      <trkpt lat="46.15207" lon="4.68736">
        <ele>253</ele>
        <time>2016-11-03T15:27:59Z</time>
      </trkpt>
      <trkpt lat="46.15215" lon="4.68731">
        <ele>253</ele>
        <time>2016-11-03T15:28:07Z</time>
      </trkpt>
      <trkpt lat="46.15215" lon="4.6873">
        <ele>253</ele>
        <time>2016-11-03T15:28:08Z</time>
      </trkpt>
      <trkpt lat="46.15222" lon="4.68721">
        <ele>253</ele>
        <time>2016-11-03T15:28:17Z</time>
      </trkpt>
      <trkpt lat="46.15222" lon="4.68719">
        <ele>253</ele>
        <time>2016-11-03T15:28:18Z</time>
      </trkpt>
      <trkpt lat="46.15227" lon="4.6871">
        <ele>254</ele>
        <time>2016-11-03T15:28:26Z</time>
      </trkpt>
      <trkpt lat="46.15228" lon="4.68709">
        <ele>254</ele>
        <time>2016-11-03T15:28:27Z</time>
      </trkpt>
      <trkpt lat="46.15235" lon="4.68702">
        <ele>254</ele>
        <time>2016-11-03T15:28:34Z</time>
      </trkpt>
      <trkpt lat="46.15236" lon="4.68701">
        <ele>254</ele>
        <time>2016-11-03T15:28:35Z</time>
      </trkpt>
      <trkpt lat="46.15244" lon="4.68697">
        <ele>254</ele>
        <time>2016-11-03T15:28:43Z</time>
      </trkpt>
      <trkpt lat="46.15245" lon="4.68696">
        <ele>254</ele>
        <time>2016-11-03T15:28:44Z</time>
      </trkpt>
      <trkpt lat="46.15252" lon="4.68689">
        <ele>254</ele>
        <time>2016-11-03T15:28:53Z</time>
      </trkpt>
      <trkpt lat="46.15253" lon="4.68688">
        <ele>254</ele>
        <time>2016-11-03T15:28:54Z</time>
      </trkpt>
      <trkpt lat="46.1526" lon="4.68681">
        <ele>254</ele>
        <time>2016-11-03T15:29:02Z</time>
      </trkpt>
      <trkpt lat="46.1526" lon="4.68681">
        <ele>254</ele>
        <time>2016-11-03T15:29:03Z</time>
      </trkpt>
      <trkpt lat="46.15266" lon="4.68672">
        <ele>254</ele>
        <time>2016-11-03T15:29:11Z</time>
      </trkpt>
      <trkpt lat="46.15267" lon="4.68672">
        <ele>254</ele>
        <time>2016-11-03T15:29:12Z</time>
      </trkpt>
      <trkpt lat="46.15274" lon="4.68665">
        <ele>257</ele>
        <time>2016-11-03T15:29:21Z</time>
      </trkpt>
      <trkpt lat="46.15275" lon="4.68664">
        <ele>257</ele>
        <time>2016-11-03T15:29:22Z</time>
      </trkpt>
      <trkpt lat="46.15281" lon="4.68656">
        <ele>257</ele>
        <time>2016-11-03T15:29:30Z</time>
      </trkpt>
      <trkpt lat="46.15282" lon="4.68655">
        <ele>257</ele>
        <time>2016-11-03T15:29:31Z</time>
      </trkpt>
      <trkpt lat="46.15289" lon="4.68649">
        <ele>258</ele>
        <time>2016-11-03T15:29:38Z</time>
      </trkpt>
      <trkpt lat="46.1529" lon="4.68649">
        <ele>258</ele>
        <time>2016-11-03T15:29:39Z</time>
      </trkpt>
      <trkpt lat="46.15298" lon="4.68644">
        <ele>258</ele>
        <time>2016-11-03T15:29:46Z</time>
      </trkpt>
      <trkpt lat="46.15298" lon="4.68643">
        <ele>258</ele>
        <time>2016-11-03T15:29:47Z</time>
      </trkpt>
      <trkpt lat="46.15304" lon="4.68634">
        <ele>258</ele>
        <time>2016-11-03T15:29:55Z</time>
      </trkpt>
      <trkpt lat="46.15304" lon="4.68633">
        <ele>258</ele>
        <time>2016-11-03T15:29:56Z</time>
      </trkpt>
      <trkpt lat="46.1531" lon="4.68624">
        <ele>259</ele>
        <time>2016-11-03T15:30:04Z</time>
      </trkpt>
      <trkpt lat="46.15311" lon="4.68623">
        <ele>259</ele>
        <time>2016-11-03T15:30:05Z</time>
      </trkpt>
      <trkpt lat="46.15319" lon="4.68621">
        <ele>259</ele>
        <time>2016-11-03T15:30:14Z</time>
      </trkpt>
      <trkpt lat="46.15321" lon="4.68621">
        <ele>259</ele>
        <time>2016-11-03T15:30:15Z</time>
      </trkpt>
      <trkpt lat="46.15328" lon="4.68621">
        <ele>259</ele>
        <time>2016-11-03T15:30:22Z</time>
      </trkpt>
      <trkpt lat="46.1533" lon="4.68621">
        <ele>259</ele>
        <time>2016-11-03T15:30:23Z</time>
      </trkpt>
      <trkpt lat="46.15338" lon="4.68618">
        <ele>260</ele>
        <time>2016-11-03T15:30:30Z</time>
      </trkpt>
      <trkpt lat="46.15339" lon="4.68618">
        <ele>260</ele>
        <time>2016-11-03T15:30:31Z</time>
      </trkpt>
      <trkpt lat="46.15347" lon="4.68617">
        <ele>260</ele>
        <time>2016-11-03T15:30:40Z</time>
      </trkpt>
      <trkpt lat="46.15348" lon="4.68617">
        <ele>260</ele>
        <time>2016-11-03T15:30:41Z</time>
      </trkpt>
      <trkpt lat="46.15357" lon="4.68618">
        <ele>260</ele>
        <time>2016-11-03T15:30:49Z</time>
      </trkpt>
      <trkpt lat="46.15358" lon="4.68618">
        <ele>260</ele>
        <time>2016-11-03T15:30:50Z</time>
      </trkpt>
      <trkpt lat="46.15366" lon="4.68618">
        <ele>260</ele>
        <time>2016-11-03T15:30:58Z</time>
      </trkpt>
      <trkpt lat="46.15368" lon="4.68618">
        <ele>260</ele>
        <time>2016-11-03T15:30:59Z</time>
      </trkpt>
      <trkpt lat="46.15375" lon="4.68614">
        <ele>261</ele>
        <time>2016-11-03T15:31:06Z</time>
      </trkpt>
      <trkpt lat="46.15376" lon="4.68614">
        <ele>261</ele>
        <time>2016-11-03T15:31:07Z</time>
      </trkpt>
      <trkpt lat="46.15384" lon="4.6861">
        <ele>261</ele>
        <time>2016-11-03T15:31:15Z</time>
      </trkpt>
      <trkpt lat="46.15385" lon="4.68609">
        <ele>261</ele>
        <time>2016-11-03T15:31:16Z</time>
      </trkpt>
      <trkpt lat="46.15393" lon="4.68605">
        <ele>261</ele>
        <time>2016-11-03T15:31:23Z</time>
      </trkpt>
      <trkpt lat="46.15394" lon="4.68604">
        <ele>262</ele>
        <time>2016-11-03T15:31:24Z</time>
      </trkpt>
      <trkpt lat="46.15402" lon="4.68602">
        <ele>262</ele>
        <time>2016-11-03T15:31:32Z</time>
      </trkpt>
      <trkpt lat="46.15403" lon="4.68602">
        <ele>262</ele>
        <time>2016-11-03T15:31:33Z</time>
      </trkpt>
      <trkpt lat="46.15412" lon="4.68599">
        <ele>263</ele>
        <time>2016-11-03T15:31:41Z</time>
      </trkpt>
      <trkpt lat="46.15413" lon="4.68598">
        <ele>263</ele>
        <time>2016-11-03T15:31:42Z</time>
      </trkpt>
      <trkpt lat="46.15421" lon="4.68592">
        <ele>264</ele>
        <time>2016-11-03T15:31:50Z</time>
      </trkpt>
      <trkpt lat="46.15421" lon="4.68591">
        <ele>264</ele>
        <time>2016-11-03T15:31:51Z</time>
      </trkpt>
      <trkpt lat="46.15428" lon="4.68583">
        <ele>266</ele>
        <time>2016-11-03T15:32:00Z</time>
      </trkpt>
      <trkpt lat="46.15428" lon="4.68582">
        <ele>266</ele>
        <time>2016-11-03T15:32:01Z</time>
      </trkpt>
      <trkpt lat="46.15435" lon="4.68576">
        <ele>266</ele>
        <time>2016-11-03T15:32:08Z</time>
      </trkpt>
      <trkpt lat="46.15437" lon="4.68575">
        <ele>266</ele>
        <time>2016-11-03T15:32:09Z</time>
      </trkpt>
      <trkpt lat="46.15445" lon="4.68573">
        <ele>266</ele>
        <time>2016-11-03T15:32:16Z</time>
      </trkpt>
      <trkpt lat="46.15446" lon="4.68573">
        <ele>266</ele>
        <time>2016-11-03T15:32:17Z</time>
      </trkpt>
      <trkpt lat="46.15455" lon="4.68571">
        <ele>266</ele>
        <time>2016-11-03T15:32:25Z</time>
      </trkpt>
      <trkpt lat="46.15456" lon="4.6857">
        <ele>266</ele>
        <time>2016-11-03T15:32:26Z</time>
      </trkpt>
      <trkpt lat="46.15464" lon="4.68567">
        <ele>266</ele>
        <time>2016-11-03T15:32:34Z</time>
      </trkpt>
      <trkpt lat="46.15465" lon="4.68566">
        <ele>266</ele>
        <time>2016-11-03T15:32:35Z</time>
      </trkpt>
      <trkpt lat="46.15472" lon="4.68561">
        <ele>266</ele>
        <time>2016-11-03T15:32:43Z</time>
      </trkpt>
      <trkpt lat="46.15473" lon="4.6856">
        <ele>266</ele>
        <time>2016-11-03T15:32:44Z</time>
      </trkpt>
      <trkpt lat="46.15481" lon="4.68553">
        <ele>266</ele>
        <time>2016-11-03T15:32:51Z</time>
      </trkpt>
      <trkpt lat="46.15482" lon="4.68552">
        <ele>266</ele>
        <time>2016-11-03T15:32:52Z</time>
      </trkpt>
      <trkpt lat="46.1549" lon="4.68547">
        <ele>267</ele>
        <time>2016-11-03T15:32:59Z</time>
      </trkpt>
      <trkpt lat="46.15491" lon="4.68546">
        <ele>267</ele>
        <time>2016-11-03T15:33:00Z</time>
      </trkpt>
      <trkpt lat="46.15497" lon="4.68539">
        <ele>267</ele>
        <time>2016-11-03T15:33:08Z</time>
      </trkpt>
      <trkpt lat="46.15498" lon="4.68538">
        <ele>267</ele>
        <time>2016-11-03T15:33:09Z</time>
      </trkpt>
      <trkpt lat="46.15506" lon="4.68532">
        <ele>267</ele>
        <time>2016-11-03T15:33:17Z</time>
      </trkpt>
      <trkpt lat="46.15507" lon="4.68531">
        <ele>267</ele>
        <time>2016-11-03T15:33:18Z</time>
      </trkpt>
      <trkpt lat="46.15514" lon="4.68526">
        <ele>267</ele>
        <time>2016-11-03T15:33:26Z</time>
      </trkpt>
      <trkpt lat="46.15515" lon="4.68525">
        <ele>267</ele>
        <time>2016-11-03T15:33:27Z</time>
      </trkpt>
      <trkpt lat="46.15522" lon="4.6852">
        <ele>267</ele>
        <time>2016-11-03T15:33:34Z</time>
      </trkpt>
      <trkpt lat="46.15523" lon="4.68519">
        <ele>267</ele>
        <time>2016-11-03T15:33:35Z</time>
      </trkpt>
      <trkpt lat="46.1553" lon="4.68511">
        <ele>267</ele>
        <time>2016-11-03T15:33:42Z</time>
      </trkpt>
      <trkpt lat="46.15531" lon="4.6851">
        <ele>267</ele>
        <time>2016-11-03T15:33:43Z</time>
      </trkpt>
      <trkpt lat="46.15539" lon="4.68504">
        <ele>267</ele>
        <time>2016-11-03T15:33:51Z</time>
      </trkpt>
      <trkpt lat="46.1554" lon="4.68504">
        <ele>267</ele>
        <time>2016-11-03T15:33:52Z</time>
      </trkpt>
      <trkpt lat="46.15548" lon="4.68501">
        <ele>267</ele>
        <time>2016-11-03T15:34:01Z</time>
      </trkpt>
      <trkpt lat="46.15549" lon="4.68501">
        <ele>266</ele>
        <time>2016-11-03T15:34:02Z</time>
      </trkpt>
      <trkpt lat="46.15554" lon="4.68493">
        <ele>270</ele>
        <time>2016-11-03T15:34:10Z</time>
      </trkpt>
      <trkpt lat="46.15555" lon="4.68492">
        <ele>270</ele>
        <time>2016-11-03T15:34:11Z</time>
      </trkpt>
      <trkpt lat="46.15564" lon="4.68487">
        <ele>270</ele>
        <time>2016-11-03T15:34:19Z</time>
      </trkpt>
      <trkpt lat="46.15565" lon="4.68487">
        <ele>270</ele>
        <time>2016-11-03T15:34:20Z</time>
      </trkpt>
      <trkpt lat="46.15572" lon="4.68481">
        <ele>270</ele>
        <time>2016-11-03T15:34:28Z</time>
      </trkpt>
      <trkpt lat="46.15572" lon="4.6848">
        <ele>270</ele>
        <time>2016-11-03T15:34:29Z</time>
      </trkpt>
      <trkpt lat="46.15579" lon="4.68473">
        <ele>270</ele>
        <time>2016-11-03T15:34:36Z</time>
      </trkpt>
      <trkpt lat="46.1558" lon="4.68472">
        <ele>270</ele>
        <time>2016-11-03T15:34:37Z</time>
      </trkpt>
      <trkpt lat="46.15587" lon="4.68467">
        <ele>269</ele>
        <time>2016-11-03T15:34:43Z</time>
      </trkpt>
      <trkpt lat="46.15588" lon="4.68466">
        <ele>269</ele>
        <time>2016-11-03T15:34:44Z</time>
      </trkpt>
      <trkpt lat="46.15595" lon="4.68461">
        <ele>269</ele>
        <time>2016-11-03T15:34:51Z</time>
      </trkpt>
      <trkpt lat="46.15596" lon="4.6846">
        <ele>269</ele>
        <time>2016-11-03T15:34:52Z</time>
      </trkpt>
      <trkpt lat="46.15605" lon="4.68458">
        <ele>269</ele>
        <time>2016-11-03T15:35:00Z</time>
      </trkpt>
      <trkpt lat="46.15605" lon="4.68457">
        <ele>269</ele>
        <time>2016-11-03T15:35:01Z</time>
      </trkpt>
      <trkpt lat="46.15612" lon="4.68449">
        <ele>269</ele>
        <time>2016-11-03T15:35:10Z</time>
      </trkpt>
      <trkpt lat="46.15613" lon="4.68448">
        <ele>269</ele>
        <time>2016-11-03T15:35:11Z</time>
      </trkpt>
      <trkpt lat="46.15621" lon="4.68443">
        <ele>269</ele>
        <time>2016-11-03T15:35:19Z</time>
      </trkpt>
      <trkpt lat="46.15622" lon="4.68442">
        <ele>269</ele>
        <time>2016-11-03T15:35:20Z</time>
      </trkpt>
      <trkpt lat="46.15628" lon="4.68436">
        <ele>269</ele>
        <time>2016-11-03T15:35:28Z</time>
      </trkpt>
      <trkpt lat="46.15629" lon="4.68435">
        <ele>269</ele>
        <time>2016-11-03T15:35:29Z</time>
      </trkpt>
      <trkpt lat="46.15636" lon="4.68428">
        <ele>270</ele>
        <time>2016-11-03T15:35:37Z</time>
      </trkpt>
      <trkpt lat="46.15637" lon="4.68428">
        <ele>270</ele>
        <time>2016-11-03T15:35:38Z</time>
      </trkpt>
      <trkpt lat="46.15645" lon="4.68422">
        <ele>270</ele>
        <time>2016-11-03T15:35:47Z</time>
      </trkpt>
      <trkpt lat="46.15645" lon="4.68421">
        <ele>270</ele>
        <time>2016-11-03T15:35:48Z</time>
      </trkpt>
      <trkpt lat="46.15652" lon="4.68413">
        <ele>272</ele>
        <time>2016-11-03T15:35:55Z</time>
      </trkpt>
      <trkpt lat="46.15653" lon="4.68412">
        <ele>272</ele>
        <time>2016-11-03T15:35:56Z</time>
      </trkpt>
      <trkpt lat="46.15659" lon="4.68405">
        <ele>272</ele>
        <time>2016-11-03T15:36:03Z</time>
      </trkpt>
      <trkpt lat="46.1566" lon="4.68404">
        <ele>272</ele>
        <time>2016-11-03T15:36:04Z</time>
      </trkpt>
      <trkpt lat="46.15667" lon="4.68397">
        <ele>271</ele>
        <time>2016-11-03T15:36:11Z</time>
      </trkpt>
      <trkpt lat="46.15668" lon="4.68396">
        <ele>271</ele>
        <time>2016-11-03T15:36:12Z</time>
      </trkpt>
      <trkpt lat="46.15674" lon="4.68389">
        <ele>271</ele>
        <time>2016-11-03T15:36:20Z</time>
      </trkpt>
      <trkpt lat="46.15675" lon="4.68388">
        <ele>271</ele>
        <time>2016-11-03T15:36:21Z</time>
      </trkpt>
      <trkpt lat="46.15681" lon="4.6838">
        <ele>271</ele>
        <time>2016-11-03T15:36:29Z</time>
      </trkpt>
      <trkpt lat="46.15682" lon="4.68378">
        <ele>271</ele>
        <time>2016-11-03T15:36:30Z</time>
      </trkpt>
      <trkpt lat="46.15689" lon="4.6837">
        <ele>271</ele>
        <time>2016-11-03T15:36:38Z</time>
      </trkpt>
      <trkpt lat="46.15689" lon="4.68369">
        <ele>271</ele>
        <time>2016-11-03T15:36:39Z</time>
      </trkpt>
      <trkpt lat="46.15696" lon="4.68362">
        <ele>271</ele>
        <time>2016-11-03T15:36:46Z</time>
      </trkpt>
      <trkpt lat="46.15697" lon="4.68361">
        <ele>271</ele>
        <time>2016-11-03T15:36:47Z</time>
      </trkpt>
      <trkpt lat="46.15702" lon="4.68352">
        <ele>271</ele>
        <time>2016-11-03T15:36:54Z</time>
      </trkpt>
      <trkpt lat="46.15703" lon="4.68351">
        <ele>271</ele>
        <time>2016-11-03T15:36:55Z</time>
      </trkpt>
      <trkpt lat="46.15708" lon="4.68341">
        <ele>271</ele>
        <time>2016-11-03T15:37:03Z</time>
      </trkpt>
      <trkpt lat="46.15709" lon="4.6834">
        <ele>271</ele>
        <time>2016-11-03T15:37:04Z</time>
      </trkpt>
      <trkpt lat="46.15716" lon="4.68331">
        <ele>274</ele>
        <time>2016-11-03T15:37:12Z</time>
      </trkpt>
      <trkpt lat="46.15716" lon="4.6833">
        <ele>274</ele>
        <time>2016-11-03T15:37:13Z</time>
      </trkpt>
      <trkpt lat="46.15723" lon="4.68323">
        <ele>274</ele>
        <time>2016-11-03T15:37:20Z</time>
      </trkpt>
      <trkpt lat="46.15723" lon="4.68322">
        <ele>274</ele>
        <time>2016-11-03T15:37:21Z</time>
      </trkpt>
      <trkpt lat="46.15729" lon="4.68313">
        <ele>274</ele>
        <time>2016-11-03T15:37:28Z</time>
      </trkpt>
      <trkpt lat="46.1573" lon="4.68312">
        <ele>274</ele>
        <time>2016-11-03T15:37:29Z</time>
      </trkpt>
      <trkpt lat="46.15738" lon="4.68306">
        <ele>274</ele>
        <time>2016-11-03T15:37:37Z</time>
      </trkpt>
      <trkpt lat="46.15739" lon="4.68305">
        <ele>274</ele>
        <time>2016-11-03T15:37:38Z</time>
      </trkpt>
      <trkpt lat="46.15745" lon="4.68297">
        <ele>275</ele>
        <time>2016-11-03T15:37:45Z</time>
      </trkpt>
      <trkpt lat="46.15746" lon="4.68296">
        <ele>275</ele>
        <time>2016-11-03T15:37:46Z</time>
      </trkpt>
      <trkpt lat="46.15752" lon="4.68287">
        <ele>274</ele>
        <time>2016-11-03T15:37:54Z</time>
      </trkpt>
      <trkpt lat="46.15753" lon="4.68286">
        <ele>274</ele>
        <time>2016-11-03T15:37:55Z</time>
      </trkpt>
      <trkpt lat="46.15762" lon="4.68284">
        <ele>274</ele>
        <time>2016-11-03T15:38:19Z</time>
      </trkpt>
      <trkpt lat="46.15762" lon="4.68284">
        <ele>274</ele>
        <time>2016-11-03T15:38:20Z</time>
      </trkpt>
      <trkpt lat="46.15771" lon="4.68282">
        <ele>274</ele>
        <time>2016-11-03T15:38:29Z</time>
      </trkpt>
      <trkpt lat="46.15772" lon="4.68281">
        <ele>274</ele>
        <time>2016-11-03T15:38:30Z</time>
      </trkpt>
      <trkpt lat="46.15781" lon="4.68278">
        <ele>274</ele>
        <time>2016-11-03T15:38:37Z</time>
      </trkpt>
      <trkpt lat="46.15782" lon="4.68278">
        <ele>274</ele>
        <time>2016-11-03T15:38:38Z</time>
      </trkpt>
      <trkpt lat="46.1579" lon="4.68275">
        <ele>274</ele>
        <time>2016-11-03T15:38:46Z</time>
      </trkpt>
      <trkpt lat="46.15791" lon="4.68275">
        <ele>274</ele>
        <time>2016-11-03T15:38:47Z</time>
      </trkpt>
      <trkpt lat="46.15799" lon="4.68272">
        <ele>274</ele>
        <time>2016-11-03T15:38:55Z</time>
      </trkpt>
      <trkpt lat="46.158" lon="4.68271">
        <ele>274</ele>
        <time>2016-11-03T15:38:56Z</time>
      </trkpt>
      <trkpt lat="46.15809" lon="4.68268">
        <ele>274</ele>
        <time>2016-11-03T15:39:03Z</time>
      </trkpt>
      <trkpt lat="46.1581" lon="4.68268">
        <ele>274</ele>
        <time>2016-11-03T15:39:04Z</time>
      </trkpt>
      <trkpt lat="46.15818" lon="4.68266">
        <ele>275</ele>
        <time>2016-11-03T15:39:10Z</time>
      </trkpt>
      <trkpt lat="46.15819" lon="4.68265">
        <ele>275</ele>
        <time>2016-11-03T15:39:11Z</time>
      </trkpt>
      <trkpt lat="46.15827" lon="4.68261">
        <ele>275</ele>
        <time>2016-11-03T15:39:17Z</time>
      </trkpt>
      <trkpt lat="46.15829" lon="4.6826">
        <ele>275</ele>
        <time>2016-11-03T15:39:18Z</time>
      </trkpt>
      <trkpt lat="46.15837" lon="4.68259">
        <ele>275</ele>
        <time>2016-11-03T15:39:26Z</time>
      </trkpt>
      <trkpt lat="46.15838" lon="4.68259">
        <ele>275</ele>
        <time>2016-11-03T15:39:27Z</time>
      </trkpt>
      <trkpt lat="46.15846" lon="4.68258">
        <ele>275</ele>
        <time>2016-11-03T15:39:36Z</time>
      </trkpt>
      <trkpt lat="46.15847" lon="4.68258">
        <ele>275</ele>
        <time>2016-11-03T15:39:37Z</time>
      </trkpt>
      <trkpt lat="46.15856" lon="4.68257">
        <ele>275</ele>
        <time>2016-11-03T15:39:45Z</time>
      </trkpt>
      <trkpt lat="46.15857" lon="4.68257">
        <ele>275</ele>
        <time>2016-11-03T15:39:46Z</time>
      </trkpt>
      <trkpt lat="46.15865" lon="4.68255">
        <ele>275</ele>
        <time>2016-11-03T15:39:53Z</time>
      </trkpt>
      <trkpt lat="46.15866" lon="4.68255">
        <ele>275</ele>
        <time>2016-11-03T15:39:54Z</time>
      </trkpt>
      <trkpt lat="46.15874" lon="4.68251">
        <ele>275</ele>
        <time>2016-11-03T15:40:01Z</time>
      </trkpt>
      <trkpt lat="46.15875" lon="4.6825">
        <ele>278</ele>
        <time>2016-11-03T15:40:02Z</time>
      </trkpt>
      <trkpt lat="46.15882" lon="4.68245">
        <ele>278</ele>
        <time>2016-11-03T15:40:08Z</time>
      </trkpt>
      <trkpt lat="46.15883" lon="4.68245">
        <ele>278</ele>
        <time>2016-11-03T15:40:09Z</time>
      </trkpt>
      <trkpt lat="46.15892" lon="4.68243">
        <ele>278</ele>
        <time>2016-11-03T15:40:16Z</time>
      </trkpt>
      <trkpt lat="46.15893" lon="4.68243">
        <ele>278</ele>
        <time>2016-11-03T15:40:17Z</time>
      </trkpt>
      <trkpt lat="46.15902" lon="4.68241">
        <ele>278</ele>
        <time>2016-11-03T15:40:24Z</time>
      </trkpt>
      <trkpt lat="46.15903" lon="4.68241">
        <ele>278</ele>
        <time>2016-11-03T15:40:25Z</time>
      </trkpt>
      <trkpt lat="46.15912" lon="4.68239">
        <ele>278</ele>
        <time>2016-11-03T15:40:32Z</time>
      </trkpt>
      <trkpt lat="46.15913" lon="4.68239">
        <ele>278</ele>
        <time>2016-11-03T15:40:33Z</time>
      </trkpt>
      <trkpt lat="46.15922" lon="4.68238">
        <ele>278</ele>
        <time>2016-11-03T15:40:40Z</time>
      </trkpt>
      <trkpt lat="46.15923" lon="4.68238">
        <ele>278</ele>
        <time>2016-11-03T15:40:41Z</time>
      </trkpt>
      <trkpt lat="46.15931" lon="4.68238">
        <ele>278</ele>
        <time>2016-11-03T15:40:48Z</time>
      </trkpt>
      <trkpt lat="46.15933" lon="4.68238">
        <ele>278</ele>
        <time>2016-11-03T15:40:49Z</time>
      </trkpt>
      <trkpt lat="46.1594" lon="4.68237">
        <ele>278</ele>
        <time>2016-11-03T15:40:55Z</time>
      </trkpt>
      <trkpt lat="46.15942" lon="4.68237">
        <ele>278</ele>
        <time>2016-11-03T15:40:56Z</time>
      </trkpt>
      <trkpt lat="46.15949" lon="4.68235">
        <ele>278</ele>
        <time>2016-11-03T15:41:02Z</time>
      </trkpt>
      <trkpt lat="46.15951" lon="4.68235">
        <ele>278</ele>
        <time>2016-11-03T15:41:03Z</time>
      </trkpt>
      <trkpt lat="46.15959" lon="4.68234">
        <ele>278</ele>
        <time>2016-11-03T15:41:10Z</time>
      </trkpt>
      <trkpt lat="46.15961" lon="4.68234">
        <ele>278</ele>
        <time>2016-11-03T15:41:11Z</time>
      </trkpt>
      <trkpt lat="46.15969" lon="4.6823">
        <ele>278</ele>
        <time>2016-11-03T15:41:18Z</time>
      </trkpt>
      <trkpt lat="46.1597" lon="4.68229">
        <ele>278</ele>
        <time>2016-11-03T15:41:19Z</time>
      </trkpt>
      <trkpt lat="46.15977" lon="4.68221">
        <ele>278</ele>
        <time>2016-11-03T15:41:25Z</time>
      </trkpt>
      <trkpt lat="46.15977" lon="4.6822">
        <ele>278</ele>
        <time>2016-11-03T15:41:26Z</time>
      </trkpt>
      <trkpt lat="46.15983" lon="4.68212">
        <ele>278</ele>
        <time>2016-11-03T15:41:33Z</time>
      </trkpt>
      <trkpt lat="46.15984" lon="4.68211">
        <ele>278</ele>
        <time>2016-11-03T15:41:34Z</time>
      </trkpt>
      <trkpt lat="46.1599" lon="4.68202">
        <ele>278</ele>
        <time>2016-11-03T15:41:41Z</time>
      </trkpt>
      <trkpt lat="46.15991" lon="4.68201">
        <ele>278</ele>
        <time>2016-11-03T15:41:42Z</time>
      </trkpt>
      <trkpt lat="46.15996" lon="4.68192">
        <ele>279</ele>
        <time>2016-11-03T15:41:51Z</time>
      </trkpt>
      <trkpt lat="46.15996" lon="4.6819">
        <ele>279</ele>
        <time>2016-11-03T15:41:52Z</time>
      </trkpt>
      <trkpt lat="46.16" lon="4.68179">
        <ele>279</ele>
        <time>2016-11-03T15:42:02Z</time>
      </trkpt>
      <trkpt lat="46.16" lon="4.68178">
        <ele>279</ele>
        <time>2016-11-03T15:42:03Z</time>
      </trkpt>
      <trkpt lat="46.16006" lon="4.68171">
        <ele>279</ele>
        <time>2016-11-03T15:42:10Z</time>
      </trkpt>
      <trkpt lat="46.16007" lon="4.6817">
        <ele>279</ele>
        <time>2016-11-03T15:42:11Z</time>
      </trkpt>
      <trkpt lat="46.16013" lon="4.68163">
        <ele>280</ele>
        <time>2016-11-03T15:42:17Z</time>
      </trkpt>
      <trkpt lat="46.16014" lon="4.68161">
        <ele>281</ele>
        <time>2016-11-03T15:42:18Z</time>
      </trkpt>
      <trkpt lat="46.16019" lon="4.68152">
        <ele>281</ele>
        <time>2016-11-03T15:42:25Z</time>
      </trkpt>
      <trkpt lat="46.1602" lon="4.68151">
        <ele>281</ele>
        <time>2016-11-03T15:42:26Z</time>
      </trkpt>
      <trkpt lat="46.16024" lon="4.68139">
        <ele>282</ele>
        <time>2016-11-03T15:42:36Z</time>
      </trkpt>
      <trkpt lat="46.16025" lon="4.68138">
        <ele>282</ele>
        <time>2016-11-03T15:42:37Z</time>
      </trkpt>
      <trkpt lat="46.1603" lon="4.6813">
        <ele>282</ele>
        <time>2016-11-03T15:42:43Z</time>
      </trkpt>
      <trkpt lat="46.16031" lon="4.68128">
        <ele>282</ele>
        <time>2016-11-03T15:42:44Z</time>
      </trkpt>
      <trkpt lat="46.16036" lon="4.6812">
        <ele>283</ele>
        <time>2016-11-03T15:42:50Z</time>
      </trkpt>
      <trkpt lat="46.16037" lon="4.68119">
        <ele>283</ele>
        <time>2016-11-03T15:42:51Z</time>
      </trkpt>
      <trkpt lat="46.16041" lon="4.68107">
        <ele>283</ele>
        <time>2016-11-03T15:43:02Z</time>
      </trkpt>
      <trkpt lat="46.16041" lon="4.68106">
        <ele>283</ele>
        <time>2016-11-03T15:43:03Z</time>
      </trkpt>
      <trkpt lat="46.16044" lon="4.68093">
        <ele>283</ele>
        <time>2016-11-03T15:43:11Z</time>
      </trkpt>
      <trkpt lat="46.16044" lon="4.68092">
        <ele>283</ele>
        <time>2016-11-03T15:43:12Z</time>
      </trkpt>
      <trkpt lat="46.16043" lon="4.68079">
        <ele>287</ele>
        <time>2016-11-03T15:43:20Z</time>
      </trkpt>
      <trkpt lat="46.16043" lon="4.68078">
        <ele>287</ele>
        <time>2016-11-03T15:43:21Z</time>
      </trkpt>
      <trkpt lat="46.16045" lon="4.68067">
        <ele>287</ele>
        <time>2016-11-03T15:43:29Z</time>
      </trkpt>
      <trkpt lat="46.16046" lon="4.68066">
        <ele>287</ele>
        <time>2016-11-03T15:43:30Z</time>
      </trkpt>
      <trkpt lat="46.16053" lon="4.68057">
        <ele>287</ele>
        <time>2016-11-03T15:43:37Z</time>
      </trkpt>
      <trkpt lat="46.16054" lon="4.68057">
        <ele>287</ele>
        <time>2016-11-03T15:43:38Z</time>
      </trkpt>
      <trkpt lat="46.16062" lon="4.68055">
        <ele>287</ele>
        <time>2016-11-03T15:43:46Z</time>
      </trkpt>
      <trkpt lat="46.16063" lon="4.68055">
        <ele>287</ele>
        <time>2016-11-03T15:43:47Z</time>
      </trkpt>
      <trkpt lat="46.16072" lon="4.68055">
        <ele>287</ele>
        <time>2016-11-03T15:43:55Z</time>
      </trkpt>
      <trkpt lat="46.16073" lon="4.68055">
        <ele>287</ele>
        <time>2016-11-03T15:43:56Z</time>
      </trkpt>
      <trkpt lat="46.16082" lon="4.68052">
        <ele>287</ele>
        <time>2016-11-03T15:44:11Z</time>
      </trkpt>
      <trkpt lat="46.16083" lon="4.68053">
        <ele>287</ele>
        <time>2016-11-03T15:44:12Z</time>
      </trkpt>
      <trkpt lat="46.16091" lon="4.6805">
        <ele>287</ele>
        <time>2016-11-03T15:44:21Z</time>
      </trkpt>
      <trkpt lat="46.16092" lon="4.6805">
        <ele>287</ele>
        <time>2016-11-03T15:44:22Z</time>
      </trkpt>
      <trkpt lat="46.16101" lon="4.68046">
        <ele>288</ele>
        <time>2016-11-03T15:44:31Z</time>
      </trkpt>
      <trkpt lat="46.16101" lon="4.68046">
        <ele>288</ele>
        <time>2016-11-03T15:44:32Z</time>
      </trkpt>
      <trkpt lat="46.16109" lon="4.68042">
        <ele>288</ele>
        <time>2016-11-03T15:44:41Z</time>
      </trkpt>
      <trkpt lat="46.1611" lon="4.68042">
        <ele>288</ele>
        <time>2016-11-03T15:44:42Z</time>
      </trkpt>
      <trkpt lat="46.16118" lon="4.68037">
        <ele>288</ele>
        <time>2016-11-03T15:44:48Z</time>
      </trkpt>
      <trkpt lat="46.16119" lon="4.68036">
        <ele>288</ele>
        <time>2016-11-03T15:44:49Z</time>
      </trkpt>
      <trkpt lat="46.16127" lon="4.68033">
        <ele>288</ele>
        <time>2016-11-03T15:45:04Z</time>
      </trkpt>
      <trkpt lat="46.16128" lon="4.68033">
        <ele>288</ele>
        <time>2016-11-03T15:45:05Z</time>
      </trkpt>
      <trkpt lat="46.1613" lon="4.68021">
        <ele>288</ele>
        <time>2016-11-03T15:45:14Z</time>
      </trkpt>
      <trkpt lat="46.1613" lon="4.68019">
        <ele>288</ele>
        <time>2016-11-03T15:45:15Z</time>
      </trkpt>
      <trkpt lat="46.16128" lon="4.68008">
        <ele>289</ele>
        <time>2016-11-03T15:45:23Z</time>
      </trkpt>
      <trkpt lat="46.16128" lon="4.68006">
        <ele>289</ele>
        <time>2016-11-03T15:45:24Z</time>
      </trkpt>
      <trkpt lat="46.1613" lon="4.67995">
        <ele>292</ele>
        <time>2016-11-03T15:45:30Z</time>
      </trkpt>
      <trkpt lat="46.1613" lon="4.67993">
        <ele>292</ele>
        <time>2016-11-03T15:45:31Z</time>
      </trkpt>
      <trkpt lat="46.16131" lon="4.67981">
        <ele>292</ele>
        <time>2016-11-03T15:45:38Z</time>
      </trkpt>
      <trkpt lat="46.16131" lon="4.6798">
        <ele>292</ele>
        <time>2016-11-03T15:45:39Z</time>
      </trkpt>
      <trkpt lat="46.16131" lon="4.67968">
        <ele>292</ele>
        <time>2016-11-03T15:45:47Z</time>
      </trkpt>
      <trkpt lat="46.16131" lon="4.67967">
        <ele>292</ele>
        <time>2016-11-03T15:45:48Z</time>
      </trkpt>
      <trkpt lat="46.16133" lon="4.67956">
        <ele>293</ele>
        <time>2016-11-03T15:45:55Z</time>
      </trkpt>
      <trkpt lat="46.16133" lon="4.67954">
        <ele>293</ele>
        <time>2016-11-03T15:45:56Z</time>
      </trkpt>
      <trkpt lat="46.16137" lon="4.67945">
        <ele>293</ele>
        <time>2016-11-03T15:46:05Z</time>
      </trkpt>
      <trkpt lat="46.16138" lon="4.67943">
        <ele>293</ele>
        <time>2016-11-03T15:46:06Z</time>
      </trkpt>
      <trkpt lat="46.16146" lon="4.67937">
        <ele>293</ele>
        <time>2016-11-03T15:46:16Z</time>
      </trkpt>
      <trkpt lat="46.16147" lon="4.67937">
        <ele>293</ele>
        <time>2016-11-03T15:46:17Z</time>
      </trkpt>
      <trkpt lat="46.16154" lon="4.67931">
        <ele>294</ele>
        <time>2016-11-03T15:47:02Z</time>
      </trkpt>
      <trkpt lat="46.16154" lon="4.67931">
        <ele>294</ele>
        <time>2016-11-03T15:47:03Z</time>
      </trkpt>
      <trkpt lat="46.16155" lon="4.67931">
        <ele>294</ele>
        <time>2016-11-03T15:47:07.829Z</time>
      </trkpt>
    </trkseg>
  </trk>
</gpx>